<?xml version="1.0" encoding="UTF-8" standalone="no" ?>
<gpx xmlns="http://www.topografix.com/GPX/1/1" xmlns:xsi="http://www.w3.org/2001/XMLSchema-instance" xsi:schemaLocation="http://www.topografix.com/GPX/1/1 http://www.topografix.com/GPX/1/1/gpx.xsd" version="1.1" creator="VisuGPX - https://www.visugpx.com">
  <metadata>
    <name>11432096-Mythic 2018</name>
  </metadata>
  <trk>
    <name><![CDATA[11432096-Mythic 2018]]></name>
    <trkseg>
      <trkpt lat="45.05027" lon="5.56214">
        <ele>1206</ele>
        <time>2020-06-17T16:39:19Z</time>
      </trkpt>
      <trkpt lat="45.05028" lon="5.56271">
        <ele>1207</ele>
        <time>2020-06-17T16:39:28Z</time>
      </trkpt>
      <trkpt lat="45.05025" lon="5.56284">
        <ele>1207</ele>
        <time>2020-06-17T16:39:31Z</time>
      </trkpt>
      <trkpt lat="45.05019" lon="5.56284">
        <ele>1207</ele>
        <time>2020-06-17T16:39:32Z</time>
      </trkpt>
      <trkpt lat="45.05003" lon="5.56271">
        <ele>1206</ele>
        <time>2020-06-17T16:39:36Z</time>
      </trkpt>
      <trkpt lat="45.04987" lon="5.56263">
        <ele>1207</ele>
        <time>2020-06-17T16:39:40Z</time>
      </trkpt>
      <trkpt lat="45.04981" lon="5.56265">
        <ele>1208</ele>
        <time>2020-06-17T16:39:42Z</time>
      </trkpt>
      <trkpt lat="45.04979" lon="5.5627">
        <ele>1209</ele>
        <time>2020-06-17T16:39:43Z</time>
      </trkpt>
      <trkpt lat="45.04986" lon="5.56283">
        <ele>1208</ele>
        <time>2020-06-17T16:39:45Z</time>
      </trkpt>
      <trkpt lat="45.04991" lon="5.56301">
        <ele>1208</ele>
        <time>2020-06-17T16:39:49Z</time>
      </trkpt>
      <trkpt lat="45.04999" lon="5.56318">
        <ele>1208</ele>
        <time>2020-06-17T16:39:52Z</time>
      </trkpt>
      <trkpt lat="45.05" lon="5.56326">
        <ele>1208</ele>
        <time>2020-06-17T16:39:53Z</time>
      </trkpt>
      <trkpt lat="45.04999" lon="5.5634">
        <ele>1209</ele>
        <time>2020-06-17T16:39:56Z</time>
      </trkpt>
      <trkpt lat="45.0499" lon="5.56365">
        <ele>1213</ele>
        <time>2020-06-17T16:40:00Z</time>
      </trkpt>
      <trkpt lat="45.0499" lon="5.56382">
        <ele>1215</ele>
        <time>2020-06-17T16:40:03Z</time>
      </trkpt>
      <trkpt lat="45.05008" lon="5.56425">
        <ele>1219</ele>
        <time>2020-06-17T16:40:11Z</time>
      </trkpt>
      <trkpt lat="45.05031" lon="5.56456">
        <ele>1224</ele>
        <time>2020-06-17T16:40:19Z</time>
      </trkpt>
      <trkpt lat="45.0504" lon="5.56462">
        <ele>1225</ele>
        <time>2020-06-17T16:40:21Z</time>
      </trkpt>
      <trkpt lat="45.05063" lon="5.56461">
        <ele>1225</ele>
        <time>2020-06-17T16:40:26Z</time>
      </trkpt>
      <trkpt lat="45.05094" lon="5.56481">
        <ele>1231</ele>
        <time>2020-06-17T16:40:34Z</time>
      </trkpt>
      <trkpt lat="45.05098" lon="5.56482">
        <ele>1232</ele>
        <time>2020-06-17T16:40:35Z</time>
      </trkpt>
      <trkpt lat="45.05104" lon="5.56479">
        <ele>1233</ele>
        <time>2020-06-17T16:40:37Z</time>
      </trkpt>
      <trkpt lat="45.05173" lon="5.56396">
        <ele>1235</ele>
        <time>2020-06-17T16:40:58Z</time>
      </trkpt>
      <trkpt lat="45.05194" lon="5.56347">
        <ele>1233</ele>
        <time>2020-06-17T16:41:07Z</time>
      </trkpt>
      <trkpt lat="45.05213" lon="5.56292">
        <ele>1232</ele>
        <time>2020-06-17T16:41:18Z</time>
      </trkpt>
      <trkpt lat="45.05216" lon="5.56292">
        <ele>1233</ele>
        <time>2020-06-17T16:41:18Z</time>
      </trkpt>
      <trkpt lat="45.05221" lon="5.563">
        <ele>1233</ele>
        <time>2020-06-17T16:41:20Z</time>
      </trkpt>
      <trkpt lat="45.05217" lon="5.56347">
        <ele>1234</ele>
        <time>2020-06-17T16:41:28Z</time>
      </trkpt>
      <trkpt lat="45.052" lon="5.56418">
        <ele>1239</ele>
        <time>2020-06-17T16:41:40Z</time>
      </trkpt>
      <trkpt lat="45.05194" lon="5.56435">
        <ele>1241</ele>
        <time>2020-06-17T16:41:43Z</time>
      </trkpt>
      <trkpt lat="45.05156" lon="5.56608">
        <ele>1263</ele>
        <time>2020-06-17T16:42:13Z</time>
      </trkpt>
      <trkpt lat="45.05136" lon="5.56663">
        <ele>1266</ele>
        <time>2020-06-17T16:42:23Z</time>
      </trkpt>
      <trkpt lat="45.05125" lon="5.56702">
        <ele>1270</ele>
        <time>2020-06-17T16:42:30Z</time>
      </trkpt>
      <trkpt lat="45.05094" lon="5.56765">
        <ele>1275</ele>
        <time>2020-06-17T16:42:43Z</time>
      </trkpt>
      <trkpt lat="45.05088" lon="5.56775">
        <ele>1275</ele>
        <time>2020-06-17T16:42:45Z</time>
      </trkpt>
      <trkpt lat="45.0507" lon="5.56793">
        <ele>1277</ele>
        <time>2020-06-17T16:42:50Z</time>
      </trkpt>
      <trkpt lat="45.05042" lon="5.56811">
        <ele>1279</ele>
        <time>2020-06-17T16:42:57Z</time>
      </trkpt>
      <trkpt lat="45.0502" lon="5.56819">
        <ele>1279</ele>
        <time>2020-06-17T16:43:03Z</time>
      </trkpt>
      <trkpt lat="45.04998" lon="5.56818">
        <ele>1277</ele>
        <time>2020-06-17T16:43:08Z</time>
      </trkpt>
      <trkpt lat="45.04938" lon="5.56804">
        <ele>1282</ele>
        <time>2020-06-17T16:43:22Z</time>
      </trkpt>
      <trkpt lat="45.04906" lon="5.56792">
        <ele>1284</ele>
        <time>2020-06-17T16:43:30Z</time>
      </trkpt>
      <trkpt lat="45.04897" lon="5.56791">
        <ele>1285</ele>
        <time>2020-06-17T16:43:32Z</time>
      </trkpt>
      <trkpt lat="45.04857" lon="5.56793">
        <ele>1292</ele>
        <time>2020-06-17T16:43:41Z</time>
      </trkpt>
      <trkpt lat="45.0481" lon="5.56808">
        <ele>1297</ele>
        <time>2020-06-17T16:43:53Z</time>
      </trkpt>
      <trkpt lat="45.04752" lon="5.56838">
        <ele>1304</ele>
        <time>2020-06-17T16:44:07Z</time>
      </trkpt>
      <trkpt lat="45.04715" lon="5.56869">
        <ele>1311</ele>
        <time>2020-06-17T16:44:17Z</time>
      </trkpt>
      <trkpt lat="45.04684" lon="5.56888">
        <ele>1315</ele>
        <time>2020-06-17T16:44:25Z</time>
      </trkpt>
      <trkpt lat="45.04676" lon="5.56897">
        <ele>1317</ele>
        <time>2020-06-17T16:44:27Z</time>
      </trkpt>
      <trkpt lat="45.04654" lon="5.56914">
        <ele>1323</ele>
        <time>2020-06-17T16:44:33Z</time>
      </trkpt>
      <trkpt lat="45.0461" lon="5.56941">
        <ele>1330</ele>
        <time>2020-06-17T16:44:44Z</time>
      </trkpt>
      <trkpt lat="45.04597" lon="5.56954">
        <ele>1333</ele>
        <time>2020-06-17T16:44:48Z</time>
      </trkpt>
      <trkpt lat="45.04572" lon="5.56988">
        <ele>1342</ele>
        <time>2020-06-17T16:44:56Z</time>
      </trkpt>
      <trkpt lat="45.04561" lon="5.57004">
        <ele>1348</ele>
        <time>2020-06-17T16:45:00Z</time>
      </trkpt>
      <trkpt lat="45.04555" lon="5.57019">
        <ele>1351</ele>
        <time>2020-06-17T16:45:03Z</time>
      </trkpt>
      <trkpt lat="45.0456" lon="5.57069">
        <ele>1356</ele>
        <time>2020-06-17T16:45:11Z</time>
      </trkpt>
      <trkpt lat="45.0457" lon="5.57106">
        <ele>1357</ele>
        <time>2020-06-17T16:45:18Z</time>
      </trkpt>
      <trkpt lat="45.04576" lon="5.57117">
        <ele>1356</ele>
        <time>2020-06-17T16:45:20Z</time>
      </trkpt>
      <trkpt lat="45.04588" lon="5.57125">
        <ele>1354</ele>
        <time>2020-06-17T16:45:23Z</time>
      </trkpt>
      <trkpt lat="45.04596" lon="5.57122">
        <ele>1353</ele>
        <time>2020-06-17T16:45:25Z</time>
      </trkpt>
      <trkpt lat="45.0464" lon="5.57086">
        <ele>1348</ele>
        <time>2020-06-17T16:45:37Z</time>
      </trkpt>
      <trkpt lat="45.0467" lon="5.5707">
        <ele>1347</ele>
        <time>2020-06-17T16:45:44Z</time>
      </trkpt>
      <trkpt lat="45.04736" lon="5.57007">
        <ele>1346</ele>
        <time>2020-06-17T16:46:03Z</time>
      </trkpt>
      <trkpt lat="45.04753" lon="5.56995">
        <ele>1345</ele>
        <time>2020-06-17T16:46:07Z</time>
      </trkpt>
      <trkpt lat="45.04766" lon="5.5699">
        <ele>1343</ele>
        <time>2020-06-17T16:46:10Z</time>
      </trkpt>
      <trkpt lat="45.04795" lon="5.56984">
        <ele>1339</ele>
        <time>2020-06-17T16:46:17Z</time>
      </trkpt>
      <trkpt lat="45.04834" lon="5.56985">
        <ele>1336</ele>
        <time>2020-06-17T16:46:26Z</time>
      </trkpt>
      <trkpt lat="45.04848" lon="5.56988">
        <ele>1335</ele>
        <time>2020-06-17T16:46:30Z</time>
      </trkpt>
      <trkpt lat="45.0486" lon="5.56994">
        <ele>1336</ele>
        <time>2020-06-17T16:46:33Z</time>
      </trkpt>
      <trkpt lat="45.04865" lon="5.57004">
        <ele>1337</ele>
        <time>2020-06-17T16:46:35Z</time>
      </trkpt>
      <trkpt lat="45.04865" lon="5.57014">
        <ele>1339</ele>
        <time>2020-06-17T16:46:36Z</time>
      </trkpt>
      <trkpt lat="45.04861" lon="5.57026">
        <ele>1341</ele>
        <time>2020-06-17T16:46:39Z</time>
      </trkpt>
      <trkpt lat="45.04839" lon="5.57061">
        <ele>1346</ele>
        <time>2020-06-17T16:46:46Z</time>
      </trkpt>
      <trkpt lat="45.0482" lon="5.57108">
        <ele>1350</ele>
        <time>2020-06-17T16:46:55Z</time>
      </trkpt>
      <trkpt lat="45.04809" lon="5.57125">
        <ele>1349</ele>
        <time>2020-06-17T16:46:59Z</time>
      </trkpt>
      <trkpt lat="45.04805" lon="5.57123">
        <ele>1348</ele>
        <time>2020-06-17T16:47:00Z</time>
      </trkpt>
      <trkpt lat="45.04799" lon="5.5713">
        <ele>1347</ele>
        <time>2020-06-17T16:47:02Z</time>
      </trkpt>
      <trkpt lat="45.04786" lon="5.57186">
        <ele>1345</ele>
        <time>2020-06-17T16:47:12Z</time>
      </trkpt>
      <trkpt lat="45.04776" lon="5.57207">
        <ele>1341</ele>
        <time>2020-06-17T16:47:16Z</time>
      </trkpt>
      <trkpt lat="45.04773" lon="5.57258">
        <ele>1341</ele>
        <time>2020-06-17T16:47:24Z</time>
      </trkpt>
      <trkpt lat="45.04777" lon="5.57281">
        <ele>1343</ele>
        <time>2020-06-17T16:47:28Z</time>
      </trkpt>
      <trkpt lat="45.04777" lon="5.57314">
        <ele>1344</ele>
        <time>2020-06-17T16:47:33Z</time>
      </trkpt>
      <trkpt lat="45.04781" lon="5.57346">
        <ele>1345</ele>
        <time>2020-06-17T16:47:39Z</time>
      </trkpt>
      <trkpt lat="45.04788" lon="5.57366">
        <ele>1347</ele>
        <time>2020-06-17T16:47:43Z</time>
      </trkpt>
      <trkpt lat="45.04788" lon="5.57372">
        <ele>1347</ele>
        <time>2020-06-17T16:47:44Z</time>
      </trkpt>
      <trkpt lat="45.04787" lon="5.57376">
        <ele>1346</ele>
        <time>2020-06-17T16:47:44Z</time>
      </trkpt>
      <trkpt lat="45.0478" lon="5.57382">
        <ele>1345</ele>
        <time>2020-06-17T16:47:46Z</time>
      </trkpt>
      <trkpt lat="45.04765" lon="5.57386">
        <ele>1342</ele>
        <time>2020-06-17T16:47:50Z</time>
      </trkpt>
      <trkpt lat="45.04759" lon="5.57395">
        <ele>1342</ele>
        <time>2020-06-17T16:47:52Z</time>
      </trkpt>
      <trkpt lat="45.04765" lon="5.57411">
        <ele>1343</ele>
        <time>2020-06-17T16:47:55Z</time>
      </trkpt>
      <trkpt lat="45.04777" lon="5.57423">
        <ele>1343</ele>
        <time>2020-06-17T16:47:58Z</time>
      </trkpt>
      <trkpt lat="45.04785" lon="5.57439">
        <ele>1340</ele>
        <time>2020-06-17T16:48:01Z</time>
      </trkpt>
      <trkpt lat="45.04784" lon="5.5747">
        <ele>1332</ele>
        <time>2020-06-17T16:48:07Z</time>
      </trkpt>
      <trkpt lat="45.04787" lon="5.57477">
        <ele>1331</ele>
        <time>2020-06-17T16:48:08Z</time>
      </trkpt>
      <trkpt lat="45.04782" lon="5.57489">
        <ele>1328</ele>
        <time>2020-06-17T16:48:10Z</time>
      </trkpt>
      <trkpt lat="45.04775" lon="5.57496">
        <ele>1327</ele>
        <time>2020-06-17T16:48:12Z</time>
      </trkpt>
      <trkpt lat="45.04768" lon="5.57513">
        <ele>1325</ele>
        <time>2020-06-17T16:48:15Z</time>
      </trkpt>
      <trkpt lat="45.04724" lon="5.57571">
        <ele>1320</ele>
        <time>2020-06-17T16:48:29Z</time>
      </trkpt>
      <trkpt lat="45.04707" lon="5.57621">
        <ele>1317</ele>
        <time>2020-06-17T16:48:39Z</time>
      </trkpt>
      <trkpt lat="45.04697" lon="5.57628">
        <ele>1317</ele>
        <time>2020-06-17T16:48:41Z</time>
      </trkpt>
      <trkpt lat="45.04698" lon="5.57632">
        <ele>1317</ele>
        <time>2020-06-17T16:48:42Z</time>
      </trkpt>
      <trkpt lat="45.047" lon="5.57634">
        <ele>1317</ele>
        <time>2020-06-17T16:48:42Z</time>
      </trkpt>
      <trkpt lat="45.04721" lon="5.57636">
        <ele>1316</ele>
        <time>2020-06-17T16:48:47Z</time>
      </trkpt>
      <trkpt lat="45.04761" lon="5.57657">
        <ele>1313</ele>
        <time>2020-06-17T16:48:57Z</time>
      </trkpt>
      <trkpt lat="45.04777" lon="5.57659">
        <ele>1312</ele>
        <time>2020-06-17T16:49:01Z</time>
      </trkpt>
      <trkpt lat="45.04789" lon="5.57665">
        <ele>1311</ele>
        <time>2020-06-17T16:49:04Z</time>
      </trkpt>
      <trkpt lat="45.04808" lon="5.57661">
        <ele>1309</ele>
        <time>2020-06-17T16:49:09Z</time>
      </trkpt>
      <trkpt lat="45.04823" lon="5.57661">
        <ele>1308</ele>
        <time>2020-06-17T16:49:12Z</time>
      </trkpt>
      <trkpt lat="45.0484" lon="5.57667">
        <ele>1306</ele>
        <time>2020-06-17T16:49:16Z</time>
      </trkpt>
      <trkpt lat="45.04859" lon="5.57663">
        <ele>1302</ele>
        <time>2020-06-17T16:49:21Z</time>
      </trkpt>
      <trkpt lat="45.04868" lon="5.57667">
        <ele>1300</ele>
        <time>2020-06-17T16:49:23Z</time>
      </trkpt>
      <trkpt lat="45.0488" lon="5.57662">
        <ele>1298</ele>
        <time>2020-06-17T16:49:26Z</time>
      </trkpt>
      <trkpt lat="45.04892" lon="5.57653">
        <ele>1296</ele>
        <time>2020-06-17T16:49:29Z</time>
      </trkpt>
      <trkpt lat="45.04947" lon="5.57629">
        <ele>1291</ele>
        <time>2020-06-17T16:49:42Z</time>
      </trkpt>
      <trkpt lat="45.04965" lon="5.57615">
        <ele>1292</ele>
        <time>2020-06-17T16:49:47Z</time>
      </trkpt>
      <trkpt lat="45.04979" lon="5.57612">
        <ele>1292</ele>
        <time>2020-06-17T16:49:50Z</time>
      </trkpt>
      <trkpt lat="45.05007" lon="5.57611">
        <ele>1291</ele>
        <time>2020-06-17T16:49:57Z</time>
      </trkpt>
      <trkpt lat="45.05032" lon="5.57602">
        <ele>1291</ele>
        <time>2020-06-17T16:50:03Z</time>
      </trkpt>
      <trkpt lat="45.05052" lon="5.57606">
        <ele>1289</ele>
        <time>2020-06-17T16:50:08Z</time>
      </trkpt>
      <trkpt lat="45.05076" lon="5.57615">
        <ele>1285</ele>
        <time>2020-06-17T16:50:14Z</time>
      </trkpt>
      <trkpt lat="45.05153" lon="5.57602">
        <ele>1282</ele>
        <time>2020-06-17T16:50:32Z</time>
      </trkpt>
      <trkpt lat="45.05181" lon="5.57605">
        <ele>1280</ele>
        <time>2020-06-17T16:50:38Z</time>
      </trkpt>
      <trkpt lat="45.05215" lon="5.57603">
        <ele>1282</ele>
        <time>2020-06-17T16:50:46Z</time>
      </trkpt>
      <trkpt lat="45.0523" lon="5.57606">
        <ele>1280</ele>
        <time>2020-06-17T16:50:50Z</time>
      </trkpt>
      <trkpt lat="45.05269" lon="5.57626">
        <ele>1273</ele>
        <time>2020-06-17T16:50:59Z</time>
      </trkpt>
      <trkpt lat="45.05355" lon="5.57654">
        <ele>1267</ele>
        <time>2020-06-17T16:51:20Z</time>
      </trkpt>
      <trkpt lat="45.05374" lon="5.57665">
        <ele>1263</ele>
        <time>2020-06-17T16:51:25Z</time>
      </trkpt>
      <trkpt lat="45.05397" lon="5.57684">
        <ele>1259</ele>
        <time>2020-06-17T16:51:31Z</time>
      </trkpt>
      <trkpt lat="45.05405" lon="5.57687">
        <ele>1259</ele>
        <time>2020-06-17T16:51:33Z</time>
      </trkpt>
      <trkpt lat="45.0547" lon="5.57701">
        <ele>1256</ele>
        <time>2020-06-17T16:51:48Z</time>
      </trkpt>
      <trkpt lat="45.05529" lon="5.57708">
        <ele>1252</ele>
        <time>2020-06-17T16:52:02Z</time>
      </trkpt>
      <trkpt lat="45.05555" lon="5.57707">
        <ele>1251</ele>
        <time>2020-06-17T16:52:08Z</time>
      </trkpt>
      <trkpt lat="45.05573" lon="5.57702">
        <ele>1251</ele>
        <time>2020-06-17T16:52:13Z</time>
      </trkpt>
      <trkpt lat="45.05604" lon="5.5768">
        <ele>1254</ele>
        <time>2020-06-17T16:52:21Z</time>
      </trkpt>
      <trkpt lat="45.0563" lon="5.57647">
        <ele>1259</ele>
        <time>2020-06-17T16:52:29Z</time>
      </trkpt>
      <trkpt lat="45.05637" lon="5.57642">
        <ele>1259</ele>
        <time>2020-06-17T16:52:31Z</time>
      </trkpt>
      <trkpt lat="45.05653" lon="5.57638">
        <ele>1258</ele>
        <time>2020-06-17T16:52:34Z</time>
      </trkpt>
      <trkpt lat="45.0569" lon="5.57666">
        <ele>1249</ele>
        <time>2020-06-17T16:52:44Z</time>
      </trkpt>
      <trkpt lat="45.05689" lon="5.57681">
        <ele>1247</ele>
        <time>2020-06-17T16:52:47Z</time>
      </trkpt>
      <trkpt lat="45.05675" lon="5.57704">
        <ele>1245</ele>
        <time>2020-06-17T16:52:52Z</time>
      </trkpt>
      <trkpt lat="45.05668" lon="5.57731">
        <ele>1242</ele>
        <time>2020-06-17T16:52:56Z</time>
      </trkpt>
      <trkpt lat="45.05668" lon="5.57747">
        <ele>1239</ele>
        <time>2020-06-17T16:52:59Z</time>
      </trkpt>
      <trkpt lat="45.05642" lon="5.57793">
        <ele>1238</ele>
        <time>2020-06-17T16:53:09Z</time>
      </trkpt>
      <trkpt lat="45.05646" lon="5.57812">
        <ele>1237</ele>
        <time>2020-06-17T16:53:12Z</time>
      </trkpt>
      <trkpt lat="45.05661" lon="5.57831">
        <ele>1236</ele>
        <time>2020-06-17T16:53:17Z</time>
      </trkpt>
      <trkpt lat="45.05672" lon="5.57856">
        <ele>1239</ele>
        <time>2020-06-17T16:53:22Z</time>
      </trkpt>
      <trkpt lat="45.05679" lon="5.57859">
        <ele>1240</ele>
        <time>2020-06-17T16:53:23Z</time>
      </trkpt>
      <trkpt lat="45.05686" lon="5.57868">
        <ele>1242</ele>
        <time>2020-06-17T16:53:26Z</time>
      </trkpt>
      <trkpt lat="45.05698" lon="5.57876">
        <ele>1244</ele>
        <time>2020-06-17T16:53:29Z</time>
      </trkpt>
      <trkpt lat="45.05738" lon="5.57867">
        <ele>1243</ele>
        <time>2020-06-17T16:53:38Z</time>
      </trkpt>
      <trkpt lat="45.05757" lon="5.5786">
        <ele>1244</ele>
        <time>2020-06-17T16:53:43Z</time>
      </trkpt>
      <trkpt lat="45.05776" lon="5.57848">
        <ele>1245</ele>
        <time>2020-06-17T16:53:48Z</time>
      </trkpt>
      <trkpt lat="45.05809" lon="5.57817">
        <ele>1245</ele>
        <time>2020-06-17T16:53:57Z</time>
      </trkpt>
      <trkpt lat="45.05821" lon="5.5781">
        <ele>1246</ele>
        <time>2020-06-17T16:54:00Z</time>
      </trkpt>
      <trkpt lat="45.0583" lon="5.57809">
        <ele>1248</ele>
        <time>2020-06-17T16:54:02Z</time>
      </trkpt>
      <trkpt lat="45.05842" lon="5.57803">
        <ele>1249</ele>
        <time>2020-06-17T16:54:05Z</time>
      </trkpt>
      <trkpt lat="45.0587" lon="5.57763">
        <ele>1247</ele>
        <time>2020-06-17T16:54:14Z</time>
      </trkpt>
      <trkpt lat="45.05878" lon="5.57757">
        <ele>1248</ele>
        <time>2020-06-17T16:54:16Z</time>
      </trkpt>
      <trkpt lat="45.05893" lon="5.57738">
        <ele>1248</ele>
        <time>2020-06-17T16:54:21Z</time>
      </trkpt>
      <trkpt lat="45.05902" lon="5.57733">
        <ele>1249</ele>
        <time>2020-06-17T16:54:23Z</time>
      </trkpt>
      <trkpt lat="45.05917" lon="5.57715">
        <ele>1249</ele>
        <time>2020-06-17T16:54:28Z</time>
      </trkpt>
      <trkpt lat="45.05922" lon="5.57702">
        <ele>1249</ele>
        <time>2020-06-17T16:54:30Z</time>
      </trkpt>
      <trkpt lat="45.05937" lon="5.57684">
        <ele>1253</ele>
        <time>2020-06-17T16:54:35Z</time>
      </trkpt>
      <trkpt lat="45.0594" lon="5.5767">
        <ele>1251</ele>
        <time>2020-06-17T16:54:37Z</time>
      </trkpt>
      <trkpt lat="45.05954" lon="5.57633">
        <ele>1251</ele>
        <time>2020-06-17T16:54:44Z</time>
      </trkpt>
      <trkpt lat="45.05965" lon="5.57611">
        <ele>1253</ele>
        <time>2020-06-17T16:54:49Z</time>
      </trkpt>
      <trkpt lat="45.05996" lon="5.5756">
        <ele>1260</ele>
        <time>2020-06-17T16:55:00Z</time>
      </trkpt>
      <trkpt lat="45.06005" lon="5.57555">
        <ele>1263</ele>
        <time>2020-06-17T16:55:02Z</time>
      </trkpt>
      <trkpt lat="45.06019" lon="5.57535">
        <ele>1266</ele>
        <time>2020-06-17T16:55:07Z</time>
      </trkpt>
      <trkpt lat="45.06024" lon="5.57508">
        <ele>1264</ele>
        <time>2020-06-17T16:55:11Z</time>
      </trkpt>
      <trkpt lat="45.06055" lon="5.57448">
        <ele>1269</ele>
        <time>2020-06-17T16:55:24Z</time>
      </trkpt>
      <trkpt lat="45.06056" lon="5.57432">
        <ele>1267</ele>
        <time>2020-06-17T16:55:26Z</time>
      </trkpt>
      <trkpt lat="45.06059" lon="5.57423">
        <ele>1267</ele>
        <time>2020-06-17T16:55:28Z</time>
      </trkpt>
      <trkpt lat="45.06066" lon="5.57413">
        <ele>1269</ele>
        <time>2020-06-17T16:55:30Z</time>
      </trkpt>
      <trkpt lat="45.06075" lon="5.57388">
        <ele>1271</ele>
        <time>2020-06-17T16:55:35Z</time>
      </trkpt>
      <trkpt lat="45.06079" lon="5.57375">
        <ele>1271</ele>
        <time>2020-06-17T16:55:37Z</time>
      </trkpt>
      <trkpt lat="45.06079" lon="5.57366">
        <ele>1270</ele>
        <time>2020-06-17T16:55:39Z</time>
      </trkpt>
      <trkpt lat="45.06087" lon="5.57356">
        <ele>1271</ele>
        <time>2020-06-17T16:55:41Z</time>
      </trkpt>
      <trkpt lat="45.06093" lon="5.57326">
        <ele>1268</ele>
        <time>2020-06-17T16:55:46Z</time>
      </trkpt>
      <trkpt lat="45.06107" lon="5.57283">
        <ele>1262</ele>
        <time>2020-06-17T16:55:54Z</time>
      </trkpt>
      <trkpt lat="45.06123" lon="5.57259">
        <ele>1261</ele>
        <time>2020-06-17T16:55:59Z</time>
      </trkpt>
      <trkpt lat="45.06156" lon="5.57238">
        <ele>1262</ele>
        <time>2020-06-17T16:56:08Z</time>
      </trkpt>
      <trkpt lat="45.06166" lon="5.57237">
        <ele>1264</ele>
        <time>2020-06-17T16:56:10Z</time>
      </trkpt>
      <trkpt lat="45.06177" lon="5.57241">
        <ele>1266</ele>
        <time>2020-06-17T16:56:13Z</time>
      </trkpt>
      <trkpt lat="45.06212" lon="5.57243">
        <ele>1267</ele>
        <time>2020-06-17T16:56:21Z</time>
      </trkpt>
      <trkpt lat="45.06231" lon="5.57251">
        <ele>1270</ele>
        <time>2020-06-17T16:56:26Z</time>
      </trkpt>
      <trkpt lat="45.06248" lon="5.57262">
        <ele>1270</ele>
        <time>2020-06-17T16:56:30Z</time>
      </trkpt>
      <trkpt lat="45.06258" lon="5.57271">
        <ele>1270</ele>
        <time>2020-06-17T16:56:33Z</time>
      </trkpt>
      <trkpt lat="45.06267" lon="5.57291">
        <ele>1271</ele>
        <time>2020-06-17T16:56:37Z</time>
      </trkpt>
      <trkpt lat="45.06269" lon="5.57303">
        <ele>1271</ele>
        <time>2020-06-17T16:56:39Z</time>
      </trkpt>
      <trkpt lat="45.06275" lon="5.57309">
        <ele>1272</ele>
        <time>2020-06-17T16:56:41Z</time>
      </trkpt>
      <trkpt lat="45.06278" lon="5.57324">
        <ele>1273</ele>
        <time>2020-06-17T16:56:43Z</time>
      </trkpt>
      <trkpt lat="45.06281" lon="5.574">
        <ele>1275</ele>
        <time>2020-06-17T16:56:56Z</time>
      </trkpt>
      <trkpt lat="45.0629" lon="5.57447">
        <ele>1275</ele>
        <time>2020-06-17T16:57:04Z</time>
      </trkpt>
      <trkpt lat="45.06289" lon="5.57479">
        <ele>1275</ele>
        <time>2020-06-17T16:57:09Z</time>
      </trkpt>
      <trkpt lat="45.06291" lon="5.57505">
        <ele>1274</ele>
        <time>2020-06-17T16:57:13Z</time>
      </trkpt>
      <trkpt lat="45.06281" lon="5.57512">
        <ele>1275</ele>
        <time>2020-06-17T16:57:16Z</time>
      </trkpt>
      <trkpt lat="45.06277" lon="5.57525">
        <ele>1275</ele>
        <time>2020-06-17T16:57:18Z</time>
      </trkpt>
      <trkpt lat="45.06262" lon="5.57552">
        <ele>1275</ele>
        <time>2020-06-17T16:57:24Z</time>
      </trkpt>
      <trkpt lat="45.0625" lon="5.57603">
        <ele>1276</ele>
        <time>2020-06-17T16:57:33Z</time>
      </trkpt>
      <trkpt lat="45.06239" lon="5.5763">
        <ele>1278</ele>
        <time>2020-06-17T16:57:38Z</time>
      </trkpt>
      <trkpt lat="45.06233" lon="5.57658">
        <ele>1279</ele>
        <time>2020-06-17T16:57:43Z</time>
      </trkpt>
      <trkpt lat="45.06227" lon="5.57674">
        <ele>1281</ele>
        <time>2020-06-17T16:57:46Z</time>
      </trkpt>
      <trkpt lat="45.06224" lon="5.57702">
        <ele>1283</ele>
        <time>2020-06-17T16:57:50Z</time>
      </trkpt>
      <trkpt lat="45.06228" lon="5.57744">
        <ele>1285</ele>
        <time>2020-06-17T16:57:57Z</time>
      </trkpt>
      <trkpt lat="45.06239" lon="5.57736">
        <ele>1284</ele>
        <time>2020-06-17T16:58:00Z</time>
      </trkpt>
      <trkpt lat="45.0626" lon="5.57726">
        <ele>1283</ele>
        <time>2020-06-17T16:58:05Z</time>
      </trkpt>
      <trkpt lat="45.06315" lon="5.57684">
        <ele>1280</ele>
        <time>2020-06-17T16:58:20Z</time>
      </trkpt>
      <trkpt lat="45.0635" lon="5.57666">
        <ele>1276</ele>
        <time>2020-06-17T16:58:29Z</time>
      </trkpt>
      <trkpt lat="45.06367" lon="5.57653">
        <ele>1274</ele>
        <time>2020-06-17T16:58:33Z</time>
      </trkpt>
      <trkpt lat="45.0639" lon="5.57632">
        <ele>1271</ele>
        <time>2020-06-17T16:58:40Z</time>
      </trkpt>
      <trkpt lat="45.06393" lon="5.57627">
        <ele>1270</ele>
        <time>2020-06-17T16:58:41Z</time>
      </trkpt>
      <trkpt lat="45.06394" lon="5.57614">
        <ele>1268</ele>
        <time>2020-06-17T16:58:43Z</time>
      </trkpt>
      <trkpt lat="45.06383" lon="5.57575">
        <ele>1266</ele>
        <time>2020-06-17T16:58:50Z</time>
      </trkpt>
      <trkpt lat="45.06369" lon="5.57545">
        <ele>1268</ele>
        <time>2020-06-17T16:58:56Z</time>
      </trkpt>
      <trkpt lat="45.06371" lon="5.57547">
        <ele>1268</ele>
        <time>2020-06-17T16:58:56Z</time>
      </trkpt>
      <trkpt lat="45.06372" lon="5.57545">
        <ele>1268</ele>
        <time>2020-06-17T16:58:57Z</time>
      </trkpt>
      <trkpt lat="45.06367" lon="5.57522">
        <ele>1269</ele>
        <time>2020-06-17T16:59:01Z</time>
      </trkpt>
      <trkpt lat="45.0637" lon="5.57488">
        <ele>1271</ele>
        <time>2020-06-17T16:59:06Z</time>
      </trkpt>
      <trkpt lat="45.06355" lon="5.5744">
        <ele>1274</ele>
        <time>2020-06-17T16:59:15Z</time>
      </trkpt>
      <trkpt lat="45.06355" lon="5.57396">
        <ele>1274</ele>
        <time>2020-06-17T16:59:22Z</time>
      </trkpt>
      <trkpt lat="45.06374" lon="5.57382">
        <ele>1272</ele>
        <time>2020-06-17T16:59:27Z</time>
      </trkpt>
      <trkpt lat="45.06379" lon="5.57381">
        <ele>1272</ele>
        <time>2020-06-17T16:59:28Z</time>
      </trkpt>
      <trkpt lat="45.06406" lon="5.57389">
        <ele>1271</ele>
        <time>2020-06-17T16:59:35Z</time>
      </trkpt>
      <trkpt lat="45.06417" lon="5.57387">
        <ele>1270</ele>
        <time>2020-06-17T16:59:37Z</time>
      </trkpt>
      <trkpt lat="45.06431" lon="5.57369">
        <ele>1264</ele>
        <time>2020-06-17T16:59:42Z</time>
      </trkpt>
      <trkpt lat="45.06454" lon="5.57364">
        <ele>1256</ele>
        <time>2020-06-17T16:59:47Z</time>
      </trkpt>
      <trkpt lat="45.06464" lon="5.57354">
        <ele>1252</ele>
        <time>2020-06-17T16:59:50Z</time>
      </trkpt>
      <trkpt lat="45.06481" lon="5.57347">
        <ele>1246</ele>
        <time>2020-06-17T16:59:54Z</time>
      </trkpt>
      <trkpt lat="45.06493" lon="5.57336">
        <ele>1241</ele>
        <time>2020-06-17T16:59:58Z</time>
      </trkpt>
      <trkpt lat="45.06502" lon="5.57339">
        <ele>1239</ele>
        <time>2020-06-17T17:00:00Z</time>
      </trkpt>
      <trkpt lat="45.06505" lon="5.57351">
        <ele>1239</ele>
        <time>2020-06-17T17:00:02Z</time>
      </trkpt>
      <trkpt lat="45.06516" lon="5.57372">
        <ele>1236</ele>
        <time>2020-06-17T17:00:06Z</time>
      </trkpt>
      <trkpt lat="45.06523" lon="5.57381">
        <ele>1234</ele>
        <time>2020-06-17T17:00:08Z</time>
      </trkpt>
      <trkpt lat="45.06532" lon="5.57385">
        <ele>1230</ele>
        <time>2020-06-17T17:00:11Z</time>
      </trkpt>
      <trkpt lat="45.06543" lon="5.57371">
        <ele>1225</ele>
        <time>2020-06-17T17:00:14Z</time>
      </trkpt>
      <trkpt lat="45.06556" lon="5.5736">
        <ele>1219</ele>
        <time>2020-06-17T17:00:18Z</time>
      </trkpt>
      <trkpt lat="45.0656" lon="5.57364">
        <ele>1218</ele>
        <time>2020-06-17T17:00:19Z</time>
      </trkpt>
      <trkpt lat="45.06561" lon="5.57355">
        <ele>1217</ele>
        <time>2020-06-17T17:00:20Z</time>
      </trkpt>
      <trkpt lat="45.06577" lon="5.57335">
        <ele>1212</ele>
        <time>2020-06-17T17:00:25Z</time>
      </trkpt>
      <trkpt lat="45.06584" lon="5.57319">
        <ele>1209</ele>
        <time>2020-06-17T17:00:28Z</time>
      </trkpt>
      <trkpt lat="45.06589" lon="5.57315">
        <ele>1206</ele>
        <time>2020-06-17T17:00:30Z</time>
      </trkpt>
      <trkpt lat="45.06594" lon="5.57316">
        <ele>1204</ele>
        <time>2020-06-17T17:00:31Z</time>
      </trkpt>
      <trkpt lat="45.06595" lon="5.57307">
        <ele>1203</ele>
        <time>2020-06-17T17:00:32Z</time>
      </trkpt>
      <trkpt lat="45.06616" lon="5.57271">
        <ele>1192</ele>
        <time>2020-06-17T17:00:40Z</time>
      </trkpt>
      <trkpt lat="45.0662" lon="5.5727">
        <ele>1191</ele>
        <time>2020-06-17T17:00:41Z</time>
      </trkpt>
      <trkpt lat="45.06631" lon="5.57258">
        <ele>1186</ele>
        <time>2020-06-17T17:00:44Z</time>
      </trkpt>
      <trkpt lat="45.06634" lon="5.57258">
        <ele>1185</ele>
        <time>2020-06-17T17:00:45Z</time>
      </trkpt>
      <trkpt lat="45.06636" lon="5.57266">
        <ele>1184</ele>
        <time>2020-06-17T17:00:46Z</time>
      </trkpt>
      <trkpt lat="45.0664" lon="5.57249">
        <ele>1183</ele>
        <time>2020-06-17T17:00:49Z</time>
      </trkpt>
      <trkpt lat="45.0665" lon="5.57229">
        <ele>1180</ele>
        <time>2020-06-17T17:00:53Z</time>
      </trkpt>
      <trkpt lat="45.06653" lon="5.57208">
        <ele>1179</ele>
        <time>2020-06-17T17:00:57Z</time>
      </trkpt>
      <trkpt lat="45.06653" lon="5.57185">
        <ele>1179</ele>
        <time>2020-06-17T17:01:01Z</time>
      </trkpt>
      <trkpt lat="45.06657" lon="5.57178">
        <ele>1179</ele>
        <time>2020-06-17T17:01:02Z</time>
      </trkpt>
      <trkpt lat="45.06661" lon="5.57174">
        <ele>1178</ele>
        <time>2020-06-17T17:01:03Z</time>
      </trkpt>
      <trkpt lat="45.06662" lon="5.57182">
        <ele>1178</ele>
        <time>2020-06-17T17:01:05Z</time>
      </trkpt>
      <trkpt lat="45.06666" lon="5.57179">
        <ele>1177</ele>
        <time>2020-06-17T17:01:06Z</time>
      </trkpt>
      <trkpt lat="45.06673" lon="5.57179">
        <ele>1175</ele>
        <time>2020-06-17T17:01:07Z</time>
      </trkpt>
      <trkpt lat="45.06698" lon="5.57171">
        <ele>1167</ele>
        <time>2020-06-17T17:01:13Z</time>
      </trkpt>
      <trkpt lat="45.06706" lon="5.57174">
        <ele>1164</ele>
        <time>2020-06-17T17:01:15Z</time>
      </trkpt>
      <trkpt lat="45.06715" lon="5.57173">
        <ele>1161</ele>
        <time>2020-06-17T17:01:17Z</time>
      </trkpt>
      <trkpt lat="45.06715" lon="5.57143">
        <ele>1160</ele>
        <time>2020-06-17T17:01:22Z</time>
      </trkpt>
      <trkpt lat="45.06729" lon="5.57134">
        <ele>1155</ele>
        <time>2020-06-17T17:01:26Z</time>
      </trkpt>
      <trkpt lat="45.06731" lon="5.57124">
        <ele>1154</ele>
        <time>2020-06-17T17:01:28Z</time>
      </trkpt>
      <trkpt lat="45.06733" lon="5.57123">
        <ele>1153</ele>
        <time>2020-06-17T17:01:28Z</time>
      </trkpt>
      <trkpt lat="45.06737" lon="5.57126">
        <ele>1152</ele>
        <time>2020-06-17T17:01:29Z</time>
      </trkpt>
      <trkpt lat="45.06744" lon="5.57124">
        <ele>1150</ele>
        <time>2020-06-17T17:01:31Z</time>
      </trkpt>
      <trkpt lat="45.06757" lon="5.57116">
        <ele>1146</ele>
        <time>2020-06-17T17:01:34Z</time>
      </trkpt>
      <trkpt lat="45.06766" lon="5.57105">
        <ele>1143</ele>
        <time>2020-06-17T17:01:37Z</time>
      </trkpt>
      <trkpt lat="45.06776" lon="5.5711">
        <ele>1140</ele>
        <time>2020-06-17T17:01:39Z</time>
      </trkpt>
      <trkpt lat="45.06799" lon="5.57113">
        <ele>1133</ele>
        <time>2020-06-17T17:01:45Z</time>
      </trkpt>
      <trkpt lat="45.06807" lon="5.57121">
        <ele>1131</ele>
        <time>2020-06-17T17:01:47Z</time>
      </trkpt>
      <trkpt lat="45.0681" lon="5.57137">
        <ele>1129</ele>
        <time>2020-06-17T17:01:50Z</time>
      </trkpt>
      <trkpt lat="45.06809" lon="5.57147">
        <ele>1129</ele>
        <time>2020-06-17T17:01:51Z</time>
      </trkpt>
      <trkpt lat="45.06817" lon="5.57138">
        <ele>1127</ele>
        <time>2020-06-17T17:01:54Z</time>
      </trkpt>
      <trkpt lat="45.06827" lon="5.5714">
        <ele>1124</ele>
        <time>2020-06-17T17:01:56Z</time>
      </trkpt>
      <trkpt lat="45.06835" lon="5.57123">
        <ele>1122</ele>
        <time>2020-06-17T17:02:00Z</time>
      </trkpt>
      <trkpt lat="45.06837" lon="5.57123">
        <ele>1122</ele>
        <time>2020-06-17T17:02:00Z</time>
      </trkpt>
      <trkpt lat="45.06836" lon="5.57137">
        <ele>1121</ele>
        <time>2020-06-17T17:02:02Z</time>
      </trkpt>
      <trkpt lat="45.06838" lon="5.5715">
        <ele>1120</ele>
        <time>2020-06-17T17:02:05Z</time>
      </trkpt>
      <trkpt lat="45.06833" lon="5.57166">
        <ele>1120</ele>
        <time>2020-06-17T17:02:07Z</time>
      </trkpt>
      <trkpt lat="45.0683" lon="5.57187">
        <ele>1123</ele>
        <time>2020-06-17T17:02:11Z</time>
      </trkpt>
      <trkpt lat="45.06838" lon="5.57194">
        <ele>1123</ele>
        <time>2020-06-17T17:02:13Z</time>
      </trkpt>
      <trkpt lat="45.06854" lon="5.57183">
        <ele>1119</ele>
        <time>2020-06-17T17:02:17Z</time>
      </trkpt>
      <trkpt lat="45.06881" lon="5.57171">
        <ele>1114</ele>
        <time>2020-06-17T17:02:24Z</time>
      </trkpt>
      <trkpt lat="45.06889" lon="5.57164">
        <ele>1112</ele>
        <time>2020-06-17T17:02:26Z</time>
      </trkpt>
      <trkpt lat="45.06901" lon="5.57132">
        <ele>1107</ele>
        <time>2020-06-17T17:02:32Z</time>
      </trkpt>
      <trkpt lat="45.06918" lon="5.57113">
        <ele>1101</ele>
        <time>2020-06-17T17:02:37Z</time>
      </trkpt>
      <trkpt lat="45.06917" lon="5.57025">
        <ele>1093</ele>
        <time>2020-06-17T17:02:52Z</time>
      </trkpt>
      <trkpt lat="45.06928" lon="5.56979">
        <ele>1084</ele>
        <time>2020-06-17T17:03:00Z</time>
      </trkpt>
      <trkpt lat="45.06926" lon="5.56969">
        <ele>1083</ele>
        <time>2020-06-17T17:03:01Z</time>
      </trkpt>
      <trkpt lat="45.06915" lon="5.56958">
        <ele>1083</ele>
        <time>2020-06-17T17:03:05Z</time>
      </trkpt>
      <trkpt lat="45.06877" lon="5.56937">
        <ele>1086</ele>
        <time>2020-06-17T17:03:14Z</time>
      </trkpt>
      <trkpt lat="45.06861" lon="5.56931">
        <ele>1088</ele>
        <time>2020-06-17T17:03:18Z</time>
      </trkpt>
      <trkpt lat="45.06844" lon="5.56919">
        <ele>1088</ele>
        <time>2020-06-17T17:03:22Z</time>
      </trkpt>
      <trkpt lat="45.06817" lon="5.56892">
        <ele>1088</ele>
        <time>2020-06-17T17:03:30Z</time>
      </trkpt>
      <trkpt lat="45.06801" lon="5.56871">
        <ele>1089</ele>
        <time>2020-06-17T17:03:35Z</time>
      </trkpt>
      <trkpt lat="45.06794" lon="5.56854">
        <ele>1088</ele>
        <time>2020-06-17T17:03:38Z</time>
      </trkpt>
      <trkpt lat="45.06789" lon="5.56828">
        <ele>1087</ele>
        <time>2020-06-17T17:03:43Z</time>
      </trkpt>
      <trkpt lat="45.06789" lon="5.56811">
        <ele>1087</ele>
        <time>2020-06-17T17:03:46Z</time>
      </trkpt>
      <trkpt lat="45.06795" lon="5.56773">
        <ele>1085</ele>
        <time>2020-06-17T17:03:52Z</time>
      </trkpt>
      <trkpt lat="45.06781" lon="5.56695">
        <ele>1087</ele>
        <time>2020-06-17T17:04:05Z</time>
      </trkpt>
      <trkpt lat="45.06773" lon="5.56688">
        <ele>1088</ele>
        <time>2020-06-17T17:04:08Z</time>
      </trkpt>
      <trkpt lat="45.06738" lon="5.56684">
        <ele>1092</ele>
        <time>2020-06-17T17:04:16Z</time>
      </trkpt>
      <trkpt lat="45.06733" lon="5.56677">
        <ele>1093</ele>
        <time>2020-06-17T17:04:17Z</time>
      </trkpt>
      <trkpt lat="45.06732" lon="5.56666">
        <ele>1092</ele>
        <time>2020-06-17T17:04:19Z</time>
      </trkpt>
      <trkpt lat="45.06728" lon="5.56659">
        <ele>1093</ele>
        <time>2020-06-17T17:04:21Z</time>
      </trkpt>
      <trkpt lat="45.06699" lon="5.5666">
        <ele>1097</ele>
        <time>2020-06-17T17:04:28Z</time>
      </trkpt>
      <trkpt lat="45.06666" lon="5.56672">
        <ele>1101</ele>
        <time>2020-06-17T17:04:35Z</time>
      </trkpt>
      <trkpt lat="45.06658" lon="5.56678">
        <ele>1103</ele>
        <time>2020-06-17T17:04:38Z</time>
      </trkpt>
      <trkpt lat="45.06631" lon="5.56684">
        <ele>1108</ele>
        <time>2020-06-17T17:04:44Z</time>
      </trkpt>
      <trkpt lat="45.06615" lon="5.56691">
        <ele>1111</ele>
        <time>2020-06-17T17:04:48Z</time>
      </trkpt>
      <trkpt lat="45.06604" lon="5.56692">
        <ele>1113</ele>
        <time>2020-06-17T17:04:50Z</time>
      </trkpt>
      <trkpt lat="45.06595" lon="5.5669">
        <ele>1115</ele>
        <time>2020-06-17T17:04:53Z</time>
      </trkpt>
      <trkpt lat="45.06569" lon="5.56663">
        <ele>1120</ele>
        <time>2020-06-17T17:05:00Z</time>
      </trkpt>
      <trkpt lat="45.06534" lon="5.56644">
        <ele>1126</ele>
        <time>2020-06-17T17:05:09Z</time>
      </trkpt>
      <trkpt lat="45.0652" lon="5.56639">
        <ele>1128</ele>
        <time>2020-06-17T17:05:12Z</time>
      </trkpt>
      <trkpt lat="45.06494" lon="5.56638">
        <ele>1131</ele>
        <time>2020-06-17T17:05:18Z</time>
      </trkpt>
      <trkpt lat="45.06459" lon="5.56627">
        <ele>1129</ele>
        <time>2020-06-17T17:05:27Z</time>
      </trkpt>
      <trkpt lat="45.06404" lon="5.56636">
        <ele>1126</ele>
        <time>2020-06-17T17:05:40Z</time>
      </trkpt>
      <trkpt lat="45.06395" lon="5.5664">
        <ele>1125</ele>
        <time>2020-06-17T17:05:42Z</time>
      </trkpt>
      <trkpt lat="45.06384" lon="5.56648">
        <ele>1124</ele>
        <time>2020-06-17T17:05:45Z</time>
      </trkpt>
      <trkpt lat="45.06353" lon="5.56682">
        <ele>1125</ele>
        <time>2020-06-17T17:05:54Z</time>
      </trkpt>
      <trkpt lat="45.06329" lon="5.56694">
        <ele>1124</ele>
        <time>2020-06-17T17:06:00Z</time>
      </trkpt>
      <trkpt lat="45.0631" lon="5.56694">
        <ele>1122</ele>
        <time>2020-06-17T17:06:04Z</time>
      </trkpt>
      <trkpt lat="45.06288" lon="5.56677">
        <ele>1117</ele>
        <time>2020-06-17T17:06:10Z</time>
      </trkpt>
      <trkpt lat="45.06273" lon="5.56672">
        <ele>1116</ele>
        <time>2020-06-17T17:06:14Z</time>
      </trkpt>
      <trkpt lat="45.06265" lon="5.56665">
        <ele>1114</ele>
        <time>2020-06-17T17:06:16Z</time>
      </trkpt>
      <trkpt lat="45.06256" lon="5.56664">
        <ele>1114</ele>
        <time>2020-06-17T17:06:18Z</time>
      </trkpt>
      <trkpt lat="45.06248" lon="5.56669">
        <ele>1115</ele>
        <time>2020-06-17T17:06:20Z</time>
      </trkpt>
      <trkpt lat="45.06241" lon="5.56678">
        <ele>1119</ele>
        <time>2020-06-17T17:06:22Z</time>
      </trkpt>
      <trkpt lat="45.0623" lon="5.56709">
        <ele>1124</ele>
        <time>2020-06-17T17:06:28Z</time>
      </trkpt>
      <trkpt lat="45.06208" lon="5.5673">
        <ele>1129</ele>
        <time>2020-06-17T17:06:34Z</time>
      </trkpt>
      <trkpt lat="45.06201" lon="5.5674">
        <ele>1129</ele>
        <time>2020-06-17T17:06:37Z</time>
      </trkpt>
      <trkpt lat="45.06189" lon="5.56742">
        <ele>1130</ele>
        <time>2020-06-17T17:06:39Z</time>
      </trkpt>
      <trkpt lat="45.06181" lon="5.56737">
        <ele>1132</ele>
        <time>2020-06-17T17:06:41Z</time>
      </trkpt>
      <trkpt lat="45.06181" lon="5.5673">
        <ele>1133</ele>
        <time>2020-06-17T17:06:43Z</time>
      </trkpt>
      <trkpt lat="45.06203" lon="5.56706">
        <ele>1131</ele>
        <time>2020-06-17T17:06:49Z</time>
      </trkpt>
      <trkpt lat="45.06231" lon="5.56654">
        <ele>1123</ele>
        <time>2020-06-17T17:07:00Z</time>
      </trkpt>
      <trkpt lat="45.06239" lon="5.56644">
        <ele>1121</ele>
        <time>2020-06-17T17:07:02Z</time>
      </trkpt>
      <trkpt lat="45.06248" lon="5.56621">
        <ele>1120</ele>
        <time>2020-06-17T17:07:07Z</time>
      </trkpt>
      <trkpt lat="45.06259" lon="5.56602">
        <ele>1120</ele>
        <time>2020-06-17T17:07:11Z</time>
      </trkpt>
      <trkpt lat="45.06264" lon="5.56581">
        <ele>1120</ele>
        <time>2020-06-17T17:07:14Z</time>
      </trkpt>
      <trkpt lat="45.06267" lon="5.56555">
        <ele>1120</ele>
        <time>2020-06-17T17:07:19Z</time>
      </trkpt>
      <trkpt lat="45.06254" lon="5.56466">
        <ele>1126</ele>
        <time>2020-06-17T17:07:34Z</time>
      </trkpt>
      <trkpt lat="45.06261" lon="5.5642">
        <ele>1122</ele>
        <time>2020-06-17T17:07:41Z</time>
      </trkpt>
      <trkpt lat="45.06267" lon="5.56407">
        <ele>1120</ele>
        <time>2020-06-17T17:07:44Z</time>
      </trkpt>
      <trkpt lat="45.06276" lon="5.56375">
        <ele>1116</ele>
        <time>2020-06-17T17:07:50Z</time>
      </trkpt>
      <trkpt lat="45.06279" lon="5.56337">
        <ele>1115</ele>
        <time>2020-06-17T17:07:56Z</time>
      </trkpt>
      <trkpt lat="45.06302" lon="5.56218">
        <ele>1105</ele>
        <time>2020-06-17T17:08:16Z</time>
      </trkpt>
      <trkpt lat="45.06304" lon="5.56191">
        <ele>1103</ele>
        <time>2020-06-17T17:08:21Z</time>
      </trkpt>
      <trkpt lat="45.06295" lon="5.56084">
        <ele>1097</ele>
        <time>2020-06-17T17:08:39Z</time>
      </trkpt>
      <trkpt lat="45.06287" lon="5.56028">
        <ele>1091</ele>
        <time>2020-06-17T17:08:48Z</time>
      </trkpt>
      <trkpt lat="45.06298" lon="5.55923">
        <ele>1077</ele>
        <time>2020-06-17T17:09:06Z</time>
      </trkpt>
      <trkpt lat="45.0629" lon="5.55856">
        <ele>1075</ele>
        <time>2020-06-17T17:09:17Z</time>
      </trkpt>
      <trkpt lat="45.06293" lon="5.55854">
        <ele>1075</ele>
        <time>2020-06-17T17:09:18Z</time>
      </trkpt>
      <trkpt lat="45.06301" lon="5.55868">
        <ele>1074</ele>
        <time>2020-06-17T17:09:20Z</time>
      </trkpt>
      <trkpt lat="45.06312" lon="5.55867">
        <ele>1072</ele>
        <time>2020-06-17T17:09:23Z</time>
      </trkpt>
      <trkpt lat="45.06317" lon="5.55862">
        <ele>1071</ele>
        <time>2020-06-17T17:09:24Z</time>
      </trkpt>
      <trkpt lat="45.06331" lon="5.55838">
        <ele>1069</ele>
        <time>2020-06-17T17:09:30Z</time>
      </trkpt>
      <trkpt lat="45.06343" lon="5.55801">
        <ele>1068</ele>
        <time>2020-06-17T17:09:36Z</time>
      </trkpt>
      <trkpt lat="45.06353" lon="5.55787">
        <ele>1067</ele>
        <time>2020-06-17T17:09:40Z</time>
      </trkpt>
      <trkpt lat="45.06355" lon="5.55773">
        <ele>1067</ele>
        <time>2020-06-17T17:09:42Z</time>
      </trkpt>
      <trkpt lat="45.06363" lon="5.55751">
        <ele>1065</ele>
        <time>2020-06-17T17:09:46Z</time>
      </trkpt>
      <trkpt lat="45.06371" lon="5.55709">
        <ele>1064</ele>
        <time>2020-06-17T17:09:53Z</time>
      </trkpt>
      <trkpt lat="45.06412" lon="5.55563">
        <ele>1057</ele>
        <time>2020-06-17T17:10:19Z</time>
      </trkpt>
      <trkpt lat="45.0643" lon="5.55485">
        <ele>1048</ele>
        <time>2020-06-17T17:10:33Z</time>
      </trkpt>
      <trkpt lat="45.06435" lon="5.55427">
        <ele>1045</ele>
        <time>2020-06-17T17:10:42Z</time>
      </trkpt>
      <trkpt lat="45.06455" lon="5.55267">
        <ele>1040</ele>
        <time>2020-06-17T17:11:09Z</time>
      </trkpt>
      <trkpt lat="45.06467" lon="5.55176">
        <ele>1037</ele>
        <time>2020-06-17T17:11:24Z</time>
      </trkpt>
      <trkpt lat="45.0647" lon="5.55167">
        <ele>1037</ele>
        <time>2020-06-17T17:11:26Z</time>
      </trkpt>
      <trkpt lat="45.06474" lon="5.55159">
        <ele>1036</ele>
        <time>2020-06-17T17:11:28Z</time>
      </trkpt>
      <trkpt lat="45.06499" lon="5.55139">
        <ele>1032</ele>
        <time>2020-06-17T17:11:34Z</time>
      </trkpt>
      <trkpt lat="45.06515" lon="5.55121">
        <ele>1027</ele>
        <time>2020-06-17T17:11:39Z</time>
      </trkpt>
      <trkpt lat="45.06519" lon="5.55119">
        <ele>1026</ele>
        <time>2020-06-17T17:11:40Z</time>
      </trkpt>
      <trkpt lat="45.06526" lon="5.55124">
        <ele>1025</ele>
        <time>2020-06-17T17:11:42Z</time>
      </trkpt>
      <trkpt lat="45.06531" lon="5.55123">
        <ele>1024</ele>
        <time>2020-06-17T17:11:43Z</time>
      </trkpt>
      <trkpt lat="45.06533" lon="5.55112">
        <ele>1022</ele>
        <time>2020-06-17T17:11:45Z</time>
      </trkpt>
      <trkpt lat="45.06537" lon="5.55111">
        <ele>1022</ele>
        <time>2020-06-17T17:11:46Z</time>
      </trkpt>
      <trkpt lat="45.06541" lon="5.55119">
        <ele>1021</ele>
        <time>2020-06-17T17:11:48Z</time>
      </trkpt>
      <trkpt lat="45.06542" lon="5.55129">
        <ele>1022</ele>
        <time>2020-06-17T17:11:49Z</time>
      </trkpt>
      <trkpt lat="45.06547" lon="5.55135">
        <ele>1021</ele>
        <time>2020-06-17T17:11:51Z</time>
      </trkpt>
      <trkpt lat="45.06551" lon="5.55126">
        <ele>1019</ele>
        <time>2020-06-17T17:11:53Z</time>
      </trkpt>
      <trkpt lat="45.0655" lon="5.55104">
        <ele>1018</ele>
        <time>2020-06-17T17:11:56Z</time>
      </trkpt>
      <trkpt lat="45.06558" lon="5.55105">
        <ele>1017</ele>
        <time>2020-06-17T17:11:58Z</time>
      </trkpt>
      <trkpt lat="45.06564" lon="5.55118">
        <ele>1016</ele>
        <time>2020-06-17T17:12:01Z</time>
      </trkpt>
      <trkpt lat="45.06567" lon="5.55121">
        <ele>1015</ele>
        <time>2020-06-17T17:12:01Z</time>
      </trkpt>
      <trkpt lat="45.06571" lon="5.5512">
        <ele>1015</ele>
        <time>2020-06-17T17:12:02Z</time>
      </trkpt>
      <trkpt lat="45.06586" lon="5.55109">
        <ele>1011</ele>
        <time>2020-06-17T17:12:06Z</time>
      </trkpt>
      <trkpt lat="45.06588" lon="5.55103">
        <ele>1010</ele>
        <time>2020-06-17T17:12:07Z</time>
      </trkpt>
      <trkpt lat="45.06585" lon="5.55093">
        <ele>1010</ele>
        <time>2020-06-17T17:12:09Z</time>
      </trkpt>
      <trkpt lat="45.06587" lon="5.55088">
        <ele>1010</ele>
        <time>2020-06-17T17:12:10Z</time>
      </trkpt>
      <trkpt lat="45.06601" lon="5.55085">
        <ele>1008</ele>
        <time>2020-06-17T17:12:13Z</time>
      </trkpt>
      <trkpt lat="45.06605" lon="5.55081">
        <ele>1007</ele>
        <time>2020-06-17T17:12:15Z</time>
      </trkpt>
      <trkpt lat="45.06609" lon="5.55082">
        <ele>1006</ele>
        <time>2020-06-17T17:12:16Z</time>
      </trkpt>
      <trkpt lat="45.06643" lon="5.5512">
        <ele>1003</ele>
        <time>2020-06-17T17:12:26Z</time>
      </trkpt>
      <trkpt lat="45.06646" lon="5.55121">
        <ele>1002</ele>
        <time>2020-06-17T17:12:26Z</time>
      </trkpt>
      <trkpt lat="45.06648" lon="5.55119">
        <ele>1002</ele>
        <time>2020-06-17T17:12:27Z</time>
      </trkpt>
      <trkpt lat="45.06647" lon="5.55108">
        <ele>1002</ele>
        <time>2020-06-17T17:12:29Z</time>
      </trkpt>
      <trkpt lat="45.0664" lon="5.55088">
        <ele>1002</ele>
        <time>2020-06-17T17:12:32Z</time>
      </trkpt>
      <trkpt lat="45.06637" lon="5.55065">
        <ele>1002</ele>
        <time>2020-06-17T17:12:36Z</time>
      </trkpt>
      <trkpt lat="45.06638" lon="5.55043">
        <ele>1002</ele>
        <time>2020-06-17T17:12:40Z</time>
      </trkpt>
      <trkpt lat="45.06626" lon="5.54975">
        <ele>1004</ele>
        <time>2020-06-17T17:12:52Z</time>
      </trkpt>
      <trkpt lat="45.06633" lon="5.549">
        <ele>1001</ele>
        <time>2020-06-17T17:13:04Z</time>
      </trkpt>
      <trkpt lat="45.06637" lon="5.54817">
        <ele>993</ele>
        <time>2020-06-17T17:13:18Z</time>
      </trkpt>
      <trkpt lat="45.06635" lon="5.54803">
        <ele>992</ele>
        <time>2020-06-17T17:13:20Z</time>
      </trkpt>
      <trkpt lat="45.0664" lon="5.54795">
        <ele>991</ele>
        <time>2020-06-17T17:13:22Z</time>
      </trkpt>
      <trkpt lat="45.06731" lon="5.54767">
        <ele>984</ele>
        <time>2020-06-17T17:13:44Z</time>
      </trkpt>
      <trkpt lat="45.06752" lon="5.54763">
        <ele>983</ele>
        <time>2020-06-17T17:13:49Z</time>
      </trkpt>
      <trkpt lat="45.06757" lon="5.54759">
        <ele>983</ele>
        <time>2020-06-17T17:13:50Z</time>
      </trkpt>
      <trkpt lat="45.06759" lon="5.54752">
        <ele>983</ele>
        <time>2020-06-17T17:13:51Z</time>
      </trkpt>
      <trkpt lat="45.0676" lon="5.54742">
        <ele>982</ele>
        <time>2020-06-17T17:13:53Z</time>
      </trkpt>
      <trkpt lat="45.06751" lon="5.54691">
        <ele>978</ele>
        <time>2020-06-17T17:14:01Z</time>
      </trkpt>
      <trkpt lat="45.06733" lon="5.5464">
        <ele>978</ele>
        <time>2020-06-17T17:14:11Z</time>
      </trkpt>
      <trkpt lat="45.06724" lon="5.54575">
        <ele>984</ele>
        <time>2020-06-17T17:14:22Z</time>
      </trkpt>
      <trkpt lat="45.06728" lon="5.5457">
        <ele>986</ele>
        <time>2020-06-17T17:14:23Z</time>
      </trkpt>
      <trkpt lat="45.06744" lon="5.54568">
        <ele>987</ele>
        <time>2020-06-17T17:14:27Z</time>
      </trkpt>
      <trkpt lat="45.06742" lon="5.54568">
        <ele>987</ele>
        <time>2020-06-17T17:14:27Z</time>
      </trkpt>
      <trkpt lat="45.06747" lon="5.54572">
        <ele>985</ele>
        <time>2020-06-17T17:14:29Z</time>
      </trkpt>
      <trkpt lat="45.06751" lon="5.54569">
        <ele>987</ele>
        <time>2020-06-17T17:14:30Z</time>
      </trkpt>
      <trkpt lat="45.0675" lon="5.54572">
        <ele>985</ele>
        <time>2020-06-17T17:14:30Z</time>
      </trkpt>
      <trkpt lat="45.06747" lon="5.54569">
        <ele>987</ele>
        <time>2020-06-17T17:14:31Z</time>
      </trkpt>
      <trkpt lat="45.06749" lon="5.5457">
        <ele>986</ele>
        <time>2020-06-17T17:14:32Z</time>
      </trkpt>
      <trkpt lat="45.06749" lon="5.54567">
        <ele>987</ele>
        <time>2020-06-17T17:14:32Z</time>
      </trkpt>
      <trkpt lat="45.06748" lon="5.54569">
        <ele>987</ele>
        <time>2020-06-17T17:14:32Z</time>
      </trkpt>
      <trkpt lat="45.06746" lon="5.54568">
        <ele>987</ele>
        <time>2020-06-17T17:14:33Z</time>
      </trkpt>
      <trkpt lat="45.06748" lon="5.54567">
        <ele>987</ele>
        <time>2020-06-17T17:14:33Z</time>
      </trkpt>
      <trkpt lat="45.06746" lon="5.54564">
        <ele>989</ele>
        <time>2020-06-17T17:14:34Z</time>
      </trkpt>
      <trkpt lat="45.06761" lon="5.54556">
        <ele>991</ele>
        <time>2020-06-17T17:14:38Z</time>
      </trkpt>
      <trkpt lat="45.06793" lon="5.54532">
        <ele>999</ele>
        <time>2020-06-17T17:14:46Z</time>
      </trkpt>
      <trkpt lat="45.06868" lon="5.54496">
        <ele>1007</ele>
        <time>2020-06-17T17:15:05Z</time>
      </trkpt>
      <trkpt lat="45.06892" lon="5.54492">
        <ele>1007</ele>
        <time>2020-06-17T17:15:10Z</time>
      </trkpt>
      <trkpt lat="45.06923" lon="5.54493">
        <ele>1004</ele>
        <time>2020-06-17T17:15:18Z</time>
      </trkpt>
      <trkpt lat="45.06967" lon="5.54496">
        <ele>1002</ele>
        <time>2020-06-17T17:15:28Z</time>
      </trkpt>
      <trkpt lat="45.0702" lon="5.54505">
        <ele>998</ele>
        <time>2020-06-17T17:15:40Z</time>
      </trkpt>
      <trkpt lat="45.07034" lon="5.54503">
        <ele>999</ele>
        <time>2020-06-17T17:15:44Z</time>
      </trkpt>
      <trkpt lat="45.07079" lon="5.54488">
        <ele>1006</ele>
        <time>2020-06-17T17:15:55Z</time>
      </trkpt>
      <trkpt lat="45.07107" lon="5.54475">
        <ele>1008</ele>
        <time>2020-06-17T17:16:01Z</time>
      </trkpt>
      <trkpt lat="45.07124" lon="5.5446">
        <ele>1010</ele>
        <time>2020-06-17T17:16:06Z</time>
      </trkpt>
      <trkpt lat="45.0714" lon="5.54436">
        <ele>1013</ele>
        <time>2020-06-17T17:16:12Z</time>
      </trkpt>
      <trkpt lat="45.07179" lon="5.54362">
        <ele>1012</ele>
        <time>2020-06-17T17:16:27Z</time>
      </trkpt>
      <trkpt lat="45.07184" lon="5.54348">
        <ele>1012</ele>
        <time>2020-06-17T17:16:29Z</time>
      </trkpt>
      <trkpt lat="45.07187" lon="5.54328">
        <ele>1012</ele>
        <time>2020-06-17T17:16:33Z</time>
      </trkpt>
      <trkpt lat="45.07186" lon="5.54304">
        <ele>1012</ele>
        <time>2020-06-17T17:16:37Z</time>
      </trkpt>
      <trkpt lat="45.07183" lon="5.54291">
        <ele>1012</ele>
        <time>2020-06-17T17:16:39Z</time>
      </trkpt>
      <trkpt lat="45.0717" lon="5.54253">
        <ele>1014</ele>
        <time>2020-06-17T17:16:46Z</time>
      </trkpt>
      <trkpt lat="45.07128" lon="5.54154">
        <ele>1018</ele>
        <time>2020-06-17T17:17:05Z</time>
      </trkpt>
      <trkpt lat="45.07107" lon="5.54076">
        <ele>1022</ele>
        <time>2020-06-17T17:17:19Z</time>
      </trkpt>
      <trkpt lat="45.07051" lon="5.5398">
        <ele>1027</ele>
        <time>2020-06-17T17:17:39Z</time>
      </trkpt>
      <trkpt lat="45.07041" lon="5.53968">
        <ele>1028</ele>
        <time>2020-06-17T17:17:42Z</time>
      </trkpt>
      <trkpt lat="45.07028" lon="5.53956">
        <ele>1029</ele>
        <time>2020-06-17T17:17:46Z</time>
      </trkpt>
      <trkpt lat="45.07016" lon="5.53949">
        <ele>1031</ele>
        <time>2020-06-17T17:17:49Z</time>
      </trkpt>
      <trkpt lat="45.06947" lon="5.53923">
        <ele>1049</ele>
        <time>2020-06-17T17:18:06Z</time>
      </trkpt>
      <trkpt lat="45.06897" lon="5.53885">
        <ele>1055</ele>
        <time>2020-06-17T17:18:19Z</time>
      </trkpt>
      <trkpt lat="45.06884" lon="5.53872">
        <ele>1056</ele>
        <time>2020-06-17T17:18:23Z</time>
      </trkpt>
      <trkpt lat="45.06824" lon="5.53824">
        <ele>1060</ele>
        <time>2020-06-17T17:18:39Z</time>
      </trkpt>
      <trkpt lat="45.06718" lon="5.53766">
        <ele>1078</ele>
        <time>2020-06-17T17:19:05Z</time>
      </trkpt>
      <trkpt lat="45.06693" lon="5.53745">
        <ele>1082</ele>
        <time>2020-06-17T17:19:12Z</time>
      </trkpt>
      <trkpt lat="45.06676" lon="5.53734">
        <ele>1087</ele>
        <time>2020-06-17T17:19:16Z</time>
      </trkpt>
      <trkpt lat="45.06654" lon="5.53711">
        <ele>1090</ele>
        <time>2020-06-17T17:19:23Z</time>
      </trkpt>
      <trkpt lat="45.06611" lon="5.53673">
        <ele>1096</ele>
        <time>2020-06-17T17:19:35Z</time>
      </trkpt>
      <trkpt lat="45.06594" lon="5.53663">
        <ele>1100</ele>
        <time>2020-06-17T17:19:39Z</time>
      </trkpt>
      <trkpt lat="45.06567" lon="5.53659">
        <ele>1110</ele>
        <time>2020-06-17T17:19:45Z</time>
      </trkpt>
      <trkpt lat="45.06547" lon="5.53645">
        <ele>1117</ele>
        <time>2020-06-17T17:19:51Z</time>
      </trkpt>
      <trkpt lat="45.06542" lon="5.5362">
        <ele>1118</ele>
        <time>2020-06-17T17:19:55Z</time>
      </trkpt>
      <trkpt lat="45.06552" lon="5.5361">
        <ele>1115</ele>
        <time>2020-06-17T17:19:58Z</time>
      </trkpt>
      <trkpt lat="45.06557" lon="5.53608">
        <ele>1114</ele>
        <time>2020-06-17T17:19:59Z</time>
      </trkpt>
      <trkpt lat="45.06561" lon="5.53602">
        <ele>1113</ele>
        <time>2020-06-17T17:20:00Z</time>
      </trkpt>
      <trkpt lat="45.06584" lon="5.53586">
        <ele>1110</ele>
        <time>2020-06-17T17:20:06Z</time>
      </trkpt>
      <trkpt lat="45.06595" lon="5.53571">
        <ele>1111</ele>
        <time>2020-06-17T17:20:10Z</time>
      </trkpt>
      <trkpt lat="45.06604" lon="5.53547">
        <ele>1114</ele>
        <time>2020-06-17T17:20:14Z</time>
      </trkpt>
      <trkpt lat="45.06612" lon="5.53533">
        <ele>1116</ele>
        <time>2020-06-17T17:20:17Z</time>
      </trkpt>
      <trkpt lat="45.06622" lon="5.53528">
        <ele>1116</ele>
        <time>2020-06-17T17:20:20Z</time>
      </trkpt>
      <trkpt lat="45.06642" lon="5.53528">
        <ele>1115</ele>
        <time>2020-06-17T17:20:24Z</time>
      </trkpt>
      <trkpt lat="45.06664" lon="5.5352">
        <ele>1115</ele>
        <time>2020-06-17T17:20:30Z</time>
      </trkpt>
      <trkpt lat="45.06684" lon="5.53517">
        <ele>1116</ele>
        <time>2020-06-17T17:20:34Z</time>
      </trkpt>
      <trkpt lat="45.06722" lon="5.53496">
        <ele>1123</ele>
        <time>2020-06-17T17:20:44Z</time>
      </trkpt>
      <trkpt lat="45.06729" lon="5.53496">
        <ele>1123</ele>
        <time>2020-06-17T17:20:46Z</time>
      </trkpt>
      <trkpt lat="45.0674" lon="5.53485">
        <ele>1126</ele>
        <time>2020-06-17T17:20:49Z</time>
      </trkpt>
      <trkpt lat="45.06743" lon="5.5348">
        <ele>1127</ele>
        <time>2020-06-17T17:20:50Z</time>
      </trkpt>
      <trkpt lat="45.06744" lon="5.53469">
        <ele>1129</ele>
        <time>2020-06-17T17:20:52Z</time>
      </trkpt>
      <trkpt lat="45.06742" lon="5.53454">
        <ele>1131</ele>
        <time>2020-06-17T17:20:54Z</time>
      </trkpt>
      <trkpt lat="45.06735" lon="5.53438">
        <ele>1134</ele>
        <time>2020-06-17T17:20:57Z</time>
      </trkpt>
      <trkpt lat="45.06726" lon="5.53428">
        <ele>1135</ele>
        <time>2020-06-17T17:21:00Z</time>
      </trkpt>
      <trkpt lat="45.06716" lon="5.53426">
        <ele>1135</ele>
        <time>2020-06-17T17:21:02Z</time>
      </trkpt>
      <trkpt lat="45.06692" lon="5.53425">
        <ele>1134</ele>
        <time>2020-06-17T17:21:08Z</time>
      </trkpt>
      <trkpt lat="45.06689" lon="5.53423">
        <ele>1134</ele>
        <time>2020-06-17T17:21:09Z</time>
      </trkpt>
      <trkpt lat="45.06656" lon="5.53423">
        <ele>1133</ele>
        <time>2020-06-17T17:21:16Z</time>
      </trkpt>
      <trkpt lat="45.06647" lon="5.53422">
        <ele>1134</ele>
        <time>2020-06-17T17:21:18Z</time>
      </trkpt>
      <trkpt lat="45.06644" lon="5.53418">
        <ele>1135</ele>
        <time>2020-06-17T17:21:19Z</time>
      </trkpt>
      <trkpt lat="45.06576" lon="5.53413">
        <ele>1141</ele>
        <time>2020-06-17T17:21:35Z</time>
      </trkpt>
      <trkpt lat="45.06539" lon="5.53398">
        <ele>1151</ele>
        <time>2020-06-17T17:21:44Z</time>
      </trkpt>
      <trkpt lat="45.06518" lon="5.53394">
        <ele>1157</ele>
        <time>2020-06-17T17:21:49Z</time>
      </trkpt>
      <trkpt lat="45.06484" lon="5.53375">
        <ele>1163</ele>
        <time>2020-06-17T17:21:58Z</time>
      </trkpt>
      <trkpt lat="45.06474" lon="5.53373">
        <ele>1165</ele>
        <time>2020-06-17T17:22:00Z</time>
      </trkpt>
      <trkpt lat="45.06469" lon="5.53366">
        <ele>1166</ele>
        <time>2020-06-17T17:22:02Z</time>
      </trkpt>
      <trkpt lat="45.06452" lon="5.53359">
        <ele>1170</ele>
        <time>2020-06-17T17:22:06Z</time>
      </trkpt>
      <trkpt lat="45.06361" lon="5.53357">
        <ele>1181</ele>
        <time>2020-06-17T17:22:27Z</time>
      </trkpt>
      <trkpt lat="45.06346" lon="5.53362">
        <ele>1182</ele>
        <time>2020-06-17T17:22:31Z</time>
      </trkpt>
      <trkpt lat="45.06339" lon="5.5336">
        <ele>1182</ele>
        <time>2020-06-17T17:22:32Z</time>
      </trkpt>
      <trkpt lat="45.06331" lon="5.53354">
        <ele>1183</ele>
        <time>2020-06-17T17:22:35Z</time>
      </trkpt>
      <trkpt lat="45.06311" lon="5.5333">
        <ele>1185</ele>
        <time>2020-06-17T17:22:41Z</time>
      </trkpt>
      <trkpt lat="45.06294" lon="5.53317">
        <ele>1185</ele>
        <time>2020-06-17T17:22:45Z</time>
      </trkpt>
      <trkpt lat="45.06289" lon="5.53308">
        <ele>1185</ele>
        <time>2020-06-17T17:22:47Z</time>
      </trkpt>
      <trkpt lat="45.06294" lon="5.53261">
        <ele>1181</ele>
        <time>2020-06-17T17:22:55Z</time>
      </trkpt>
      <trkpt lat="45.06297" lon="5.53248">
        <ele>1180</ele>
        <time>2020-06-17T17:22:57Z</time>
      </trkpt>
      <trkpt lat="45.06299" lon="5.53247">
        <ele>1179</ele>
        <time>2020-06-17T17:22:58Z</time>
      </trkpt>
      <trkpt lat="45.06294" lon="5.53204">
        <ele>1179</ele>
        <time>2020-06-17T17:23:05Z</time>
      </trkpt>
      <trkpt lat="45.06304" lon="5.5316">
        <ele>1176</ele>
        <time>2020-06-17T17:23:12Z</time>
      </trkpt>
      <trkpt lat="45.06301" lon="5.5315">
        <ele>1176</ele>
        <time>2020-06-17T17:23:14Z</time>
      </trkpt>
      <trkpt lat="45.06293" lon="5.53132">
        <ele>1178</ele>
        <time>2020-06-17T17:23:18Z</time>
      </trkpt>
      <trkpt lat="45.06276" lon="5.53121">
        <ele>1182</ele>
        <time>2020-06-17T17:23:22Z</time>
      </trkpt>
      <trkpt lat="45.06256" lon="5.53101">
        <ele>1186</ele>
        <time>2020-06-17T17:23:28Z</time>
      </trkpt>
      <trkpt lat="45.06223" lon="5.53042">
        <ele>1191</ele>
        <time>2020-06-17T17:23:40Z</time>
      </trkpt>
      <trkpt lat="45.06221" lon="5.53039">
        <ele>1191</ele>
        <time>2020-06-17T17:23:41Z</time>
      </trkpt>
      <trkpt lat="45.06216" lon="5.53038">
        <ele>1192</ele>
        <time>2020-06-17T17:23:42Z</time>
      </trkpt>
      <trkpt lat="45.06202" lon="5.53015">
        <ele>1194</ele>
        <time>2020-06-17T17:23:47Z</time>
      </trkpt>
      <trkpt lat="45.0619" lon="5.53002">
        <ele>1195</ele>
        <time>2020-06-17T17:23:51Z</time>
      </trkpt>
      <trkpt lat="45.06185" lon="5.52994">
        <ele>1196</ele>
        <time>2020-06-17T17:23:52Z</time>
      </trkpt>
      <trkpt lat="45.06183" lon="5.52985">
        <ele>1196</ele>
        <time>2020-06-17T17:23:54Z</time>
      </trkpt>
      <trkpt lat="45.06179" lon="5.52982">
        <ele>1196</ele>
        <time>2020-06-17T17:23:55Z</time>
      </trkpt>
      <trkpt lat="45.06173" lon="5.52969">
        <ele>1197</ele>
        <time>2020-06-17T17:23:58Z</time>
      </trkpt>
      <trkpt lat="45.06163" lon="5.52957">
        <ele>1199</ele>
        <time>2020-06-17T17:24:01Z</time>
      </trkpt>
      <trkpt lat="45.06152" lon="5.52912">
        <ele>1199</ele>
        <time>2020-06-17T17:24:09Z</time>
      </trkpt>
      <trkpt lat="45.06139" lon="5.52899">
        <ele>1200</ele>
        <time>2020-06-17T17:24:12Z</time>
      </trkpt>
      <trkpt lat="45.06087" lon="5.52864">
        <ele>1204</ele>
        <time>2020-06-17T17:24:26Z</time>
      </trkpt>
      <trkpt lat="45.06042" lon="5.52839">
        <ele>1206</ele>
        <time>2020-06-17T17:24:37Z</time>
      </trkpt>
      <trkpt lat="45.06005" lon="5.5283">
        <ele>1208</ele>
        <time>2020-06-17T17:24:46Z</time>
      </trkpt>
      <trkpt lat="45.05969" lon="5.52816">
        <ele>1206</ele>
        <time>2020-06-17T17:24:54Z</time>
      </trkpt>
      <trkpt lat="45.05935" lon="5.52783">
        <ele>1201</ele>
        <time>2020-06-17T17:25:04Z</time>
      </trkpt>
      <trkpt lat="45.05911" lon="5.52765">
        <ele>1200</ele>
        <time>2020-06-17T17:25:10Z</time>
      </trkpt>
      <trkpt lat="45.05893" lon="5.52755">
        <ele>1200</ele>
        <time>2020-06-17T17:25:15Z</time>
      </trkpt>
      <trkpt lat="45.0587" lon="5.5275">
        <ele>1201</ele>
        <time>2020-06-17T17:25:20Z</time>
      </trkpt>
      <trkpt lat="45.05786" lon="5.52741">
        <ele>1206</ele>
        <time>2020-06-17T17:25:40Z</time>
      </trkpt>
      <trkpt lat="45.05777" lon="5.52738">
        <ele>1207</ele>
        <time>2020-06-17T17:25:42Z</time>
      </trkpt>
      <trkpt lat="45.05746" lon="5.52718">
        <ele>1207</ele>
        <time>2020-06-17T17:25:50Z</time>
      </trkpt>
      <trkpt lat="45.05722" lon="5.52707">
        <ele>1208</ele>
        <time>2020-06-17T17:25:56Z</time>
      </trkpt>
      <trkpt lat="45.05683" lon="5.52711">
        <ele>1212</ele>
        <time>2020-06-17T17:26:05Z</time>
      </trkpt>
      <trkpt lat="45.05661" lon="5.52705">
        <ele>1213</ele>
        <time>2020-06-17T17:26:10Z</time>
      </trkpt>
      <trkpt lat="45.05605" lon="5.52721">
        <ele>1215</ele>
        <time>2020-06-17T17:26:24Z</time>
      </trkpt>
      <trkpt lat="45.05579" lon="5.52721">
        <ele>1215</ele>
        <time>2020-06-17T17:26:30Z</time>
      </trkpt>
      <trkpt lat="45.05565" lon="5.52716">
        <ele>1217</ele>
        <time>2020-06-17T17:26:33Z</time>
      </trkpt>
      <trkpt lat="45.05546" lon="5.52702">
        <ele>1218</ele>
        <time>2020-06-17T17:26:38Z</time>
      </trkpt>
      <trkpt lat="45.05528" lon="5.52676">
        <ele>1218</ele>
        <time>2020-06-17T17:26:44Z</time>
      </trkpt>
      <trkpt lat="45.05511" lon="5.52661">
        <ele>1218</ele>
        <time>2020-06-17T17:26:49Z</time>
      </trkpt>
      <trkpt lat="45.05482" lon="5.52653">
        <ele>1221</ele>
        <time>2020-06-17T17:26:56Z</time>
      </trkpt>
      <trkpt lat="45.05421" lon="5.5265">
        <ele>1230</ele>
        <time>2020-06-17T17:27:10Z</time>
      </trkpt>
      <trkpt lat="45.05408" lon="5.52646">
        <ele>1231</ele>
        <time>2020-06-17T17:27:13Z</time>
      </trkpt>
      <trkpt lat="45.05379" lon="5.52629">
        <ele>1231</ele>
        <time>2020-06-17T17:27:20Z</time>
      </trkpt>
      <trkpt lat="45.05367" lon="5.52619">
        <ele>1231</ele>
        <time>2020-06-17T17:27:24Z</time>
      </trkpt>
      <trkpt lat="45.05297" lon="5.52544">
        <ele>1230</ele>
        <time>2020-06-17T17:27:44Z</time>
      </trkpt>
      <trkpt lat="45.05188" lon="5.52421">
        <ele>1243</ele>
        <time>2020-06-17T17:28:17Z</time>
      </trkpt>
      <trkpt lat="45.05134" lon="5.52386">
        <ele>1247</ele>
        <time>2020-06-17T17:28:31Z</time>
      </trkpt>
      <trkpt lat="45.05128" lon="5.5237">
        <ele>1248</ele>
        <time>2020-06-17T17:28:34Z</time>
      </trkpt>
      <trkpt lat="45.05126" lon="5.52378">
        <ele>1247</ele>
        <time>2020-06-17T17:28:35Z</time>
      </trkpt>
      <trkpt lat="45.0513" lon="5.52349">
        <ele>1250</ele>
        <time>2020-06-17T17:28:40Z</time>
      </trkpt>
      <trkpt lat="45.05127" lon="5.52287">
        <ele>1252</ele>
        <time>2020-06-17T17:28:50Z</time>
      </trkpt>
      <trkpt lat="45.05131" lon="5.52256">
        <ele>1252</ele>
        <time>2020-06-17T17:28:55Z</time>
      </trkpt>
      <trkpt lat="45.05128" lon="5.52228">
        <ele>1251</ele>
        <time>2020-06-17T17:29:00Z</time>
      </trkpt>
      <trkpt lat="45.05122" lon="5.52213">
        <ele>1251</ele>
        <time>2020-06-17T17:29:03Z</time>
      </trkpt>
      <trkpt lat="45.0509" lon="5.52174">
        <ele>1252</ele>
        <time>2020-06-17T17:29:13Z</time>
      </trkpt>
      <trkpt lat="45.05079" lon="5.52165">
        <ele>1253</ele>
        <time>2020-06-17T17:29:16Z</time>
      </trkpt>
      <trkpt lat="45.05043" lon="5.52151">
        <ele>1253</ele>
        <time>2020-06-17T17:29:24Z</time>
      </trkpt>
      <trkpt lat="45.05018" lon="5.52134">
        <ele>1252</ele>
        <time>2020-06-17T17:29:31Z</time>
      </trkpt>
      <trkpt lat="45.04995" lon="5.52129">
        <ele>1252</ele>
        <time>2020-06-17T17:29:36Z</time>
      </trkpt>
      <trkpt lat="45.04981" lon="5.52113">
        <ele>1251</ele>
        <time>2020-06-17T17:29:41Z</time>
      </trkpt>
      <trkpt lat="45.0497" lon="5.52079">
        <ele>1247</ele>
        <time>2020-06-17T17:29:47Z</time>
      </trkpt>
      <trkpt lat="45.04963" lon="5.52072">
        <ele>1246</ele>
        <time>2020-06-17T17:29:49Z</time>
      </trkpt>
      <trkpt lat="45.04951" lon="5.52073">
        <ele>1247</ele>
        <time>2020-06-17T17:29:52Z</time>
      </trkpt>
      <trkpt lat="45.04863" lon="5.52107">
        <ele>1248</ele>
        <time>2020-06-17T17:30:13Z</time>
      </trkpt>
      <trkpt lat="45.04841" lon="5.52113">
        <ele>1248</ele>
        <time>2020-06-17T17:30:18Z</time>
      </trkpt>
      <trkpt lat="45.04804" lon="5.521">
        <ele>1246</ele>
        <time>2020-06-17T17:30:27Z</time>
      </trkpt>
      <trkpt lat="45.04781" lon="5.52103">
        <ele>1245</ele>
        <time>2020-06-17T17:30:32Z</time>
      </trkpt>
      <trkpt lat="45.04753" lon="5.52115">
        <ele>1245</ele>
        <time>2020-06-17T17:30:39Z</time>
      </trkpt>
      <trkpt lat="45.047" lon="5.52146">
        <ele>1248</ele>
        <time>2020-06-17T17:30:53Z</time>
      </trkpt>
      <trkpt lat="45.04661" lon="5.52173">
        <ele>1248</ele>
        <time>2020-06-17T17:31:03Z</time>
      </trkpt>
      <trkpt lat="45.04629" lon="5.52182">
        <ele>1250</ele>
        <time>2020-06-17T17:31:10Z</time>
      </trkpt>
      <trkpt lat="45.04614" lon="5.5218">
        <ele>1251</ele>
        <time>2020-06-17T17:31:14Z</time>
      </trkpt>
      <trkpt lat="45.04597" lon="5.52182">
        <ele>1252</ele>
        <time>2020-06-17T17:31:18Z</time>
      </trkpt>
      <trkpt lat="45.04587" lon="5.52189">
        <ele>1252</ele>
        <time>2020-06-17T17:31:20Z</time>
      </trkpt>
      <trkpt lat="45.0458" lon="5.5219">
        <ele>1252</ele>
        <time>2020-06-17T17:31:22Z</time>
      </trkpt>
      <trkpt lat="45.04581" lon="5.52174">
        <ele>1254</ele>
        <time>2020-06-17T17:31:25Z</time>
      </trkpt>
      <trkpt lat="45.04586" lon="5.52153">
        <ele>1254</ele>
        <time>2020-06-17T17:31:28Z</time>
      </trkpt>
      <trkpt lat="45.04588" lon="5.52119">
        <ele>1255</ele>
        <time>2020-06-17T17:31:34Z</time>
      </trkpt>
      <trkpt lat="45.04598" lon="5.52081">
        <ele>1254</ele>
        <time>2020-06-17T17:31:41Z</time>
      </trkpt>
      <trkpt lat="45.04599" lon="5.52035">
        <ele>1254</ele>
        <time>2020-06-17T17:31:48Z</time>
      </trkpt>
      <trkpt lat="45.04603" lon="5.51995">
        <ele>1253</ele>
        <time>2020-06-17T17:31:55Z</time>
      </trkpt>
      <trkpt lat="45.04602" lon="5.5194">
        <ele>1254</ele>
        <time>2020-06-17T17:32:04Z</time>
      </trkpt>
      <trkpt lat="45.04598" lon="5.51925">
        <ele>1255</ele>
        <time>2020-06-17T17:32:07Z</time>
      </trkpt>
      <trkpt lat="45.04583" lon="5.51897">
        <ele>1256</ele>
        <time>2020-06-17T17:32:13Z</time>
      </trkpt>
      <trkpt lat="45.04578" lon="5.51861">
        <ele>1256</ele>
        <time>2020-06-17T17:32:19Z</time>
      </trkpt>
      <trkpt lat="45.04583" lon="5.51847">
        <ele>1255</ele>
        <time>2020-06-17T17:32:21Z</time>
      </trkpt>
      <trkpt lat="45.04613" lon="5.51796">
        <ele>1252</ele>
        <time>2020-06-17T17:32:32Z</time>
      </trkpt>
      <trkpt lat="45.04638" lon="5.51736">
        <ele>1248</ele>
        <time>2020-06-17T17:32:44Z</time>
      </trkpt>
      <trkpt lat="45.04663" lon="5.51698">
        <ele>1244</ele>
        <time>2020-06-17T17:32:52Z</time>
      </trkpt>
      <trkpt lat="45.04673" lon="5.51656">
        <ele>1242</ele>
        <time>2020-06-17T17:32:59Z</time>
      </trkpt>
      <trkpt lat="45.04672" lon="5.51639">
        <ele>1243</ele>
        <time>2020-06-17T17:33:02Z</time>
      </trkpt>
      <trkpt lat="45.04684" lon="5.51606">
        <ele>1244</ele>
        <time>2020-06-17T17:33:08Z</time>
      </trkpt>
      <trkpt lat="45.04685" lon="5.51588">
        <ele>1244</ele>
        <time>2020-06-17T17:33:11Z</time>
      </trkpt>
      <trkpt lat="45.0468" lon="5.5157">
        <ele>1245</ele>
        <time>2020-06-17T17:33:15Z</time>
      </trkpt>
      <trkpt lat="45.04647" lon="5.51506">
        <ele>1248</ele>
        <time>2020-06-17T17:33:28Z</time>
      </trkpt>
      <trkpt lat="45.04635" lon="5.51472">
        <ele>1251</ele>
        <time>2020-06-17T17:33:34Z</time>
      </trkpt>
      <trkpt lat="45.04648" lon="5.51434">
        <ele>1251</ele>
        <time>2020-06-17T17:33:41Z</time>
      </trkpt>
      <trkpt lat="45.04662" lon="5.51409">
        <ele>1250</ele>
        <time>2020-06-17T17:33:46Z</time>
      </trkpt>
      <trkpt lat="45.04668" lon="5.5138">
        <ele>1248</ele>
        <time>2020-06-17T17:33:51Z</time>
      </trkpt>
      <trkpt lat="45.04673" lon="5.51316">
        <ele>1246</ele>
        <time>2020-06-17T17:34:02Z</time>
      </trkpt>
      <trkpt lat="45.04672" lon="5.51306">
        <ele>1245</ele>
        <time>2020-06-17T17:34:03Z</time>
      </trkpt>
      <trkpt lat="45.04669" lon="5.51301">
        <ele>1245</ele>
        <time>2020-06-17T17:34:05Z</time>
      </trkpt>
      <trkpt lat="45.04638" lon="5.51271">
        <ele>1247</ele>
        <time>2020-06-17T17:34:13Z</time>
      </trkpt>
      <trkpt lat="45.04621" lon="5.51249">
        <ele>1247</ele>
        <time>2020-06-17T17:34:19Z</time>
      </trkpt>
      <trkpt lat="45.04611" lon="5.51246">
        <ele>1248</ele>
        <time>2020-06-17T17:34:21Z</time>
      </trkpt>
      <trkpt lat="45.04597" lon="5.51231">
        <ele>1247</ele>
        <time>2020-06-17T17:34:25Z</time>
      </trkpt>
      <trkpt lat="45.04573" lon="5.51217">
        <ele>1248</ele>
        <time>2020-06-17T17:34:31Z</time>
      </trkpt>
      <trkpt lat="45.04552" lon="5.51193">
        <ele>1245</ele>
        <time>2020-06-17T17:34:38Z</time>
      </trkpt>
      <trkpt lat="45.04523" lon="5.51183">
        <ele>1246</ele>
        <time>2020-06-17T17:34:44Z</time>
      </trkpt>
      <trkpt lat="45.04508" lon="5.51175">
        <ele>1245</ele>
        <time>2020-06-17T17:34:48Z</time>
      </trkpt>
      <trkpt lat="45.04488" lon="5.51174">
        <ele>1248</ele>
        <time>2020-06-17T17:34:53Z</time>
      </trkpt>
      <trkpt lat="45.04474" lon="5.51178">
        <ele>1251</ele>
        <time>2020-06-17T17:34:56Z</time>
      </trkpt>
      <trkpt lat="45.04456" lon="5.51178">
        <ele>1254</ele>
        <time>2020-06-17T17:35:00Z</time>
      </trkpt>
      <trkpt lat="45.0443" lon="5.51158">
        <ele>1255</ele>
        <time>2020-06-17T17:35:07Z</time>
      </trkpt>
      <trkpt lat="45.04426" lon="5.51154">
        <ele>1255</ele>
        <time>2020-06-17T17:35:08Z</time>
      </trkpt>
      <trkpt lat="45.04422" lon="5.51143">
        <ele>1254</ele>
        <time>2020-06-17T17:35:11Z</time>
      </trkpt>
      <trkpt lat="45.04403" lon="5.51132">
        <ele>1255</ele>
        <time>2020-06-17T17:35:15Z</time>
      </trkpt>
      <trkpt lat="45.04379" lon="5.51104">
        <ele>1255</ele>
        <time>2020-06-17T17:35:23Z</time>
      </trkpt>
      <trkpt lat="45.04365" lon="5.51098">
        <ele>1257</ele>
        <time>2020-06-17T17:35:26Z</time>
      </trkpt>
      <trkpt lat="45.04358" lon="5.51092">
        <ele>1257</ele>
        <time>2020-06-17T17:35:28Z</time>
      </trkpt>
      <trkpt lat="45.0433" lon="5.51081">
        <ele>1259</ele>
        <time>2020-06-17T17:35:35Z</time>
      </trkpt>
      <trkpt lat="45.04291" lon="5.51074">
        <ele>1262</ele>
        <time>2020-06-17T17:35:44Z</time>
      </trkpt>
      <trkpt lat="45.04253" lon="5.51082">
        <ele>1269</ele>
        <time>2020-06-17T17:35:53Z</time>
      </trkpt>
      <trkpt lat="45.04233" lon="5.51075">
        <ele>1270</ele>
        <time>2020-06-17T17:35:58Z</time>
      </trkpt>
      <trkpt lat="45.04215" lon="5.51065">
        <ele>1269</ele>
        <time>2020-06-17T17:36:02Z</time>
      </trkpt>
      <trkpt lat="45.04189" lon="5.51062">
        <ele>1272</ele>
        <time>2020-06-17T17:36:08Z</time>
      </trkpt>
      <trkpt lat="45.04172" lon="5.51056">
        <ele>1273</ele>
        <time>2020-06-17T17:36:12Z</time>
      </trkpt>
      <trkpt lat="45.0413" lon="5.51049">
        <ele>1274</ele>
        <time>2020-06-17T17:36:22Z</time>
      </trkpt>
      <trkpt lat="45.04107" lon="5.51052">
        <ele>1277</ele>
        <time>2020-06-17T17:36:28Z</time>
      </trkpt>
      <trkpt lat="45.04079" lon="5.51041">
        <ele>1275</ele>
        <time>2020-06-17T17:36:34Z</time>
      </trkpt>
      <trkpt lat="45.0406" lon="5.51037">
        <ele>1275</ele>
        <time>2020-06-17T17:36:39Z</time>
      </trkpt>
      <trkpt lat="45.04041" lon="5.51037">
        <ele>1276</ele>
        <time>2020-06-17T17:36:43Z</time>
      </trkpt>
      <trkpt lat="45.04029" lon="5.5103">
        <ele>1274</ele>
        <time>2020-06-17T17:36:46Z</time>
      </trkpt>
      <trkpt lat="45.04016" lon="5.51028">
        <ele>1274</ele>
        <time>2020-06-17T17:36:49Z</time>
      </trkpt>
      <trkpt lat="45.03999" lon="5.51018">
        <ele>1273</ele>
        <time>2020-06-17T17:36:54Z</time>
      </trkpt>
      <trkpt lat="45.03975" lon="5.5101">
        <ele>1270</ele>
        <time>2020-06-17T17:36:59Z</time>
      </trkpt>
      <trkpt lat="45.03916" lon="5.50998">
        <ele>1266</ele>
        <time>2020-06-17T17:37:13Z</time>
      </trkpt>
      <trkpt lat="45.03895" lon="5.50989">
        <ele>1263</ele>
        <time>2020-06-17T17:37:19Z</time>
      </trkpt>
      <trkpt lat="45.03889" lon="5.5097">
        <ele>1259</ele>
        <time>2020-06-17T17:37:22Z</time>
      </trkpt>
      <trkpt lat="45.03889" lon="5.5096">
        <ele>1258</ele>
        <time>2020-06-17T17:37:24Z</time>
      </trkpt>
      <trkpt lat="45.03897" lon="5.50934">
        <ele>1254</ele>
        <time>2020-06-17T17:37:28Z</time>
      </trkpt>
      <trkpt lat="45.03898" lon="5.50923">
        <ele>1253</ele>
        <time>2020-06-17T17:37:30Z</time>
      </trkpt>
      <trkpt lat="45.03894" lon="5.50916">
        <ele>1252</ele>
        <time>2020-06-17T17:37:32Z</time>
      </trkpt>
      <trkpt lat="45.03874" lon="5.50901">
        <ele>1250</ele>
        <time>2020-06-17T17:37:37Z</time>
      </trkpt>
      <trkpt lat="45.03864" lon="5.50895">
        <ele>1249</ele>
        <time>2020-06-17T17:37:39Z</time>
      </trkpt>
      <trkpt lat="45.03845" lon="5.5089">
        <ele>1247</ele>
        <time>2020-06-17T17:37:44Z</time>
      </trkpt>
      <trkpt lat="45.03832" lon="5.50893">
        <ele>1247</ele>
        <time>2020-06-17T17:37:47Z</time>
      </trkpt>
      <trkpt lat="45.03793" lon="5.50912">
        <ele>1248</ele>
        <time>2020-06-17T17:37:57Z</time>
      </trkpt>
      <trkpt lat="45.03785" lon="5.50913">
        <ele>1248</ele>
        <time>2020-06-17T17:37:59Z</time>
      </trkpt>
      <trkpt lat="45.03767" lon="5.50907">
        <ele>1248</ele>
        <time>2020-06-17T17:38:03Z</time>
      </trkpt>
      <trkpt lat="45.03749" lon="5.50895">
        <ele>1247</ele>
        <time>2020-06-17T17:38:08Z</time>
      </trkpt>
      <trkpt lat="45.03743" lon="5.50888">
        <ele>1247</ele>
        <time>2020-06-17T17:38:09Z</time>
      </trkpt>
      <trkpt lat="45.03726" lon="5.50856">
        <ele>1245</ele>
        <time>2020-06-17T17:38:16Z</time>
      </trkpt>
      <trkpt lat="45.0368" lon="5.50794">
        <ele>1245</ele>
        <time>2020-06-17T17:38:31Z</time>
      </trkpt>
      <trkpt lat="45.03672" lon="5.50734">
        <ele>1246</ele>
        <time>2020-06-17T17:38:41Z</time>
      </trkpt>
      <trkpt lat="45.03674" lon="5.50705">
        <ele>1248</ele>
        <time>2020-06-17T17:38:46Z</time>
      </trkpt>
      <trkpt lat="45.03676" lon="5.50697">
        <ele>1248</ele>
        <time>2020-06-17T17:38:47Z</time>
      </trkpt>
      <trkpt lat="45.03705" lon="5.50656">
        <ele>1251</ele>
        <time>2020-06-17T17:38:57Z</time>
      </trkpt>
      <trkpt lat="45.03712" lon="5.50642">
        <ele>1252</ele>
        <time>2020-06-17T17:38:59Z</time>
      </trkpt>
      <trkpt lat="45.03715" lon="5.50623">
        <ele>1253</ele>
        <time>2020-06-17T17:39:03Z</time>
      </trkpt>
      <trkpt lat="45.03716" lon="5.50591">
        <ele>1254</ele>
        <time>2020-06-17T17:39:08Z</time>
      </trkpt>
      <trkpt lat="45.03734" lon="5.50532">
        <ele>1257</ele>
        <time>2020-06-17T17:39:19Z</time>
      </trkpt>
      <trkpt lat="45.03772" lon="5.50465">
        <ele>1263</ele>
        <time>2020-06-17T17:39:33Z</time>
      </trkpt>
      <trkpt lat="45.0378" lon="5.50454">
        <ele>1264</ele>
        <time>2020-06-17T17:39:35Z</time>
      </trkpt>
      <trkpt lat="45.03785" lon="5.50452">
        <ele>1264</ele>
        <time>2020-06-17T17:39:37Z</time>
      </trkpt>
      <trkpt lat="45.038" lon="5.50435">
        <ele>1266</ele>
        <time>2020-06-17T17:39:41Z</time>
      </trkpt>
      <trkpt lat="45.03806" lon="5.50422">
        <ele>1267</ele>
        <time>2020-06-17T17:39:44Z</time>
      </trkpt>
      <trkpt lat="45.03808" lon="5.50408">
        <ele>1268</ele>
        <time>2020-06-17T17:39:46Z</time>
      </trkpt>
      <trkpt lat="45.03814" lon="5.50391">
        <ele>1269</ele>
        <time>2020-06-17T17:39:49Z</time>
      </trkpt>
      <trkpt lat="45.03827" lon="5.50372">
        <ele>1270</ele>
        <time>2020-06-17T17:39:53Z</time>
      </trkpt>
      <trkpt lat="45.0385" lon="5.5033">
        <ele>1274</ele>
        <time>2020-06-17T17:40:02Z</time>
      </trkpt>
      <trkpt lat="45.03875" lon="5.50294">
        <ele>1278</ele>
        <time>2020-06-17T17:40:11Z</time>
      </trkpt>
      <trkpt lat="45.03883" lon="5.50286">
        <ele>1278</ele>
        <time>2020-06-17T17:40:13Z</time>
      </trkpt>
      <trkpt lat="45.03894" lon="5.50253">
        <ele>1281</ele>
        <time>2020-06-17T17:40:19Z</time>
      </trkpt>
      <trkpt lat="45.03896" lon="5.50237">
        <ele>1282</ele>
        <time>2020-06-17T17:40:22Z</time>
      </trkpt>
      <trkpt lat="45.03892" lon="5.50216">
        <ele>1283</ele>
        <time>2020-06-17T17:40:25Z</time>
      </trkpt>
      <trkpt lat="45.03894" lon="5.50195">
        <ele>1285</ele>
        <time>2020-06-17T17:40:29Z</time>
      </trkpt>
      <trkpt lat="45.03906" lon="5.50155">
        <ele>1288</ele>
        <time>2020-06-17T17:40:36Z</time>
      </trkpt>
      <trkpt lat="45.0392" lon="5.50127">
        <ele>1289</ele>
        <time>2020-06-17T17:40:41Z</time>
      </trkpt>
      <trkpt lat="45.03961" lon="5.50088">
        <ele>1292</ele>
        <time>2020-06-17T17:40:53Z</time>
      </trkpt>
      <trkpt lat="45.03977" lon="5.50082">
        <ele>1292</ele>
        <time>2020-06-17T17:40:57Z</time>
      </trkpt>
      <trkpt lat="45.04017" lon="5.50079">
        <ele>1292</ele>
        <time>2020-06-17T17:41:06Z</time>
      </trkpt>
      <trkpt lat="45.04024" lon="5.50079">
        <ele>1292</ele>
        <time>2020-06-17T17:41:08Z</time>
      </trkpt>
      <trkpt lat="45.04037" lon="5.50084">
        <ele>1293</ele>
        <time>2020-06-17T17:41:11Z</time>
      </trkpt>
      <trkpt lat="45.04055" lon="5.50079">
        <ele>1292</ele>
        <time>2020-06-17T17:41:15Z</time>
      </trkpt>
      <trkpt lat="45.04065" lon="5.50079">
        <ele>1292</ele>
        <time>2020-06-17T17:41:18Z</time>
      </trkpt>
      <trkpt lat="45.04081" lon="5.50085">
        <ele>1292</ele>
        <time>2020-06-17T17:41:21Z</time>
      </trkpt>
      <trkpt lat="45.04095" lon="5.50085">
        <ele>1292</ele>
        <time>2020-06-17T17:41:25Z</time>
      </trkpt>
      <trkpt lat="45.04151" lon="5.50061">
        <ele>1290</ele>
        <time>2020-06-17T17:41:38Z</time>
      </trkpt>
      <trkpt lat="45.04184" lon="5.50063">
        <ele>1291</ele>
        <time>2020-06-17T17:41:46Z</time>
      </trkpt>
      <trkpt lat="45.04222" lon="5.50061">
        <ele>1292</ele>
        <time>2020-06-17T17:41:55Z</time>
      </trkpt>
      <trkpt lat="45.04257" lon="5.50046">
        <ele>1291</ele>
        <time>2020-06-17T17:42:04Z</time>
      </trkpt>
      <trkpt lat="45.04287" lon="5.50011">
        <ele>1289</ele>
        <time>2020-06-17T17:42:13Z</time>
      </trkpt>
      <trkpt lat="45.04292" lon="5.50006">
        <ele>1289</ele>
        <time>2020-06-17T17:42:14Z</time>
      </trkpt>
      <trkpt lat="45.04298" lon="5.50004">
        <ele>1289</ele>
        <time>2020-06-17T17:42:15Z</time>
      </trkpt>
      <trkpt lat="45.04333" lon="5.50019">
        <ele>1289</ele>
        <time>2020-06-17T17:42:24Z</time>
      </trkpt>
      <trkpt lat="45.04358" lon="5.50022">
        <ele>1288</ele>
        <time>2020-06-17T17:42:30Z</time>
      </trkpt>
      <trkpt lat="45.04391" lon="5.50017">
        <ele>1286</ele>
        <time>2020-06-17T17:42:38Z</time>
      </trkpt>
      <trkpt lat="45.04414" lon="5.50006">
        <ele>1284</ele>
        <time>2020-06-17T17:42:43Z</time>
      </trkpt>
      <trkpt lat="45.04438" lon="5.50009">
        <ele>1282</ele>
        <time>2020-06-17T17:42:49Z</time>
      </trkpt>
      <trkpt lat="45.04451" lon="5.50008">
        <ele>1281</ele>
        <time>2020-06-17T17:42:52Z</time>
      </trkpt>
      <trkpt lat="45.04466" lon="5.49993">
        <ele>1280</ele>
        <time>2020-06-17T17:42:56Z</time>
      </trkpt>
      <trkpt lat="45.04476" lon="5.49988">
        <ele>1280</ele>
        <time>2020-06-17T17:42:59Z</time>
      </trkpt>
      <trkpt lat="45.04505" lon="5.49991">
        <ele>1278</ele>
        <time>2020-06-17T17:43:06Z</time>
      </trkpt>
      <trkpt lat="45.04522" lon="5.49984">
        <ele>1278</ele>
        <time>2020-06-17T17:43:10Z</time>
      </trkpt>
      <trkpt lat="45.04541" lon="5.4998">
        <ele>1278</ele>
        <time>2020-06-17T17:43:14Z</time>
      </trkpt>
      <trkpt lat="45.04554" lon="5.49983">
        <ele>1277</ele>
        <time>2020-06-17T17:43:17Z</time>
      </trkpt>
      <trkpt lat="45.04577" lon="5.49984">
        <ele>1276</ele>
        <time>2020-06-17T17:43:23Z</time>
      </trkpt>
      <trkpt lat="45.04601" lon="5.49972">
        <ele>1279</ele>
        <time>2020-06-17T17:43:29Z</time>
      </trkpt>
      <trkpt lat="45.04614" lon="5.49977">
        <ele>1279</ele>
        <time>2020-06-17T17:43:32Z</time>
      </trkpt>
      <trkpt lat="45.04622" lon="5.49985">
        <ele>1278</ele>
        <time>2020-06-17T17:43:34Z</time>
      </trkpt>
      <trkpt lat="45.04633" lon="5.50003">
        <ele>1277</ele>
        <time>2020-06-17T17:43:38Z</time>
      </trkpt>
      <trkpt lat="45.04654" lon="5.50019">
        <ele>1278</ele>
        <time>2020-06-17T17:43:43Z</time>
      </trkpt>
      <trkpt lat="45.04667" lon="5.50018">
        <ele>1279</ele>
        <time>2020-06-17T17:43:47Z</time>
      </trkpt>
      <trkpt lat="45.04682" lon="5.50022">
        <ele>1279</ele>
        <time>2020-06-17T17:43:50Z</time>
      </trkpt>
      <trkpt lat="45.04697" lon="5.50021">
        <ele>1278</ele>
        <time>2020-06-17T17:43:54Z</time>
      </trkpt>
      <trkpt lat="45.04718" lon="5.50026">
        <ele>1278</ele>
        <time>2020-06-17T17:43:59Z</time>
      </trkpt>
      <trkpt lat="45.0473" lon="5.50022">
        <ele>1278</ele>
        <time>2020-06-17T17:44:01Z</time>
      </trkpt>
      <trkpt lat="45.04746" lon="5.50025">
        <ele>1278</ele>
        <time>2020-06-17T17:44:05Z</time>
      </trkpt>
      <trkpt lat="45.04764" lon="5.50039">
        <ele>1278</ele>
        <time>2020-06-17T17:44:10Z</time>
      </trkpt>
      <trkpt lat="45.04773" lon="5.50052">
        <ele>1278</ele>
        <time>2020-06-17T17:44:13Z</time>
      </trkpt>
      <trkpt lat="45.04817" lon="5.50086">
        <ele>1275</ele>
        <time>2020-06-17T17:44:25Z</time>
      </trkpt>
      <trkpt lat="45.04846" lon="5.50117">
        <ele>1275</ele>
        <time>2020-06-17T17:44:33Z</time>
      </trkpt>
      <trkpt lat="45.04876" lon="5.50123">
        <ele>1273</ele>
        <time>2020-06-17T17:44:40Z</time>
      </trkpt>
      <trkpt lat="45.04915" lon="5.50141">
        <ele>1271</ele>
        <time>2020-06-17T17:44:50Z</time>
      </trkpt>
      <trkpt lat="45.0497" lon="5.50147">
        <ele>1266</ele>
        <time>2020-06-17T17:45:03Z</time>
      </trkpt>
      <trkpt lat="45.05029" lon="5.50166">
        <ele>1263</ele>
        <time>2020-06-17T17:45:17Z</time>
      </trkpt>
      <trkpt lat="45.05044" lon="5.50161">
        <ele>1261</ele>
        <time>2020-06-17T17:45:20Z</time>
      </trkpt>
      <trkpt lat="45.05065" lon="5.50167">
        <ele>1260</ele>
        <time>2020-06-17T17:45:25Z</time>
      </trkpt>
      <trkpt lat="45.05076" lon="5.50167">
        <ele>1259</ele>
        <time>2020-06-17T17:45:28Z</time>
      </trkpt>
      <trkpt lat="45.05124" lon="5.50177">
        <ele>1255</ele>
        <time>2020-06-17T17:45:39Z</time>
      </trkpt>
      <trkpt lat="45.05152" lon="5.50191">
        <ele>1253</ele>
        <time>2020-06-17T17:45:46Z</time>
      </trkpt>
      <trkpt lat="45.05173" lon="5.50197">
        <ele>1251</ele>
        <time>2020-06-17T17:45:51Z</time>
      </trkpt>
      <trkpt lat="45.05188" lon="5.50208">
        <ele>1251</ele>
        <time>2020-06-17T17:45:55Z</time>
      </trkpt>
      <trkpt lat="45.05201" lon="5.50224">
        <ele>1250</ele>
        <time>2020-06-17T17:45:59Z</time>
      </trkpt>
      <trkpt lat="45.05209" lon="5.50235">
        <ele>1250</ele>
        <time>2020-06-17T17:46:02Z</time>
      </trkpt>
      <trkpt lat="45.0522" lon="5.5026">
        <ele>1249</ele>
        <time>2020-06-17T17:46:07Z</time>
      </trkpt>
      <trkpt lat="45.0522" lon="5.50271">
        <ele>1249</ele>
        <time>2020-06-17T17:46:09Z</time>
      </trkpt>
      <trkpt lat="45.05212" lon="5.50281">
        <ele>1249</ele>
        <time>2020-06-17T17:46:11Z</time>
      </trkpt>
      <trkpt lat="45.05211" lon="5.50304">
        <ele>1248</ele>
        <time>2020-06-17T17:46:15Z</time>
      </trkpt>
      <trkpt lat="45.05221" lon="5.50327">
        <ele>1247</ele>
        <time>2020-06-17T17:46:19Z</time>
      </trkpt>
      <trkpt lat="45.05227" lon="5.50331">
        <ele>1246</ele>
        <time>2020-06-17T17:46:21Z</time>
      </trkpt>
      <trkpt lat="45.05238" lon="5.5033">
        <ele>1246</ele>
        <time>2020-06-17T17:46:23Z</time>
      </trkpt>
      <trkpt lat="45.05245" lon="5.50325">
        <ele>1246</ele>
        <time>2020-06-17T17:46:25Z</time>
      </trkpt>
      <trkpt lat="45.05264" lon="5.50332">
        <ele>1245</ele>
        <time>2020-06-17T17:46:30Z</time>
      </trkpt>
      <trkpt lat="45.05266" lon="5.50339">
        <ele>1245</ele>
        <time>2020-06-17T17:46:31Z</time>
      </trkpt>
      <trkpt lat="45.05265" lon="5.50371">
        <ele>1244</ele>
        <time>2020-06-17T17:46:36Z</time>
      </trkpt>
      <trkpt lat="45.05278" lon="5.50409">
        <ele>1244</ele>
        <time>2020-06-17T17:46:43Z</time>
      </trkpt>
      <trkpt lat="45.05282" lon="5.50433">
        <ele>1244</ele>
        <time>2020-06-17T17:46:47Z</time>
      </trkpt>
      <trkpt lat="45.05291" lon="5.50459">
        <ele>1243</ele>
        <time>2020-06-17T17:46:52Z</time>
      </trkpt>
      <trkpt lat="45.05311" lon="5.50489">
        <ele>1242</ele>
        <time>2020-06-17T17:46:59Z</time>
      </trkpt>
      <trkpt lat="45.05327" lon="5.50529">
        <ele>1236</ele>
        <time>2020-06-17T17:47:07Z</time>
      </trkpt>
      <trkpt lat="45.05335" lon="5.50534">
        <ele>1235</ele>
        <time>2020-06-17T17:47:09Z</time>
      </trkpt>
      <trkpt lat="45.05346" lon="5.50547">
        <ele>1233</ele>
        <time>2020-06-17T17:47:12Z</time>
      </trkpt>
      <trkpt lat="45.05352" lon="5.50561">
        <ele>1231</ele>
        <time>2020-06-17T17:47:15Z</time>
      </trkpt>
      <trkpt lat="45.05357" lon="5.50589">
        <ele>1228</ele>
        <time>2020-06-17T17:47:19Z</time>
      </trkpt>
      <trkpt lat="45.05366" lon="5.50599">
        <ele>1227</ele>
        <time>2020-06-17T17:47:22Z</time>
      </trkpt>
      <trkpt lat="45.05374" lon="5.50602">
        <ele>1227</ele>
        <time>2020-06-17T17:47:24Z</time>
      </trkpt>
      <trkpt lat="45.05397" lon="5.50625">
        <ele>1226</ele>
        <time>2020-06-17T17:47:31Z</time>
      </trkpt>
      <trkpt lat="45.05402" lon="5.50635">
        <ele>1225</ele>
        <time>2020-06-17T17:47:33Z</time>
      </trkpt>
      <trkpt lat="45.05404" lon="5.50653">
        <ele>1223</ele>
        <time>2020-06-17T17:47:36Z</time>
      </trkpt>
      <trkpt lat="45.05396" lon="5.50674">
        <ele>1222</ele>
        <time>2020-06-17T17:47:40Z</time>
      </trkpt>
      <trkpt lat="45.05373" lon="5.50687">
        <ele>1222</ele>
        <time>2020-06-17T17:47:45Z</time>
      </trkpt>
      <trkpt lat="45.05368" lon="5.50696">
        <ele>1222</ele>
        <time>2020-06-17T17:47:47Z</time>
      </trkpt>
      <trkpt lat="45.05368" lon="5.50725">
        <ele>1221</ele>
        <time>2020-06-17T17:47:52Z</time>
      </trkpt>
      <trkpt lat="45.05359" lon="5.50766">
        <ele>1219</ele>
        <time>2020-06-17T17:47:59Z</time>
      </trkpt>
      <trkpt lat="45.05362" lon="5.50778">
        <ele>1218</ele>
        <time>2020-06-17T17:48:01Z</time>
      </trkpt>
      <trkpt lat="45.05374" lon="5.50801">
        <ele>1217</ele>
        <time>2020-06-17T17:48:06Z</time>
      </trkpt>
      <trkpt lat="45.05351" lon="5.50834">
        <ele>1214</ele>
        <time>2020-06-17T17:48:14Z</time>
      </trkpt>
      <trkpt lat="45.05333" lon="5.50868">
        <ele>1210</ele>
        <time>2020-06-17T17:48:21Z</time>
      </trkpt>
      <trkpt lat="45.05297" lon="5.50927">
        <ele>1200</ele>
        <time>2020-06-17T17:48:33Z</time>
      </trkpt>
      <trkpt lat="45.05278" lon="5.50946">
        <ele>1196</ele>
        <time>2020-06-17T17:48:39Z</time>
      </trkpt>
      <trkpt lat="45.05256" lon="5.51002">
        <ele>1187</ele>
        <time>2020-06-17T17:48:49Z</time>
      </trkpt>
      <trkpt lat="45.05224" lon="5.51072">
        <ele>1192</ele>
        <time>2020-06-17T17:49:03Z</time>
      </trkpt>
      <trkpt lat="45.05222" lon="5.51078">
        <ele>1192</ele>
        <time>2020-06-17T17:49:04Z</time>
      </trkpt>
      <trkpt lat="45.05223" lon="5.51098">
        <ele>1194</ele>
        <time>2020-06-17T17:49:08Z</time>
      </trkpt>
      <trkpt lat="45.05227" lon="5.51111">
        <ele>1195</ele>
        <time>2020-06-17T17:49:10Z</time>
      </trkpt>
      <trkpt lat="45.05239" lon="5.51116">
        <ele>1195</ele>
        <time>2020-06-17T17:49:13Z</time>
      </trkpt>
      <trkpt lat="45.05251" lon="5.51125">
        <ele>1195</ele>
        <time>2020-06-17T17:49:16Z</time>
      </trkpt>
      <trkpt lat="45.05264" lon="5.51123">
        <ele>1195</ele>
        <time>2020-06-17T17:49:19Z</time>
      </trkpt>
      <trkpt lat="45.05272" lon="5.51132">
        <ele>1196</ele>
        <time>2020-06-17T17:49:21Z</time>
      </trkpt>
      <trkpt lat="45.05276" lon="5.51151">
        <ele>1198</ele>
        <time>2020-06-17T17:49:25Z</time>
      </trkpt>
      <trkpt lat="45.05274" lon="5.51172">
        <ele>1200</ele>
        <time>2020-06-17T17:49:28Z</time>
      </trkpt>
      <trkpt lat="45.05267" lon="5.51196">
        <ele>1200</ele>
        <time>2020-06-17T17:49:33Z</time>
      </trkpt>
      <trkpt lat="45.05269" lon="5.51221">
        <ele>1201</ele>
        <time>2020-06-17T17:49:37Z</time>
      </trkpt>
      <trkpt lat="45.05276" lon="5.51225">
        <ele>1201</ele>
        <time>2020-06-17T17:49:38Z</time>
      </trkpt>
      <trkpt lat="45.05299" lon="5.51226">
        <ele>1200</ele>
        <time>2020-06-17T17:49:44Z</time>
      </trkpt>
      <trkpt lat="45.05315" lon="5.51226">
        <ele>1199</ele>
        <time>2020-06-17T17:49:48Z</time>
      </trkpt>
      <trkpt lat="45.05336" lon="5.51221">
        <ele>1199</ele>
        <time>2020-06-17T17:49:53Z</time>
      </trkpt>
      <trkpt lat="45.05361" lon="5.51221">
        <ele>1197</ele>
        <time>2020-06-17T17:49:58Z</time>
      </trkpt>
      <trkpt lat="45.05372" lon="5.51225">
        <ele>1197</ele>
        <time>2020-06-17T17:50:01Z</time>
      </trkpt>
      <trkpt lat="45.05377" lon="5.51231">
        <ele>1196</ele>
        <time>2020-06-17T17:50:03Z</time>
      </trkpt>
      <trkpt lat="45.05383" lon="5.51242">
        <ele>1196</ele>
        <time>2020-06-17T17:50:05Z</time>
      </trkpt>
      <trkpt lat="45.05384" lon="5.51262">
        <ele>1195</ele>
        <time>2020-06-17T17:50:08Z</time>
      </trkpt>
      <trkpt lat="45.05365" lon="5.51302">
        <ele>1195</ele>
        <time>2020-06-17T17:50:16Z</time>
      </trkpt>
      <trkpt lat="45.05363" lon="5.51317">
        <ele>1194</ele>
        <time>2020-06-17T17:50:19Z</time>
      </trkpt>
      <trkpt lat="45.05364" lon="5.51324">
        <ele>1194</ele>
        <time>2020-06-17T17:50:20Z</time>
      </trkpt>
      <trkpt lat="45.05377" lon="5.51353">
        <ele>1191</ele>
        <time>2020-06-17T17:50:25Z</time>
      </trkpt>
      <trkpt lat="45.05394" lon="5.51376">
        <ele>1189</ele>
        <time>2020-06-17T17:50:31Z</time>
      </trkpt>
      <trkpt lat="45.05405" lon="5.51383">
        <ele>1187</ele>
        <time>2020-06-17T17:50:34Z</time>
      </trkpt>
      <trkpt lat="45.05416" lon="5.51384">
        <ele>1187</ele>
        <time>2020-06-17T17:50:36Z</time>
      </trkpt>
      <trkpt lat="45.05429" lon="5.51379">
        <ele>1186</ele>
        <time>2020-06-17T17:50:40Z</time>
      </trkpt>
      <trkpt lat="45.05445" lon="5.51369">
        <ele>1186</ele>
        <time>2020-06-17T17:50:44Z</time>
      </trkpt>
      <trkpt lat="45.05456" lon="5.51355">
        <ele>1186</ele>
        <time>2020-06-17T17:50:47Z</time>
      </trkpt>
      <trkpt lat="45.05467" lon="5.51312">
        <ele>1188</ele>
        <time>2020-06-17T17:50:55Z</time>
      </trkpt>
      <trkpt lat="45.05492" lon="5.51233">
        <ele>1190</ele>
        <time>2020-06-17T17:51:09Z</time>
      </trkpt>
      <trkpt lat="45.05497" lon="5.5123">
        <ele>1190</ele>
        <time>2020-06-17T17:51:10Z</time>
      </trkpt>
      <trkpt lat="45.05508" lon="5.51229">
        <ele>1189</ele>
        <time>2020-06-17T17:51:13Z</time>
      </trkpt>
      <trkpt lat="45.05523" lon="5.51233">
        <ele>1187</ele>
        <time>2020-06-17T17:51:16Z</time>
      </trkpt>
      <trkpt lat="45.05531" lon="5.51229">
        <ele>1186</ele>
        <time>2020-06-17T17:51:18Z</time>
      </trkpt>
      <trkpt lat="45.05568" lon="5.51187">
        <ele>1184</ele>
        <time>2020-06-17T17:51:29Z</time>
      </trkpt>
      <trkpt lat="45.05576" lon="5.51153">
        <ele>1184</ele>
        <time>2020-06-17T17:51:35Z</time>
      </trkpt>
      <trkpt lat="45.05585" lon="5.51139">
        <ele>1184</ele>
        <time>2020-06-17T17:51:38Z</time>
      </trkpt>
      <trkpt lat="45.05597" lon="5.51129">
        <ele>1184</ele>
        <time>2020-06-17T17:51:42Z</time>
      </trkpt>
      <trkpt lat="45.0562" lon="5.51124">
        <ele>1184</ele>
        <time>2020-06-17T17:51:47Z</time>
      </trkpt>
      <trkpt lat="45.05662" lon="5.51127">
        <ele>1183</ele>
        <time>2020-06-17T17:51:57Z</time>
      </trkpt>
      <trkpt lat="45.05693" lon="5.51135">
        <ele>1179</ele>
        <time>2020-06-17T17:52:04Z</time>
      </trkpt>
      <trkpt lat="45.05699" lon="5.51135">
        <ele>1178</ele>
        <time>2020-06-17T17:52:06Z</time>
      </trkpt>
      <trkpt lat="45.05709" lon="5.51129">
        <ele>1178</ele>
        <time>2020-06-17T17:52:08Z</time>
      </trkpt>
      <trkpt lat="45.05719" lon="5.51115">
        <ele>1179</ele>
        <time>2020-06-17T17:52:11Z</time>
      </trkpt>
      <trkpt lat="45.05731" lon="5.51075">
        <ele>1184</ele>
        <time>2020-06-17T17:52:19Z</time>
      </trkpt>
      <trkpt lat="45.05739" lon="5.51064">
        <ele>1185</ele>
        <time>2020-06-17T17:52:21Z</time>
      </trkpt>
      <trkpt lat="45.05749" lon="5.51057">
        <ele>1185</ele>
        <time>2020-06-17T17:52:24Z</time>
      </trkpt>
      <trkpt lat="45.05772" lon="5.51048">
        <ele>1183</ele>
        <time>2020-06-17T17:52:29Z</time>
      </trkpt>
      <trkpt lat="45.05818" lon="5.51023">
        <ele>1180</ele>
        <time>2020-06-17T17:52:41Z</time>
      </trkpt>
      <trkpt lat="45.05844" lon="5.51002">
        <ele>1179</ele>
        <time>2020-06-17T17:52:48Z</time>
      </trkpt>
      <trkpt lat="45.05854" lon="5.5099">
        <ele>1179</ele>
        <time>2020-06-17T17:52:51Z</time>
      </trkpt>
      <trkpt lat="45.05892" lon="5.50907">
        <ele>1185</ele>
        <time>2020-06-17T17:53:07Z</time>
      </trkpt>
      <trkpt lat="45.05913" lon="5.50884">
        <ele>1187</ele>
        <time>2020-06-17T17:53:13Z</time>
      </trkpt>
      <trkpt lat="45.05938" lon="5.50862">
        <ele>1187</ele>
        <time>2020-06-17T17:53:20Z</time>
      </trkpt>
      <trkpt lat="45.05988" lon="5.50782">
        <ele>1198</ele>
        <time>2020-06-17T17:53:38Z</time>
      </trkpt>
      <trkpt lat="45.06024" lon="5.50753">
        <ele>1199</ele>
        <time>2020-06-17T17:53:48Z</time>
      </trkpt>
      <trkpt lat="45.06087" lon="5.50709">
        <ele>1192</ele>
        <time>2020-06-17T17:54:04Z</time>
      </trkpt>
      <trkpt lat="45.06149" lon="5.50657">
        <ele>1191</ele>
        <time>2020-06-17T17:54:21Z</time>
      </trkpt>
      <trkpt lat="45.0616" lon="5.50642">
        <ele>1190</ele>
        <time>2020-06-17T17:54:24Z</time>
      </trkpt>
      <trkpt lat="45.06184" lon="5.50584">
        <ele>1193</ele>
        <time>2020-06-17T17:54:36Z</time>
      </trkpt>
      <trkpt lat="45.06204" lon="5.50571">
        <ele>1194</ele>
        <time>2020-06-17T17:54:41Z</time>
      </trkpt>
      <trkpt lat="45.06224" lon="5.50567">
        <ele>1192</ele>
        <time>2020-06-17T17:54:45Z</time>
      </trkpt>
      <trkpt lat="45.06233" lon="5.5056">
        <ele>1192</ele>
        <time>2020-06-17T17:54:48Z</time>
      </trkpt>
      <trkpt lat="45.06251" lon="5.50538">
        <ele>1192</ele>
        <time>2020-06-17T17:54:53Z</time>
      </trkpt>
      <trkpt lat="45.06274" lon="5.50529">
        <ele>1189</ele>
        <time>2020-06-17T17:54:59Z</time>
      </trkpt>
      <trkpt lat="45.06298" lon="5.5051">
        <ele>1186</ele>
        <time>2020-06-17T17:55:05Z</time>
      </trkpt>
      <trkpt lat="45.06307" lon="5.50499">
        <ele>1185</ele>
        <time>2020-06-17T17:55:08Z</time>
      </trkpt>
      <trkpt lat="45.06322" lon="5.5047">
        <ele>1185</ele>
        <time>2020-06-17T17:55:14Z</time>
      </trkpt>
      <trkpt lat="45.06341" lon="5.50411">
        <ele>1185</ele>
        <time>2020-06-17T17:55:25Z</time>
      </trkpt>
      <trkpt lat="45.06354" lon="5.50383">
        <ele>1185</ele>
        <time>2020-06-17T17:55:30Z</time>
      </trkpt>
      <trkpt lat="45.0638" lon="5.50353">
        <ele>1180</ele>
        <time>2020-06-17T17:55:38Z</time>
      </trkpt>
      <trkpt lat="45.06397" lon="5.5032">
        <ele>1179</ele>
        <time>2020-06-17T17:55:45Z</time>
      </trkpt>
      <trkpt lat="45.06408" lon="5.5029">
        <ele>1181</ele>
        <time>2020-06-17T17:55:50Z</time>
      </trkpt>
      <trkpt lat="45.06431" lon="5.50254">
        <ele>1180</ele>
        <time>2020-06-17T17:55:58Z</time>
      </trkpt>
      <trkpt lat="45.06435" lon="5.50244">
        <ele>1180</ele>
        <time>2020-06-17T17:56:00Z</time>
      </trkpt>
      <trkpt lat="45.06446" lon="5.50232">
        <ele>1178</ele>
        <time>2020-06-17T17:56:04Z</time>
      </trkpt>
      <trkpt lat="45.06455" lon="5.50203">
        <ele>1180</ele>
        <time>2020-06-17T17:56:09Z</time>
      </trkpt>
      <trkpt lat="45.06459" lon="5.50199">
        <ele>1180</ele>
        <time>2020-06-17T17:56:10Z</time>
      </trkpt>
      <trkpt lat="45.06467" lon="5.50198">
        <ele>1178</ele>
        <time>2020-06-17T17:56:12Z</time>
      </trkpt>
      <trkpt lat="45.06463" lon="5.50197">
        <ele>1179</ele>
        <time>2020-06-17T17:56:13Z</time>
      </trkpt>
      <trkpt lat="45.06462" lon="5.50193">
        <ele>1180</ele>
        <time>2020-06-17T17:56:13Z</time>
      </trkpt>
      <trkpt lat="45.06467" lon="5.50168">
        <ele>1183</ele>
        <time>2020-06-17T17:56:18Z</time>
      </trkpt>
      <trkpt lat="45.06506" lon="5.50117">
        <ele>1185</ele>
        <time>2020-06-17T17:56:30Z</time>
      </trkpt>
      <trkpt lat="45.06539" lon="5.50092">
        <ele>1186</ele>
        <time>2020-06-17T17:56:39Z</time>
      </trkpt>
      <trkpt lat="45.06552" lon="5.50071">
        <ele>1190</ele>
        <time>2020-06-17T17:56:43Z</time>
      </trkpt>
      <trkpt lat="45.06578" lon="5.50048">
        <ele>1191</ele>
        <time>2020-06-17T17:56:51Z</time>
      </trkpt>
      <trkpt lat="45.06594" lon="5.5003">
        <ele>1191</ele>
        <time>2020-06-17T17:56:55Z</time>
      </trkpt>
      <trkpt lat="45.06605" lon="5.50017">
        <ele>1191</ele>
        <time>2020-06-17T17:56:59Z</time>
      </trkpt>
      <trkpt lat="45.0661" lon="5.50003">
        <ele>1193</ele>
        <time>2020-06-17T17:57:01Z</time>
      </trkpt>
      <trkpt lat="45.06619" lon="5.49998">
        <ele>1191</ele>
        <time>2020-06-17T17:57:04Z</time>
      </trkpt>
      <trkpt lat="45.06624" lon="5.49992">
        <ele>1190</ele>
        <time>2020-06-17T17:57:05Z</time>
      </trkpt>
      <trkpt lat="45.0663" lon="5.49979">
        <ele>1189</ele>
        <time>2020-06-17T17:57:08Z</time>
      </trkpt>
      <trkpt lat="45.06627" lon="5.49957">
        <ele>1193</ele>
        <time>2020-06-17T17:57:11Z</time>
      </trkpt>
      <trkpt lat="45.06601" lon="5.49916">
        <ele>1204</ele>
        <time>2020-06-17T17:57:20Z</time>
      </trkpt>
      <trkpt lat="45.06596" lon="5.49903">
        <ele>1206</ele>
        <time>2020-06-17T17:57:23Z</time>
      </trkpt>
      <trkpt lat="45.06594" lon="5.49889">
        <ele>1207</ele>
        <time>2020-06-17T17:57:25Z</time>
      </trkpt>
      <trkpt lat="45.06596" lon="5.49861">
        <ele>1206</ele>
        <time>2020-06-17T17:57:30Z</time>
      </trkpt>
      <trkpt lat="45.06605" lon="5.4983">
        <ele>1203</ele>
        <time>2020-06-17T17:57:35Z</time>
      </trkpt>
      <trkpt lat="45.06606" lon="5.49815">
        <ele>1202</ele>
        <time>2020-06-17T17:57:38Z</time>
      </trkpt>
      <trkpt lat="45.06579" lon="5.49736">
        <ele>1204</ele>
        <time>2020-06-17T17:57:52Z</time>
      </trkpt>
      <trkpt lat="45.06564" lon="5.49673">
        <ele>1198</ele>
        <time>2020-06-17T17:58:03Z</time>
      </trkpt>
      <trkpt lat="45.06549" lon="5.49652">
        <ele>1196</ele>
        <time>2020-06-17T17:58:08Z</time>
      </trkpt>
      <trkpt lat="45.06528" lon="5.49639">
        <ele>1198</ele>
        <time>2020-06-17T17:58:14Z</time>
      </trkpt>
      <trkpt lat="45.06505" lon="5.4962">
        <ele>1198</ele>
        <time>2020-06-17T17:58:20Z</time>
      </trkpt>
      <trkpt lat="45.06478" lon="5.4959">
        <ele>1200</ele>
        <time>2020-06-17T17:58:28Z</time>
      </trkpt>
      <trkpt lat="45.06452" lon="5.49547">
        <ele>1194</ele>
        <time>2020-06-17T17:58:37Z</time>
      </trkpt>
      <trkpt lat="45.06445" lon="5.49512">
        <ele>1179</ele>
        <time>2020-06-17T17:58:43Z</time>
      </trkpt>
      <trkpt lat="45.06437" lon="5.49497">
        <ele>1176</ele>
        <time>2020-06-17T17:58:46Z</time>
      </trkpt>
      <trkpt lat="45.06414" lon="5.4948">
        <ele>1183</ele>
        <time>2020-06-17T17:58:52Z</time>
      </trkpt>
      <trkpt lat="45.06402" lon="5.49475">
        <ele>1187</ele>
        <time>2020-06-17T17:58:55Z</time>
      </trkpt>
      <trkpt lat="45.06395" lon="5.49468">
        <ele>1188</ele>
        <time>2020-06-17T17:58:57Z</time>
      </trkpt>
      <trkpt lat="45.06391" lon="5.49463">
        <ele>1188</ele>
        <time>2020-06-17T17:58:59Z</time>
      </trkpt>
      <trkpt lat="45.06379" lon="5.49431">
        <ele>1183</ele>
        <time>2020-06-17T17:59:05Z</time>
      </trkpt>
      <trkpt lat="45.0638" lon="5.49415">
        <ele>1177</ele>
        <time>2020-06-17T17:59:07Z</time>
      </trkpt>
      <trkpt lat="45.06373" lon="5.49358">
        <ele>1166</ele>
        <time>2020-06-17T17:59:17Z</time>
      </trkpt>
      <trkpt lat="45.06376" lon="5.49323">
        <ele>1157</ele>
        <time>2020-06-17T17:59:23Z</time>
      </trkpt>
      <trkpt lat="45.06366" lon="5.49297">
        <ele>1156</ele>
        <time>2020-06-17T17:59:27Z</time>
      </trkpt>
      <trkpt lat="45.06358" lon="5.49286">
        <ele>1158</ele>
        <time>2020-06-17T17:59:30Z</time>
      </trkpt>
      <trkpt lat="45.06359" lon="5.49258">
        <ele>1152</ele>
        <time>2020-06-17T17:59:35Z</time>
      </trkpt>
      <trkpt lat="45.06373" lon="5.49214">
        <ele>1150</ele>
        <time>2020-06-17T17:59:43Z</time>
      </trkpt>
      <trkpt lat="45.0639" lon="5.49194">
        <ele>1144</ele>
        <time>2020-06-17T17:59:48Z</time>
      </trkpt>
      <trkpt lat="45.06414" lon="5.4918">
        <ele>1134</ele>
        <time>2020-06-17T17:59:54Z</time>
      </trkpt>
      <trkpt lat="45.06425" lon="5.49157">
        <ele>1134</ele>
        <time>2020-06-17T17:59:58Z</time>
      </trkpt>
      <trkpt lat="45.06424" lon="5.49142">
        <ele>1137</ele>
        <time>2020-06-17T18:00:01Z</time>
      </trkpt>
      <trkpt lat="45.0643" lon="5.4913">
        <ele>1137</ele>
        <time>2020-06-17T18:00:03Z</time>
      </trkpt>
      <trkpt lat="45.0643" lon="5.49117">
        <ele>1140</ele>
        <time>2020-06-17T18:00:05Z</time>
      </trkpt>
      <trkpt lat="45.06425" lon="5.49104">
        <ele>1144</ele>
        <time>2020-06-17T18:00:08Z</time>
      </trkpt>
      <trkpt lat="45.06428" lon="5.49089">
        <ele>1146</ele>
        <time>2020-06-17T18:00:10Z</time>
      </trkpt>
      <trkpt lat="45.06439" lon="5.49066">
        <ele>1145</ele>
        <time>2020-06-17T18:00:15Z</time>
      </trkpt>
      <trkpt lat="45.06461" lon="5.49007">
        <ele>1144</ele>
        <time>2020-06-17T18:00:26Z</time>
      </trkpt>
      <trkpt lat="45.06467" lon="5.48979">
        <ele>1143</ele>
        <time>2020-06-17T18:00:31Z</time>
      </trkpt>
      <trkpt lat="45.06468" lon="5.48947">
        <ele>1144</ele>
        <time>2020-06-17T18:00:36Z</time>
      </trkpt>
      <trkpt lat="45.06474" lon="5.48933">
        <ele>1142</ele>
        <time>2020-06-17T18:00:39Z</time>
      </trkpt>
      <trkpt lat="45.06472" lon="5.48918">
        <ele>1143</ele>
        <time>2020-06-17T18:00:41Z</time>
      </trkpt>
      <trkpt lat="45.06459" lon="5.48893">
        <ele>1146</ele>
        <time>2020-06-17T18:00:47Z</time>
      </trkpt>
      <trkpt lat="45.06454" lon="5.48873">
        <ele>1146</ele>
        <time>2020-06-17T18:00:50Z</time>
      </trkpt>
      <trkpt lat="45.06445" lon="5.48858">
        <ele>1148</ele>
        <time>2020-06-17T18:00:53Z</time>
      </trkpt>
      <trkpt lat="45.06424" lon="5.4881">
        <ele>1150</ele>
        <time>2020-06-17T18:01:03Z</time>
      </trkpt>
      <trkpt lat="45.06413" lon="5.48756">
        <ele>1145</ele>
        <time>2020-06-17T18:01:12Z</time>
      </trkpt>
      <trkpt lat="45.06382" lon="5.48686">
        <ele>1145</ele>
        <time>2020-06-17T18:01:25Z</time>
      </trkpt>
      <trkpt lat="45.06362" lon="5.48629">
        <ele>1145</ele>
        <time>2020-06-17T18:01:36Z</time>
      </trkpt>
      <trkpt lat="45.0635" lon="5.48581">
        <ele>1144</ele>
        <time>2020-06-17T18:01:44Z</time>
      </trkpt>
      <trkpt lat="45.06333" lon="5.48549">
        <ele>1148</ele>
        <time>2020-06-17T18:01:51Z</time>
      </trkpt>
      <trkpt lat="45.06296" lon="5.4849">
        <ele>1155</ele>
        <time>2020-06-17T18:02:04Z</time>
      </trkpt>
      <trkpt lat="45.0628" lon="5.48453">
        <ele>1157</ele>
        <time>2020-06-17T18:02:11Z</time>
      </trkpt>
      <trkpt lat="45.06274" lon="5.48429">
        <ele>1156</ele>
        <time>2020-06-17T18:02:15Z</time>
      </trkpt>
      <trkpt lat="45.06263" lon="5.48404">
        <ele>1159</ele>
        <time>2020-06-17T18:02:20Z</time>
      </trkpt>
      <trkpt lat="45.0625" lon="5.48394">
        <ele>1162</ele>
        <time>2020-06-17T18:02:24Z</time>
      </trkpt>
      <trkpt lat="45.06239" lon="5.48378">
        <ele>1167</ele>
        <time>2020-06-17T18:02:27Z</time>
      </trkpt>
      <trkpt lat="45.0622" lon="5.48365">
        <ele>1171</ele>
        <time>2020-06-17T18:02:32Z</time>
      </trkpt>
      <trkpt lat="45.06203" lon="5.48349">
        <ele>1174</ele>
        <time>2020-06-17T18:02:37Z</time>
      </trkpt>
      <trkpt lat="45.06196" lon="5.48336">
        <ele>1176</ele>
        <time>2020-06-17T18:02:40Z</time>
      </trkpt>
      <trkpt lat="45.06182" lon="5.48321">
        <ele>1179</ele>
        <time>2020-06-17T18:02:44Z</time>
      </trkpt>
      <trkpt lat="45.06176" lon="5.4832">
        <ele>1179</ele>
        <time>2020-06-17T18:02:45Z</time>
      </trkpt>
      <trkpt lat="45.0616" lon="5.48325">
        <ele>1179</ele>
        <time>2020-06-17T18:02:49Z</time>
      </trkpt>
      <trkpt lat="45.06147" lon="5.4832">
        <ele>1182</ele>
        <time>2020-06-17T18:02:52Z</time>
      </trkpt>
      <trkpt lat="45.06138" lon="5.48311">
        <ele>1184</ele>
        <time>2020-06-17T18:02:55Z</time>
      </trkpt>
      <trkpt lat="45.06129" lon="5.48308">
        <ele>1186</ele>
        <time>2020-06-17T18:02:57Z</time>
      </trkpt>
      <trkpt lat="45.06124" lon="5.48302">
        <ele>1188</ele>
        <time>2020-06-17T18:02:58Z</time>
      </trkpt>
      <trkpt lat="45.06119" lon="5.48302">
        <ele>1188</ele>
        <time>2020-06-17T18:03:00Z</time>
      </trkpt>
      <trkpt lat="45.06114" lon="5.48298">
        <ele>1189</ele>
        <time>2020-06-17T18:03:01Z</time>
      </trkpt>
      <trkpt lat="45.06107" lon="5.48299">
        <ele>1190</ele>
        <time>2020-06-17T18:03:03Z</time>
      </trkpt>
      <trkpt lat="45.061" lon="5.48287">
        <ele>1192</ele>
        <time>2020-06-17T18:03:05Z</time>
      </trkpt>
      <trkpt lat="45.06097" lon="5.48287">
        <ele>1192</ele>
        <time>2020-06-17T18:03:06Z</time>
      </trkpt>
      <trkpt lat="45.06095" lon="5.48283">
        <ele>1193</ele>
        <time>2020-06-17T18:03:07Z</time>
      </trkpt>
      <trkpt lat="45.06089" lon="5.48284">
        <ele>1193</ele>
        <time>2020-06-17T18:03:08Z</time>
      </trkpt>
      <trkpt lat="45.06062" lon="5.48277">
        <ele>1198</ele>
        <time>2020-06-17T18:03:15Z</time>
      </trkpt>
      <trkpt lat="45.06055" lon="5.48279">
        <ele>1200</ele>
        <time>2020-06-17T18:03:16Z</time>
      </trkpt>
      <trkpt lat="45.06047" lon="5.48271">
        <ele>1202</ele>
        <time>2020-06-17T18:03:18Z</time>
      </trkpt>
      <trkpt lat="45.06037" lon="5.48248">
        <ele>1205</ele>
        <time>2020-06-17T18:03:23Z</time>
      </trkpt>
      <trkpt lat="45.0603" lon="5.48242">
        <ele>1208</ele>
        <time>2020-06-17T18:03:25Z</time>
      </trkpt>
      <trkpt lat="45.06024" lon="5.48231">
        <ele>1211</ele>
        <time>2020-06-17T18:03:27Z</time>
      </trkpt>
      <trkpt lat="45.06015" lon="5.48231">
        <ele>1212</ele>
        <time>2020-06-17T18:03:29Z</time>
      </trkpt>
      <trkpt lat="45.05978" lon="5.4822">
        <ele>1219</ele>
        <time>2020-06-17T18:03:38Z</time>
      </trkpt>
      <trkpt lat="45.05963" lon="5.48203">
        <ele>1223</ele>
        <time>2020-06-17T18:03:43Z</time>
      </trkpt>
      <trkpt lat="45.05962" lon="5.4819">
        <ele>1224</ele>
        <time>2020-06-17T18:03:45Z</time>
      </trkpt>
      <trkpt lat="45.05955" lon="5.48175">
        <ele>1226</ele>
        <time>2020-06-17T18:03:48Z</time>
      </trkpt>
      <trkpt lat="45.05947" lon="5.48175">
        <ele>1226</ele>
        <time>2020-06-17T18:03:50Z</time>
      </trkpt>
      <trkpt lat="45.05924" lon="5.48154">
        <ele>1230</ele>
        <time>2020-06-17T18:03:56Z</time>
      </trkpt>
      <trkpt lat="45.05921" lon="5.48152">
        <ele>1230</ele>
        <time>2020-06-17T18:03:57Z</time>
      </trkpt>
      <trkpt lat="45.05914" lon="5.48153">
        <ele>1231</ele>
        <time>2020-06-17T18:03:58Z</time>
      </trkpt>
      <trkpt lat="45.05905" lon="5.48147">
        <ele>1233</ele>
        <time>2020-06-17T18:04:01Z</time>
      </trkpt>
      <trkpt lat="45.05902" lon="5.48141">
        <ele>1235</ele>
        <time>2020-06-17T18:04:02Z</time>
      </trkpt>
      <trkpt lat="45.05904" lon="5.48114">
        <ele>1240</ele>
        <time>2020-06-17T18:04:06Z</time>
      </trkpt>
      <trkpt lat="45.05884" lon="5.48114">
        <ele>1241</ele>
        <time>2020-06-17T18:04:11Z</time>
      </trkpt>
      <trkpt lat="45.05873" lon="5.48092">
        <ele>1244</ele>
        <time>2020-06-17T18:04:15Z</time>
      </trkpt>
      <trkpt lat="45.05853" lon="5.48086">
        <ele>1244</ele>
        <time>2020-06-17T18:04:20Z</time>
      </trkpt>
      <trkpt lat="45.05851" lon="5.48072">
        <ele>1247</ele>
        <time>2020-06-17T18:04:23Z</time>
      </trkpt>
      <trkpt lat="45.05845" lon="5.48055">
        <ele>1250</ele>
        <time>2020-06-17T18:04:26Z</time>
      </trkpt>
      <trkpt lat="45.05837" lon="5.48056">
        <ele>1249</ele>
        <time>2020-06-17T18:04:28Z</time>
      </trkpt>
      <trkpt lat="45.05835" lon="5.48054">
        <ele>1249</ele>
        <time>2020-06-17T18:04:28Z</time>
      </trkpt>
      <trkpt lat="45.05821" lon="5.4802">
        <ele>1255</ele>
        <time>2020-06-17T18:04:35Z</time>
      </trkpt>
      <trkpt lat="45.0581" lon="5.4801">
        <ele>1256</ele>
        <time>2020-06-17T18:04:38Z</time>
      </trkpt>
      <trkpt lat="45.05792" lon="5.47985">
        <ele>1258</ele>
        <time>2020-06-17T18:04:44Z</time>
      </trkpt>
      <trkpt lat="45.05778" lon="5.47972">
        <ele>1259</ele>
        <time>2020-06-17T18:04:48Z</time>
      </trkpt>
      <trkpt lat="45.0577" lon="5.47953">
        <ele>1260</ele>
        <time>2020-06-17T18:04:51Z</time>
      </trkpt>
      <trkpt lat="45.05749" lon="5.4793">
        <ele>1258</ele>
        <time>2020-06-17T18:04:57Z</time>
      </trkpt>
      <trkpt lat="45.0573" lon="5.47904">
        <ele>1261</ele>
        <time>2020-06-17T18:05:04Z</time>
      </trkpt>
      <trkpt lat="45.05711" lon="5.47857">
        <ele>1262</ele>
        <time>2020-06-17T18:05:13Z</time>
      </trkpt>
      <trkpt lat="45.05684" lon="5.47822">
        <ele>1262</ele>
        <time>2020-06-17T18:05:21Z</time>
      </trkpt>
      <trkpt lat="45.05674" lon="5.47793">
        <ele>1262</ele>
        <time>2020-06-17T18:05:26Z</time>
      </trkpt>
      <trkpt lat="45.0566" lon="5.47777">
        <ele>1263</ele>
        <time>2020-06-17T18:05:31Z</time>
      </trkpt>
      <trkpt lat="45.05645" lon="5.47765">
        <ele>1265</ele>
        <time>2020-06-17T18:05:35Z</time>
      </trkpt>
      <trkpt lat="45.05604" lon="5.47717">
        <ele>1268</ele>
        <time>2020-06-17T18:05:47Z</time>
      </trkpt>
      <trkpt lat="45.05566" lon="5.4768">
        <ele>1271</ele>
        <time>2020-06-17T18:05:58Z</time>
      </trkpt>
      <trkpt lat="45.05546" lon="5.47653">
        <ele>1273</ele>
        <time>2020-06-17T18:06:04Z</time>
      </trkpt>
      <trkpt lat="45.05534" lon="5.47645">
        <ele>1275</ele>
        <time>2020-06-17T18:06:07Z</time>
      </trkpt>
      <trkpt lat="45.0551" lon="5.47636">
        <ele>1279</ele>
        <time>2020-06-17T18:06:13Z</time>
      </trkpt>
      <trkpt lat="45.05503" lon="5.47636">
        <ele>1280</ele>
        <time>2020-06-17T18:06:15Z</time>
      </trkpt>
      <trkpt lat="45.05461" lon="5.47623">
        <ele>1284</ele>
        <time>2020-06-17T18:06:25Z</time>
      </trkpt>
      <trkpt lat="45.05432" lon="5.4762">
        <ele>1287</ele>
        <time>2020-06-17T18:06:32Z</time>
      </trkpt>
      <trkpt lat="45.05366" lon="5.47587">
        <ele>1293</ele>
        <time>2020-06-17T18:06:48Z</time>
      </trkpt>
      <trkpt lat="45.05327" lon="5.47551">
        <ele>1300</ele>
        <time>2020-06-17T18:06:59Z</time>
      </trkpt>
      <trkpt lat="45.05296" lon="5.47533">
        <ele>1304</ele>
        <time>2020-06-17T18:07:07Z</time>
      </trkpt>
      <trkpt lat="45.05279" lon="5.47528">
        <ele>1305</ele>
        <time>2020-06-17T18:07:11Z</time>
      </trkpt>
      <trkpt lat="45.05262" lon="5.47532">
        <ele>1306</ele>
        <time>2020-06-17T18:07:15Z</time>
      </trkpt>
      <trkpt lat="45.05247" lon="5.47523">
        <ele>1307</ele>
        <time>2020-06-17T18:07:19Z</time>
      </trkpt>
      <trkpt lat="45.0523" lon="5.4752">
        <ele>1309</ele>
        <time>2020-06-17T18:07:23Z</time>
      </trkpt>
      <trkpt lat="45.0522" lon="5.47509">
        <ele>1309</ele>
        <time>2020-06-17T18:07:26Z</time>
      </trkpt>
      <trkpt lat="45.05213" lon="5.47507">
        <ele>1310</ele>
        <time>2020-06-17T18:07:27Z</time>
      </trkpt>
      <trkpt lat="45.05209" lon="5.475">
        <ele>1310</ele>
        <time>2020-06-17T18:07:29Z</time>
      </trkpt>
      <trkpt lat="45.05204" lon="5.47499">
        <ele>1311</ele>
        <time>2020-06-17T18:07:30Z</time>
      </trkpt>
      <trkpt lat="45.05202" lon="5.47496">
        <ele>1311</ele>
        <time>2020-06-17T18:07:31Z</time>
      </trkpt>
      <trkpt lat="45.05185" lon="5.47493">
        <ele>1313</ele>
        <time>2020-06-17T18:07:35Z</time>
      </trkpt>
      <trkpt lat="45.05165" lon="5.47473">
        <ele>1316</ele>
        <time>2020-06-17T18:07:40Z</time>
      </trkpt>
      <trkpt lat="45.05157" lon="5.4747">
        <ele>1317</ele>
        <time>2020-06-17T18:07:42Z</time>
      </trkpt>
      <trkpt lat="45.05153" lon="5.4748">
        <ele>1317</ele>
        <time>2020-06-17T18:07:44Z</time>
      </trkpt>
      <trkpt lat="45.05134" lon="5.47488">
        <ele>1318</ele>
        <time>2020-06-17T18:07:49Z</time>
      </trkpt>
      <trkpt lat="45.05119" lon="5.47509">
        <ele>1321</ele>
        <time>2020-06-17T18:07:54Z</time>
      </trkpt>
      <trkpt lat="45.05112" lon="5.47535">
        <ele>1324</ele>
        <time>2020-06-17T18:07:58Z</time>
      </trkpt>
      <trkpt lat="45.05091" lon="5.47573">
        <ele>1331</ele>
        <time>2020-06-17T18:08:06Z</time>
      </trkpt>
      <trkpt lat="45.05049" lon="5.47597">
        <ele>1337</ele>
        <time>2020-06-17T18:08:17Z</time>
      </trkpt>
      <trkpt lat="45.05" lon="5.47618">
        <ele>1343</ele>
        <time>2020-06-17T18:08:29Z</time>
      </trkpt>
      <trkpt lat="45.04983" lon="5.47629">
        <ele>1346</ele>
        <time>2020-06-17T18:08:33Z</time>
      </trkpt>
      <trkpt lat="45.04971" lon="5.4764">
        <ele>1348</ele>
        <time>2020-06-17T18:08:36Z</time>
      </trkpt>
      <trkpt lat="45.04951" lon="5.47643">
        <ele>1350</ele>
        <time>2020-06-17T18:08:41Z</time>
      </trkpt>
      <trkpt lat="45.04931" lon="5.47642">
        <ele>1352</ele>
        <time>2020-06-17T18:08:46Z</time>
      </trkpt>
      <trkpt lat="45.04897" lon="5.4765">
        <ele>1356</ele>
        <time>2020-06-17T18:08:54Z</time>
      </trkpt>
      <trkpt lat="45.04886" lon="5.47649">
        <ele>1357</ele>
        <time>2020-06-17T18:08:56Z</time>
      </trkpt>
      <trkpt lat="45.04853" lon="5.47653">
        <ele>1360</ele>
        <time>2020-06-17T18:09:04Z</time>
      </trkpt>
      <trkpt lat="45.04844" lon="5.4765">
        <ele>1361</ele>
        <time>2020-06-17T18:09:06Z</time>
      </trkpt>
      <trkpt lat="45.04838" lon="5.47653">
        <ele>1361</ele>
        <time>2020-06-17T18:09:08Z</time>
      </trkpt>
      <trkpt lat="45.04815" lon="5.47656">
        <ele>1363</ele>
        <time>2020-06-17T18:09:13Z</time>
      </trkpt>
      <trkpt lat="45.04737" lon="5.47683">
        <ele>1370</ele>
        <time>2020-06-17T18:09:32Z</time>
      </trkpt>
      <trkpt lat="45.04708" lon="5.47688">
        <ele>1373</ele>
        <time>2020-06-17T18:09:39Z</time>
      </trkpt>
      <trkpt lat="45.04688" lon="5.47698">
        <ele>1375</ele>
        <time>2020-06-17T18:09:44Z</time>
      </trkpt>
      <trkpt lat="45.04679" lon="5.47698">
        <ele>1375</ele>
        <time>2020-06-17T18:09:46Z</time>
      </trkpt>
      <trkpt lat="45.04672" lon="5.47694">
        <ele>1375</ele>
        <time>2020-06-17T18:09:48Z</time>
      </trkpt>
      <trkpt lat="45.04621" lon="5.47696">
        <ele>1378</ele>
        <time>2020-06-17T18:09:59Z</time>
      </trkpt>
      <trkpt lat="45.04592" lon="5.47685">
        <ele>1378</ele>
        <time>2020-06-17T18:10:06Z</time>
      </trkpt>
      <trkpt lat="45.04573" lon="5.47672">
        <ele>1376</ele>
        <time>2020-06-17T18:10:11Z</time>
      </trkpt>
      <trkpt lat="45.04556" lon="5.47671">
        <ele>1375</ele>
        <time>2020-06-17T18:10:15Z</time>
      </trkpt>
      <trkpt lat="45.04544" lon="5.47675">
        <ele>1375</ele>
        <time>2020-06-17T18:10:18Z</time>
      </trkpt>
      <trkpt lat="45.04541" lon="5.4768">
        <ele>1375</ele>
        <time>2020-06-17T18:10:19Z</time>
      </trkpt>
      <trkpt lat="45.04538" lon="5.47711">
        <ele>1379</ele>
        <time>2020-06-17T18:10:25Z</time>
      </trkpt>
      <trkpt lat="45.04541" lon="5.47729">
        <ele>1381</ele>
        <time>2020-06-17T18:10:28Z</time>
      </trkpt>
      <trkpt lat="45.04548" lon="5.47749">
        <ele>1383</ele>
        <time>2020-06-17T18:10:31Z</time>
      </trkpt>
      <trkpt lat="45.04566" lon="5.47772">
        <ele>1389</ele>
        <time>2020-06-17T18:10:37Z</time>
      </trkpt>
      <trkpt lat="45.04583" lon="5.47786">
        <ele>1392</ele>
        <time>2020-06-17T18:10:42Z</time>
      </trkpt>
      <trkpt lat="45.04608" lon="5.47819">
        <ele>1396</ele>
        <time>2020-06-17T18:10:49Z</time>
      </trkpt>
      <trkpt lat="45.04668" lon="5.47845">
        <ele>1397</ele>
        <time>2020-06-17T18:11:04Z</time>
      </trkpt>
      <trkpt lat="45.04685" lon="5.47859">
        <ele>1400</ele>
        <time>2020-06-17T18:11:09Z</time>
      </trkpt>
      <trkpt lat="45.04712" lon="5.47869">
        <ele>1401</ele>
        <time>2020-06-17T18:11:15Z</time>
      </trkpt>
      <trkpt lat="45.04731" lon="5.47879">
        <ele>1402</ele>
        <time>2020-06-17T18:11:20Z</time>
      </trkpt>
      <trkpt lat="45.04766" lon="5.47909">
        <ele>1407</ele>
        <time>2020-06-17T18:11:30Z</time>
      </trkpt>
      <trkpt lat="45.04772" lon="5.47919">
        <ele>1409</ele>
        <time>2020-06-17T18:11:32Z</time>
      </trkpt>
      <trkpt lat="45.0479" lon="5.47937">
        <ele>1415</ele>
        <time>2020-06-17T18:11:37Z</time>
      </trkpt>
      <trkpt lat="45.04801" lon="5.47944">
        <ele>1417</ele>
        <time>2020-06-17T18:11:40Z</time>
      </trkpt>
      <trkpt lat="45.04817" lon="5.4795">
        <ele>1419</ele>
        <time>2020-06-17T18:11:44Z</time>
      </trkpt>
      <trkpt lat="45.04837" lon="5.47963">
        <ele>1423</ele>
        <time>2020-06-17T18:11:49Z</time>
      </trkpt>
      <trkpt lat="45.04864" lon="5.47973">
        <ele>1425</ele>
        <time>2020-06-17T18:11:55Z</time>
      </trkpt>
      <trkpt lat="45.04893" lon="5.47979">
        <ele>1426</ele>
        <time>2020-06-17T18:12:02Z</time>
      </trkpt>
      <trkpt lat="45.04906" lon="5.47987">
        <ele>1429</ele>
        <time>2020-06-17T18:12:05Z</time>
      </trkpt>
      <trkpt lat="45.04916" lon="5.47989">
        <ele>1429</ele>
        <time>2020-06-17T18:12:08Z</time>
      </trkpt>
      <trkpt lat="45.04954" lon="5.48007">
        <ele>1435</ele>
        <time>2020-06-17T18:12:17Z</time>
      </trkpt>
      <trkpt lat="45.04986" lon="5.48014">
        <ele>1438</ele>
        <time>2020-06-17T18:12:25Z</time>
      </trkpt>
      <trkpt lat="45.04997" lon="5.48011">
        <ele>1437</ele>
        <time>2020-06-17T18:12:27Z</time>
      </trkpt>
      <trkpt lat="45.05002" lon="5.48013">
        <ele>1438</ele>
        <time>2020-06-17T18:12:28Z</time>
      </trkpt>
      <trkpt lat="45.05023" lon="5.47999">
        <ele>1429</ele>
        <time>2020-06-17T18:12:34Z</time>
      </trkpt>
      <trkpt lat="45.05045" lon="5.47998">
        <ele>1427</ele>
        <time>2020-06-17T18:12:39Z</time>
      </trkpt>
      <trkpt lat="45.05053" lon="5.48003">
        <ele>1429</ele>
        <time>2020-06-17T18:12:41Z</time>
      </trkpt>
      <trkpt lat="45.05054" lon="5.48009">
        <ele>1432</ele>
        <time>2020-06-17T18:12:42Z</time>
      </trkpt>
      <trkpt lat="45.05049" lon="5.48013">
        <ele>1435</ele>
        <time>2020-06-17T18:12:43Z</time>
      </trkpt>
      <trkpt lat="45.04999" lon="5.48009">
        <ele>1435</ele>
        <time>2020-06-17T18:12:55Z</time>
      </trkpt>
      <trkpt lat="45.04977" lon="5.48003">
        <ele>1433</ele>
        <time>2020-06-17T18:13:00Z</time>
      </trkpt>
      <trkpt lat="45.04954" lon="5.48003">
        <ele>1433</ele>
        <time>2020-06-17T18:13:06Z</time>
      </trkpt>
      <trkpt lat="45.04897" lon="5.48007">
        <ele>1438</ele>
        <time>2020-06-17T18:13:19Z</time>
      </trkpt>
      <trkpt lat="45.04869" lon="5.48014">
        <ele>1443</ele>
        <time>2020-06-17T18:13:26Z</time>
      </trkpt>
      <trkpt lat="45.04852" lon="5.48012">
        <ele>1443</ele>
        <time>2020-06-17T18:13:30Z</time>
      </trkpt>
      <trkpt lat="45.04815" lon="5.48013">
        <ele>1445</ele>
        <time>2020-06-17T18:13:38Z</time>
      </trkpt>
      <trkpt lat="45.04767" lon="5.48027">
        <ele>1454</ele>
        <time>2020-06-17T18:13:50Z</time>
      </trkpt>
      <trkpt lat="45.0472" lon="5.48032">
        <ele>1457</ele>
        <time>2020-06-17T18:14:01Z</time>
      </trkpt>
      <trkpt lat="45.047" lon="5.48037">
        <ele>1459</ele>
        <time>2020-06-17T18:14:06Z</time>
      </trkpt>
      <trkpt lat="45.04651" lon="5.48038">
        <ele>1459</ele>
        <time>2020-06-17T18:14:17Z</time>
      </trkpt>
      <trkpt lat="45.04649" lon="5.48039">
        <ele>1460</ele>
        <time>2020-06-17T18:14:17Z</time>
      </trkpt>
      <trkpt lat="45.04653" lon="5.48038">
        <ele>1459</ele>
        <time>2020-06-17T18:14:18Z</time>
      </trkpt>
      <trkpt lat="45.04637" lon="5.48044">
        <ele>1462</ele>
        <time>2020-06-17T18:14:22Z</time>
      </trkpt>
      <trkpt lat="45.04616" lon="5.48044">
        <ele>1462</ele>
        <time>2020-06-17T18:14:27Z</time>
      </trkpt>
      <trkpt lat="45.04602" lon="5.48052">
        <ele>1466</ele>
        <time>2020-06-17T18:14:31Z</time>
      </trkpt>
      <trkpt lat="45.0458" lon="5.48057">
        <ele>1469</ele>
        <time>2020-06-17T18:14:36Z</time>
      </trkpt>
      <trkpt lat="45.04531" lon="5.48081">
        <ele>1480</ele>
        <time>2020-06-17T18:14:48Z</time>
      </trkpt>
      <trkpt lat="45.04514" lon="5.48084">
        <ele>1481</ele>
        <time>2020-06-17T18:14:52Z</time>
      </trkpt>
      <trkpt lat="45.045" lon="5.48098">
        <ele>1487</ele>
        <time>2020-06-17T18:14:56Z</time>
      </trkpt>
      <trkpt lat="45.04488" lon="5.48106">
        <ele>1488</ele>
        <time>2020-06-17T18:14:59Z</time>
      </trkpt>
      <trkpt lat="45.04461" lon="5.48117">
        <ele>1488</ele>
        <time>2020-06-17T18:15:06Z</time>
      </trkpt>
      <trkpt lat="45.04452" lon="5.48124">
        <ele>1489</ele>
        <time>2020-06-17T18:15:08Z</time>
      </trkpt>
      <trkpt lat="45.04431" lon="5.48151">
        <ele>1494</ele>
        <time>2020-06-17T18:15:15Z</time>
      </trkpt>
      <trkpt lat="45.04431" lon="5.48217">
        <ele>1506</ele>
        <time>2020-06-17T18:15:26Z</time>
      </trkpt>
      <trkpt lat="45.04436" lon="5.48225">
        <ele>1508</ele>
        <time>2020-06-17T18:15:27Z</time>
      </trkpt>
      <trkpt lat="45.04442" lon="5.48249">
        <ele>1513</ele>
        <time>2020-06-17T18:15:32Z</time>
      </trkpt>
      <trkpt lat="45.0444" lon="5.48252">
        <ele>1513</ele>
        <time>2020-06-17T18:15:32Z</time>
      </trkpt>
      <trkpt lat="45.04456" lon="5.48277">
        <ele>1515</ele>
        <time>2020-06-17T18:15:38Z</time>
      </trkpt>
      <trkpt lat="45.04463" lon="5.48284">
        <ele>1516</ele>
        <time>2020-06-17T18:15:40Z</time>
      </trkpt>
      <trkpt lat="45.04471" lon="5.483">
        <ele>1517</ele>
        <time>2020-06-17T18:15:43Z</time>
      </trkpt>
      <trkpt lat="45.04481" lon="5.48326">
        <ele>1518</ele>
        <time>2020-06-17T18:15:48Z</time>
      </trkpt>
      <trkpt lat="45.04485" lon="5.48356">
        <ele>1517</ele>
        <time>2020-06-17T18:15:53Z</time>
      </trkpt>
      <trkpt lat="45.04487" lon="5.48358">
        <ele>1517</ele>
        <time>2020-06-17T18:15:54Z</time>
      </trkpt>
      <trkpt lat="45.04489" lon="5.48351">
        <ele>1518</ele>
        <time>2020-06-17T18:15:55Z</time>
      </trkpt>
      <trkpt lat="45.04469" lon="5.48301">
        <ele>1516</ele>
        <time>2020-06-17T18:16:04Z</time>
      </trkpt>
      <trkpt lat="45.04472" lon="5.48287">
        <ele>1518</ele>
        <time>2020-06-17T18:16:07Z</time>
      </trkpt>
      <trkpt lat="45.04474" lon="5.48286">
        <ele>1519</ele>
        <time>2020-06-17T18:16:07Z</time>
      </trkpt>
      <trkpt lat="45.04478" lon="5.48303">
        <ele>1519</ele>
        <time>2020-06-17T18:16:10Z</time>
      </trkpt>
      <trkpt lat="45.04489" lon="5.48317">
        <ele>1521</ele>
        <time>2020-06-17T18:16:14Z</time>
      </trkpt>
      <trkpt lat="45.04514" lon="5.48324">
        <ele>1525</ele>
        <time>2020-06-17T18:16:20Z</time>
      </trkpt>
      <trkpt lat="45.04533" lon="5.48319">
        <ele>1527</ele>
        <time>2020-06-17T18:16:24Z</time>
      </trkpt>
      <trkpt lat="45.0455" lon="5.48301">
        <ele>1530</ele>
        <time>2020-06-17T18:16:29Z</time>
      </trkpt>
      <trkpt lat="45.04555" lon="5.48299">
        <ele>1530</ele>
        <time>2020-06-17T18:16:30Z</time>
      </trkpt>
      <trkpt lat="45.04571" lon="5.48301">
        <ele>1532</ele>
        <time>2020-06-17T18:16:34Z</time>
      </trkpt>
      <trkpt lat="45.04601" lon="5.48292">
        <ele>1536</ele>
        <time>2020-06-17T18:16:41Z</time>
      </trkpt>
      <trkpt lat="45.04615" lon="5.48292">
        <ele>1538</ele>
        <time>2020-06-17T18:16:44Z</time>
      </trkpt>
      <trkpt lat="45.04641" lon="5.4831">
        <ele>1539</ele>
        <time>2020-06-17T18:16:51Z</time>
      </trkpt>
      <trkpt lat="45.04653" lon="5.48315">
        <ele>1540</ele>
        <time>2020-06-17T18:16:54Z</time>
      </trkpt>
      <trkpt lat="45.04668" lon="5.48316">
        <ele>1541</ele>
        <time>2020-06-17T18:16:58Z</time>
      </trkpt>
      <trkpt lat="45.0468" lon="5.48312">
        <ele>1542</ele>
        <time>2020-06-17T18:17:00Z</time>
      </trkpt>
      <trkpt lat="45.04698" lon="5.48301">
        <ele>1544</ele>
        <time>2020-06-17T18:17:05Z</time>
      </trkpt>
      <trkpt lat="45.04719" lon="5.48298">
        <ele>1544</ele>
        <time>2020-06-17T18:17:10Z</time>
      </trkpt>
      <trkpt lat="45.04742" lon="5.48284">
        <ele>1546</ele>
        <time>2020-06-17T18:17:16Z</time>
      </trkpt>
      <trkpt lat="45.04764" lon="5.48252">
        <ele>1550</ele>
        <time>2020-06-17T18:17:23Z</time>
      </trkpt>
      <trkpt lat="45.04774" lon="5.4823">
        <ele>1545</ele>
        <time>2020-06-17T18:17:27Z</time>
      </trkpt>
      <trkpt lat="45.04786" lon="5.48213">
        <ele>1540</ele>
        <time>2020-06-17T18:17:31Z</time>
      </trkpt>
      <trkpt lat="45.0479" lon="5.48201">
        <ele>1536</ele>
        <time>2020-06-17T18:17:34Z</time>
      </trkpt>
      <trkpt lat="45.04796" lon="5.48194">
        <ele>1534</ele>
        <time>2020-06-17T18:17:35Z</time>
      </trkpt>
      <trkpt lat="45.04807" lon="5.48191">
        <ele>1533</ele>
        <time>2020-06-17T18:17:38Z</time>
      </trkpt>
      <trkpt lat="45.0488" lon="5.48235">
        <ele>1539</ele>
        <time>2020-06-17T18:17:57Z</time>
      </trkpt>
      <trkpt lat="45.04943" lon="5.4826">
        <ele>1539</ele>
        <time>2020-06-17T18:18:12Z</time>
      </trkpt>
      <trkpt lat="45.0495" lon="5.48266">
        <ele>1538</ele>
        <time>2020-06-17T18:18:14Z</time>
      </trkpt>
      <trkpt lat="45.04967" lon="5.48289">
        <ele>1537</ele>
        <time>2020-06-17T18:18:19Z</time>
      </trkpt>
      <trkpt lat="45.05005" lon="5.48327">
        <ele>1535</ele>
        <time>2020-06-17T18:18:30Z</time>
      </trkpt>
      <trkpt lat="45.05037" lon="5.48344">
        <ele>1531</ele>
        <time>2020-06-17T18:18:38Z</time>
      </trkpt>
      <trkpt lat="45.05065" lon="5.48369">
        <ele>1529</ele>
        <time>2020-06-17T18:18:46Z</time>
      </trkpt>
      <trkpt lat="45.05071" lon="5.48372">
        <ele>1529</ele>
        <time>2020-06-17T18:18:47Z</time>
      </trkpt>
      <trkpt lat="45.05098" lon="5.48377">
        <ele>1529</ele>
        <time>2020-06-17T18:18:54Z</time>
      </trkpt>
      <trkpt lat="45.05124" lon="5.48387">
        <ele>1530</ele>
        <time>2020-06-17T18:19:00Z</time>
      </trkpt>
      <trkpt lat="45.05131" lon="5.48395">
        <ele>1530</ele>
        <time>2020-06-17T18:19:02Z</time>
      </trkpt>
      <trkpt lat="45.05133" lon="5.48405">
        <ele>1530</ele>
        <time>2020-06-17T18:19:04Z</time>
      </trkpt>
      <trkpt lat="45.05129" lon="5.48422">
        <ele>1530</ele>
        <time>2020-06-17T18:19:07Z</time>
      </trkpt>
      <trkpt lat="45.0511" lon="5.48462">
        <ele>1529</ele>
        <time>2020-06-17T18:19:15Z</time>
      </trkpt>
      <trkpt lat="45.05084" lon="5.48494">
        <ele>1529</ele>
        <time>2020-06-17T18:19:23Z</time>
      </trkpt>
      <trkpt lat="45.05063" lon="5.48509">
        <ele>1528</ele>
        <time>2020-06-17T18:19:28Z</time>
      </trkpt>
      <trkpt lat="45.05043" lon="5.48519">
        <ele>1526</ele>
        <time>2020-06-17T18:19:33Z</time>
      </trkpt>
      <trkpt lat="45.04992" lon="5.48538">
        <ele>1522</ele>
        <time>2020-06-17T18:19:46Z</time>
      </trkpt>
      <trkpt lat="45.04956" lon="5.48561">
        <ele>1517</ele>
        <time>2020-06-17T18:19:55Z</time>
      </trkpt>
      <trkpt lat="45.04926" lon="5.48587">
        <ele>1511</ele>
        <time>2020-06-17T18:20:03Z</time>
      </trkpt>
      <trkpt lat="45.0491" lon="5.48615">
        <ele>1512</ele>
        <time>2020-06-17T18:20:09Z</time>
      </trkpt>
      <trkpt lat="45.04884" lon="5.48672">
        <ele>1518</ele>
        <time>2020-06-17T18:20:20Z</time>
      </trkpt>
      <trkpt lat="45.04871" lon="5.48716">
        <ele>1522</ele>
        <time>2020-06-17T18:20:28Z</time>
      </trkpt>
      <trkpt lat="45.04871" lon="5.48732">
        <ele>1523</ele>
        <time>2020-06-17T18:20:31Z</time>
      </trkpt>
      <trkpt lat="45.04873" lon="5.48731">
        <ele>1523</ele>
        <time>2020-06-17T18:20:31Z</time>
      </trkpt>
      <trkpt lat="45.04874" lon="5.48722">
        <ele>1522</ele>
        <time>2020-06-17T18:20:33Z</time>
      </trkpt>
      <trkpt lat="45.04879" lon="5.48719">
        <ele>1522</ele>
        <time>2020-06-17T18:20:34Z</time>
      </trkpt>
      <trkpt lat="45.04878" lon="5.48716">
        <ele>1522</ele>
        <time>2020-06-17T18:20:34Z</time>
      </trkpt>
      <trkpt lat="45.04877" lon="5.48729">
        <ele>1523</ele>
        <time>2020-06-17T18:20:37Z</time>
      </trkpt>
      <trkpt lat="45.04866" lon="5.48736">
        <ele>1523</ele>
        <time>2020-06-17T18:20:39Z</time>
      </trkpt>
      <trkpt lat="45.04865" lon="5.48751">
        <ele>1524</ele>
        <time>2020-06-17T18:20:42Z</time>
      </trkpt>
      <trkpt lat="45.04857" lon="5.48783">
        <ele>1524</ele>
        <time>2020-06-17T18:20:48Z</time>
      </trkpt>
      <trkpt lat="45.04842" lon="5.48812">
        <ele>1523</ele>
        <time>2020-06-17T18:20:53Z</time>
      </trkpt>
      <trkpt lat="45.04812" lon="5.48854">
        <ele>1521</ele>
        <time>2020-06-17T18:21:03Z</time>
      </trkpt>
      <trkpt lat="45.04741" lon="5.48928">
        <ele>1510</ele>
        <time>2020-06-17T18:21:24Z</time>
      </trkpt>
      <trkpt lat="45.04708" lon="5.48965">
        <ele>1504</ele>
        <time>2020-06-17T18:21:34Z</time>
      </trkpt>
      <trkpt lat="45.0469" lon="5.48989">
        <ele>1499</ele>
        <time>2020-06-17T18:21:39Z</time>
      </trkpt>
      <trkpt lat="45.04648" lon="5.49027">
        <ele>1491</ele>
        <time>2020-06-17T18:21:51Z</time>
      </trkpt>
      <trkpt lat="45.04637" lon="5.49029">
        <ele>1489</ele>
        <time>2020-06-17T18:21:54Z</time>
      </trkpt>
      <trkpt lat="45.04604" lon="5.49026">
        <ele>1485</ele>
        <time>2020-06-17T18:22:01Z</time>
      </trkpt>
      <trkpt lat="45.0458" lon="5.49029">
        <ele>1482</ele>
        <time>2020-06-17T18:22:07Z</time>
      </trkpt>
      <trkpt lat="45.04562" lon="5.49034">
        <ele>1481</ele>
        <time>2020-06-17T18:22:11Z</time>
      </trkpt>
      <trkpt lat="45.04542" lon="5.49043">
        <ele>1478</ele>
        <time>2020-06-17T18:22:16Z</time>
      </trkpt>
      <trkpt lat="45.04547" lon="5.49054">
        <ele>1477</ele>
        <time>2020-06-17T18:22:18Z</time>
      </trkpt>
      <trkpt lat="45.04536" lon="5.49073">
        <ele>1474</ele>
        <time>2020-06-17T18:22:22Z</time>
      </trkpt>
      <trkpt lat="45.04541" lon="5.4909">
        <ele>1473</ele>
        <time>2020-06-17T18:22:25Z</time>
      </trkpt>
      <trkpt lat="45.04534" lon="5.4916">
        <ele>1467</ele>
        <time>2020-06-17T18:22:37Z</time>
      </trkpt>
      <trkpt lat="45.04534" lon="5.49177">
        <ele>1465</ele>
        <time>2020-06-17T18:22:40Z</time>
      </trkpt>
      <trkpt lat="45.04536" lon="5.4918">
        <ele>1465</ele>
        <time>2020-06-17T18:22:41Z</time>
      </trkpt>
      <trkpt lat="45.04514" lon="5.49204">
        <ele>1460</ele>
        <time>2020-06-17T18:22:47Z</time>
      </trkpt>
      <trkpt lat="45.04498" lon="5.49248">
        <ele>1453</ele>
        <time>2020-06-17T18:22:55Z</time>
      </trkpt>
      <trkpt lat="45.04478" lon="5.49264">
        <ele>1451</ele>
        <time>2020-06-17T18:23:01Z</time>
      </trkpt>
      <trkpt lat="45.04448" lon="5.49278">
        <ele>1448</ele>
        <time>2020-06-17T18:23:08Z</time>
      </trkpt>
      <trkpt lat="45.04429" lon="5.49291">
        <ele>1446</ele>
        <time>2020-06-17T18:23:13Z</time>
      </trkpt>
      <trkpt lat="45.04389" lon="5.49306">
        <ele>1441</ele>
        <time>2020-06-17T18:23:23Z</time>
      </trkpt>
      <trkpt lat="45.04374" lon="5.49317">
        <ele>1439</ele>
        <time>2020-06-17T18:23:27Z</time>
      </trkpt>
      <trkpt lat="45.04368" lon="5.49325">
        <ele>1438</ele>
        <time>2020-06-17T18:23:29Z</time>
      </trkpt>
      <trkpt lat="45.04334" lon="5.49339">
        <ele>1434</ele>
        <time>2020-06-17T18:23:37Z</time>
      </trkpt>
      <trkpt lat="45.04322" lon="5.4934">
        <ele>1433</ele>
        <time>2020-06-17T18:23:40Z</time>
      </trkpt>
      <trkpt lat="45.04296" lon="5.49348">
        <ele>1431</ele>
        <time>2020-06-17T18:23:46Z</time>
      </trkpt>
      <trkpt lat="45.0428" lon="5.49348">
        <ele>1429</ele>
        <time>2020-06-17T18:23:50Z</time>
      </trkpt>
      <trkpt lat="45.04254" lon="5.49334">
        <ele>1429</ele>
        <time>2020-06-17T18:23:56Z</time>
      </trkpt>
      <trkpt lat="45.04234" lon="5.49329">
        <ele>1428</ele>
        <time>2020-06-17T18:24:01Z</time>
      </trkpt>
      <trkpt lat="45.04187" lon="5.49328">
        <ele>1425</ele>
        <time>2020-06-17T18:24:12Z</time>
      </trkpt>
      <trkpt lat="45.04179" lon="5.49331">
        <ele>1424</ele>
        <time>2020-06-17T18:24:14Z</time>
      </trkpt>
      <trkpt lat="45.04163" lon="5.49343">
        <ele>1421</ele>
        <time>2020-06-17T18:24:18Z</time>
      </trkpt>
      <trkpt lat="45.04139" lon="5.49352">
        <ele>1418</ele>
        <time>2020-06-17T18:24:24Z</time>
      </trkpt>
      <trkpt lat="45.04113" lon="5.49354">
        <ele>1416</ele>
        <time>2020-06-17T18:24:30Z</time>
      </trkpt>
      <trkpt lat="45.0406" lon="5.49376">
        <ele>1408</ele>
        <time>2020-06-17T18:24:43Z</time>
      </trkpt>
      <trkpt lat="45.04041" lon="5.49373">
        <ele>1406</ele>
        <time>2020-06-17T18:24:47Z</time>
      </trkpt>
      <trkpt lat="45.04024" lon="5.49374">
        <ele>1405</ele>
        <time>2020-06-17T18:24:51Z</time>
      </trkpt>
      <trkpt lat="45.04001" lon="5.49382">
        <ele>1402</ele>
        <time>2020-06-17T18:24:57Z</time>
      </trkpt>
      <trkpt lat="45.03943" lon="5.49395">
        <ele>1396</ele>
        <time>2020-06-17T18:25:10Z</time>
      </trkpt>
      <trkpt lat="45.03923" lon="5.49403">
        <ele>1393</ele>
        <time>2020-06-17T18:25:15Z</time>
      </trkpt>
      <trkpt lat="45.03902" lon="5.49403">
        <ele>1393</ele>
        <time>2020-06-17T18:25:20Z</time>
      </trkpt>
      <trkpt lat="45.03874" lon="5.49396">
        <ele>1393</ele>
        <time>2020-06-17T18:25:27Z</time>
      </trkpt>
      <trkpt lat="45.03845" lon="5.494">
        <ele>1392</ele>
        <time>2020-06-17T18:25:34Z</time>
      </trkpt>
      <trkpt lat="45.0381" lon="5.49393">
        <ele>1393</ele>
        <time>2020-06-17T18:25:42Z</time>
      </trkpt>
      <trkpt lat="45.03805" lon="5.49389">
        <ele>1393</ele>
        <time>2020-06-17T18:25:43Z</time>
      </trkpt>
      <trkpt lat="45.03797" lon="5.49388">
        <ele>1393</ele>
        <time>2020-06-17T18:25:45Z</time>
      </trkpt>
      <trkpt lat="45.03789" lon="5.49382">
        <ele>1394</ele>
        <time>2020-06-17T18:25:47Z</time>
      </trkpt>
      <trkpt lat="45.03766" lon="5.49382">
        <ele>1394</ele>
        <time>2020-06-17T18:25:53Z</time>
      </trkpt>
      <trkpt lat="45.03747" lon="5.49378">
        <ele>1394</ele>
        <time>2020-06-17T18:25:57Z</time>
      </trkpt>
      <trkpt lat="45.03725" lon="5.4938">
        <ele>1394</ele>
        <time>2020-06-17T18:26:02Z</time>
      </trkpt>
      <trkpt lat="45.03691" lon="5.49387">
        <ele>1393</ele>
        <time>2020-06-17T18:26:10Z</time>
      </trkpt>
      <trkpt lat="45.03678" lon="5.49384">
        <ele>1393</ele>
        <time>2020-06-17T18:26:13Z</time>
      </trkpt>
      <trkpt lat="45.03662" lon="5.49371">
        <ele>1396</ele>
        <time>2020-06-17T18:26:18Z</time>
      </trkpt>
      <trkpt lat="45.03661" lon="5.49361">
        <ele>1398</ele>
        <time>2020-06-17T18:26:19Z</time>
      </trkpt>
      <trkpt lat="45.0367" lon="5.4934">
        <ele>1402</ele>
        <time>2020-06-17T18:26:23Z</time>
      </trkpt>
      <trkpt lat="45.03681" lon="5.49333">
        <ele>1403</ele>
        <time>2020-06-17T18:26:26Z</time>
      </trkpt>
      <trkpt lat="45.037" lon="5.4933">
        <ele>1403</ele>
        <time>2020-06-17T18:26:31Z</time>
      </trkpt>
      <trkpt lat="45.03732" lon="5.49316">
        <ele>1404</ele>
        <time>2020-06-17T18:26:38Z</time>
      </trkpt>
      <trkpt lat="45.03741" lon="5.49304">
        <ele>1406</ele>
        <time>2020-06-17T18:26:41Z</time>
      </trkpt>
      <trkpt lat="45.03764" lon="5.4929">
        <ele>1407</ele>
        <time>2020-06-17T18:26:47Z</time>
      </trkpt>
      <trkpt lat="45.03785" lon="5.49268">
        <ele>1409</ele>
        <time>2020-06-17T18:26:53Z</time>
      </trkpt>
      <trkpt lat="45.03797" lon="5.4925">
        <ele>1411</ele>
        <time>2020-06-17T18:26:57Z</time>
      </trkpt>
      <trkpt lat="45.03808" lon="5.49226">
        <ele>1412</ele>
        <time>2020-06-17T18:27:02Z</time>
      </trkpt>
      <trkpt lat="45.03818" lon="5.49214">
        <ele>1412</ele>
        <time>2020-06-17T18:27:05Z</time>
      </trkpt>
      <trkpt lat="45.03824" lon="5.49197">
        <ele>1413</ele>
        <time>2020-06-17T18:27:08Z</time>
      </trkpt>
      <trkpt lat="45.03823" lon="5.49179">
        <ele>1414</ele>
        <time>2020-06-17T18:27:11Z</time>
      </trkpt>
      <trkpt lat="45.03797" lon="5.49101">
        <ele>1424</ele>
        <time>2020-06-17T18:27:25Z</time>
      </trkpt>
      <trkpt lat="45.03788" lon="5.49087">
        <ele>1426</ele>
        <time>2020-06-17T18:27:29Z</time>
      </trkpt>
      <trkpt lat="45.03764" lon="5.49072">
        <ele>1428</ele>
        <time>2020-06-17T18:27:35Z</time>
      </trkpt>
      <trkpt lat="45.0375" lon="5.49056">
        <ele>1431</ele>
        <time>2020-06-17T18:27:39Z</time>
      </trkpt>
      <trkpt lat="45.03743" lon="5.49044">
        <ele>1432</ele>
        <time>2020-06-17T18:27:41Z</time>
      </trkpt>
      <trkpt lat="45.0373" lon="5.49038">
        <ele>1433</ele>
        <time>2020-06-17T18:27:45Z</time>
      </trkpt>
      <trkpt lat="45.03708" lon="5.49038">
        <ele>1434</ele>
        <time>2020-06-17T18:27:50Z</time>
      </trkpt>
      <trkpt lat="45.03691" lon="5.49031">
        <ele>1434</ele>
        <time>2020-06-17T18:27:54Z</time>
      </trkpt>
      <trkpt lat="45.03668" lon="5.49024">
        <ele>1435</ele>
        <time>2020-06-17T18:27:59Z</time>
      </trkpt>
      <trkpt lat="45.03658" lon="5.49024">
        <ele>1435</ele>
        <time>2020-06-17T18:28:02Z</time>
      </trkpt>
      <trkpt lat="45.03635" lon="5.49014">
        <ele>1436</ele>
        <time>2020-06-17T18:28:07Z</time>
      </trkpt>
      <trkpt lat="45.03621" lon="5.49011">
        <ele>1436</ele>
        <time>2020-06-17T18:28:11Z</time>
      </trkpt>
      <trkpt lat="45.03613" lon="5.49">
        <ele>1436</ele>
        <time>2020-06-17T18:28:13Z</time>
      </trkpt>
      <trkpt lat="45.03597" lon="5.48985">
        <ele>1439</ele>
        <time>2020-06-17T18:28:18Z</time>
      </trkpt>
      <trkpt lat="45.03578" lon="5.4899">
        <ele>1438</ele>
        <time>2020-06-17T18:28:22Z</time>
      </trkpt>
      <trkpt lat="45.03548" lon="5.49021">
        <ele>1439</ele>
        <time>2020-06-17T18:28:31Z</time>
      </trkpt>
      <trkpt lat="45.03511" lon="5.49024">
        <ele>1441</ele>
        <time>2020-06-17T18:28:40Z</time>
      </trkpt>
      <trkpt lat="45.03474" lon="5.49021">
        <ele>1443</ele>
        <time>2020-06-17T18:28:48Z</time>
      </trkpt>
      <trkpt lat="45.03439" lon="5.49037">
        <ele>1446</ele>
        <time>2020-06-17T18:28:57Z</time>
      </trkpt>
      <trkpt lat="45.0343" lon="5.49046">
        <ele>1447</ele>
        <time>2020-06-17T18:28:59Z</time>
      </trkpt>
      <trkpt lat="45.0342" lon="5.4905">
        <ele>1448</ele>
        <time>2020-06-17T18:29:02Z</time>
      </trkpt>
      <trkpt lat="45.03392" lon="5.4905">
        <ele>1447</ele>
        <time>2020-06-17T18:29:08Z</time>
      </trkpt>
      <trkpt lat="45.03344" lon="5.4904">
        <ele>1445</ele>
        <time>2020-06-17T18:29:20Z</time>
      </trkpt>
      <trkpt lat="45.03331" lon="5.49034">
        <ele>1445</ele>
        <time>2020-06-17T18:29:23Z</time>
      </trkpt>
      <trkpt lat="45.03314" lon="5.49032">
        <ele>1445</ele>
        <time>2020-06-17T18:29:27Z</time>
      </trkpt>
      <trkpt lat="45.03279" lon="5.49019">
        <ele>1445</ele>
        <time>2020-06-17T18:29:35Z</time>
      </trkpt>
      <trkpt lat="45.03263" lon="5.49019">
        <ele>1445</ele>
        <time>2020-06-17T18:29:39Z</time>
      </trkpt>
      <trkpt lat="45.03246" lon="5.49028">
        <ele>1444</ele>
        <time>2020-06-17T18:29:43Z</time>
      </trkpt>
      <trkpt lat="45.03227" lon="5.4905">
        <ele>1443</ele>
        <time>2020-06-17T18:29:49Z</time>
      </trkpt>
      <trkpt lat="45.03211" lon="5.49055">
        <ele>1442</ele>
        <time>2020-06-17T18:29:53Z</time>
      </trkpt>
      <trkpt lat="45.0319" lon="5.49068">
        <ele>1441</ele>
        <time>2020-06-17T18:29:58Z</time>
      </trkpt>
      <trkpt lat="45.03166" lon="5.49075">
        <ele>1439</ele>
        <time>2020-06-17T18:30:04Z</time>
      </trkpt>
      <trkpt lat="45.03132" lon="5.4909">
        <ele>1438</ele>
        <time>2020-06-17T18:30:12Z</time>
      </trkpt>
      <trkpt lat="45.03092" lon="5.49099">
        <ele>1439</ele>
        <time>2020-06-17T18:30:22Z</time>
      </trkpt>
      <trkpt lat="45.03064" lon="5.49095">
        <ele>1439</ele>
        <time>2020-06-17T18:30:28Z</time>
      </trkpt>
      <trkpt lat="45.03018" lon="5.49071">
        <ele>1440</ele>
        <time>2020-06-17T18:30:40Z</time>
      </trkpt>
      <trkpt lat="45.03002" lon="5.4907">
        <ele>1440</ele>
        <time>2020-06-17T18:30:44Z</time>
      </trkpt>
      <trkpt lat="45.02985" lon="5.49072">
        <ele>1439</ele>
        <time>2020-06-17T18:30:47Z</time>
      </trkpt>
      <trkpt lat="45.02943" lon="5.49085">
        <ele>1434</ele>
        <time>2020-06-17T18:30:58Z</time>
      </trkpt>
      <trkpt lat="45.02907" lon="5.49091">
        <ele>1432</ele>
        <time>2020-06-17T18:31:06Z</time>
      </trkpt>
      <trkpt lat="45.02869" lon="5.49093">
        <ele>1431</ele>
        <time>2020-06-17T18:31:15Z</time>
      </trkpt>
      <trkpt lat="45.02827" lon="5.49082">
        <ele>1429</ele>
        <time>2020-06-17T18:31:25Z</time>
      </trkpt>
      <trkpt lat="45.02819" lon="5.4907">
        <ele>1431</ele>
        <time>2020-06-17T18:31:28Z</time>
      </trkpt>
      <trkpt lat="45.02811" lon="5.49064">
        <ele>1432</ele>
        <time>2020-06-17T18:31:30Z</time>
      </trkpt>
      <trkpt lat="45.02787" lon="5.49051">
        <ele>1433</ele>
        <time>2020-06-17T18:31:36Z</time>
      </trkpt>
      <trkpt lat="45.02778" lon="5.4905">
        <ele>1433</ele>
        <time>2020-06-17T18:31:38Z</time>
      </trkpt>
      <trkpt lat="45.02774" lon="5.4905">
        <ele>1433</ele>
        <time>2020-06-17T18:31:39Z</time>
      </trkpt>
      <trkpt lat="45.02751" lon="5.49064">
        <ele>1431</ele>
        <time>2020-06-17T18:31:45Z</time>
      </trkpt>
      <trkpt lat="45.02707" lon="5.49079">
        <ele>1429</ele>
        <time>2020-06-17T18:31:55Z</time>
      </trkpt>
      <trkpt lat="45.02684" lon="5.49081">
        <ele>1428</ele>
        <time>2020-06-17T18:32:01Z</time>
      </trkpt>
      <trkpt lat="45.02665" lon="5.49086">
        <ele>1428</ele>
        <time>2020-06-17T18:32:05Z</time>
      </trkpt>
      <trkpt lat="45.0265" lon="5.49084">
        <ele>1427</ele>
        <time>2020-06-17T18:32:09Z</time>
      </trkpt>
      <trkpt lat="45.02637" lon="5.49077">
        <ele>1427</ele>
        <time>2020-06-17T18:32:12Z</time>
      </trkpt>
      <trkpt lat="45.02619" lon="5.49055">
        <ele>1428</ele>
        <time>2020-06-17T18:32:17Z</time>
      </trkpt>
      <trkpt lat="45.02617" lon="5.4904">
        <ele>1429</ele>
        <time>2020-06-17T18:32:20Z</time>
      </trkpt>
      <trkpt lat="45.02605" lon="5.49013">
        <ele>1430</ele>
        <time>2020-06-17T18:32:25Z</time>
      </trkpt>
      <trkpt lat="45.02605" lon="5.48973">
        <ele>1434</ele>
        <time>2020-06-17T18:32:32Z</time>
      </trkpt>
      <trkpt lat="45.02596" lon="5.48946">
        <ele>1436</ele>
        <time>2020-06-17T18:32:37Z</time>
      </trkpt>
      <trkpt lat="45.02595" lon="5.48931">
        <ele>1437</ele>
        <time>2020-06-17T18:32:39Z</time>
      </trkpt>
      <trkpt lat="45.02599" lon="5.48916">
        <ele>1439</ele>
        <time>2020-06-17T18:32:42Z</time>
      </trkpt>
      <trkpt lat="45.02589" lon="5.48886">
        <ele>1441</ele>
        <time>2020-06-17T18:32:47Z</time>
      </trkpt>
      <trkpt lat="45.02593" lon="5.48871">
        <ele>1444</ele>
        <time>2020-06-17T18:32:50Z</time>
      </trkpt>
      <trkpt lat="45.02587" lon="5.4886">
        <ele>1444</ele>
        <time>2020-06-17T18:32:52Z</time>
      </trkpt>
      <trkpt lat="45.02589" lon="5.4883">
        <ele>1449</ele>
        <time>2020-06-17T18:32:57Z</time>
      </trkpt>
      <trkpt lat="45.02579" lon="5.48799">
        <ele>1453</ele>
        <time>2020-06-17T18:33:03Z</time>
      </trkpt>
      <trkpt lat="45.02579" lon="5.48777">
        <ele>1456</ele>
        <time>2020-06-17T18:33:06Z</time>
      </trkpt>
      <trkpt lat="45.02583" lon="5.48763">
        <ele>1456</ele>
        <time>2020-06-17T18:33:09Z</time>
      </trkpt>
      <trkpt lat="45.0258" lon="5.48737">
        <ele>1460</ele>
        <time>2020-06-17T18:33:13Z</time>
      </trkpt>
      <trkpt lat="45.02582" lon="5.48697">
        <ele>1461</ele>
        <time>2020-06-17T18:33:20Z</time>
      </trkpt>
      <trkpt lat="45.02571" lon="5.48678">
        <ele>1464</ele>
        <time>2020-06-17T18:33:24Z</time>
      </trkpt>
      <trkpt lat="45.02568" lon="5.4863">
        <ele>1464</ele>
        <time>2020-06-17T18:33:32Z</time>
      </trkpt>
      <trkpt lat="45.02576" lon="5.48526">
        <ele>1462</ele>
        <time>2020-06-17T18:33:49Z</time>
      </trkpt>
      <trkpt lat="45.0259" lon="5.48461">
        <ele>1461</ele>
        <time>2020-06-17T18:34:00Z</time>
      </trkpt>
      <trkpt lat="45.02606" lon="5.48424">
        <ele>1462</ele>
        <time>2020-06-17T18:34:08Z</time>
      </trkpt>
      <trkpt lat="45.02599" lon="5.48389">
        <ele>1457</ele>
        <time>2020-06-17T18:34:14Z</time>
      </trkpt>
      <trkpt lat="45.02588" lon="5.48363">
        <ele>1452</ele>
        <time>2020-06-17T18:34:19Z</time>
      </trkpt>
      <trkpt lat="45.02586" lon="5.48348">
        <ele>1450</ele>
        <time>2020-06-17T18:34:21Z</time>
      </trkpt>
      <trkpt lat="45.02588" lon="5.48333">
        <ele>1448</ele>
        <time>2020-06-17T18:34:24Z</time>
      </trkpt>
      <trkpt lat="45.02591" lon="5.48321">
        <ele>1445</ele>
        <time>2020-06-17T18:34:26Z</time>
      </trkpt>
      <trkpt lat="45.02597" lon="5.48311">
        <ele>1442</ele>
        <time>2020-06-17T18:34:28Z</time>
      </trkpt>
      <trkpt lat="45.02621" lon="5.48282">
        <ele>1434</ele>
        <time>2020-06-17T18:34:35Z</time>
      </trkpt>
      <trkpt lat="45.02622" lon="5.48269">
        <ele>1430</ele>
        <time>2020-06-17T18:34:37Z</time>
      </trkpt>
      <trkpt lat="45.02616" lon="5.48256">
        <ele>1426</ele>
        <time>2020-06-17T18:34:40Z</time>
      </trkpt>
      <trkpt lat="45.02582" lon="5.4822">
        <ele>1412</ele>
        <time>2020-06-17T18:34:50Z</time>
      </trkpt>
      <trkpt lat="45.02573" lon="5.48202">
        <ele>1408</ele>
        <time>2020-06-17T18:34:54Z</time>
      </trkpt>
      <trkpt lat="45.02568" lon="5.48199">
        <ele>1408</ele>
        <time>2020-06-17T18:34:55Z</time>
      </trkpt>
      <trkpt lat="45.02565" lon="5.4819">
        <ele>1405</ele>
        <time>2020-06-17T18:34:56Z</time>
      </trkpt>
      <trkpt lat="45.02559" lon="5.48183">
        <ele>1404</ele>
        <time>2020-06-17T18:34:58Z</time>
      </trkpt>
      <trkpt lat="45.02547" lon="5.48177">
        <ele>1406</ele>
        <time>2020-06-17T18:35:01Z</time>
      </trkpt>
      <trkpt lat="45.0254" lon="5.4817">
        <ele>1405</ele>
        <time>2020-06-17T18:35:03Z</time>
      </trkpt>
      <trkpt lat="45.02536" lon="5.48157">
        <ele>1401</ele>
        <time>2020-06-17T18:35:06Z</time>
      </trkpt>
      <trkpt lat="45.02528" lon="5.48144">
        <ele>1397</ele>
        <time>2020-06-17T18:35:08Z</time>
      </trkpt>
      <trkpt lat="45.02513" lon="5.48129">
        <ele>1395</ele>
        <time>2020-06-17T18:35:13Z</time>
      </trkpt>
      <trkpt lat="45.02512" lon="5.48125">
        <ele>1394</ele>
        <time>2020-06-17T18:35:13Z</time>
      </trkpt>
      <trkpt lat="45.0248" lon="5.48096">
        <ele>1389</ele>
        <time>2020-06-17T18:35:22Z</time>
      </trkpt>
      <trkpt lat="45.02466" lon="5.4809">
        <ele>1389</ele>
        <time>2020-06-17T18:35:26Z</time>
      </trkpt>
      <trkpt lat="45.02456" lon="5.48079">
        <ele>1386</ele>
        <time>2020-06-17T18:35:29Z</time>
      </trkpt>
      <trkpt lat="45.02448" lon="5.48074">
        <ele>1385</ele>
        <time>2020-06-17T18:35:31Z</time>
      </trkpt>
      <trkpt lat="45.02429" lon="5.4807">
        <ele>1387</ele>
        <time>2020-06-17T18:35:35Z</time>
      </trkpt>
      <trkpt lat="45.02419" lon="5.48059">
        <ele>1384</ele>
        <time>2020-06-17T18:35:38Z</time>
      </trkpt>
      <trkpt lat="45.02412" lon="5.48058">
        <ele>1385</ele>
        <time>2020-06-17T18:35:40Z</time>
      </trkpt>
      <trkpt lat="45.02391" lon="5.48047">
        <ele>1386</ele>
        <time>2020-06-17T18:35:45Z</time>
      </trkpt>
      <trkpt lat="45.02372" lon="5.48032">
        <ele>1384</ele>
        <time>2020-06-17T18:35:50Z</time>
      </trkpt>
      <trkpt lat="45.02361" lon="5.48031">
        <ele>1386</ele>
        <time>2020-06-17T18:35:53Z</time>
      </trkpt>
      <trkpt lat="45.02342" lon="5.48019">
        <ele>1385</ele>
        <time>2020-06-17T18:35:58Z</time>
      </trkpt>
      <trkpt lat="45.02307" lon="5.47987">
        <ele>1379</ele>
        <time>2020-06-17T18:36:07Z</time>
      </trkpt>
      <trkpt lat="45.02268" lon="5.47956">
        <ele>1374</ele>
        <time>2020-06-17T18:36:18Z</time>
      </trkpt>
      <trkpt lat="45.02259" lon="5.47954">
        <ele>1375</ele>
        <time>2020-06-17T18:36:20Z</time>
      </trkpt>
      <trkpt lat="45.02251" lon="5.47948">
        <ele>1374</ele>
        <time>2020-06-17T18:36:22Z</time>
      </trkpt>
      <trkpt lat="45.02223" lon="5.47918">
        <ele>1367</ele>
        <time>2020-06-17T18:36:30Z</time>
      </trkpt>
      <trkpt lat="45.0221" lon="5.479">
        <ele>1364</ele>
        <time>2020-06-17T18:36:34Z</time>
      </trkpt>
      <trkpt lat="45.02176" lon="5.47827">
        <ele>1345</ele>
        <time>2020-06-17T18:36:49Z</time>
      </trkpt>
      <trkpt lat="45.02177" lon="5.47795">
        <ele>1337</ele>
        <time>2020-06-17T18:36:54Z</time>
      </trkpt>
      <trkpt lat="45.02172" lon="5.47778">
        <ele>1333</ele>
        <time>2020-06-17T18:36:57Z</time>
      </trkpt>
      <trkpt lat="45.02171" lon="5.47753">
        <ele>1326</ele>
        <time>2020-06-17T18:37:01Z</time>
      </trkpt>
      <trkpt lat="45.02178" lon="5.4774">
        <ele>1322</ele>
        <time>2020-06-17T18:37:04Z</time>
      </trkpt>
      <trkpt lat="45.022" lon="5.47742">
        <ele>1319</ele>
        <time>2020-06-17T18:37:09Z</time>
      </trkpt>
      <trkpt lat="45.02231" lon="5.47704">
        <ele>1307</ele>
        <time>2020-06-17T18:37:19Z</time>
      </trkpt>
      <trkpt lat="45.02263" lon="5.47653">
        <ele>1298</ele>
        <time>2020-06-17T18:37:30Z</time>
      </trkpt>
      <trkpt lat="45.0228" lon="5.47639">
        <ele>1296</ele>
        <time>2020-06-17T18:37:35Z</time>
      </trkpt>
      <trkpt lat="45.02292" lon="5.47633">
        <ele>1295</ele>
        <time>2020-06-17T18:37:38Z</time>
      </trkpt>
      <trkpt lat="45.023" lon="5.47633">
        <ele>1295</ele>
        <time>2020-06-17T18:37:39Z</time>
      </trkpt>
      <trkpt lat="45.02316" lon="5.47638">
        <ele>1295</ele>
        <time>2020-06-17T18:37:43Z</time>
      </trkpt>
      <trkpt lat="45.02352" lon="5.47632">
        <ele>1292</ele>
        <time>2020-06-17T18:37:52Z</time>
      </trkpt>
      <trkpt lat="45.02368" lon="5.47636">
        <ele>1292</ele>
        <time>2020-06-17T18:37:55Z</time>
      </trkpt>
      <trkpt lat="45.02432" lon="5.47662">
        <ele>1290</ele>
        <time>2020-06-17T18:38:11Z</time>
      </trkpt>
      <trkpt lat="45.02509" lon="5.47673">
        <ele>1283</ele>
        <time>2020-06-17T18:38:29Z</time>
      </trkpt>
      <trkpt lat="45.02691" lon="5.47721">
        <ele>1280</ele>
        <time>2020-06-17T18:39:12Z</time>
      </trkpt>
      <trkpt lat="45.02732" lon="5.47721">
        <ele>1280</ele>
        <time>2020-06-17T18:39:22Z</time>
      </trkpt>
      <trkpt lat="45.02811" lon="5.47702">
        <ele>1282</ele>
        <time>2020-06-17T18:39:41Z</time>
      </trkpt>
      <trkpt lat="45.02832" lon="5.47699">
        <ele>1284</ele>
        <time>2020-06-17T18:39:46Z</time>
      </trkpt>
      <trkpt lat="45.0292" lon="5.47718">
        <ele>1283</ele>
        <time>2020-06-17T18:40:06Z</time>
      </trkpt>
      <trkpt lat="45.02974" lon="5.47724">
        <ele>1287</ele>
        <time>2020-06-17T18:40:19Z</time>
      </trkpt>
      <trkpt lat="45.03049" lon="5.47742">
        <ele>1290</ele>
        <time>2020-06-17T18:40:37Z</time>
      </trkpt>
      <trkpt lat="45.03076" lon="5.4775">
        <ele>1289</ele>
        <time>2020-06-17T18:40:43Z</time>
      </trkpt>
      <trkpt lat="45.03115" lon="5.47773">
        <ele>1292</ele>
        <time>2020-06-17T18:40:53Z</time>
      </trkpt>
      <trkpt lat="45.03134" lon="5.4778">
        <ele>1294</ele>
        <time>2020-06-17T18:40:58Z</time>
      </trkpt>
      <trkpt lat="45.03202" lon="5.47786">
        <ele>1300</ele>
        <time>2020-06-17T18:41:14Z</time>
      </trkpt>
      <trkpt lat="45.03226" lon="5.47785">
        <ele>1302</ele>
        <time>2020-06-17T18:41:19Z</time>
      </trkpt>
      <trkpt lat="45.0326" lon="5.4779">
        <ele>1304</ele>
        <time>2020-06-17T18:41:27Z</time>
      </trkpt>
      <trkpt lat="45.03279" lon="5.47804">
        <ele>1305</ele>
        <time>2020-06-17T18:41:32Z</time>
      </trkpt>
      <trkpt lat="45.03386" lon="5.47957">
        <ele>1318</ele>
        <time>2020-06-17T18:42:08Z</time>
      </trkpt>
      <trkpt lat="45.03401" lon="5.47965">
        <ele>1320</ele>
        <time>2020-06-17T18:42:11Z</time>
      </trkpt>
      <trkpt lat="45.03406" lon="5.47972">
        <ele>1321</ele>
        <time>2020-06-17T18:42:13Z</time>
      </trkpt>
      <trkpt lat="45.03438" lon="5.47981">
        <ele>1323</ele>
        <time>2020-06-17T18:42:21Z</time>
      </trkpt>
      <trkpt lat="45.03451" lon="5.47975">
        <ele>1324</ele>
        <time>2020-06-17T18:42:24Z</time>
      </trkpt>
      <trkpt lat="45.03459" lon="5.4798">
        <ele>1325</ele>
        <time>2020-06-17T18:42:26Z</time>
      </trkpt>
      <trkpt lat="45.03468" lon="5.4798">
        <ele>1325</ele>
        <time>2020-06-17T18:42:28Z</time>
      </trkpt>
      <trkpt lat="45.03501" lon="5.47971">
        <ele>1328</ele>
        <time>2020-06-17T18:42:36Z</time>
      </trkpt>
      <trkpt lat="45.03535" lon="5.47968">
        <ele>1328</ele>
        <time>2020-06-17T18:42:44Z</time>
      </trkpt>
      <trkpt lat="45.03562" lon="5.47971">
        <ele>1327</ele>
        <time>2020-06-17T18:42:50Z</time>
      </trkpt>
      <trkpt lat="45.03627" lon="5.47963">
        <ele>1328</ele>
        <time>2020-06-17T18:43:05Z</time>
      </trkpt>
      <trkpt lat="45.03637" lon="5.4796">
        <ele>1328</ele>
        <time>2020-06-17T18:43:08Z</time>
      </trkpt>
      <trkpt lat="45.03657" lon="5.47949">
        <ele>1328</ele>
        <time>2020-06-17T18:43:13Z</time>
      </trkpt>
      <trkpt lat="45.03701" lon="5.47898">
        <ele>1333</ele>
        <time>2020-06-17T18:43:26Z</time>
      </trkpt>
      <trkpt lat="45.03722" lon="5.47878">
        <ele>1335</ele>
        <time>2020-06-17T18:43:32Z</time>
      </trkpt>
      <trkpt lat="45.03767" lon="5.47828">
        <ele>1340</ele>
        <time>2020-06-17T18:43:45Z</time>
      </trkpt>
      <trkpt lat="45.03777" lon="5.47819">
        <ele>1342</ele>
        <time>2020-06-17T18:43:48Z</time>
      </trkpt>
      <trkpt lat="45.03807" lon="5.47801">
        <ele>1345</ele>
        <time>2020-06-17T18:43:56Z</time>
      </trkpt>
      <trkpt lat="45.03863" lon="5.47778">
        <ele>1348</ele>
        <time>2020-06-17T18:44:09Z</time>
      </trkpt>
      <trkpt lat="45.03904" lon="5.47766">
        <ele>1349</ele>
        <time>2020-06-17T18:44:19Z</time>
      </trkpt>
      <trkpt lat="45.03932" lon="5.47755">
        <ele>1351</ele>
        <time>2020-06-17T18:44:26Z</time>
      </trkpt>
      <trkpt lat="45.03985" lon="5.47728">
        <ele>1358</ele>
        <time>2020-06-17T18:44:39Z</time>
      </trkpt>
      <trkpt lat="45.04032" lon="5.4771">
        <ele>1364</ele>
        <time>2020-06-17T18:44:50Z</time>
      </trkpt>
      <trkpt lat="45.04053" lon="5.47694">
        <ele>1367</ele>
        <time>2020-06-17T18:44:56Z</time>
      </trkpt>
      <trkpt lat="45.04062" lon="5.47691">
        <ele>1368</ele>
        <time>2020-06-17T18:44:58Z</time>
      </trkpt>
      <trkpt lat="45.04085" lon="5.47675">
        <ele>1370</ele>
        <time>2020-06-17T18:45:04Z</time>
      </trkpt>
      <trkpt lat="45.04124" lon="5.47666">
        <ele>1372</ele>
        <time>2020-06-17T18:45:13Z</time>
      </trkpt>
      <trkpt lat="45.04159" lon="5.47666">
        <ele>1373</ele>
        <time>2020-06-17T18:45:22Z</time>
      </trkpt>
      <trkpt lat="45.04192" lon="5.47662">
        <ele>1373</ele>
        <time>2020-06-17T18:45:29Z</time>
      </trkpt>
      <trkpt lat="45.04211" lon="5.47657">
        <ele>1373</ele>
        <time>2020-06-17T18:45:34Z</time>
      </trkpt>
      <trkpt lat="45.04217" lon="5.47655">
        <ele>1373</ele>
        <time>2020-06-17T18:45:35Z</time>
      </trkpt>
      <trkpt lat="45.04231" lon="5.47643">
        <ele>1374</ele>
        <time>2020-06-17T18:45:39Z</time>
      </trkpt>
      <trkpt lat="45.04265" lon="5.47622">
        <ele>1377</ele>
        <time>2020-06-17T18:45:48Z</time>
      </trkpt>
      <trkpt lat="45.04292" lon="5.47615">
        <ele>1378</ele>
        <time>2020-06-17T18:45:54Z</time>
      </trkpt>
      <trkpt lat="45.04346" lon="5.47596">
        <ele>1380</ele>
        <time>2020-06-17T18:46:07Z</time>
      </trkpt>
      <trkpt lat="45.0435" lon="5.47588">
        <ele>1381</ele>
        <time>2020-06-17T18:46:09Z</time>
      </trkpt>
      <trkpt lat="45.04339" lon="5.47583">
        <ele>1381</ele>
        <time>2020-06-17T18:46:11Z</time>
      </trkpt>
      <trkpt lat="45.04319" lon="5.47582">
        <ele>1381</ele>
        <time>2020-06-17T18:46:16Z</time>
      </trkpt>
      <trkpt lat="45.04301" lon="5.47578">
        <ele>1383</ele>
        <time>2020-06-17T18:46:20Z</time>
      </trkpt>
      <trkpt lat="45.04259" lon="5.47577">
        <ele>1383</ele>
        <time>2020-06-17T18:46:30Z</time>
      </trkpt>
      <trkpt lat="45.04232" lon="5.47565">
        <ele>1386</ele>
        <time>2020-06-17T18:46:37Z</time>
      </trkpt>
      <trkpt lat="45.04205" lon="5.47565">
        <ele>1386</ele>
        <time>2020-06-17T18:46:43Z</time>
      </trkpt>
      <trkpt lat="45.0419" lon="5.4757">
        <ele>1385</ele>
        <time>2020-06-17T18:46:47Z</time>
      </trkpt>
      <trkpt lat="45.0418" lon="5.4757">
        <ele>1385</ele>
        <time>2020-06-17T18:46:49Z</time>
      </trkpt>
      <trkpt lat="45.04162" lon="5.47566">
        <ele>1386</ele>
        <time>2020-06-17T18:46:53Z</time>
      </trkpt>
      <trkpt lat="45.04128" lon="5.4755">
        <ele>1391</ele>
        <time>2020-06-17T18:47:02Z</time>
      </trkpt>
      <trkpt lat="45.04112" lon="5.47547">
        <ele>1392</ele>
        <time>2020-06-17T18:47:05Z</time>
      </trkpt>
      <trkpt lat="45.04105" lon="5.47548">
        <ele>1392</ele>
        <time>2020-06-17T18:47:07Z</time>
      </trkpt>
      <trkpt lat="45.04079" lon="5.47541">
        <ele>1395</ele>
        <time>2020-06-17T18:47:13Z</time>
      </trkpt>
      <trkpt lat="45.04067" lon="5.47543">
        <ele>1395</ele>
        <time>2020-06-17T18:47:16Z</time>
      </trkpt>
      <trkpt lat="45.04055" lon="5.4755">
        <ele>1394</ele>
        <time>2020-06-17T18:47:19Z</time>
      </trkpt>
      <trkpt lat="45.04022" lon="5.47555">
        <ele>1395</ele>
        <time>2020-06-17T18:47:27Z</time>
      </trkpt>
      <trkpt lat="45.04011" lon="5.47555">
        <ele>1395</ele>
        <time>2020-06-17T18:47:29Z</time>
      </trkpt>
      <trkpt lat="45.03999" lon="5.4755">
        <ele>1397</ele>
        <time>2020-06-17T18:47:32Z</time>
      </trkpt>
      <trkpt lat="45.03994" lon="5.47544">
        <ele>1398</ele>
        <time>2020-06-17T18:47:34Z</time>
      </trkpt>
      <trkpt lat="45.03992" lon="5.47535">
        <ele>1400</ele>
        <time>2020-06-17T18:47:35Z</time>
      </trkpt>
      <trkpt lat="45.03992" lon="5.47522">
        <ele>1403</ele>
        <time>2020-06-17T18:47:38Z</time>
      </trkpt>
      <trkpt lat="45.03995" lon="5.47512">
        <ele>1405</ele>
        <time>2020-06-17T18:47:39Z</time>
      </trkpt>
      <trkpt lat="45.04005" lon="5.47505">
        <ele>1406</ele>
        <time>2020-06-17T18:47:42Z</time>
      </trkpt>
      <trkpt lat="45.04052" lon="5.47487">
        <ele>1407</ele>
        <time>2020-06-17T18:47:53Z</time>
      </trkpt>
      <trkpt lat="45.04081" lon="5.47469">
        <ele>1409</ele>
        <time>2020-06-17T18:48:01Z</time>
      </trkpt>
      <trkpt lat="45.04097" lon="5.47453">
        <ele>1412</ele>
        <time>2020-06-17T18:48:05Z</time>
      </trkpt>
      <trkpt lat="45.04103" lon="5.47441">
        <ele>1414</ele>
        <time>2020-06-17T18:48:08Z</time>
      </trkpt>
      <trkpt lat="45.04098" lon="5.47438">
        <ele>1414</ele>
        <time>2020-06-17T18:48:09Z</time>
      </trkpt>
      <trkpt lat="45.04081" lon="5.47448">
        <ele>1413</ele>
        <time>2020-06-17T18:48:13Z</time>
      </trkpt>
      <trkpt lat="45.04073" lon="5.47447">
        <ele>1413</ele>
        <time>2020-06-17T18:48:15Z</time>
      </trkpt>
      <trkpt lat="45.04064" lon="5.47443">
        <ele>1414</ele>
        <time>2020-06-17T18:48:17Z</time>
      </trkpt>
      <trkpt lat="45.04037" lon="5.47419">
        <ele>1418</ele>
        <time>2020-06-17T18:48:25Z</time>
      </trkpt>
      <trkpt lat="45.04032" lon="5.47412">
        <ele>1418</ele>
        <time>2020-06-17T18:48:26Z</time>
      </trkpt>
      <trkpt lat="45.0403" lon="5.47376">
        <ele>1421</ele>
        <time>2020-06-17T18:48:32Z</time>
      </trkpt>
      <trkpt lat="45.04017" lon="5.47338">
        <ele>1424</ele>
        <time>2020-06-17T18:48:39Z</time>
      </trkpt>
      <trkpt lat="45.04018" lon="5.47324">
        <ele>1426</ele>
        <time>2020-06-17T18:48:42Z</time>
      </trkpt>
      <trkpt lat="45.04014" lon="5.47304">
        <ele>1429</ele>
        <time>2020-06-17T18:48:45Z</time>
      </trkpt>
      <trkpt lat="45.0399" lon="5.47279">
        <ele>1431</ele>
        <time>2020-06-17T18:48:52Z</time>
      </trkpt>
      <trkpt lat="45.03974" lon="5.47253">
        <ele>1433</ele>
        <time>2020-06-17T18:48:58Z</time>
      </trkpt>
      <trkpt lat="45.03972" lon="5.47252">
        <ele>1433</ele>
        <time>2020-06-17T18:48:58Z</time>
      </trkpt>
      <trkpt lat="45.03944" lon="5.47262">
        <ele>1430</ele>
        <time>2020-06-17T18:49:05Z</time>
      </trkpt>
      <trkpt lat="45.03934" lon="5.47255">
        <ele>1430</ele>
        <time>2020-06-17T18:49:08Z</time>
      </trkpt>
      <trkpt lat="45.03925" lon="5.47209">
        <ele>1432</ele>
        <time>2020-06-17T18:49:16Z</time>
      </trkpt>
      <trkpt lat="45.03907" lon="5.47171">
        <ele>1433</ele>
        <time>2020-06-17T18:49:23Z</time>
      </trkpt>
      <trkpt lat="45.03905" lon="5.47147">
        <ele>1433</ele>
        <time>2020-06-17T18:49:27Z</time>
      </trkpt>
      <trkpt lat="45.03907" lon="5.47115">
        <ele>1434</ele>
        <time>2020-06-17T18:49:32Z</time>
      </trkpt>
      <trkpt lat="45.03905" lon="5.47102">
        <ele>1434</ele>
        <time>2020-06-17T18:49:35Z</time>
      </trkpt>
      <trkpt lat="45.03882" lon="5.4707">
        <ele>1434</ele>
        <time>2020-06-17T18:49:42Z</time>
      </trkpt>
      <trkpt lat="45.03859" lon="5.47047">
        <ele>1435</ele>
        <time>2020-06-17T18:49:49Z</time>
      </trkpt>
      <trkpt lat="45.03832" lon="5.47032">
        <ele>1435</ele>
        <time>2020-06-17T18:49:55Z</time>
      </trkpt>
      <trkpt lat="45.03817" lon="5.47027">
        <ele>1436</ele>
        <time>2020-06-17T18:49:59Z</time>
      </trkpt>
      <trkpt lat="45.03794" lon="5.47028">
        <ele>1435</ele>
        <time>2020-06-17T18:50:04Z</time>
      </trkpt>
      <trkpt lat="45.03769" lon="5.47023">
        <ele>1434</ele>
        <time>2020-06-17T18:50:10Z</time>
      </trkpt>
      <trkpt lat="45.0374" lon="5.47023">
        <ele>1433</ele>
        <time>2020-06-17T18:50:17Z</time>
      </trkpt>
      <trkpt lat="45.03717" lon="5.47026">
        <ele>1433</ele>
        <time>2020-06-17T18:50:22Z</time>
      </trkpt>
      <trkpt lat="45.03706" lon="5.47024">
        <ele>1432</ele>
        <time>2020-06-17T18:50:25Z</time>
      </trkpt>
      <trkpt lat="45.03662" lon="5.47007">
        <ele>1431</ele>
        <time>2020-06-17T18:50:36Z</time>
      </trkpt>
      <trkpt lat="45.0364" lon="5.47002">
        <ele>1430</ele>
        <time>2020-06-17T18:50:41Z</time>
      </trkpt>
      <trkpt lat="45.03622" lon="5.47006">
        <ele>1429</ele>
        <time>2020-06-17T18:50:45Z</time>
      </trkpt>
      <trkpt lat="45.0358" lon="5.47025">
        <ele>1425</ele>
        <time>2020-06-17T18:50:55Z</time>
      </trkpt>
      <trkpt lat="45.03558" lon="5.47031">
        <ele>1424</ele>
        <time>2020-06-17T18:51:01Z</time>
      </trkpt>
      <trkpt lat="45.03469" lon="5.47026">
        <ele>1418</ele>
        <time>2020-06-17T18:51:21Z</time>
      </trkpt>
      <trkpt lat="45.03437" lon="5.47018">
        <ele>1414</ele>
        <time>2020-06-17T18:51:29Z</time>
      </trkpt>
      <trkpt lat="45.03369" lon="5.46977">
        <ele>1401</ele>
        <time>2020-06-17T18:51:46Z</time>
      </trkpt>
      <trkpt lat="45.0332" lon="5.46932">
        <ele>1393</ele>
        <time>2020-06-17T18:52:00Z</time>
      </trkpt>
      <trkpt lat="45.03303" lon="5.46897">
        <ele>1394</ele>
        <time>2020-06-17T18:52:07Z</time>
      </trkpt>
      <trkpt lat="45.03294" lon="5.46886">
        <ele>1393</ele>
        <time>2020-06-17T18:52:10Z</time>
      </trkpt>
      <trkpt lat="45.0326" lon="5.46866">
        <ele>1388</ele>
        <time>2020-06-17T18:52:18Z</time>
      </trkpt>
      <trkpt lat="45.03254" lon="5.46861">
        <ele>1387</ele>
        <time>2020-06-17T18:52:20Z</time>
      </trkpt>
      <trkpt lat="45.03249" lon="5.46852">
        <ele>1387</ele>
        <time>2020-06-17T18:52:22Z</time>
      </trkpt>
      <trkpt lat="45.03245" lon="5.46843">
        <ele>1387</ele>
        <time>2020-06-17T18:52:24Z</time>
      </trkpt>
      <trkpt lat="45.03241" lon="5.46814">
        <ele>1389</ele>
        <time>2020-06-17T18:52:29Z</time>
      </trkpt>
      <trkpt lat="45.03241" lon="5.46801">
        <ele>1389</ele>
        <time>2020-06-17T18:52:31Z</time>
      </trkpt>
      <trkpt lat="45.03246" lon="5.46775">
        <ele>1392</ele>
        <time>2020-06-17T18:52:35Z</time>
      </trkpt>
      <trkpt lat="45.03243" lon="5.46744">
        <ele>1393</ele>
        <time>2020-06-17T18:52:40Z</time>
      </trkpt>
      <trkpt lat="45.03224" lon="5.46715">
        <ele>1392</ele>
        <time>2020-06-17T18:52:47Z</time>
      </trkpt>
      <trkpt lat="45.03176" lon="5.46672">
        <ele>1386</ele>
        <time>2020-06-17T18:53:00Z</time>
      </trkpt>
      <trkpt lat="45.0316" lon="5.46648">
        <ele>1385</ele>
        <time>2020-06-17T18:53:06Z</time>
      </trkpt>
      <trkpt lat="45.03144" lon="5.46604">
        <ele>1385</ele>
        <time>2020-06-17T18:53:14Z</time>
      </trkpt>
      <trkpt lat="45.03142" lon="5.46555">
        <ele>1386</ele>
        <time>2020-06-17T18:53:22Z</time>
      </trkpt>
      <trkpt lat="45.03135" lon="5.4652">
        <ele>1386</ele>
        <time>2020-06-17T18:53:28Z</time>
      </trkpt>
      <trkpt lat="45.03104" lon="5.46476">
        <ele>1384</ele>
        <time>2020-06-17T18:53:38Z</time>
      </trkpt>
      <trkpt lat="45.03065" lon="5.4639">
        <ele>1385</ele>
        <time>2020-06-17T18:53:55Z</time>
      </trkpt>
      <trkpt lat="45.03044" lon="5.46364">
        <ele>1384</ele>
        <time>2020-06-17T18:54:01Z</time>
      </trkpt>
      <trkpt lat="45.03022" lon="5.46343">
        <ele>1382</ele>
        <time>2020-06-17T18:54:08Z</time>
      </trkpt>
      <trkpt lat="45.03007" lon="5.46333">
        <ele>1381</ele>
        <time>2020-06-17T18:54:11Z</time>
      </trkpt>
      <trkpt lat="45.02981" lon="5.46326">
        <ele>1378</ele>
        <time>2020-06-17T18:54:18Z</time>
      </trkpt>
      <trkpt lat="45.0297" lon="5.46327">
        <ele>1377</ele>
        <time>2020-06-17T18:54:20Z</time>
      </trkpt>
      <trkpt lat="45.0296" lon="5.46334">
        <ele>1376</ele>
        <time>2020-06-17T18:54:23Z</time>
      </trkpt>
      <trkpt lat="45.02946" lon="5.46362">
        <ele>1374</ele>
        <time>2020-06-17T18:54:29Z</time>
      </trkpt>
      <trkpt lat="45.02937" lon="5.46368">
        <ele>1373</ele>
        <time>2020-06-17T18:54:31Z</time>
      </trkpt>
      <trkpt lat="45.02919" lon="5.46369">
        <ele>1371</ele>
        <time>2020-06-17T18:54:35Z</time>
      </trkpt>
      <trkpt lat="45.02907" lon="5.46373">
        <ele>1370</ele>
        <time>2020-06-17T18:54:38Z</time>
      </trkpt>
      <trkpt lat="45.02887" lon="5.4639">
        <ele>1367</ele>
        <time>2020-06-17T18:54:43Z</time>
      </trkpt>
      <trkpt lat="45.02872" lon="5.46408">
        <ele>1366</ele>
        <time>2020-06-17T18:54:48Z</time>
      </trkpt>
      <trkpt lat="45.02825" lon="5.46444">
        <ele>1361</ele>
        <time>2020-06-17T18:55:00Z</time>
      </trkpt>
      <trkpt lat="45.02804" lon="5.46446">
        <ele>1360</ele>
        <time>2020-06-17T18:55:05Z</time>
      </trkpt>
      <trkpt lat="45.02786" lon="5.46427">
        <ele>1359</ele>
        <time>2020-06-17T18:55:11Z</time>
      </trkpt>
      <trkpt lat="45.02772" lon="5.46401">
        <ele>1357</ele>
        <time>2020-06-17T18:55:16Z</time>
      </trkpt>
      <trkpt lat="45.0277" lon="5.46386">
        <ele>1355</ele>
        <time>2020-06-17T18:55:19Z</time>
      </trkpt>
      <trkpt lat="45.02773" lon="5.46374">
        <ele>1355</ele>
        <time>2020-06-17T18:55:21Z</time>
      </trkpt>
      <trkpt lat="45.02802" lon="5.46321">
        <ele>1355</ele>
        <time>2020-06-17T18:55:32Z</time>
      </trkpt>
      <trkpt lat="45.02794" lon="5.46311">
        <ele>1354</ele>
        <time>2020-06-17T18:55:34Z</time>
      </trkpt>
      <trkpt lat="45.02768" lon="5.46301">
        <ele>1351</ele>
        <time>2020-06-17T18:55:40Z</time>
      </trkpt>
      <trkpt lat="45.02755" lon="5.46292">
        <ele>1349</ele>
        <time>2020-06-17T18:55:44Z</time>
      </trkpt>
      <trkpt lat="45.02746" lon="5.46289">
        <ele>1347</ele>
        <time>2020-06-17T18:55:46Z</time>
      </trkpt>
      <trkpt lat="45.02708" lon="5.46288">
        <ele>1335</ele>
        <time>2020-06-17T18:55:55Z</time>
      </trkpt>
      <trkpt lat="45.02695" lon="5.46292">
        <ele>1331</ele>
        <time>2020-06-17T18:55:58Z</time>
      </trkpt>
      <trkpt lat="45.02689" lon="5.46297">
        <ele>1329</ele>
        <time>2020-06-17T18:56:00Z</time>
      </trkpt>
      <trkpt lat="45.02668" lon="5.46336">
        <ele>1323</ele>
        <time>2020-06-17T18:56:08Z</time>
      </trkpt>
      <trkpt lat="45.02643" lon="5.46401">
        <ele>1326</ele>
        <time>2020-06-17T18:56:20Z</time>
      </trkpt>
      <trkpt lat="45.02632" lon="5.46404">
        <ele>1325</ele>
        <time>2020-06-17T18:56:23Z</time>
      </trkpt>
      <trkpt lat="45.02626" lon="5.46392">
        <ele>1322</ele>
        <time>2020-06-17T18:56:25Z</time>
      </trkpt>
      <trkpt lat="45.02623" lon="5.46377">
        <ele>1321</ele>
        <time>2020-06-17T18:56:28Z</time>
      </trkpt>
      <trkpt lat="45.02616" lon="5.46367">
        <ele>1319</ele>
        <time>2020-06-17T18:56:30Z</time>
      </trkpt>
      <trkpt lat="45.02597" lon="5.46353">
        <ele>1315</ele>
        <time>2020-06-17T18:56:35Z</time>
      </trkpt>
      <trkpt lat="45.02574" lon="5.46322">
        <ele>1303</ele>
        <time>2020-06-17T18:56:42Z</time>
      </trkpt>
      <trkpt lat="45.02569" lon="5.46307">
        <ele>1291</ele>
        <time>2020-06-17T18:56:45Z</time>
      </trkpt>
      <trkpt lat="45.02562" lon="5.46299">
        <ele>1281</ele>
        <time>2020-06-17T18:56:47Z</time>
      </trkpt>
      <trkpt lat="45.02553" lon="5.46292">
        <ele>1268</ele>
        <time>2020-06-17T18:56:50Z</time>
      </trkpt>
      <trkpt lat="45.02528" lon="5.46286">
        <ele>1241</ele>
        <time>2020-06-17T18:56:55Z</time>
      </trkpt>
      <trkpt lat="45.02519" lon="5.46278">
        <ele>1222</ele>
        <time>2020-06-17T18:56:58Z</time>
      </trkpt>
      <trkpt lat="45.02512" lon="5.46276">
        <ele>1212</ele>
        <time>2020-06-17T18:57:00Z</time>
      </trkpt>
      <trkpt lat="45.02503" lon="5.46283">
        <ele>1214</ele>
        <time>2020-06-17T18:57:02Z</time>
      </trkpt>
      <trkpt lat="45.02486" lon="5.4629">
        <ele>1216</ele>
        <time>2020-06-17T18:57:06Z</time>
      </trkpt>
      <trkpt lat="45.02477" lon="5.46301">
        <ele>1229</ele>
        <time>2020-06-17T18:57:09Z</time>
      </trkpt>
      <trkpt lat="45.02458" lon="5.46315">
        <ele>1242</ele>
        <time>2020-06-17T18:57:14Z</time>
      </trkpt>
      <trkpt lat="45.02436" lon="5.4634">
        <ele>1261</ele>
        <time>2020-06-17T18:57:20Z</time>
      </trkpt>
      <trkpt lat="45.02426" lon="5.46355">
        <ele>1266</ele>
        <time>2020-06-17T18:57:24Z</time>
      </trkpt>
      <trkpt lat="45.02415" lon="5.46363">
        <ele>1266</ele>
        <time>2020-06-17T18:57:27Z</time>
      </trkpt>
      <trkpt lat="45.02404" lon="5.46365">
        <ele>1258</ele>
        <time>2020-06-17T18:57:29Z</time>
      </trkpt>
      <trkpt lat="45.02396" lon="5.46371">
        <ele>1257</ele>
        <time>2020-06-17T18:57:31Z</time>
      </trkpt>
      <trkpt lat="45.02375" lon="5.46399">
        <ele>1266</ele>
        <time>2020-06-17T18:57:38Z</time>
      </trkpt>
      <trkpt lat="45.02365" lon="5.46406">
        <ele>1266</ele>
        <time>2020-06-17T18:57:41Z</time>
      </trkpt>
      <trkpt lat="45.02357" lon="5.46418">
        <ele>1273</ele>
        <time>2020-06-17T18:57:44Z</time>
      </trkpt>
      <trkpt lat="45.02344" lon="5.46422">
        <ele>1268</ele>
        <time>2020-06-17T18:57:47Z</time>
      </trkpt>
      <trkpt lat="45.02336" lon="5.46431">
        <ele>1269</ele>
        <time>2020-06-17T18:57:49Z</time>
      </trkpt>
      <trkpt lat="45.0232" lon="5.46443">
        <ele>1267</ele>
        <time>2020-06-17T18:57:53Z</time>
      </trkpt>
      <trkpt lat="45.02308" lon="5.46441">
        <ele>1259</ele>
        <time>2020-06-17T18:57:56Z</time>
      </trkpt>
      <trkpt lat="45.02303" lon="5.46444">
        <ele>1258</ele>
        <time>2020-06-17T18:57:57Z</time>
      </trkpt>
      <trkpt lat="45.02291" lon="5.46461">
        <ele>1264</ele>
        <time>2020-06-17T18:58:01Z</time>
      </trkpt>
      <trkpt lat="45.02268" lon="5.4653">
        <ele>1297</ele>
        <time>2020-06-17T18:58:14Z</time>
      </trkpt>
      <trkpt lat="45.0227" lon="5.46562">
        <ele>1309</ele>
        <time>2020-06-17T18:58:19Z</time>
      </trkpt>
      <trkpt lat="45.02266" lon="5.46565">
        <ele>1310</ele>
        <time>2020-06-17T18:58:20Z</time>
      </trkpt>
      <trkpt lat="45.02268" lon="5.4657">
        <ele>1312</ele>
        <time>2020-06-17T18:58:21Z</time>
      </trkpt>
      <trkpt lat="45.02266" lon="5.46613">
        <ele>1320</ele>
        <time>2020-06-17T18:58:28Z</time>
      </trkpt>
      <trkpt lat="45.02271" lon="5.46623">
        <ele>1321</ele>
        <time>2020-06-17T18:58:30Z</time>
      </trkpt>
      <trkpt lat="45.02273" lon="5.46663">
        <ele>1325</ele>
        <time>2020-06-17T18:58:37Z</time>
      </trkpt>
      <trkpt lat="45.02271" lon="5.46679">
        <ele>1327</ele>
        <time>2020-06-17T18:58:40Z</time>
      </trkpt>
      <trkpt lat="45.02254" lon="5.46713">
        <ele>1330</ele>
        <time>2020-06-17T18:58:47Z</time>
      </trkpt>
      <trkpt lat="45.02256" lon="5.46733">
        <ele>1333</ele>
        <time>2020-06-17T18:58:50Z</time>
      </trkpt>
      <trkpt lat="45.02262" lon="5.46744">
        <ele>1334</ele>
        <time>2020-06-17T18:58:52Z</time>
      </trkpt>
      <trkpt lat="45.02265" lon="5.46769">
        <ele>1336</ele>
        <time>2020-06-17T18:58:56Z</time>
      </trkpt>
      <trkpt lat="45.02263" lon="5.46781">
        <ele>1337</ele>
        <time>2020-06-17T18:58:58Z</time>
      </trkpt>
      <trkpt lat="45.02267" lon="5.46799">
        <ele>1338</ele>
        <time>2020-06-17T18:59:02Z</time>
      </trkpt>
      <trkpt lat="45.02264" lon="5.46812">
        <ele>1339</ele>
        <time>2020-06-17T18:59:04Z</time>
      </trkpt>
      <trkpt lat="45.02262" lon="5.46843">
        <ele>1340</ele>
        <time>2020-06-17T18:59:09Z</time>
      </trkpt>
      <trkpt lat="45.02262" lon="5.46879">
        <ele>1340</ele>
        <time>2020-06-17T18:59:15Z</time>
      </trkpt>
      <trkpt lat="45.0226" lon="5.46884">
        <ele>1340</ele>
        <time>2020-06-17T18:59:16Z</time>
      </trkpt>
      <trkpt lat="45.02242" lon="5.46897">
        <ele>1342</ele>
        <time>2020-06-17T18:59:21Z</time>
      </trkpt>
      <trkpt lat="45.02231" lon="5.46902">
        <ele>1342</ele>
        <time>2020-06-17T18:59:23Z</time>
      </trkpt>
      <trkpt lat="45.02214" lon="5.46897">
        <ele>1343</ele>
        <time>2020-06-17T18:59:27Z</time>
      </trkpt>
      <trkpt lat="45.02173" lon="5.4686">
        <ele>1344</ele>
        <time>2020-06-17T18:59:39Z</time>
      </trkpt>
      <trkpt lat="45.02158" lon="5.46863">
        <ele>1344</ele>
        <time>2020-06-17T18:59:42Z</time>
      </trkpt>
      <trkpt lat="45.02138" lon="5.46875">
        <ele>1344</ele>
        <time>2020-06-17T18:59:47Z</time>
      </trkpt>
      <trkpt lat="45.02104" lon="5.4688">
        <ele>1344</ele>
        <time>2020-06-17T18:59:55Z</time>
      </trkpt>
      <trkpt lat="45.02066" lon="5.46876">
        <ele>1344</ele>
        <time>2020-06-17T19:00:04Z</time>
      </trkpt>
      <trkpt lat="45.02055" lon="5.46877">
        <ele>1344</ele>
        <time>2020-06-17T19:00:07Z</time>
      </trkpt>
      <trkpt lat="45.02042" lon="5.46873">
        <ele>1344</ele>
        <time>2020-06-17T19:00:10Z</time>
      </trkpt>
      <trkpt lat="45.02037" lon="5.46864">
        <ele>1343</ele>
        <time>2020-06-17T19:00:12Z</time>
      </trkpt>
      <trkpt lat="45.02034" lon="5.46847">
        <ele>1343</ele>
        <time>2020-06-17T19:00:15Z</time>
      </trkpt>
      <trkpt lat="45.02047" lon="5.46818">
        <ele>1341</ele>
        <time>2020-06-17T19:00:20Z</time>
      </trkpt>
      <trkpt lat="45.0207" lon="5.46798">
        <ele>1340</ele>
        <time>2020-06-17T19:00:27Z</time>
      </trkpt>
      <trkpt lat="45.02092" lon="5.46784">
        <ele>1339</ele>
        <time>2020-06-17T19:00:32Z</time>
      </trkpt>
      <trkpt lat="45.02113" lon="5.46761">
        <ele>1338</ele>
        <time>2020-06-17T19:00:38Z</time>
      </trkpt>
      <trkpt lat="45.02133" lon="5.46735">
        <ele>1336</ele>
        <time>2020-06-17T19:00:45Z</time>
      </trkpt>
      <trkpt lat="45.02139" lon="5.46723">
        <ele>1335</ele>
        <time>2020-06-17T19:00:47Z</time>
      </trkpt>
      <trkpt lat="45.02129" lon="5.46708">
        <ele>1333</ele>
        <time>2020-06-17T19:00:51Z</time>
      </trkpt>
      <trkpt lat="45.02091" lon="5.46687">
        <ele>1329</ele>
        <time>2020-06-17T19:01:00Z</time>
      </trkpt>
      <trkpt lat="45.02081" lon="5.46685">
        <ele>1329</ele>
        <time>2020-06-17T19:01:02Z</time>
      </trkpt>
      <trkpt lat="45.02064" lon="5.46696">
        <ele>1330</ele>
        <time>2020-06-17T19:01:07Z</time>
      </trkpt>
      <trkpt lat="45.02051" lon="5.46701">
        <ele>1331</ele>
        <time>2020-06-17T19:01:10Z</time>
      </trkpt>
      <trkpt lat="45.02041" lon="5.46703">
        <ele>1331</ele>
        <time>2020-06-17T19:01:12Z</time>
      </trkpt>
      <trkpt lat="45.02026" lon="5.4671">
        <ele>1332</ele>
        <time>2020-06-17T19:01:16Z</time>
      </trkpt>
      <trkpt lat="45.02008" lon="5.46712">
        <ele>1333</ele>
        <time>2020-06-17T19:01:20Z</time>
      </trkpt>
      <trkpt lat="45.01989" lon="5.46731">
        <ele>1334</ele>
        <time>2020-06-17T19:01:26Z</time>
      </trkpt>
      <trkpt lat="45.01982" lon="5.46734">
        <ele>1335</ele>
        <time>2020-06-17T19:01:27Z</time>
      </trkpt>
      <trkpt lat="45.01974" lon="5.46742">
        <ele>1335</ele>
        <time>2020-06-17T19:01:30Z</time>
      </trkpt>
      <trkpt lat="45.01956" lon="5.46774">
        <ele>1337</ele>
        <time>2020-06-17T19:01:36Z</time>
      </trkpt>
      <trkpt lat="45.01947" lon="5.46783">
        <ele>1338</ele>
        <time>2020-06-17T19:01:39Z</time>
      </trkpt>
      <trkpt lat="45.01943" lon="5.46784">
        <ele>1338</ele>
        <time>2020-06-17T19:01:40Z</time>
      </trkpt>
      <trkpt lat="45.01924" lon="5.46783">
        <ele>1337</ele>
        <time>2020-06-17T19:01:44Z</time>
      </trkpt>
      <trkpt lat="45.01919" lon="5.46778">
        <ele>1337</ele>
        <time>2020-06-17T19:01:46Z</time>
      </trkpt>
      <trkpt lat="45.01904" lon="5.46741">
        <ele>1333</ele>
        <time>2020-06-17T19:01:53Z</time>
      </trkpt>
      <trkpt lat="45.01891" lon="5.46724">
        <ele>1326</ele>
        <time>2020-06-17T19:01:57Z</time>
      </trkpt>
      <trkpt lat="45.01882" lon="5.46722">
        <ele>1324</ele>
        <time>2020-06-17T19:01:59Z</time>
      </trkpt>
      <trkpt lat="45.01879" lon="5.46724">
        <ele>1323</ele>
        <time>2020-06-17T19:02:00Z</time>
      </trkpt>
      <trkpt lat="45.0187" lon="5.46744">
        <ele>1327</ele>
        <time>2020-06-17T19:02:04Z</time>
      </trkpt>
      <trkpt lat="45.01865" lon="5.46761">
        <ele>1329</ele>
        <time>2020-06-17T19:02:07Z</time>
      </trkpt>
      <trkpt lat="45.01857" lon="5.46828">
        <ele>1335</ele>
        <time>2020-06-17T19:02:18Z</time>
      </trkpt>
      <trkpt lat="45.01844" lon="5.46857">
        <ele>1336</ele>
        <time>2020-06-17T19:02:24Z</time>
      </trkpt>
      <trkpt lat="45.0182" lon="5.46879">
        <ele>1335</ele>
        <time>2020-06-17T19:02:30Z</time>
      </trkpt>
      <trkpt lat="45.01815" lon="5.46881">
        <ele>1335</ele>
        <time>2020-06-17T19:02:32Z</time>
      </trkpt>
      <trkpt lat="45.01776" lon="5.46883">
        <ele>1334</ele>
        <time>2020-06-17T19:02:41Z</time>
      </trkpt>
      <trkpt lat="45.01769" lon="5.46894">
        <ele>1335</ele>
        <time>2020-06-17T19:02:43Z</time>
      </trkpt>
      <trkpt lat="45.01758" lon="5.46898">
        <ele>1336</ele>
        <time>2020-06-17T19:02:46Z</time>
      </trkpt>
      <trkpt lat="45.01745" lon="5.46909">
        <ele>1338</ele>
        <time>2020-06-17T19:02:49Z</time>
      </trkpt>
      <trkpt lat="45.01733" lon="5.46914">
        <ele>1337</ele>
        <time>2020-06-17T19:02:52Z</time>
      </trkpt>
      <trkpt lat="45.01721" lon="5.46934">
        <ele>1338</ele>
        <time>2020-06-17T19:02:57Z</time>
      </trkpt>
      <trkpt lat="45.01713" lon="5.46962">
        <ele>1339</ele>
        <time>2020-06-17T19:03:02Z</time>
      </trkpt>
      <trkpt lat="45.01713" lon="5.4697">
        <ele>1340</ele>
        <time>2020-06-17T19:03:03Z</time>
      </trkpt>
      <trkpt lat="45.01706" lon="5.46983">
        <ele>1341</ele>
        <time>2020-06-17T19:03:06Z</time>
      </trkpt>
      <trkpt lat="45.01696" lon="5.46989">
        <ele>1341</ele>
        <time>2020-06-17T19:03:08Z</time>
      </trkpt>
      <trkpt lat="45.01683" lon="5.46993">
        <ele>1342</ele>
        <time>2020-06-17T19:03:11Z</time>
      </trkpt>
      <trkpt lat="45.01666" lon="5.47007">
        <ele>1343</ele>
        <time>2020-06-17T19:03:16Z</time>
      </trkpt>
      <trkpt lat="45.01625" lon="5.47029">
        <ele>1339</ele>
        <time>2020-06-17T19:03:26Z</time>
      </trkpt>
      <trkpt lat="45.01618" lon="5.47051">
        <ele>1337</ele>
        <time>2020-06-17T19:03:30Z</time>
      </trkpt>
      <trkpt lat="45.01619" lon="5.47079">
        <ele>1336</ele>
        <time>2020-06-17T19:03:35Z</time>
      </trkpt>
      <trkpt lat="45.01608" lon="5.47081">
        <ele>1334</ele>
        <time>2020-06-17T19:03:37Z</time>
      </trkpt>
      <trkpt lat="45.01579" lon="5.47074">
        <ele>1332</ele>
        <time>2020-06-17T19:03:44Z</time>
      </trkpt>
      <trkpt lat="45.01556" lon="5.47084">
        <ele>1330</ele>
        <time>2020-06-17T19:03:50Z</time>
      </trkpt>
      <trkpt lat="45.01547" lon="5.47084">
        <ele>1330</ele>
        <time>2020-06-17T19:03:52Z</time>
      </trkpt>
      <trkpt lat="45.01541" lon="5.4708">
        <ele>1329</ele>
        <time>2020-06-17T19:03:53Z</time>
      </trkpt>
      <trkpt lat="45.01515" lon="5.47075">
        <ele>1327</ele>
        <time>2020-06-17T19:04:00Z</time>
      </trkpt>
      <trkpt lat="45.01495" lon="5.47087">
        <ele>1326</ele>
        <time>2020-06-17T19:04:05Z</time>
      </trkpt>
      <trkpt lat="45.01486" lon="5.47099">
        <ele>1323</ele>
        <time>2020-06-17T19:04:08Z</time>
      </trkpt>
      <trkpt lat="45.01479" lon="5.47101">
        <ele>1322</ele>
        <time>2020-06-17T19:04:09Z</time>
      </trkpt>
      <trkpt lat="45.0147" lon="5.47095">
        <ele>1320</ele>
        <time>2020-06-17T19:04:12Z</time>
      </trkpt>
      <trkpt lat="45.01465" lon="5.47096">
        <ele>1319</ele>
        <time>2020-06-17T19:04:13Z</time>
      </trkpt>
      <trkpt lat="45.01457" lon="5.47088">
        <ele>1318</ele>
        <time>2020-06-17T19:04:15Z</time>
      </trkpt>
      <trkpt lat="45.01451" lon="5.47074">
        <ele>1315</ele>
        <time>2020-06-17T19:04:18Z</time>
      </trkpt>
      <trkpt lat="45.01453" lon="5.47043">
        <ele>1312</ele>
        <time>2020-06-17T19:04:23Z</time>
      </trkpt>
      <trkpt lat="45.01448" lon="5.47033">
        <ele>1310</ele>
        <time>2020-06-17T19:04:25Z</time>
      </trkpt>
      <trkpt lat="45.0143" lon="5.47016">
        <ele>1304</ele>
        <time>2020-06-17T19:04:30Z</time>
      </trkpt>
      <trkpt lat="45.01411" lon="5.47016">
        <ele>1300</ele>
        <time>2020-06-17T19:04:34Z</time>
      </trkpt>
      <trkpt lat="45.01402" lon="5.47024">
        <ele>1300</ele>
        <time>2020-06-17T19:04:37Z</time>
      </trkpt>
      <trkpt lat="45.01383" lon="5.47071">
        <ele>1304</ele>
        <time>2020-06-17T19:04:46Z</time>
      </trkpt>
      <trkpt lat="45.01371" lon="5.47123">
        <ele>1304</ele>
        <time>2020-06-17T19:04:55Z</time>
      </trkpt>
      <trkpt lat="45.01354" lon="5.47133">
        <ele>1302</ele>
        <time>2020-06-17T19:04:59Z</time>
      </trkpt>
      <trkpt lat="45.01349" lon="5.47144">
        <ele>1301</ele>
        <time>2020-06-17T19:05:01Z</time>
      </trkpt>
      <trkpt lat="45.01345" lon="5.47143">
        <ele>1301</ele>
        <time>2020-06-17T19:05:02Z</time>
      </trkpt>
      <trkpt lat="45.01345" lon="5.4714">
        <ele>1301</ele>
        <time>2020-06-17T19:05:03Z</time>
      </trkpt>
      <trkpt lat="45.01342" lon="5.47143">
        <ele>1300</ele>
        <time>2020-06-17T19:05:04Z</time>
      </trkpt>
      <trkpt lat="45.01339" lon="5.47142">
        <ele>1300</ele>
        <time>2020-06-17T19:05:04Z</time>
      </trkpt>
      <trkpt lat="45.01338" lon="5.47148">
        <ele>1300</ele>
        <time>2020-06-17T19:05:05Z</time>
      </trkpt>
      <trkpt lat="45.01335" lon="5.47149">
        <ele>1299</ele>
        <time>2020-06-17T19:05:06Z</time>
      </trkpt>
      <trkpt lat="45.01334" lon="5.47147">
        <ele>1299</ele>
        <time>2020-06-17T19:05:06Z</time>
      </trkpt>
      <trkpt lat="45.01343" lon="5.47149">
        <ele>1300</ele>
        <time>2020-06-17T19:05:09Z</time>
      </trkpt>
      <trkpt lat="45.01343" lon="5.47153">
        <ele>1300</ele>
        <time>2020-06-17T19:05:09Z</time>
      </trkpt>
      <trkpt lat="45.01334" lon="5.47153">
        <ele>1299</ele>
        <time>2020-06-17T19:05:11Z</time>
      </trkpt>
      <trkpt lat="45.01335" lon="5.47156">
        <ele>1299</ele>
        <time>2020-06-17T19:05:12Z</time>
      </trkpt>
      <trkpt lat="45.0133" lon="5.47155">
        <ele>1299</ele>
        <time>2020-06-17T19:05:13Z</time>
      </trkpt>
      <trkpt lat="45.01329" lon="5.47161">
        <ele>1299</ele>
        <time>2020-06-17T19:05:14Z</time>
      </trkpt>
      <trkpt lat="45.01323" lon="5.47164">
        <ele>1300</ele>
        <time>2020-06-17T19:05:16Z</time>
      </trkpt>
      <trkpt lat="45.01294" lon="5.47236">
        <ele>1305</ele>
        <time>2020-06-17T19:05:29Z</time>
      </trkpt>
      <trkpt lat="45.01262" lon="5.4727">
        <ele>1309</ele>
        <time>2020-06-17T19:05:39Z</time>
      </trkpt>
      <trkpt lat="45.01255" lon="5.4729">
        <ele>1310</ele>
        <time>2020-06-17T19:05:42Z</time>
      </trkpt>
      <trkpt lat="45.01245" lon="5.47308">
        <ele>1312</ele>
        <time>2020-06-17T19:05:46Z</time>
      </trkpt>
      <trkpt lat="45.01235" lon="5.47316">
        <ele>1312</ele>
        <time>2020-06-17T19:05:49Z</time>
      </trkpt>
      <trkpt lat="45.01217" lon="5.47318">
        <ele>1312</ele>
        <time>2020-06-17T19:05:53Z</time>
      </trkpt>
      <trkpt lat="45.01208" lon="5.47323">
        <ele>1312</ele>
        <time>2020-06-17T19:05:55Z</time>
      </trkpt>
      <trkpt lat="45.01204" lon="5.47328">
        <ele>1312</ele>
        <time>2020-06-17T19:05:56Z</time>
      </trkpt>
      <trkpt lat="45.01187" lon="5.47371">
        <ele>1314</ele>
        <time>2020-06-17T19:06:05Z</time>
      </trkpt>
      <trkpt lat="45.01178" lon="5.47384">
        <ele>1315</ele>
        <time>2020-06-17T19:06:08Z</time>
      </trkpt>
      <trkpt lat="45.01158" lon="5.47405">
        <ele>1316</ele>
        <time>2020-06-17T19:06:13Z</time>
      </trkpt>
      <trkpt lat="45.01147" lon="5.47439">
        <ele>1318</ele>
        <time>2020-06-17T19:06:20Z</time>
      </trkpt>
      <trkpt lat="45.01139" lon="5.47447">
        <ele>1319</ele>
        <time>2020-06-17T19:06:22Z</time>
      </trkpt>
      <trkpt lat="45.01128" lon="5.47452">
        <ele>1319</ele>
        <time>2020-06-17T19:06:25Z</time>
      </trkpt>
      <trkpt lat="45.01106" lon="5.47452">
        <ele>1319</ele>
        <time>2020-06-17T19:06:30Z</time>
      </trkpt>
      <trkpt lat="45.01092" lon="5.47468">
        <ele>1320</ele>
        <time>2020-06-17T19:06:34Z</time>
      </trkpt>
      <trkpt lat="45.01082" lon="5.47488">
        <ele>1321</ele>
        <time>2020-06-17T19:06:38Z</time>
      </trkpt>
      <trkpt lat="45.01057" lon="5.47574">
        <ele>1322</ele>
        <time>2020-06-17T19:06:53Z</time>
      </trkpt>
      <trkpt lat="45.01" lon="5.47629">
        <ele>1326</ele>
        <time>2020-06-17T19:07:09Z</time>
      </trkpt>
      <trkpt lat="45.00961" lon="5.47688">
        <ele>1330</ele>
        <time>2020-06-17T19:07:23Z</time>
      </trkpt>
      <trkpt lat="45.00946" lon="5.47704">
        <ele>1331</ele>
        <time>2020-06-17T19:07:27Z</time>
      </trkpt>
      <trkpt lat="45.00919" lon="5.47721">
        <ele>1330</ele>
        <time>2020-06-17T19:07:34Z</time>
      </trkpt>
      <trkpt lat="45.00875" lon="5.47736">
        <ele>1329</ele>
        <time>2020-06-17T19:07:45Z</time>
      </trkpt>
      <trkpt lat="45.00858" lon="5.4775">
        <ele>1326</ele>
        <time>2020-06-17T19:07:49Z</time>
      </trkpt>
      <trkpt lat="45.00838" lon="5.47775">
        <ele>1327</ele>
        <time>2020-06-17T19:07:55Z</time>
      </trkpt>
      <trkpt lat="45.00782" lon="5.47829">
        <ele>1327</ele>
        <time>2020-06-17T19:08:11Z</time>
      </trkpt>
      <trkpt lat="45.00711" lon="5.47876">
        <ele>1329</ele>
        <time>2020-06-17T19:08:30Z</time>
      </trkpt>
      <trkpt lat="45.00695" lon="5.47879">
        <ele>1330</ele>
        <time>2020-06-17T19:08:33Z</time>
      </trkpt>
      <trkpt lat="45.0068" lon="5.47877">
        <ele>1330</ele>
        <time>2020-06-17T19:08:37Z</time>
      </trkpt>
      <trkpt lat="45.0066" lon="5.47872">
        <ele>1330</ele>
        <time>2020-06-17T19:08:42Z</time>
      </trkpt>
      <trkpt lat="45.00639" lon="5.47861">
        <ele>1330</ele>
        <time>2020-06-17T19:08:47Z</time>
      </trkpt>
      <trkpt lat="45.00621" lon="5.47861">
        <ele>1331</ele>
        <time>2020-06-17T19:08:51Z</time>
      </trkpt>
      <trkpt lat="45.00603" lon="5.47875">
        <ele>1332</ele>
        <time>2020-06-17T19:08:56Z</time>
      </trkpt>
      <trkpt lat="45.00582" lon="5.47898">
        <ele>1334</ele>
        <time>2020-06-17T19:09:02Z</time>
      </trkpt>
      <trkpt lat="45.00569" lon="5.47907">
        <ele>1333</ele>
        <time>2020-06-17T19:09:05Z</time>
      </trkpt>
      <trkpt lat="45.0054" lon="5.4792">
        <ele>1333</ele>
        <time>2020-06-17T19:09:12Z</time>
      </trkpt>
      <trkpt lat="45.00517" lon="5.47943">
        <ele>1334</ele>
        <time>2020-06-17T19:09:19Z</time>
      </trkpt>
      <trkpt lat="45.00509" lon="5.47948">
        <ele>1334</ele>
        <time>2020-06-17T19:09:21Z</time>
      </trkpt>
      <trkpt lat="45.00493" lon="5.47951">
        <ele>1334</ele>
        <time>2020-06-17T19:09:25Z</time>
      </trkpt>
      <trkpt lat="45.00479" lon="5.47946">
        <ele>1334</ele>
        <time>2020-06-17T19:09:28Z</time>
      </trkpt>
      <trkpt lat="45.00444" lon="5.47905">
        <ele>1331</ele>
        <time>2020-06-17T19:09:39Z</time>
      </trkpt>
      <trkpt lat="45.00429" lon="5.47899">
        <ele>1331</ele>
        <time>2020-06-17T19:09:43Z</time>
      </trkpt>
      <trkpt lat="45.00413" lon="5.47899">
        <ele>1330</ele>
        <time>2020-06-17T19:09:46Z</time>
      </trkpt>
      <trkpt lat="45.00402" lon="5.47905">
        <ele>1329</ele>
        <time>2020-06-17T19:09:49Z</time>
      </trkpt>
      <trkpt lat="45.00364" lon="5.47948">
        <ele>1329</ele>
        <time>2020-06-17T19:10:00Z</time>
      </trkpt>
      <trkpt lat="45.00344" lon="5.47967">
        <ele>1330</ele>
        <time>2020-06-17T19:10:06Z</time>
      </trkpt>
      <trkpt lat="45.00318" lon="5.47977">
        <ele>1329</ele>
        <time>2020-06-17T19:10:12Z</time>
      </trkpt>
      <trkpt lat="45.0029" lon="5.47982">
        <ele>1327</ele>
        <time>2020-06-17T19:10:19Z</time>
      </trkpt>
      <trkpt lat="45.00271" lon="5.47992">
        <ele>1326</ele>
        <time>2020-06-17T19:10:24Z</time>
      </trkpt>
      <trkpt lat="45.0026" lon="5.48003">
        <ele>1326</ele>
        <time>2020-06-17T19:10:27Z</time>
      </trkpt>
      <trkpt lat="45.00237" lon="5.48041">
        <ele>1330</ele>
        <time>2020-06-17T19:10:35Z</time>
      </trkpt>
      <trkpt lat="45.00225" lon="5.48049">
        <ele>1330</ele>
        <time>2020-06-17T19:10:38Z</time>
      </trkpt>
      <trkpt lat="45.0021" lon="5.4805">
        <ele>1328</ele>
        <time>2020-06-17T19:10:42Z</time>
      </trkpt>
      <trkpt lat="45.00172" lon="5.48043">
        <ele>1323</ele>
        <time>2020-06-17T19:10:51Z</time>
      </trkpt>
      <trkpt lat="45.00144" lon="5.48042">
        <ele>1322</ele>
        <time>2020-06-17T19:10:57Z</time>
      </trkpt>
      <trkpt lat="45.00116" lon="5.48034">
        <ele>1320</ele>
        <time>2020-06-17T19:11:04Z</time>
      </trkpt>
      <trkpt lat="45.00075" lon="5.48017">
        <ele>1319</ele>
        <time>2020-06-17T19:11:14Z</time>
      </trkpt>
      <trkpt lat="45.00043" lon="5.47995">
        <ele>1319</ele>
        <time>2020-06-17T19:11:22Z</time>
      </trkpt>
      <trkpt lat="45.0003" lon="5.47983">
        <ele>1319</ele>
        <time>2020-06-17T19:11:26Z</time>
      </trkpt>
      <trkpt lat="44.99999" lon="5.47938">
        <ele>1318</ele>
        <time>2020-06-17T19:11:36Z</time>
      </trkpt>
      <trkpt lat="44.99991" lon="5.47908">
        <ele>1316</ele>
        <time>2020-06-17T19:11:41Z</time>
      </trkpt>
      <trkpt lat="44.99984" lon="5.47896">
        <ele>1316</ele>
        <time>2020-06-17T19:11:44Z</time>
      </trkpt>
      <trkpt lat="44.99963" lon="5.47885">
        <ele>1317</ele>
        <time>2020-06-17T19:11:49Z</time>
      </trkpt>
      <trkpt lat="44.99946" lon="5.47881">
        <ele>1317</ele>
        <time>2020-06-17T19:11:53Z</time>
      </trkpt>
      <trkpt lat="44.99934" lon="5.47871">
        <ele>1317</ele>
        <time>2020-06-17T19:11:56Z</time>
      </trkpt>
      <trkpt lat="44.99918" lon="5.47849">
        <ele>1316</ele>
        <time>2020-06-17T19:12:02Z</time>
      </trkpt>
      <trkpt lat="44.99909" lon="5.47844">
        <ele>1316</ele>
        <time>2020-06-17T19:12:04Z</time>
      </trkpt>
      <trkpt lat="44.99893" lon="5.47841">
        <ele>1316</ele>
        <time>2020-06-17T19:12:08Z</time>
      </trkpt>
      <trkpt lat="44.99884" lon="5.47834">
        <ele>1316</ele>
        <time>2020-06-17T19:12:10Z</time>
      </trkpt>
      <trkpt lat="44.99874" lon="5.47819">
        <ele>1317</ele>
        <time>2020-06-17T19:12:13Z</time>
      </trkpt>
      <trkpt lat="44.99865" lon="5.47789">
        <ele>1318</ele>
        <time>2020-06-17T19:12:19Z</time>
      </trkpt>
      <trkpt lat="44.99857" lon="5.47779">
        <ele>1319</ele>
        <time>2020-06-17T19:12:21Z</time>
      </trkpt>
      <trkpt lat="44.99847" lon="5.47773">
        <ele>1320</ele>
        <time>2020-06-17T19:12:24Z</time>
      </trkpt>
      <trkpt lat="44.99805" lon="5.47762">
        <ele>1324</ele>
        <time>2020-06-17T19:12:34Z</time>
      </trkpt>
      <trkpt lat="44.99793" lon="5.47763">
        <ele>1325</ele>
        <time>2020-06-17T19:12:37Z</time>
      </trkpt>
      <trkpt lat="44.99779" lon="5.47769">
        <ele>1326</ele>
        <time>2020-06-17T19:12:40Z</time>
      </trkpt>
      <trkpt lat="44.99768" lon="5.47769">
        <ele>1327</ele>
        <time>2020-06-17T19:12:43Z</time>
      </trkpt>
      <trkpt lat="44.9976" lon="5.47762">
        <ele>1327</ele>
        <time>2020-06-17T19:12:45Z</time>
      </trkpt>
      <trkpt lat="44.99749" lon="5.47728">
        <ele>1328</ele>
        <time>2020-06-17T19:12:51Z</time>
      </trkpt>
      <trkpt lat="44.99738" lon="5.47721">
        <ele>1328</ele>
        <time>2020-06-17T19:12:54Z</time>
      </trkpt>
      <trkpt lat="44.99726" lon="5.47722">
        <ele>1329</ele>
        <time>2020-06-17T19:12:57Z</time>
      </trkpt>
      <trkpt lat="44.99677" lon="5.47742">
        <ele>1334</ele>
        <time>2020-06-17T19:13:09Z</time>
      </trkpt>
      <trkpt lat="44.99659" lon="5.47742">
        <ele>1335</ele>
        <time>2020-06-17T19:13:13Z</time>
      </trkpt>
      <trkpt lat="44.99642" lon="5.47737">
        <ele>1335</ele>
        <time>2020-06-17T19:13:17Z</time>
      </trkpt>
      <trkpt lat="44.99634" lon="5.47733">
        <ele>1335</ele>
        <time>2020-06-17T19:13:19Z</time>
      </trkpt>
      <trkpt lat="44.99627" lon="5.47723">
        <ele>1334</ele>
        <time>2020-06-17T19:13:21Z</time>
      </trkpt>
      <trkpt lat="44.99615" lon="5.4768">
        <ele>1329</ele>
        <time>2020-06-17T19:13:29Z</time>
      </trkpt>
      <trkpt lat="44.99601" lon="5.47666">
        <ele>1327</ele>
        <time>2020-06-17T19:13:33Z</time>
      </trkpt>
      <trkpt lat="44.99593" lon="5.47664">
        <ele>1327</ele>
        <time>2020-06-17T19:13:35Z</time>
      </trkpt>
      <trkpt lat="44.99581" lon="5.47667">
        <ele>1327</ele>
        <time>2020-06-17T19:13:38Z</time>
      </trkpt>
      <trkpt lat="44.99573" lon="5.47673">
        <ele>1329</ele>
        <time>2020-06-17T19:13:40Z</time>
      </trkpt>
      <trkpt lat="44.99543" lon="5.47706">
        <ele>1334</ele>
        <time>2020-06-17T19:13:48Z</time>
      </trkpt>
      <trkpt lat="44.99523" lon="5.47723">
        <ele>1336</ele>
        <time>2020-06-17T19:13:54Z</time>
      </trkpt>
      <trkpt lat="44.99495" lon="5.47733">
        <ele>1337</ele>
        <time>2020-06-17T19:14:01Z</time>
      </trkpt>
      <trkpt lat="44.99484" lon="5.4774">
        <ele>1337</ele>
        <time>2020-06-17T19:14:04Z</time>
      </trkpt>
      <trkpt lat="44.99464" lon="5.47762">
        <ele>1338</ele>
        <time>2020-06-17T19:14:09Z</time>
      </trkpt>
      <trkpt lat="44.99439" lon="5.47796">
        <ele>1340</ele>
        <time>2020-06-17T19:14:18Z</time>
      </trkpt>
      <trkpt lat="44.99411" lon="5.47822">
        <ele>1340</ele>
        <time>2020-06-17T19:14:25Z</time>
      </trkpt>
      <trkpt lat="44.99385" lon="5.47841">
        <ele>1341</ele>
        <time>2020-06-17T19:14:32Z</time>
      </trkpt>
      <trkpt lat="44.99339" lon="5.47868">
        <ele>1342</ele>
        <time>2020-06-17T19:14:44Z</time>
      </trkpt>
      <trkpt lat="44.99302" lon="5.47886">
        <ele>1345</ele>
        <time>2020-06-17T19:14:53Z</time>
      </trkpt>
      <trkpt lat="44.99283" lon="5.47889">
        <ele>1347</ele>
        <time>2020-06-17T19:14:57Z</time>
      </trkpt>
      <trkpt lat="44.99277" lon="5.47885">
        <ele>1348</ele>
        <time>2020-06-17T19:14:59Z</time>
      </trkpt>
      <trkpt lat="44.99272" lon="5.47872">
        <ele>1349</ele>
        <time>2020-06-17T19:15:01Z</time>
      </trkpt>
      <trkpt lat="44.99279" lon="5.47845">
        <ele>1349</ele>
        <time>2020-06-17T19:15:06Z</time>
      </trkpt>
      <trkpt lat="44.99288" lon="5.47832">
        <ele>1348</ele>
        <time>2020-06-17T19:15:09Z</time>
      </trkpt>
      <trkpt lat="44.99299" lon="5.47826">
        <ele>1346</ele>
        <time>2020-06-17T19:15:12Z</time>
      </trkpt>
      <trkpt lat="44.99321" lon="5.47805">
        <ele>1344</ele>
        <time>2020-06-17T19:15:18Z</time>
      </trkpt>
      <trkpt lat="44.99323" lon="5.47789">
        <ele>1344</ele>
        <time>2020-06-17T19:15:21Z</time>
      </trkpt>
      <trkpt lat="44.99314" lon="5.47774">
        <ele>1346</ele>
        <time>2020-06-17T19:15:24Z</time>
      </trkpt>
      <trkpt lat="44.9929" lon="5.47747">
        <ele>1351</ele>
        <time>2020-06-17T19:15:31Z</time>
      </trkpt>
      <trkpt lat="44.99284" lon="5.47736">
        <ele>1352</ele>
        <time>2020-06-17T19:15:34Z</time>
      </trkpt>
      <trkpt lat="44.99283" lon="5.47723">
        <ele>1352</ele>
        <time>2020-06-17T19:15:36Z</time>
      </trkpt>
      <trkpt lat="44.99287" lon="5.47698">
        <ele>1351</ele>
        <time>2020-06-17T19:15:40Z</time>
      </trkpt>
      <trkpt lat="44.99286" lon="5.4769">
        <ele>1351</ele>
        <time>2020-06-17T19:15:41Z</time>
      </trkpt>
      <trkpt lat="44.9928" lon="5.47681">
        <ele>1352</ele>
        <time>2020-06-17T19:15:43Z</time>
      </trkpt>
      <trkpt lat="44.99265" lon="5.47673">
        <ele>1353</ele>
        <time>2020-06-17T19:15:47Z</time>
      </trkpt>
      <trkpt lat="44.9924" lon="5.47667">
        <ele>1355</ele>
        <time>2020-06-17T19:15:53Z</time>
      </trkpt>
      <trkpt lat="44.99212" lon="5.47649">
        <ele>1355</ele>
        <time>2020-06-17T19:16:00Z</time>
      </trkpt>
      <trkpt lat="44.99204" lon="5.47647">
        <ele>1356</ele>
        <time>2020-06-17T19:16:02Z</time>
      </trkpt>
      <trkpt lat="44.99177" lon="5.47648">
        <ele>1357</ele>
        <time>2020-06-17T19:16:08Z</time>
      </trkpt>
      <trkpt lat="44.99144" lon="5.47657">
        <ele>1359</ele>
        <time>2020-06-17T19:16:16Z</time>
      </trkpt>
      <trkpt lat="44.99117" lon="5.47657">
        <ele>1360</ele>
        <time>2020-06-17T19:16:22Z</time>
      </trkpt>
      <trkpt lat="44.99097" lon="5.47652">
        <ele>1360</ele>
        <time>2020-06-17T19:16:27Z</time>
      </trkpt>
      <trkpt lat="44.99035" lon="5.47628">
        <ele>1361</ele>
        <time>2020-06-17T19:16:42Z</time>
      </trkpt>
      <trkpt lat="44.99023" lon="5.47621">
        <ele>1362</ele>
        <time>2020-06-17T19:16:45Z</time>
      </trkpt>
      <trkpt lat="44.99007" lon="5.47597">
        <ele>1363</ele>
        <time>2020-06-17T19:16:51Z</time>
      </trkpt>
      <trkpt lat="44.99" lon="5.47561">
        <ele>1366</ele>
        <time>2020-06-17T19:16:57Z</time>
      </trkpt>
      <trkpt lat="44.98995" lon="5.47552">
        <ele>1366</ele>
        <time>2020-06-17T19:16:59Z</time>
      </trkpt>
      <trkpt lat="44.98978" lon="5.47545">
        <ele>1366</ele>
        <time>2020-06-17T19:17:03Z</time>
      </trkpt>
      <trkpt lat="44.98972" lon="5.47547">
        <ele>1366</ele>
        <time>2020-06-17T19:17:04Z</time>
      </trkpt>
      <trkpt lat="44.98954" lon="5.47567">
        <ele>1364</ele>
        <time>2020-06-17T19:17:10Z</time>
      </trkpt>
      <trkpt lat="44.98937" lon="5.4763">
        <ele>1362</ele>
        <time>2020-06-17T19:17:21Z</time>
      </trkpt>
      <trkpt lat="44.98915" lon="5.47669">
        <ele>1361</ele>
        <time>2020-06-17T19:17:29Z</time>
      </trkpt>
      <trkpt lat="44.98915" lon="5.4772">
        <ele>1364</ele>
        <time>2020-06-17T19:17:37Z</time>
      </trkpt>
      <trkpt lat="44.98912" lon="5.47744">
        <ele>1366</ele>
        <time>2020-06-17T19:17:42Z</time>
      </trkpt>
      <trkpt lat="44.98873" lon="5.47833">
        <ele>1366</ele>
        <time>2020-06-17T19:17:59Z</time>
      </trkpt>
      <trkpt lat="44.98874" lon="5.47863">
        <ele>1362</ele>
        <time>2020-06-17T19:18:04Z</time>
      </trkpt>
      <trkpt lat="44.98883" lon="5.47904">
        <ele>1358</ele>
        <time>2020-06-17T19:18:11Z</time>
      </trkpt>
      <trkpt lat="44.9888" lon="5.47926">
        <ele>1356</ele>
        <time>2020-06-17T19:18:15Z</time>
      </trkpt>
      <trkpt lat="44.98863" lon="5.47943">
        <ele>1354</ele>
        <time>2020-06-17T19:18:19Z</time>
      </trkpt>
      <trkpt lat="44.98848" lon="5.4795">
        <ele>1353</ele>
        <time>2020-06-17T19:18:23Z</time>
      </trkpt>
      <trkpt lat="44.98823" lon="5.47957">
        <ele>1351</ele>
        <time>2020-06-17T19:18:29Z</time>
      </trkpt>
      <trkpt lat="44.98795" lon="5.47977">
        <ele>1350</ele>
        <time>2020-06-17T19:18:36Z</time>
      </trkpt>
      <trkpt lat="44.98772" lon="5.48003">
        <ele>1347</ele>
        <time>2020-06-17T19:18:43Z</time>
      </trkpt>
      <trkpt lat="44.9875" lon="5.48037">
        <ele>1347</ele>
        <time>2020-06-17T19:18:51Z</time>
      </trkpt>
      <trkpt lat="44.98733" lon="5.48053">
        <ele>1348</ele>
        <time>2020-06-17T19:18:56Z</time>
      </trkpt>
      <trkpt lat="44.98688" lon="5.48108">
        <ele>1350</ele>
        <time>2020-06-17T19:19:10Z</time>
      </trkpt>
      <trkpt lat="44.98663" lon="5.48133">
        <ele>1351</ele>
        <time>2020-06-17T19:19:17Z</time>
      </trkpt>
      <trkpt lat="44.98626" lon="5.48155">
        <ele>1353</ele>
        <time>2020-06-17T19:19:26Z</time>
      </trkpt>
      <trkpt lat="44.98593" lon="5.48185">
        <ele>1353</ele>
        <time>2020-06-17T19:19:35Z</time>
      </trkpt>
      <trkpt lat="44.98577" lon="5.48204">
        <ele>1352</ele>
        <time>2020-06-17T19:19:40Z</time>
      </trkpt>
      <trkpt lat="44.9857" lon="5.4822">
        <ele>1352</ele>
        <time>2020-06-17T19:19:43Z</time>
      </trkpt>
      <trkpt lat="44.98566" lon="5.48242">
        <ele>1351</ele>
        <time>2020-06-17T19:19:47Z</time>
      </trkpt>
      <trkpt lat="44.98565" lon="5.48268">
        <ele>1349</ele>
        <time>2020-06-17T19:19:51Z</time>
      </trkpt>
      <trkpt lat="44.98552" lon="5.48333">
        <ele>1342</ele>
        <time>2020-06-17T19:20:02Z</time>
      </trkpt>
      <trkpt lat="44.98553" lon="5.48344">
        <ele>1341</ele>
        <time>2020-06-17T19:20:04Z</time>
      </trkpt>
      <trkpt lat="44.98558" lon="5.48354">
        <ele>1341</ele>
        <time>2020-06-17T19:20:06Z</time>
      </trkpt>
      <trkpt lat="44.98597" lon="5.48377">
        <ele>1342</ele>
        <time>2020-06-17T19:20:16Z</time>
      </trkpt>
      <trkpt lat="44.98607" lon="5.48391">
        <ele>1342</ele>
        <time>2020-06-17T19:20:19Z</time>
      </trkpt>
      <trkpt lat="44.9862" lon="5.48402">
        <ele>1343</ele>
        <time>2020-06-17T19:20:23Z</time>
      </trkpt>
      <trkpt lat="44.98626" lon="5.48412">
        <ele>1343</ele>
        <time>2020-06-17T19:20:25Z</time>
      </trkpt>
      <trkpt lat="44.98631" lon="5.48509">
        <ele>1339</ele>
        <time>2020-06-17T19:20:41Z</time>
      </trkpt>
      <trkpt lat="44.9864" lon="5.48534">
        <ele>1340</ele>
        <time>2020-06-17T19:20:46Z</time>
      </trkpt>
      <trkpt lat="44.98655" lon="5.48548">
        <ele>1341</ele>
        <time>2020-06-17T19:20:50Z</time>
      </trkpt>
      <trkpt lat="44.98685" lon="5.48568">
        <ele>1341</ele>
        <time>2020-06-17T19:20:58Z</time>
      </trkpt>
      <trkpt lat="44.98711" lon="5.48576">
        <ele>1340</ele>
        <time>2020-06-17T19:21:04Z</time>
      </trkpt>
      <trkpt lat="44.98727" lon="5.48571">
        <ele>1340</ele>
        <time>2020-06-17T19:21:08Z</time>
      </trkpt>
      <trkpt lat="44.98742" lon="5.4857">
        <ele>1340</ele>
        <time>2020-06-17T19:21:11Z</time>
      </trkpt>
      <trkpt lat="44.98774" lon="5.48576">
        <ele>1338</ele>
        <time>2020-06-17T19:21:19Z</time>
      </trkpt>
      <trkpt lat="44.98802" lon="5.48573">
        <ele>1336</ele>
        <time>2020-06-17T19:21:25Z</time>
      </trkpt>
      <trkpt lat="44.98833" lon="5.48582">
        <ele>1332</ele>
        <time>2020-06-17T19:21:33Z</time>
      </trkpt>
      <trkpt lat="44.9884" lon="5.48582">
        <ele>1332</ele>
        <time>2020-06-17T19:21:34Z</time>
      </trkpt>
      <trkpt lat="44.9888" lon="5.48576">
        <ele>1330</ele>
        <time>2020-06-17T19:21:44Z</time>
      </trkpt>
      <trkpt lat="44.9891" lon="5.48577">
        <ele>1328</ele>
        <time>2020-06-17T19:21:51Z</time>
      </trkpt>
      <trkpt lat="44.98929" lon="5.48573">
        <ele>1328</ele>
        <time>2020-06-17T19:21:55Z</time>
      </trkpt>
      <trkpt lat="44.9896" lon="5.48561">
        <ele>1329</ele>
        <time>2020-06-17T19:22:03Z</time>
      </trkpt>
      <trkpt lat="44.98993" lon="5.48555">
        <ele>1329</ele>
        <time>2020-06-17T19:22:11Z</time>
      </trkpt>
      <trkpt lat="44.99008" lon="5.4855">
        <ele>1330</ele>
        <time>2020-06-17T19:22:14Z</time>
      </trkpt>
      <trkpt lat="44.99018" lon="5.48549">
        <ele>1331</ele>
        <time>2020-06-17T19:22:17Z</time>
      </trkpt>
      <trkpt lat="44.99043" lon="5.48557">
        <ele>1331</ele>
        <time>2020-06-17T19:22:23Z</time>
      </trkpt>
      <trkpt lat="44.99073" lon="5.48583">
        <ele>1329</ele>
        <time>2020-06-17T19:22:31Z</time>
      </trkpt>
      <trkpt lat="44.99088" lon="5.48589">
        <ele>1329</ele>
        <time>2020-06-17T19:22:34Z</time>
      </trkpt>
      <trkpt lat="44.99112" lon="5.48614">
        <ele>1331</ele>
        <time>2020-06-17T19:22:41Z</time>
      </trkpt>
      <trkpt lat="44.99119" lon="5.48628">
        <ele>1330</ele>
        <time>2020-06-17T19:22:44Z</time>
      </trkpt>
      <trkpt lat="44.99141" lon="5.48642">
        <ele>1331</ele>
        <time>2020-06-17T19:22:50Z</time>
      </trkpt>
      <trkpt lat="44.99162" lon="5.48665">
        <ele>1330</ele>
        <time>2020-06-17T19:22:56Z</time>
      </trkpt>
      <trkpt lat="44.99208" lon="5.48759">
        <ele>1326</ele>
        <time>2020-06-17T19:23:15Z</time>
      </trkpt>
      <trkpt lat="44.99226" lon="5.4878">
        <ele>1328</ele>
        <time>2020-06-17T19:23:20Z</time>
      </trkpt>
      <trkpt lat="44.99246" lon="5.48787">
        <ele>1329</ele>
        <time>2020-06-17T19:23:25Z</time>
      </trkpt>
      <trkpt lat="44.99262" lon="5.48796">
        <ele>1330</ele>
        <time>2020-06-17T19:23:29Z</time>
      </trkpt>
      <trkpt lat="44.99267" lon="5.48804">
        <ele>1331</ele>
        <time>2020-06-17T19:23:31Z</time>
      </trkpt>
      <trkpt lat="44.99276" lon="5.48833">
        <ele>1332</ele>
        <time>2020-06-17T19:23:36Z</time>
      </trkpt>
      <trkpt lat="44.99293" lon="5.48855">
        <ele>1335</ele>
        <time>2020-06-17T19:23:42Z</time>
      </trkpt>
      <trkpt lat="44.99302" lon="5.48848">
        <ele>1336</ele>
        <time>2020-06-17T19:23:44Z</time>
      </trkpt>
      <trkpt lat="44.99321" lon="5.48852">
        <ele>1338</ele>
        <time>2020-06-17T19:23:48Z</time>
      </trkpt>
      <trkpt lat="44.99329" lon="5.48851">
        <ele>1339</ele>
        <time>2020-06-17T19:23:50Z</time>
      </trkpt>
      <trkpt lat="44.99334" lon="5.48849">
        <ele>1339</ele>
        <time>2020-06-17T19:23:52Z</time>
      </trkpt>
      <trkpt lat="44.99352" lon="5.48832">
        <ele>1339</ele>
        <time>2020-06-17T19:23:57Z</time>
      </trkpt>
      <trkpt lat="44.99369" lon="5.48826">
        <ele>1340</ele>
        <time>2020-06-17T19:24:01Z</time>
      </trkpt>
      <trkpt lat="44.99403" lon="5.48827">
        <ele>1342</ele>
        <time>2020-06-17T19:24:09Z</time>
      </trkpt>
      <trkpt lat="44.99418" lon="5.48825">
        <ele>1343</ele>
        <time>2020-06-17T19:24:12Z</time>
      </trkpt>
      <trkpt lat="44.9946" lon="5.48829">
        <ele>1345</ele>
        <time>2020-06-17T19:24:22Z</time>
      </trkpt>
      <trkpt lat="44.99547" lon="5.48825">
        <ele>1347</ele>
        <time>2020-06-17T19:24:42Z</time>
      </trkpt>
      <trkpt lat="44.99578" lon="5.48819">
        <ele>1347</ele>
        <time>2020-06-17T19:24:50Z</time>
      </trkpt>
      <trkpt lat="44.9959" lon="5.48821">
        <ele>1348</ele>
        <time>2020-06-17T19:24:52Z</time>
      </trkpt>
      <trkpt lat="44.99606" lon="5.48829">
        <ele>1350</ele>
        <time>2020-06-17T19:24:56Z</time>
      </trkpt>
      <trkpt lat="44.99619" lon="5.48843">
        <ele>1353</ele>
        <time>2020-06-17T19:25:00Z</time>
      </trkpt>
      <trkpt lat="44.99637" lon="5.48857">
        <ele>1358</ele>
        <time>2020-06-17T19:25:05Z</time>
      </trkpt>
      <trkpt lat="44.99657" lon="5.48856">
        <ele>1361</ele>
        <time>2020-06-17T19:25:10Z</time>
      </trkpt>
      <trkpt lat="44.99677" lon="5.48849">
        <ele>1364</ele>
        <time>2020-06-17T19:25:14Z</time>
      </trkpt>
      <trkpt lat="44.99691" lon="5.48847">
        <ele>1366</ele>
        <time>2020-06-17T19:25:18Z</time>
      </trkpt>
      <trkpt lat="44.99715" lon="5.48857">
        <ele>1371</ele>
        <time>2020-06-17T19:25:24Z</time>
      </trkpt>
      <trkpt lat="44.99718" lon="5.48856">
        <ele>1372</ele>
        <time>2020-06-17T19:25:24Z</time>
      </trkpt>
      <trkpt lat="44.99721" lon="5.48861">
        <ele>1373</ele>
        <time>2020-06-17T19:25:25Z</time>
      </trkpt>
      <trkpt lat="44.99737" lon="5.48868">
        <ele>1376</ele>
        <time>2020-06-17T19:25:29Z</time>
      </trkpt>
      <trkpt lat="44.99749" lon="5.48879">
        <ele>1379</ele>
        <time>2020-06-17T19:25:33Z</time>
      </trkpt>
      <trkpt lat="44.99767" lon="5.4889">
        <ele>1383</ele>
        <time>2020-06-17T19:25:37Z</time>
      </trkpt>
      <trkpt lat="44.9979" lon="5.48894">
        <ele>1388</ele>
        <time>2020-06-17T19:25:43Z</time>
      </trkpt>
      <trkpt lat="44.99804" lon="5.48887">
        <ele>1391</ele>
        <time>2020-06-17T19:25:46Z</time>
      </trkpt>
      <trkpt lat="44.99827" lon="5.48855">
        <ele>1393</ele>
        <time>2020-06-17T19:25:54Z</time>
      </trkpt>
      <trkpt lat="44.99837" lon="5.48847">
        <ele>1395</ele>
        <time>2020-06-17T19:25:56Z</time>
      </trkpt>
      <trkpt lat="44.99861" lon="5.48838">
        <ele>1398</ele>
        <time>2020-06-17T19:26:02Z</time>
      </trkpt>
      <trkpt lat="44.99887" lon="5.4882">
        <ele>1401</ele>
        <time>2020-06-17T19:26:09Z</time>
      </trkpt>
      <trkpt lat="44.99898" lon="5.4882">
        <ele>1402</ele>
        <time>2020-06-17T19:26:11Z</time>
      </trkpt>
      <trkpt lat="44.99902" lon="5.48812">
        <ele>1402</ele>
        <time>2020-06-17T19:26:13Z</time>
      </trkpt>
      <trkpt lat="44.99913" lon="5.48803">
        <ele>1403</ele>
        <time>2020-06-17T19:26:16Z</time>
      </trkpt>
      <trkpt lat="44.99943" lon="5.48788">
        <ele>1405</ele>
        <time>2020-06-17T19:26:23Z</time>
      </trkpt>
      <trkpt lat="44.99949" lon="5.48779">
        <ele>1405</ele>
        <time>2020-06-17T19:26:26Z</time>
      </trkpt>
      <trkpt lat="44.99969" lon="5.48767">
        <ele>1404</ele>
        <time>2020-06-17T19:26:31Z</time>
      </trkpt>
      <trkpt lat="45.00014" lon="5.48749">
        <ele>1406</ele>
        <time>2020-06-17T19:26:42Z</time>
      </trkpt>
      <trkpt lat="45.00056" lon="5.48713">
        <ele>1412</ele>
        <time>2020-06-17T19:26:53Z</time>
      </trkpt>
      <trkpt lat="45.0006" lon="5.48706">
        <ele>1412</ele>
        <time>2020-06-17T19:26:54Z</time>
      </trkpt>
      <trkpt lat="45.00089" lon="5.48678">
        <ele>1413</ele>
        <time>2020-06-17T19:27:03Z</time>
      </trkpt>
      <trkpt lat="45.00122" lon="5.48654">
        <ele>1418</ele>
        <time>2020-06-17T19:27:11Z</time>
      </trkpt>
      <trkpt lat="45.00145" lon="5.48627">
        <ele>1420</ele>
        <time>2020-06-17T19:27:18Z</time>
      </trkpt>
      <trkpt lat="45.00174" lon="5.48613">
        <ele>1423</ele>
        <time>2020-06-17T19:27:25Z</time>
      </trkpt>
      <trkpt lat="45.00194" lon="5.48608">
        <ele>1426</ele>
        <time>2020-06-17T19:27:30Z</time>
      </trkpt>
      <trkpt lat="45.00201" lon="5.48601">
        <ele>1427</ele>
        <time>2020-06-17T19:27:32Z</time>
      </trkpt>
      <trkpt lat="45.0021" lon="5.48597">
        <ele>1429</ele>
        <time>2020-06-17T19:27:34Z</time>
      </trkpt>
      <trkpt lat="45.00214" lon="5.48592">
        <ele>1429</ele>
        <time>2020-06-17T19:27:36Z</time>
      </trkpt>
      <trkpt lat="45.00211" lon="5.48578">
        <ele>1428</ele>
        <time>2020-06-17T19:27:38Z</time>
      </trkpt>
      <trkpt lat="45.00214" lon="5.48568">
        <ele>1430</ele>
        <time>2020-06-17T19:27:40Z</time>
      </trkpt>
      <trkpt lat="45.00223" lon="5.48553">
        <ele>1432</ele>
        <time>2020-06-17T19:27:43Z</time>
      </trkpt>
      <trkpt lat="45.00233" lon="5.48542">
        <ele>1434</ele>
        <time>2020-06-17T19:27:46Z</time>
      </trkpt>
      <trkpt lat="45.00242" lon="5.48536">
        <ele>1436</ele>
        <time>2020-06-17T19:27:48Z</time>
      </trkpt>
      <trkpt lat="45.00252" lon="5.48539">
        <ele>1437</ele>
        <time>2020-06-17T19:27:51Z</time>
      </trkpt>
      <trkpt lat="45.00266" lon="5.48558">
        <ele>1438</ele>
        <time>2020-06-17T19:27:55Z</time>
      </trkpt>
      <trkpt lat="45.00266" lon="5.48555">
        <ele>1438</ele>
        <time>2020-06-17T19:27:56Z</time>
      </trkpt>
      <trkpt lat="45.0027" lon="5.48556">
        <ele>1439</ele>
        <time>2020-06-17T19:27:57Z</time>
      </trkpt>
      <trkpt lat="45.00273" lon="5.48554">
        <ele>1439</ele>
        <time>2020-06-17T19:27:58Z</time>
      </trkpt>
      <trkpt lat="45.00273" lon="5.48569">
        <ele>1438</ele>
        <time>2020-06-17T19:28:00Z</time>
      </trkpt>
      <trkpt lat="45.00276" lon="5.4858">
        <ele>1438</ele>
        <time>2020-06-17T19:28:02Z</time>
      </trkpt>
      <trkpt lat="45.00267" lon="5.48604">
        <ele>1437</ele>
        <time>2020-06-17T19:28:06Z</time>
      </trkpt>
      <trkpt lat="45.00262" lon="5.48669">
        <ele>1438</ele>
        <time>2020-06-17T19:28:17Z</time>
      </trkpt>
      <trkpt lat="45.00264" lon="5.48676">
        <ele>1438</ele>
        <time>2020-06-17T19:28:19Z</time>
      </trkpt>
      <trkpt lat="45.00271" lon="5.48686">
        <ele>1437</ele>
        <time>2020-06-17T19:28:21Z</time>
      </trkpt>
      <trkpt lat="45.00284" lon="5.4869">
        <ele>1436</ele>
        <time>2020-06-17T19:28:24Z</time>
      </trkpt>
      <trkpt lat="45.00298" lon="5.48688">
        <ele>1435</ele>
        <time>2020-06-17T19:28:27Z</time>
      </trkpt>
      <trkpt lat="45.0033" lon="5.48673">
        <ele>1434</ele>
        <time>2020-06-17T19:28:35Z</time>
      </trkpt>
      <trkpt lat="45.00345" lon="5.48662">
        <ele>1434</ele>
        <time>2020-06-17T19:28:39Z</time>
      </trkpt>
      <trkpt lat="45.00374" lon="5.48623">
        <ele>1435</ele>
        <time>2020-06-17T19:28:48Z</time>
      </trkpt>
      <trkpt lat="45.00435" lon="5.48582">
        <ele>1432</ele>
        <time>2020-06-17T19:29:04Z</time>
      </trkpt>
      <trkpt lat="45.00497" lon="5.48547">
        <ele>1428</ele>
        <time>2020-06-17T19:29:20Z</time>
      </trkpt>
      <trkpt lat="45.0056" lon="5.48537">
        <ele>1424</ele>
        <time>2020-06-17T19:29:35Z</time>
      </trkpt>
      <trkpt lat="45.00578" lon="5.48545">
        <ele>1422</ele>
        <time>2020-06-17T19:29:39Z</time>
      </trkpt>
      <trkpt lat="45.00593" lon="5.48557">
        <ele>1422</ele>
        <time>2020-06-17T19:29:43Z</time>
      </trkpt>
      <trkpt lat="45.00616" lon="5.48583">
        <ele>1421</ele>
        <time>2020-06-17T19:29:50Z</time>
      </trkpt>
      <trkpt lat="45.00629" lon="5.48593">
        <ele>1421</ele>
        <time>2020-06-17T19:29:53Z</time>
      </trkpt>
      <trkpt lat="45.00665" lon="5.48635">
        <ele>1415</ele>
        <time>2020-06-17T19:30:04Z</time>
      </trkpt>
      <trkpt lat="45.00685" lon="5.48666">
        <ele>1413</ele>
        <time>2020-06-17T19:30:11Z</time>
      </trkpt>
      <trkpt lat="45.00694" lon="5.48691">
        <ele>1411</ele>
        <time>2020-06-17T19:30:16Z</time>
      </trkpt>
      <trkpt lat="45.00712" lon="5.4876">
        <ele>1407</ele>
        <time>2020-06-17T19:30:28Z</time>
      </trkpt>
      <trkpt lat="45.00716" lon="5.48786">
        <ele>1406</ele>
        <time>2020-06-17T19:30:32Z</time>
      </trkpt>
      <trkpt lat="45.00717" lon="5.48823">
        <ele>1405</ele>
        <time>2020-06-17T19:30:38Z</time>
      </trkpt>
      <trkpt lat="45.00725" lon="5.48836">
        <ele>1405</ele>
        <time>2020-06-17T19:30:41Z</time>
      </trkpt>
      <trkpt lat="45.00737" lon="5.48835">
        <ele>1406</ele>
        <time>2020-06-17T19:30:44Z</time>
      </trkpt>
      <trkpt lat="45.00758" lon="5.48824">
        <ele>1408</ele>
        <time>2020-06-17T19:30:49Z</time>
      </trkpt>
      <trkpt lat="45.00782" lon="5.48819">
        <ele>1410</ele>
        <time>2020-06-17T19:30:55Z</time>
      </trkpt>
      <trkpt lat="45.00789" lon="5.48814">
        <ele>1411</ele>
        <time>2020-06-17T19:30:57Z</time>
      </trkpt>
      <trkpt lat="45.00836" lon="5.48799">
        <ele>1415</ele>
        <time>2020-06-17T19:31:08Z</time>
      </trkpt>
      <trkpt lat="45.0086" lon="5.48787">
        <ele>1415</ele>
        <time>2020-06-17T19:31:14Z</time>
      </trkpt>
      <trkpt lat="45.00879" lon="5.4877">
        <ele>1416</ele>
        <time>2020-06-17T19:31:19Z</time>
      </trkpt>
      <trkpt lat="45.00901" lon="5.48756">
        <ele>1415</ele>
        <time>2020-06-17T19:31:25Z</time>
      </trkpt>
      <trkpt lat="45.00915" lon="5.48751">
        <ele>1415</ele>
        <time>2020-06-17T19:31:28Z</time>
      </trkpt>
      <trkpt lat="45.00964" lon="5.48766">
        <ele>1415</ele>
        <time>2020-06-17T19:31:40Z</time>
      </trkpt>
      <trkpt lat="45.00987" lon="5.4878">
        <ele>1415</ele>
        <time>2020-06-17T19:31:46Z</time>
      </trkpt>
      <trkpt lat="45.00998" lon="5.48791">
        <ele>1415</ele>
        <time>2020-06-17T19:31:49Z</time>
      </trkpt>
      <trkpt lat="45.01017" lon="5.48823">
        <ele>1414</ele>
        <time>2020-06-17T19:31:56Z</time>
      </trkpt>
      <trkpt lat="45.01025" lon="5.48829">
        <ele>1414</ele>
        <time>2020-06-17T19:31:58Z</time>
      </trkpt>
      <trkpt lat="45.01042" lon="5.48828">
        <ele>1415</ele>
        <time>2020-06-17T19:32:02Z</time>
      </trkpt>
      <trkpt lat="45.01065" lon="5.48823">
        <ele>1417</ele>
        <time>2020-06-17T19:32:07Z</time>
      </trkpt>
      <trkpt lat="45.01114" lon="5.48802">
        <ele>1423</ele>
        <time>2020-06-17T19:32:19Z</time>
      </trkpt>
      <trkpt lat="45.01132" lon="5.48805">
        <ele>1424</ele>
        <time>2020-06-17T19:32:24Z</time>
      </trkpt>
      <trkpt lat="45.01152" lon="5.48815">
        <ele>1424</ele>
        <time>2020-06-17T19:32:29Z</time>
      </trkpt>
      <trkpt lat="45.01163" lon="5.48827">
        <ele>1423</ele>
        <time>2020-06-17T19:32:32Z</time>
      </trkpt>
      <trkpt lat="45.01174" lon="5.4885">
        <ele>1421</ele>
        <time>2020-06-17T19:32:36Z</time>
      </trkpt>
      <trkpt lat="45.01189" lon="5.48866">
        <ele>1420</ele>
        <time>2020-06-17T19:32:41Z</time>
      </trkpt>
      <trkpt lat="45.01201" lon="5.4887">
        <ele>1420</ele>
        <time>2020-06-17T19:32:44Z</time>
      </trkpt>
      <trkpt lat="45.01242" lon="5.48871">
        <ele>1422</ele>
        <time>2020-06-17T19:32:53Z</time>
      </trkpt>
      <trkpt lat="45.0125" lon="5.48883">
        <ele>1421</ele>
        <time>2020-06-17T19:32:56Z</time>
      </trkpt>
      <trkpt lat="45.01255" lon="5.48906">
        <ele>1418</ele>
        <time>2020-06-17T19:33:00Z</time>
      </trkpt>
      <trkpt lat="45.0126" lon="5.48951">
        <ele>1417</ele>
        <time>2020-06-17T19:33:07Z</time>
      </trkpt>
      <trkpt lat="45.0126" lon="5.48965">
        <ele>1417</ele>
        <time>2020-06-17T19:33:10Z</time>
      </trkpt>
      <trkpt lat="45.01254" lon="5.49006">
        <ele>1417</ele>
        <time>2020-06-17T19:33:17Z</time>
      </trkpt>
      <trkpt lat="45.01255" lon="5.49022">
        <ele>1418</ele>
        <time>2020-06-17T19:33:19Z</time>
      </trkpt>
      <trkpt lat="45.01246" lon="5.49043">
        <ele>1419</ele>
        <time>2020-06-17T19:33:23Z</time>
      </trkpt>
      <trkpt lat="45.0122" lon="5.49055">
        <ele>1421</ele>
        <time>2020-06-17T19:33:30Z</time>
      </trkpt>
      <trkpt lat="45.01202" lon="5.49058">
        <ele>1422</ele>
        <time>2020-06-17T19:33:34Z</time>
      </trkpt>
      <trkpt lat="45.01182" lon="5.49058">
        <ele>1422</ele>
        <time>2020-06-17T19:33:39Z</time>
      </trkpt>
      <trkpt lat="45.01167" lon="5.49054">
        <ele>1422</ele>
        <time>2020-06-17T19:33:42Z</time>
      </trkpt>
      <trkpt lat="45.01155" lon="5.49058">
        <ele>1422</ele>
        <time>2020-06-17T19:33:45Z</time>
      </trkpt>
      <trkpt lat="45.0113" lon="5.4909">
        <ele>1423</ele>
        <time>2020-06-17T19:33:53Z</time>
      </trkpt>
      <trkpt lat="45.01125" lon="5.49105">
        <ele>1422</ele>
        <time>2020-06-17T19:33:56Z</time>
      </trkpt>
      <trkpt lat="45.01118" lon="5.49158">
        <ele>1418</ele>
        <time>2020-06-17T19:34:05Z</time>
      </trkpt>
      <trkpt lat="45.01112" lon="5.49172">
        <ele>1417</ele>
        <time>2020-06-17T19:34:07Z</time>
      </trkpt>
      <trkpt lat="45.01111" lon="5.49201">
        <ele>1413</ele>
        <time>2020-06-17T19:34:12Z</time>
      </trkpt>
      <trkpt lat="45.01106" lon="5.49231">
        <ele>1408</ele>
        <time>2020-06-17T19:34:17Z</time>
      </trkpt>
      <trkpt lat="45.0107" lon="5.49311">
        <ele>1398</ele>
        <time>2020-06-17T19:34:33Z</time>
      </trkpt>
      <trkpt lat="45.01054" lon="5.49332">
        <ele>1396</ele>
        <time>2020-06-17T19:34:38Z</time>
      </trkpt>
      <trkpt lat="45.01037" lon="5.49364">
        <ele>1393</ele>
        <time>2020-06-17T19:34:45Z</time>
      </trkpt>
      <trkpt lat="45.01004" lon="5.49413">
        <ele>1387</ele>
        <time>2020-06-17T19:34:56Z</time>
      </trkpt>
      <trkpt lat="45.00984" lon="5.49453">
        <ele>1383</ele>
        <time>2020-06-17T19:35:04Z</time>
      </trkpt>
      <trkpt lat="45.00979" lon="5.49468">
        <ele>1381</ele>
        <time>2020-06-17T19:35:07Z</time>
      </trkpt>
      <trkpt lat="45.00978" lon="5.49487">
        <ele>1379</ele>
        <time>2020-06-17T19:35:10Z</time>
      </trkpt>
      <trkpt lat="45.00979" lon="5.49517">
        <ele>1375</ele>
        <time>2020-06-17T19:35:15Z</time>
      </trkpt>
      <trkpt lat="45.00985" lon="5.4953">
        <ele>1374</ele>
        <time>2020-06-17T19:35:17Z</time>
      </trkpt>
      <trkpt lat="45.00988" lon="5.49545">
        <ele>1372</ele>
        <time>2020-06-17T19:35:20Z</time>
      </trkpt>
      <trkpt lat="45.00984" lon="5.4957">
        <ele>1368</ele>
        <time>2020-06-17T19:35:24Z</time>
      </trkpt>
      <trkpt lat="45.00964" lon="5.49603">
        <ele>1365</ele>
        <time>2020-06-17T19:35:31Z</time>
      </trkpt>
      <trkpt lat="45.00945" lon="5.49622">
        <ele>1363</ele>
        <time>2020-06-17T19:35:37Z</time>
      </trkpt>
      <trkpt lat="45.00921" lon="5.49682">
        <ele>1357</ele>
        <time>2020-06-17T19:35:48Z</time>
      </trkpt>
      <trkpt lat="45.00918" lon="5.49696">
        <ele>1356</ele>
        <time>2020-06-17T19:35:50Z</time>
      </trkpt>
      <trkpt lat="45.00919" lon="5.49698">
        <ele>1356</ele>
        <time>2020-06-17T19:35:51Z</time>
      </trkpt>
      <trkpt lat="45.00925" lon="5.49698">
        <ele>1356</ele>
        <time>2020-06-17T19:35:52Z</time>
      </trkpt>
      <trkpt lat="45.0097" lon="5.49684">
        <ele>1357</ele>
        <time>2020-06-17T19:36:03Z</time>
      </trkpt>
      <trkpt lat="45.0099" lon="5.49683">
        <ele>1358</ele>
        <time>2020-06-17T19:36:08Z</time>
      </trkpt>
      <trkpt lat="45.01006" lon="5.49686">
        <ele>1358</ele>
        <time>2020-06-17T19:36:11Z</time>
      </trkpt>
      <trkpt lat="45.01022" lon="5.49695">
        <ele>1356</ele>
        <time>2020-06-17T19:36:15Z</time>
      </trkpt>
      <trkpt lat="45.01044" lon="5.49703">
        <ele>1354</ele>
        <time>2020-06-17T19:36:21Z</time>
      </trkpt>
      <trkpt lat="45.01069" lon="5.49703">
        <ele>1352</ele>
        <time>2020-06-17T19:36:27Z</time>
      </trkpt>
      <trkpt lat="45.01093" lon="5.49708">
        <ele>1350</ele>
        <time>2020-06-17T19:36:32Z</time>
      </trkpt>
      <trkpt lat="45.01144" lon="5.49726">
        <ele>1346</ele>
        <time>2020-06-17T19:36:45Z</time>
      </trkpt>
      <trkpt lat="45.01168" lon="5.49738">
        <ele>1344</ele>
        <time>2020-06-17T19:36:50Z</time>
      </trkpt>
      <trkpt lat="45.01174" lon="5.49745">
        <ele>1343</ele>
        <time>2020-06-17T19:36:52Z</time>
      </trkpt>
      <trkpt lat="45.01189" lon="5.49773">
        <ele>1343</ele>
        <time>2020-06-17T19:36:58Z</time>
      </trkpt>
      <trkpt lat="45.01205" lon="5.49827">
        <ele>1343</ele>
        <time>2020-06-17T19:37:08Z</time>
      </trkpt>
      <trkpt lat="45.01207" lon="5.49853">
        <ele>1342</ele>
        <time>2020-06-17T19:37:12Z</time>
      </trkpt>
      <trkpt lat="45.01216" lon="5.49871">
        <ele>1342</ele>
        <time>2020-06-17T19:37:16Z</time>
      </trkpt>
      <trkpt lat="45.01229" lon="5.49875">
        <ele>1342</ele>
        <time>2020-06-17T19:37:19Z</time>
      </trkpt>
      <trkpt lat="45.01253" lon="5.49875">
        <ele>1342</ele>
        <time>2020-06-17T19:37:24Z</time>
      </trkpt>
      <trkpt lat="45.01254" lon="5.49878">
        <ele>1342</ele>
        <time>2020-06-17T19:37:25Z</time>
      </trkpt>
      <trkpt lat="45.0123" lon="5.49913">
        <ele>1341</ele>
        <time>2020-06-17T19:37:33Z</time>
      </trkpt>
      <trkpt lat="45.01214" lon="5.49928">
        <ele>1339</ele>
        <time>2020-06-17T19:37:38Z</time>
      </trkpt>
      <trkpt lat="45.01195" lon="5.49954">
        <ele>1335</ele>
        <time>2020-06-17T19:37:44Z</time>
      </trkpt>
      <trkpt lat="45.01189" lon="5.49971">
        <ele>1333</ele>
        <time>2020-06-17T19:37:47Z</time>
      </trkpt>
      <trkpt lat="45.01188" lon="5.49988">
        <ele>1331</ele>
        <time>2020-06-17T19:37:50Z</time>
      </trkpt>
      <trkpt lat="45.01196" lon="5.50009">
        <ele>1328</ele>
        <time>2020-06-17T19:37:54Z</time>
      </trkpt>
      <trkpt lat="45.01213" lon="5.50024">
        <ele>1326</ele>
        <time>2020-06-17T19:37:58Z</time>
      </trkpt>
      <trkpt lat="45.01229" lon="5.50032">
        <ele>1325</ele>
        <time>2020-06-17T19:38:02Z</time>
      </trkpt>
      <trkpt lat="45.01267" lon="5.50061">
        <ele>1320</ele>
        <time>2020-06-17T19:38:12Z</time>
      </trkpt>
      <trkpt lat="45.01304" lon="5.50077">
        <ele>1317</ele>
        <time>2020-06-17T19:38:21Z</time>
      </trkpt>
      <trkpt lat="45.01334" lon="5.50083">
        <ele>1316</ele>
        <time>2020-06-17T19:38:28Z</time>
      </trkpt>
      <trkpt lat="45.01348" lon="5.50089">
        <ele>1315</ele>
        <time>2020-06-17T19:38:32Z</time>
      </trkpt>
      <trkpt lat="45.01398" lon="5.50126">
        <ele>1309</ele>
        <time>2020-06-17T19:38:45Z</time>
      </trkpt>
      <trkpt lat="45.0144" lon="5.50142">
        <ele>1305</ele>
        <time>2020-06-17T19:38:55Z</time>
      </trkpt>
      <trkpt lat="45.01468" lon="5.50174">
        <ele>1299</ele>
        <time>2020-06-17T19:39:04Z</time>
      </trkpt>
      <trkpt lat="45.01486" lon="5.50187">
        <ele>1296</ele>
        <time>2020-06-17T19:39:08Z</time>
      </trkpt>
      <trkpt lat="45.0151" lon="5.50192">
        <ele>1294</ele>
        <time>2020-06-17T19:39:14Z</time>
      </trkpt>
      <trkpt lat="45.01529" lon="5.50206">
        <ele>1291</ele>
        <time>2020-06-17T19:39:19Z</time>
      </trkpt>
      <trkpt lat="45.01542" lon="5.5021">
        <ele>1290</ele>
        <time>2020-06-17T19:39:22Z</time>
      </trkpt>
      <trkpt lat="45.01563" lon="5.50203">
        <ele>1289</ele>
        <time>2020-06-17T19:39:27Z</time>
      </trkpt>
      <trkpt lat="45.01575" lon="5.50194">
        <ele>1289</ele>
        <time>2020-06-17T19:39:30Z</time>
      </trkpt>
      <trkpt lat="45.01584" lon="5.50183">
        <ele>1290</ele>
        <time>2020-06-17T19:39:33Z</time>
      </trkpt>
      <trkpt lat="45.01616" lon="5.50156">
        <ele>1293</ele>
        <time>2020-06-17T19:39:42Z</time>
      </trkpt>
      <trkpt lat="45.0163" lon="5.50138">
        <ele>1295</ele>
        <time>2020-06-17T19:39:46Z</time>
      </trkpt>
      <trkpt lat="45.01663" lon="5.50105">
        <ele>1299</ele>
        <time>2020-06-17T19:39:56Z</time>
      </trkpt>
      <trkpt lat="45.01668" lon="5.50093">
        <ele>1301</ele>
        <time>2020-06-17T19:39:58Z</time>
      </trkpt>
      <trkpt lat="45.01682" lon="5.50083">
        <ele>1302</ele>
        <time>2020-06-17T19:40:02Z</time>
      </trkpt>
      <trkpt lat="45.01698" lon="5.50057">
        <ele>1307</ele>
        <time>2020-06-17T19:40:07Z</time>
      </trkpt>
      <trkpt lat="45.01711" lon="5.50041">
        <ele>1309</ele>
        <time>2020-06-17T19:40:11Z</time>
      </trkpt>
      <trkpt lat="45.01723" lon="5.49993">
        <ele>1316</ele>
        <time>2020-06-17T19:40:20Z</time>
      </trkpt>
      <trkpt lat="45.01736" lon="5.49987">
        <ele>1317</ele>
        <time>2020-06-17T19:40:23Z</time>
      </trkpt>
      <trkpt lat="45.01745" lon="5.49988">
        <ele>1316</ele>
        <time>2020-06-17T19:40:25Z</time>
      </trkpt>
      <trkpt lat="45.01761" lon="5.50002">
        <ele>1314</ele>
        <time>2020-06-17T19:40:29Z</time>
      </trkpt>
      <trkpt lat="45.01787" lon="5.50003">
        <ele>1311</ele>
        <time>2020-06-17T19:40:35Z</time>
      </trkpt>
      <trkpt lat="45.01796" lon="5.50007">
        <ele>1310</ele>
        <time>2020-06-17T19:40:38Z</time>
      </trkpt>
      <trkpt lat="45.01829" lon="5.50025">
        <ele>1305</ele>
        <time>2020-06-17T19:40:46Z</time>
      </trkpt>
      <trkpt lat="45.01847" lon="5.50041">
        <ele>1302</ele>
        <time>2020-06-17T19:40:51Z</time>
      </trkpt>
      <trkpt lat="45.01859" lon="5.50047">
        <ele>1301</ele>
        <time>2020-06-17T19:40:54Z</time>
      </trkpt>
      <trkpt lat="45.01873" lon="5.50049">
        <ele>1301</ele>
        <time>2020-06-17T19:40:57Z</time>
      </trkpt>
      <trkpt lat="45.01893" lon="5.50046">
        <ele>1301</ele>
        <time>2020-06-17T19:41:02Z</time>
      </trkpt>
      <trkpt lat="45.01929" lon="5.50051">
        <ele>1299</ele>
        <time>2020-06-17T19:41:10Z</time>
      </trkpt>
      <trkpt lat="45.01945" lon="5.5005">
        <ele>1299</ele>
        <time>2020-06-17T19:41:14Z</time>
      </trkpt>
      <trkpt lat="45.01974" lon="5.50057">
        <ele>1298</ele>
        <time>2020-06-17T19:41:21Z</time>
      </trkpt>
      <trkpt lat="45.01997" lon="5.50058">
        <ele>1298</ele>
        <time>2020-06-17T19:41:26Z</time>
      </trkpt>
      <trkpt lat="45.02044" lon="5.50082">
        <ele>1292</ele>
        <time>2020-06-17T19:41:38Z</time>
      </trkpt>
      <trkpt lat="45.02101" lon="5.50097">
        <ele>1287</ele>
        <time>2020-06-17T19:41:51Z</time>
      </trkpt>
      <trkpt lat="45.02112" lon="5.50103">
        <ele>1285</ele>
        <time>2020-06-17T19:41:54Z</time>
      </trkpt>
      <trkpt lat="45.0213" lon="5.50118">
        <ele>1282</ele>
        <time>2020-06-17T19:41:59Z</time>
      </trkpt>
      <trkpt lat="45.02152" lon="5.50144">
        <ele>1276</ele>
        <time>2020-06-17T19:42:06Z</time>
      </trkpt>
      <trkpt lat="45.02176" lon="5.50154">
        <ele>1273</ele>
        <time>2020-06-17T19:42:12Z</time>
      </trkpt>
      <trkpt lat="45.02204" lon="5.5018">
        <ele>1267</ele>
        <time>2020-06-17T19:42:19Z</time>
      </trkpt>
      <trkpt lat="45.0222" lon="5.50199">
        <ele>1264</ele>
        <time>2020-06-17T19:42:24Z</time>
      </trkpt>
      <trkpt lat="45.0223" lon="5.50202">
        <ele>1263</ele>
        <time>2020-06-17T19:42:27Z</time>
      </trkpt>
      <trkpt lat="45.02241" lon="5.502">
        <ele>1262</ele>
        <time>2020-06-17T19:42:29Z</time>
      </trkpt>
      <trkpt lat="45.0227" lon="5.50183">
        <ele>1265</ele>
        <time>2020-06-17T19:42:37Z</time>
      </trkpt>
      <trkpt lat="45.02285" lon="5.50182">
        <ele>1266</ele>
        <time>2020-06-17T19:42:40Z</time>
      </trkpt>
      <trkpt lat="45.02291" lon="5.50177">
        <ele>1266</ele>
        <time>2020-06-17T19:42:42Z</time>
      </trkpt>
      <trkpt lat="45.02303" lon="5.50175">
        <ele>1267</ele>
        <time>2020-06-17T19:42:45Z</time>
      </trkpt>
      <trkpt lat="45.02319" lon="5.50149">
        <ele>1272</ele>
        <time>2020-06-17T19:42:50Z</time>
      </trkpt>
      <trkpt lat="45.0233" lon="5.50143">
        <ele>1273</ele>
        <time>2020-06-17T19:42:53Z</time>
      </trkpt>
      <trkpt lat="45.02345" lon="5.50126">
        <ele>1277</ele>
        <time>2020-06-17T19:42:58Z</time>
      </trkpt>
      <trkpt lat="45.02386" lon="5.50094">
        <ele>1284</ele>
        <time>2020-06-17T19:43:08Z</time>
      </trkpt>
      <trkpt lat="45.02403" lon="5.50072">
        <ele>1288</ele>
        <time>2020-06-17T19:43:14Z</time>
      </trkpt>
      <trkpt lat="45.02408" lon="5.50059">
        <ele>1291</ele>
        <time>2020-06-17T19:43:16Z</time>
      </trkpt>
      <trkpt lat="45.02414" lon="5.50051">
        <ele>1292</ele>
        <time>2020-06-17T19:43:18Z</time>
      </trkpt>
      <trkpt lat="45.02412" lon="5.50042">
        <ele>1294</ele>
        <time>2020-06-17T19:43:20Z</time>
      </trkpt>
      <trkpt lat="45.02415" lon="5.50025">
        <ele>1297</ele>
        <time>2020-06-17T19:43:23Z</time>
      </trkpt>
      <trkpt lat="45.02413" lon="5.50013">
        <ele>1299</ele>
        <time>2020-06-17T19:43:25Z</time>
      </trkpt>
      <trkpt lat="45.0241" lon="5.50011">
        <ele>1300</ele>
        <time>2020-06-17T19:43:25Z</time>
      </trkpt>
      <trkpt lat="45.02418" lon="5.49985">
        <ele>1305</ele>
        <time>2020-06-17T19:43:30Z</time>
      </trkpt>
      <trkpt lat="45.02432" lon="5.49965">
        <ele>1308</ele>
        <time>2020-06-17T19:43:35Z</time>
      </trkpt>
      <trkpt lat="45.0244" lon="5.49961">
        <ele>1308</ele>
        <time>2020-06-17T19:43:37Z</time>
      </trkpt>
      <trkpt lat="45.02447" lon="5.4995">
        <ele>1310</ele>
        <time>2020-06-17T19:43:39Z</time>
      </trkpt>
      <trkpt lat="45.02448" lon="5.49935">
        <ele>1313</ele>
        <time>2020-06-17T19:43:42Z</time>
      </trkpt>
      <trkpt lat="45.02454" lon="5.49922">
        <ele>1315</ele>
        <time>2020-06-17T19:43:44Z</time>
      </trkpt>
      <trkpt lat="45.02471" lon="5.499">
        <ele>1318</ele>
        <time>2020-06-17T19:43:50Z</time>
      </trkpt>
      <trkpt lat="45.02496" lon="5.49861">
        <ele>1322</ele>
        <time>2020-06-17T19:43:58Z</time>
      </trkpt>
      <trkpt lat="45.02502" lon="5.49826">
        <ele>1325</ele>
        <time>2020-06-17T19:44:04Z</time>
      </trkpt>
      <trkpt lat="45.02499" lon="5.49792">
        <ele>1326</ele>
        <time>2020-06-17T19:44:10Z</time>
      </trkpt>
      <trkpt lat="45.02503" lon="5.49782">
        <ele>1326</ele>
        <time>2020-06-17T19:44:12Z</time>
      </trkpt>
      <trkpt lat="45.02508" lon="5.49773">
        <ele>1327</ele>
        <time>2020-06-17T19:44:14Z</time>
      </trkpt>
      <trkpt lat="45.02522" lon="5.49765">
        <ele>1327</ele>
        <time>2020-06-17T19:44:17Z</time>
      </trkpt>
      <trkpt lat="45.02548" lon="5.49741">
        <ele>1328</ele>
        <time>2020-06-17T19:44:25Z</time>
      </trkpt>
      <trkpt lat="45.02572" lon="5.49708">
        <ele>1328</ele>
        <time>2020-06-17T19:44:32Z</time>
      </trkpt>
      <trkpt lat="45.02596" lon="5.49709">
        <ele>1329</ele>
        <time>2020-06-17T19:44:38Z</time>
      </trkpt>
      <trkpt lat="45.02605" lon="5.49706">
        <ele>1329</ele>
        <time>2020-06-17T19:44:40Z</time>
      </trkpt>
      <trkpt lat="45.02667" lon="5.4964">
        <ele>1331</ele>
        <time>2020-06-17T19:44:58Z</time>
      </trkpt>
      <trkpt lat="45.02677" lon="5.49636">
        <ele>1331</ele>
        <time>2020-06-17T19:45:01Z</time>
      </trkpt>
      <trkpt lat="45.02749" lon="5.4964">
        <ele>1330</ele>
        <time>2020-06-17T19:45:17Z</time>
      </trkpt>
      <trkpt lat="45.02779" lon="5.4963">
        <ele>1330</ele>
        <time>2020-06-17T19:45:25Z</time>
      </trkpt>
      <trkpt lat="45.02803" lon="5.49611">
        <ele>1331</ele>
        <time>2020-06-17T19:45:31Z</time>
      </trkpt>
      <trkpt lat="45.02822" lon="5.49592">
        <ele>1331</ele>
        <time>2020-06-17T19:45:37Z</time>
      </trkpt>
      <trkpt lat="45.02833" lon="5.49573">
        <ele>1333</ele>
        <time>2020-06-17T19:45:41Z</time>
      </trkpt>
      <trkpt lat="45.0285" lon="5.49554">
        <ele>1336</ele>
        <time>2020-06-17T19:45:46Z</time>
      </trkpt>
      <trkpt lat="45.02884" lon="5.49545">
        <ele>1338</ele>
        <time>2020-06-17T19:45:54Z</time>
      </trkpt>
      <trkpt lat="45.02925" lon="5.49542">
        <ele>1339</ele>
        <time>2020-06-17T19:46:03Z</time>
      </trkpt>
      <trkpt lat="45.02937" lon="5.49544">
        <ele>1339</ele>
        <time>2020-06-17T19:46:06Z</time>
      </trkpt>
      <trkpt lat="45.02969" lon="5.49567">
        <ele>1335</ele>
        <time>2020-06-17T19:46:15Z</time>
      </trkpt>
      <trkpt lat="45.02974" lon="5.49579">
        <ele>1333</ele>
        <time>2020-06-17T19:46:17Z</time>
      </trkpt>
      <trkpt lat="45.02976" lon="5.49609">
        <ele>1332</ele>
        <time>2020-06-17T19:46:22Z</time>
      </trkpt>
      <trkpt lat="45.02981" lon="5.49626">
        <ele>1333</ele>
        <time>2020-06-17T19:46:25Z</time>
      </trkpt>
      <trkpt lat="45.02976" lon="5.49694">
        <ele>1336</ele>
        <time>2020-06-17T19:46:36Z</time>
      </trkpt>
      <trkpt lat="45.02976" lon="5.49705">
        <ele>1336</ele>
        <time>2020-06-17T19:46:38Z</time>
      </trkpt>
      <trkpt lat="45.02981" lon="5.49721">
        <ele>1337</ele>
        <time>2020-06-17T19:46:41Z</time>
      </trkpt>
      <trkpt lat="45.02982" lon="5.49734">
        <ele>1338</ele>
        <time>2020-06-17T19:46:43Z</time>
      </trkpt>
      <trkpt lat="45.02979" lon="5.49747">
        <ele>1339</ele>
        <time>2020-06-17T19:46:45Z</time>
      </trkpt>
      <trkpt lat="45.0297" lon="5.49755">
        <ele>1339</ele>
        <time>2020-06-17T19:46:48Z</time>
      </trkpt>
      <trkpt lat="45.02933" lon="5.49768">
        <ele>1339</ele>
        <time>2020-06-17T19:46:57Z</time>
      </trkpt>
      <trkpt lat="45.029" lon="5.49797">
        <ele>1338</ele>
        <time>2020-06-17T19:47:06Z</time>
      </trkpt>
      <trkpt lat="45.02827" lon="5.49832">
        <ele>1337</ele>
        <time>2020-06-17T19:47:24Z</time>
      </trkpt>
      <trkpt lat="45.0281" lon="5.49845">
        <ele>1335</ele>
        <time>2020-06-17T19:47:28Z</time>
      </trkpt>
      <trkpt lat="45.02767" lon="5.4987">
        <ele>1331</ele>
        <time>2020-06-17T19:47:39Z</time>
      </trkpt>
      <trkpt lat="45.0274" lon="5.49882">
        <ele>1329</ele>
        <time>2020-06-17T19:47:46Z</time>
      </trkpt>
      <trkpt lat="45.02699" lon="5.49894">
        <ele>1325</ele>
        <time>2020-06-17T19:47:55Z</time>
      </trkpt>
      <trkpt lat="45.02688" lon="5.49904">
        <ele>1323</ele>
        <time>2020-06-17T19:47:59Z</time>
      </trkpt>
      <trkpt lat="45.02668" lon="5.49931">
        <ele>1318</ele>
        <time>2020-06-17T19:48:05Z</time>
      </trkpt>
      <trkpt lat="45.02658" lon="5.4994">
        <ele>1317</ele>
        <time>2020-06-17T19:48:08Z</time>
      </trkpt>
      <trkpt lat="45.02647" lon="5.49949">
        <ele>1315</ele>
        <time>2020-06-17T19:48:11Z</time>
      </trkpt>
      <trkpt lat="45.02634" lon="5.49954">
        <ele>1314</ele>
        <time>2020-06-17T19:48:14Z</time>
      </trkpt>
      <trkpt lat="45.0259" lon="5.49987">
        <ele>1306</ele>
        <time>2020-06-17T19:48:25Z</time>
      </trkpt>
      <trkpt lat="45.02573" lon="5.50012">
        <ele>1302</ele>
        <time>2020-06-17T19:48:31Z</time>
      </trkpt>
      <trkpt lat="45.02559" lon="5.50023">
        <ele>1300</ele>
        <time>2020-06-17T19:48:35Z</time>
      </trkpt>
      <trkpt lat="45.02542" lon="5.50056">
        <ele>1296</ele>
        <time>2020-06-17T19:48:42Z</time>
      </trkpt>
      <trkpt lat="45.02528" lon="5.50091">
        <ele>1291</ele>
        <time>2020-06-17T19:48:48Z</time>
      </trkpt>
      <trkpt lat="45.02524" lon="5.50096">
        <ele>1290</ele>
        <time>2020-06-17T19:48:50Z</time>
      </trkpt>
      <trkpt lat="45.02507" lon="5.50107">
        <ele>1287</ele>
        <time>2020-06-17T19:48:54Z</time>
      </trkpt>
      <trkpt lat="45.02496" lon="5.50122">
        <ele>1285</ele>
        <time>2020-06-17T19:48:57Z</time>
      </trkpt>
      <trkpt lat="45.02495" lon="5.50184">
        <ele>1280</ele>
        <time>2020-06-17T19:49:08Z</time>
      </trkpt>
      <trkpt lat="45.02487" lon="5.50231">
        <ele>1276</ele>
        <time>2020-06-17T19:49:16Z</time>
      </trkpt>
      <trkpt lat="45.02479" lon="5.50262">
        <ele>1274</ele>
        <time>2020-06-17T19:49:21Z</time>
      </trkpt>
      <trkpt lat="45.0248" lon="5.50284">
        <ele>1274</ele>
        <time>2020-06-17T19:49:25Z</time>
      </trkpt>
      <trkpt lat="45.0246" lon="5.50299">
        <ele>1272</ele>
        <time>2020-06-17T19:49:30Z</time>
      </trkpt>
      <trkpt lat="45.02457" lon="5.5031">
        <ele>1271</ele>
        <time>2020-06-17T19:49:32Z</time>
      </trkpt>
      <trkpt lat="45.02457" lon="5.50328">
        <ele>1271</ele>
        <time>2020-06-17T19:49:35Z</time>
      </trkpt>
      <trkpt lat="45.02462" lon="5.50346">
        <ele>1270</ele>
        <time>2020-06-17T19:49:38Z</time>
      </trkpt>
      <trkpt lat="45.0246" lon="5.50397">
        <ele>1267</ele>
        <time>2020-06-17T19:49:47Z</time>
      </trkpt>
      <trkpt lat="45.0245" lon="5.50425">
        <ele>1265</ele>
        <time>2020-06-17T19:49:52Z</time>
      </trkpt>
      <trkpt lat="45.02439" lon="5.50472">
        <ele>1262</ele>
        <time>2020-06-17T19:50:00Z</time>
      </trkpt>
      <trkpt lat="45.0241" lon="5.50494">
        <ele>1261</ele>
        <time>2020-06-17T19:50:08Z</time>
      </trkpt>
      <trkpt lat="45.02403" lon="5.50502">
        <ele>1260</ele>
        <time>2020-06-17T19:50:10Z</time>
      </trkpt>
      <trkpt lat="45.02401" lon="5.50523">
        <ele>1258</ele>
        <time>2020-06-17T19:50:13Z</time>
      </trkpt>
      <trkpt lat="45.02408" lon="5.50558">
        <ele>1256</ele>
        <time>2020-06-17T19:50:19Z</time>
      </trkpt>
      <trkpt lat="45.02416" lon="5.50584">
        <ele>1255</ele>
        <time>2020-06-17T19:50:24Z</time>
      </trkpt>
      <trkpt lat="45.02427" lon="5.50675">
        <ele>1243</ele>
        <time>2020-06-17T19:50:39Z</time>
      </trkpt>
      <trkpt lat="45.02434" lon="5.50709">
        <ele>1238</ele>
        <time>2020-06-17T19:50:45Z</time>
      </trkpt>
      <trkpt lat="45.0244" lon="5.50714">
        <ele>1238</ele>
        <time>2020-06-17T19:50:47Z</time>
      </trkpt>
      <trkpt lat="45.02441" lon="5.50719">
        <ele>1237</ele>
        <time>2020-06-17T19:50:48Z</time>
      </trkpt>
      <trkpt lat="45.02439" lon="5.50723">
        <ele>1236</ele>
        <time>2020-06-17T19:50:48Z</time>
      </trkpt>
      <trkpt lat="45.02424" lon="5.5073">
        <ele>1235</ele>
        <time>2020-06-17T19:50:52Z</time>
      </trkpt>
      <trkpt lat="45.02417" lon="5.50741">
        <ele>1233</ele>
        <time>2020-06-17T19:50:54Z</time>
      </trkpt>
      <trkpt lat="45.02408" lon="5.5078">
        <ele>1228</ele>
        <time>2020-06-17T19:51:01Z</time>
      </trkpt>
      <trkpt lat="45.02392" lon="5.50801">
        <ele>1225</ele>
        <time>2020-06-17T19:51:06Z</time>
      </trkpt>
      <trkpt lat="45.02376" lon="5.5084">
        <ele>1220</ele>
        <time>2020-06-17T19:51:14Z</time>
      </trkpt>
      <trkpt lat="45.02359" lon="5.50863">
        <ele>1217</ele>
        <time>2020-06-17T19:51:19Z</time>
      </trkpt>
      <trkpt lat="45.02366" lon="5.50873">
        <ele>1217</ele>
        <time>2020-06-17T19:51:22Z</time>
      </trkpt>
      <trkpt lat="45.02397" lon="5.50878">
        <ele>1217</ele>
        <time>2020-06-17T19:51:29Z</time>
      </trkpt>
      <trkpt lat="45.02418" lon="5.50915">
        <ele>1213</ele>
        <time>2020-06-17T19:51:37Z</time>
      </trkpt>
      <trkpt lat="45.0246" lon="5.50967">
        <ele>1210</ele>
        <time>2020-06-17T19:51:50Z</time>
      </trkpt>
      <trkpt lat="45.02484" lon="5.51005">
        <ele>1207</ele>
        <time>2020-06-17T19:51:58Z</time>
      </trkpt>
      <trkpt lat="45.02487" lon="5.51016">
        <ele>1206</ele>
        <time>2020-06-17T19:52:00Z</time>
      </trkpt>
      <trkpt lat="45.02491" lon="5.51016">
        <ele>1206</ele>
        <time>2020-06-17T19:52:01Z</time>
      </trkpt>
      <trkpt lat="45.02493" lon="5.51023">
        <ele>1205</ele>
        <time>2020-06-17T19:52:02Z</time>
      </trkpt>
      <trkpt lat="45.02493" lon="5.51059">
        <ele>1203</ele>
        <time>2020-06-17T19:52:08Z</time>
      </trkpt>
      <trkpt lat="45.02484" lon="5.51092">
        <ele>1201</ele>
        <time>2020-06-17T19:52:14Z</time>
      </trkpt>
      <trkpt lat="45.02486" lon="5.51123">
        <ele>1198</ele>
        <time>2020-06-17T19:52:19Z</time>
      </trkpt>
      <trkpt lat="45.02469" lon="5.51164">
        <ele>1196</ele>
        <time>2020-06-17T19:52:27Z</time>
      </trkpt>
      <trkpt lat="45.02467" lon="5.51179">
        <ele>1195</ele>
        <time>2020-06-17T19:52:30Z</time>
      </trkpt>
      <trkpt lat="45.02464" lon="5.51247">
        <ele>1189</ele>
        <time>2020-06-17T19:52:41Z</time>
      </trkpt>
      <trkpt lat="45.02466" lon="5.51264">
        <ele>1188</ele>
        <time>2020-06-17T19:52:44Z</time>
      </trkpt>
      <trkpt lat="45.02478" lon="5.513">
        <ele>1185</ele>
        <time>2020-06-17T19:52:50Z</time>
      </trkpt>
      <trkpt lat="45.02476" lon="5.51317">
        <ele>1183</ele>
        <time>2020-06-17T19:52:53Z</time>
      </trkpt>
      <trkpt lat="45.02462" lon="5.51359">
        <ele>1182</ele>
        <time>2020-06-17T19:53:01Z</time>
      </trkpt>
      <trkpt lat="45.02457" lon="5.51395">
        <ele>1180</ele>
        <time>2020-06-17T19:53:07Z</time>
      </trkpt>
      <trkpt lat="45.02457" lon="5.5142">
        <ele>1179</ele>
        <time>2020-06-17T19:53:11Z</time>
      </trkpt>
      <trkpt lat="45.02468" lon="5.51492">
        <ele>1179</ele>
        <time>2020-06-17T19:53:23Z</time>
      </trkpt>
      <trkpt lat="45.02478" lon="5.51517">
        <ele>1179</ele>
        <time>2020-06-17T19:53:28Z</time>
      </trkpt>
      <trkpt lat="45.02495" lon="5.51543">
        <ele>1179</ele>
        <time>2020-06-17T19:53:34Z</time>
      </trkpt>
      <trkpt lat="45.02499" lon="5.51545">
        <ele>1179</ele>
        <time>2020-06-17T19:53:35Z</time>
      </trkpt>
      <trkpt lat="45.02503" lon="5.51541">
        <ele>1180</ele>
        <time>2020-06-17T19:53:36Z</time>
      </trkpt>
      <trkpt lat="45.025" lon="5.51541">
        <ele>1180</ele>
        <time>2020-06-17T19:53:36Z</time>
      </trkpt>
      <trkpt lat="45.02497" lon="5.5155">
        <ele>1179</ele>
        <time>2020-06-17T19:53:38Z</time>
      </trkpt>
      <trkpt lat="45.025" lon="5.51546">
        <ele>1179</ele>
        <time>2020-06-17T19:53:39Z</time>
      </trkpt>
      <trkpt lat="45.02503" lon="5.5155">
        <ele>1179</ele>
        <time>2020-06-17T19:53:40Z</time>
      </trkpt>
      <trkpt lat="45.02501" lon="5.5155">
        <ele>1179</ele>
        <time>2020-06-17T19:53:41Z</time>
      </trkpt>
      <trkpt lat="45.02503" lon="5.51547">
        <ele>1179</ele>
        <time>2020-06-17T19:53:41Z</time>
      </trkpt>
      <trkpt lat="45.02502" lon="5.51549">
        <ele>1179</ele>
        <time>2020-06-17T19:53:42Z</time>
      </trkpt>
      <trkpt lat="45.02502" lon="5.51538">
        <ele>1180</ele>
        <time>2020-06-17T19:53:43Z</time>
      </trkpt>
      <trkpt lat="45.02539" lon="5.51544">
        <ele>1182</ele>
        <time>2020-06-17T19:53:52Z</time>
      </trkpt>
      <trkpt lat="45.02622" lon="5.51513">
        <ele>1189</ele>
        <time>2020-06-17T19:54:12Z</time>
      </trkpt>
      <trkpt lat="45.02649" lon="5.51514">
        <ele>1191</ele>
        <time>2020-06-17T19:54:18Z</time>
      </trkpt>
      <trkpt lat="45.02655" lon="5.51511">
        <ele>1192</ele>
        <time>2020-06-17T19:54:20Z</time>
      </trkpt>
      <trkpt lat="45.02674" lon="5.51484">
        <ele>1194</ele>
        <time>2020-06-17T19:54:26Z</time>
      </trkpt>
      <trkpt lat="45.02692" lon="5.51441">
        <ele>1196</ele>
        <time>2020-06-17T19:54:34Z</time>
      </trkpt>
      <trkpt lat="45.02709" lon="5.51417">
        <ele>1198</ele>
        <time>2020-06-17T19:54:40Z</time>
      </trkpt>
      <trkpt lat="45.02727" lon="5.51375">
        <ele>1201</ele>
        <time>2020-06-17T19:54:48Z</time>
      </trkpt>
      <trkpt lat="45.02736" lon="5.51363">
        <ele>1202</ele>
        <time>2020-06-17T19:54:51Z</time>
      </trkpt>
      <trkpt lat="45.02756" lon="5.51348">
        <ele>1204</ele>
        <time>2020-06-17T19:54:56Z</time>
      </trkpt>
      <trkpt lat="45.02767" lon="5.51331">
        <ele>1205</ele>
        <time>2020-06-17T19:55:00Z</time>
      </trkpt>
      <trkpt lat="45.02801" lon="5.51258">
        <ele>1206</ele>
        <time>2020-06-17T19:55:15Z</time>
      </trkpt>
      <trkpt lat="45.02812" lon="5.5121">
        <ele>1206</ele>
        <time>2020-06-17T19:55:23Z</time>
      </trkpt>
      <trkpt lat="45.0282" lon="5.51193">
        <ele>1207</ele>
        <time>2020-06-17T19:55:26Z</time>
      </trkpt>
      <trkpt lat="45.02836" lon="5.5118">
        <ele>1207</ele>
        <time>2020-06-17T19:55:31Z</time>
      </trkpt>
      <trkpt lat="45.02857" lon="5.51176">
        <ele>1208</ele>
        <time>2020-06-17T19:55:36Z</time>
      </trkpt>
      <trkpt lat="45.02891" lon="5.5116">
        <ele>1210</ele>
        <time>2020-06-17T19:55:44Z</time>
      </trkpt>
      <trkpt lat="45.02949" lon="5.51112">
        <ele>1215</ele>
        <time>2020-06-17T19:56:00Z</time>
      </trkpt>
      <trkpt lat="45.02964" lon="5.5108">
        <ele>1215</ele>
        <time>2020-06-17T19:56:06Z</time>
      </trkpt>
      <trkpt lat="45.02991" lon="5.50965">
        <ele>1213</ele>
        <time>2020-06-17T19:56:26Z</time>
      </trkpt>
      <trkpt lat="45.03033" lon="5.50881">
        <ele>1217</ele>
        <time>2020-06-17T19:56:43Z</time>
      </trkpt>
      <trkpt lat="45.03054" lon="5.50826">
        <ele>1219</ele>
        <time>2020-06-17T19:56:53Z</time>
      </trkpt>
      <trkpt lat="45.03078" lon="5.50793">
        <ele>1222</ele>
        <time>2020-06-17T19:57:01Z</time>
      </trkpt>
      <trkpt lat="45.03083" lon="5.5077">
        <ele>1224</ele>
        <time>2020-06-17T19:57:05Z</time>
      </trkpt>
      <trkpt lat="45.03082" lon="5.50738">
        <ele>1225</ele>
        <time>2020-06-17T19:57:10Z</time>
      </trkpt>
      <trkpt lat="45.03087" lon="5.50708">
        <ele>1226</ele>
        <time>2020-06-17T19:57:15Z</time>
      </trkpt>
      <trkpt lat="45.03087" lon="5.50691">
        <ele>1227</ele>
        <time>2020-06-17T19:57:18Z</time>
      </trkpt>
      <trkpt lat="45.03098" lon="5.50644">
        <ele>1228</ele>
        <time>2020-06-17T19:57:26Z</time>
      </trkpt>
      <trkpt lat="45.03107" lon="5.50632">
        <ele>1228</ele>
        <time>2020-06-17T19:57:29Z</time>
      </trkpt>
      <trkpt lat="45.03122" lon="5.50622">
        <ele>1230</ele>
        <time>2020-06-17T19:57:33Z</time>
      </trkpt>
      <trkpt lat="45.03143" lon="5.5059">
        <ele>1232</ele>
        <time>2020-06-17T19:57:40Z</time>
      </trkpt>
      <trkpt lat="45.03154" lon="5.50581">
        <ele>1233</ele>
        <time>2020-06-17T19:57:43Z</time>
      </trkpt>
      <trkpt lat="45.03177" lon="5.50571">
        <ele>1235</ele>
        <time>2020-06-17T19:57:49Z</time>
      </trkpt>
      <trkpt lat="45.03201" lon="5.5055">
        <ele>1238</ele>
        <time>2020-06-17T19:57:56Z</time>
      </trkpt>
      <trkpt lat="45.03214" lon="5.50531">
        <ele>1240</ele>
        <time>2020-06-17T19:58:00Z</time>
      </trkpt>
      <trkpt lat="45.03226" lon="5.50496">
        <ele>1244</ele>
        <time>2020-06-17T19:58:06Z</time>
      </trkpt>
      <trkpt lat="45.03233" lon="5.50484">
        <ele>1246</ele>
        <time>2020-06-17T19:58:09Z</time>
      </trkpt>
      <trkpt lat="45.03249" lon="5.50475">
        <ele>1248</ele>
        <time>2020-06-17T19:58:13Z</time>
      </trkpt>
      <trkpt lat="45.03277" lon="5.50468">
        <ele>1251</ele>
        <time>2020-06-17T19:58:20Z</time>
      </trkpt>
      <trkpt lat="45.03282" lon="5.50462">
        <ele>1252</ele>
        <time>2020-06-17T19:58:21Z</time>
      </trkpt>
      <trkpt lat="45.03294" lon="5.50456">
        <ele>1254</ele>
        <time>2020-06-17T19:58:24Z</time>
      </trkpt>
      <trkpt lat="45.03304" lon="5.50454">
        <ele>1255</ele>
        <time>2020-06-17T19:58:26Z</time>
      </trkpt>
      <trkpt lat="45.03319" lon="5.50457">
        <ele>1256</ele>
        <time>2020-06-17T19:58:30Z</time>
      </trkpt>
      <trkpt lat="45.03328" lon="5.50451">
        <ele>1257</ele>
        <time>2020-06-17T19:58:32Z</time>
      </trkpt>
      <trkpt lat="45.03333" lon="5.50441">
        <ele>1259</ele>
        <time>2020-06-17T19:58:34Z</time>
      </trkpt>
      <trkpt lat="45.03333" lon="5.50433">
        <ele>1260</ele>
        <time>2020-06-17T19:58:36Z</time>
      </trkpt>
      <trkpt lat="45.03325" lon="5.50405">
        <ele>1264</ele>
        <time>2020-06-17T19:58:41Z</time>
      </trkpt>
      <trkpt lat="45.03296" lon="5.50336">
        <ele>1270</ele>
        <time>2020-06-17T19:58:54Z</time>
      </trkpt>
      <trkpt lat="45.03295" lon="5.5032">
        <ele>1272</ele>
        <time>2020-06-17T19:58:57Z</time>
      </trkpt>
      <trkpt lat="45.03297" lon="5.50312">
        <ele>1273</ele>
        <time>2020-06-17T19:58:58Z</time>
      </trkpt>
      <trkpt lat="45.03307" lon="5.50298">
        <ele>1275</ele>
        <time>2020-06-17T19:59:01Z</time>
      </trkpt>
      <trkpt lat="45.03342" lon="5.50275">
        <ele>1280</ele>
        <time>2020-06-17T19:59:10Z</time>
      </trkpt>
      <trkpt lat="45.03345" lon="5.50271">
        <ele>1280</ele>
        <time>2020-06-17T19:59:11Z</time>
      </trkpt>
      <trkpt lat="45.03364" lon="5.50262">
        <ele>1282</ele>
        <time>2020-06-17T19:59:16Z</time>
      </trkpt>
      <trkpt lat="45.03376" lon="5.50259">
        <ele>1283</ele>
        <time>2020-06-17T19:59:19Z</time>
      </trkpt>
      <trkpt lat="45.03389" lon="5.50263">
        <ele>1283</ele>
        <time>2020-06-17T19:59:22Z</time>
      </trkpt>
      <trkpt lat="45.03398" lon="5.50258">
        <ele>1284</ele>
        <time>2020-06-17T19:59:24Z</time>
      </trkpt>
      <trkpt lat="45.03404" lon="5.50243">
        <ele>1285</ele>
        <time>2020-06-17T19:59:27Z</time>
      </trkpt>
      <trkpt lat="45.03407" lon="5.50216">
        <ele>1288</ele>
        <time>2020-06-17T19:59:31Z</time>
      </trkpt>
      <trkpt lat="45.03413" lon="5.50193">
        <ele>1290</ele>
        <time>2020-06-17T19:59:35Z</time>
      </trkpt>
      <trkpt lat="45.03414" lon="5.50169">
        <ele>1293</ele>
        <time>2020-06-17T19:59:39Z</time>
      </trkpt>
      <trkpt lat="45.03422" lon="5.50137">
        <ele>1298</ele>
        <time>2020-06-17T19:59:45Z</time>
      </trkpt>
      <trkpt lat="45.03424" lon="5.50135">
        <ele>1298</ele>
        <time>2020-06-17T19:59:46Z</time>
      </trkpt>
      <trkpt lat="45.03428" lon="5.50138">
        <ele>1298</ele>
        <time>2020-06-17T19:59:47Z</time>
      </trkpt>
      <trkpt lat="45.03445" lon="5.5018">
        <ele>1294</ele>
        <time>2020-06-17T19:59:55Z</time>
      </trkpt>
      <trkpt lat="45.03455" lon="5.50188">
        <ele>1294</ele>
        <time>2020-06-17T19:59:57Z</time>
      </trkpt>
      <trkpt lat="45.03468" lon="5.50205">
        <ele>1293</ele>
        <time>2020-06-17T20:00:01Z</time>
      </trkpt>
      <trkpt lat="45.03477" lon="5.50229">
        <ele>1291</ele>
        <time>2020-06-17T20:00:06Z</time>
      </trkpt>
      <trkpt lat="45.03484" lon="5.50238">
        <ele>1290</ele>
        <time>2020-06-17T20:00:08Z</time>
      </trkpt>
      <trkpt lat="45.03516" lon="5.50229">
        <ele>1292</ele>
        <time>2020-06-17T20:00:16Z</time>
      </trkpt>
      <trkpt lat="45.03529" lon="5.5023">
        <ele>1291</ele>
        <time>2020-06-17T20:00:19Z</time>
      </trkpt>
      <trkpt lat="45.03539" lon="5.50234">
        <ele>1290</ele>
        <time>2020-06-17T20:00:21Z</time>
      </trkpt>
      <trkpt lat="45.03584" lon="5.50279">
        <ele>1281</ele>
        <time>2020-06-17T20:00:34Z</time>
      </trkpt>
      <trkpt lat="45.03587" lon="5.50291">
        <ele>1279</ele>
        <time>2020-06-17T20:00:36Z</time>
      </trkpt>
      <trkpt lat="45.03587" lon="5.50311">
        <ele>1276</ele>
        <time>2020-06-17T20:00:40Z</time>
      </trkpt>
      <trkpt lat="45.03586" lon="5.50326">
        <ele>1273</ele>
        <time>2020-06-17T20:00:42Z</time>
      </trkpt>
      <trkpt lat="45.0358" lon="5.50341">
        <ele>1271</ele>
        <time>2020-06-17T20:00:45Z</time>
      </trkpt>
      <trkpt lat="45.03579" lon="5.50362">
        <ele>1268</ele>
        <time>2020-06-17T20:00:48Z</time>
      </trkpt>
      <trkpt lat="45.03584" lon="5.50371">
        <ele>1266</ele>
        <time>2020-06-17T20:00:50Z</time>
      </trkpt>
      <trkpt lat="45.0359" lon="5.50369">
        <ele>1267</ele>
        <time>2020-06-17T20:00:52Z</time>
      </trkpt>
      <trkpt lat="45.03599" lon="5.50371">
        <ele>1267</ele>
        <time>2020-06-17T20:00:54Z</time>
      </trkpt>
      <trkpt lat="45.03609" lon="5.50382">
        <ele>1266</ele>
        <time>2020-06-17T20:00:57Z</time>
      </trkpt>
      <trkpt lat="45.03614" lon="5.50393">
        <ele>1265</ele>
        <time>2020-06-17T20:00:59Z</time>
      </trkpt>
      <trkpt lat="45.03621" lon="5.50425">
        <ele>1262</ele>
        <time>2020-06-17T20:01:04Z</time>
      </trkpt>
      <trkpt lat="45.03623" lon="5.5047">
        <ele>1258</ele>
        <time>2020-06-17T20:01:12Z</time>
      </trkpt>
      <trkpt lat="45.0363" lon="5.50495">
        <ele>1257</ele>
        <time>2020-06-17T20:01:16Z</time>
      </trkpt>
      <trkpt lat="45.03637" lon="5.50544">
        <ele>1256</ele>
        <time>2020-06-17T20:01:25Z</time>
      </trkpt>
      <trkpt lat="45.03641" lon="5.50562">
        <ele>1255</ele>
        <time>2020-06-17T20:01:28Z</time>
      </trkpt>
      <trkpt lat="45.03661" lon="5.50614">
        <ele>1253</ele>
        <time>2020-06-17T20:01:37Z</time>
      </trkpt>
      <trkpt lat="45.03667" lon="5.50641">
        <ele>1252</ele>
        <time>2020-06-17T20:01:42Z</time>
      </trkpt>
      <trkpt lat="45.03673" lon="5.50692">
        <ele>1249</ele>
        <time>2020-06-17T20:01:51Z</time>
      </trkpt>
      <trkpt lat="45.03675" lon="5.50741">
        <ele>1246</ele>
        <time>2020-06-17T20:01:59Z</time>
      </trkpt>
      <trkpt lat="45.03685" lon="5.50822">
        <ele>1245</ele>
        <time>2020-06-17T20:02:12Z</time>
      </trkpt>
      <trkpt lat="45.03681" lon="5.50848">
        <ele>1246</ele>
        <time>2020-06-17T20:02:17Z</time>
      </trkpt>
      <trkpt lat="45.03674" lon="5.50871">
        <ele>1248</ele>
        <time>2020-06-17T20:02:21Z</time>
      </trkpt>
      <trkpt lat="45.03675" lon="5.50898">
        <ele>1250</ele>
        <time>2020-06-17T20:02:25Z</time>
      </trkpt>
      <trkpt lat="45.03645" lon="5.50967">
        <ele>1253</ele>
        <time>2020-06-17T20:02:39Z</time>
      </trkpt>
      <trkpt lat="45.03627" lon="5.51017">
        <ele>1255</ele>
        <time>2020-06-17T20:02:48Z</time>
      </trkpt>
      <trkpt lat="45.03609" lon="5.51048">
        <ele>1254</ele>
        <time>2020-06-17T20:02:55Z</time>
      </trkpt>
      <trkpt lat="45.03609" lon="5.51061">
        <ele>1255</ele>
        <time>2020-06-17T20:02:57Z</time>
      </trkpt>
      <trkpt lat="45.03602" lon="5.51095">
        <ele>1256</ele>
        <time>2020-06-17T20:03:03Z</time>
      </trkpt>
      <trkpt lat="45.03591" lon="5.51125">
        <ele>1255</ele>
        <time>2020-06-17T20:03:08Z</time>
      </trkpt>
      <trkpt lat="45.03588" lon="5.51141">
        <ele>1255</ele>
        <time>2020-06-17T20:03:11Z</time>
      </trkpt>
      <trkpt lat="45.03582" lon="5.51197">
        <ele>1256</ele>
        <time>2020-06-17T20:03:20Z</time>
      </trkpt>
      <trkpt lat="45.03578" lon="5.51211">
        <ele>1257</ele>
        <time>2020-06-17T20:03:23Z</time>
      </trkpt>
      <trkpt lat="45.03581" lon="5.51243">
        <ele>1259</ele>
        <time>2020-06-17T20:03:28Z</time>
      </trkpt>
      <trkpt lat="45.03579" lon="5.51252">
        <ele>1259</ele>
        <time>2020-06-17T20:03:30Z</time>
      </trkpt>
      <trkpt lat="45.03574" lon="5.51268">
        <ele>1259</ele>
        <time>2020-06-17T20:03:32Z</time>
      </trkpt>
      <trkpt lat="45.03567" lon="5.51279">
        <ele>1260</ele>
        <time>2020-06-17T20:03:35Z</time>
      </trkpt>
      <trkpt lat="45.03565" lon="5.51293">
        <ele>1260</ele>
        <time>2020-06-17T20:03:37Z</time>
      </trkpt>
      <trkpt lat="45.0354" lon="5.51351">
        <ele>1261</ele>
        <time>2020-06-17T20:03:48Z</time>
      </trkpt>
      <trkpt lat="45.03524" lon="5.51367">
        <ele>1261</ele>
        <time>2020-06-17T20:03:53Z</time>
      </trkpt>
      <trkpt lat="45.03512" lon="5.51373">
        <ele>1260</ele>
        <time>2020-06-17T20:03:56Z</time>
      </trkpt>
      <trkpt lat="45.03498" lon="5.51362">
        <ele>1261</ele>
        <time>2020-06-17T20:04:00Z</time>
      </trkpt>
      <trkpt lat="45.03489" lon="5.51359">
        <ele>1262</ele>
        <time>2020-06-17T20:04:02Z</time>
      </trkpt>
      <trkpt lat="45.03484" lon="5.51351">
        <ele>1262</ele>
        <time>2020-06-17T20:04:04Z</time>
      </trkpt>
      <trkpt lat="45.03481" lon="5.51324">
        <ele>1263</ele>
        <time>2020-06-17T20:04:08Z</time>
      </trkpt>
      <trkpt lat="45.03472" lon="5.51298">
        <ele>1263</ele>
        <time>2020-06-17T20:04:13Z</time>
      </trkpt>
      <trkpt lat="45.03462" lon="5.51292">
        <ele>1263</ele>
        <time>2020-06-17T20:04:16Z</time>
      </trkpt>
      <trkpt lat="45.03451" lon="5.51289">
        <ele>1264</ele>
        <time>2020-06-17T20:04:18Z</time>
      </trkpt>
      <trkpt lat="45.03442" lon="5.51282">
        <ele>1265</ele>
        <time>2020-06-17T20:04:21Z</time>
      </trkpt>
      <trkpt lat="45.03424" lon="5.51261">
        <ele>1267</ele>
        <time>2020-06-17T20:04:26Z</time>
      </trkpt>
      <trkpt lat="45.03415" lon="5.51255">
        <ele>1268</ele>
        <time>2020-06-17T20:04:28Z</time>
      </trkpt>
      <trkpt lat="45.03405" lon="5.51255">
        <ele>1268</ele>
        <time>2020-06-17T20:04:31Z</time>
      </trkpt>
      <trkpt lat="45.03387" lon="5.51263">
        <ele>1269</ele>
        <time>2020-06-17T20:04:35Z</time>
      </trkpt>
      <trkpt lat="45.03376" lon="5.5126">
        <ele>1269</ele>
        <time>2020-06-17T20:04:38Z</time>
      </trkpt>
      <trkpt lat="45.03351" lon="5.51268">
        <ele>1270</ele>
        <time>2020-06-17T20:04:44Z</time>
      </trkpt>
      <trkpt lat="45.03315" lon="5.51288">
        <ele>1267</ele>
        <time>2020-06-17T20:04:53Z</time>
      </trkpt>
      <trkpt lat="45.03235" lon="5.51322">
        <ele>1259</ele>
        <time>2020-06-17T20:05:12Z</time>
      </trkpt>
      <trkpt lat="45.03209" lon="5.51339">
        <ele>1256</ele>
        <time>2020-06-17T20:05:19Z</time>
      </trkpt>
      <trkpt lat="45.03178" lon="5.51348">
        <ele>1251</ele>
        <time>2020-06-17T20:05:26Z</time>
      </trkpt>
      <trkpt lat="45.03134" lon="5.51369">
        <ele>1244</ele>
        <time>2020-06-17T20:05:37Z</time>
      </trkpt>
      <trkpt lat="45.03067" lon="5.51377">
        <ele>1237</ele>
        <time>2020-06-17T20:05:53Z</time>
      </trkpt>
      <trkpt lat="45.03025" lon="5.51356">
        <ele>1234</ele>
        <time>2020-06-17T20:06:03Z</time>
      </trkpt>
      <trkpt lat="45.03003" lon="5.51358">
        <ele>1233</ele>
        <time>2020-06-17T20:06:08Z</time>
      </trkpt>
      <trkpt lat="45.02994" lon="5.51368">
        <ele>1232</ele>
        <time>2020-06-17T20:06:11Z</time>
      </trkpt>
      <trkpt lat="45.02972" lon="5.51404">
        <ele>1229</ele>
        <time>2020-06-17T20:06:19Z</time>
      </trkpt>
      <trkpt lat="45.02965" lon="5.51432">
        <ele>1228</ele>
        <time>2020-06-17T20:06:24Z</time>
      </trkpt>
      <trkpt lat="45.02958" lon="5.51445">
        <ele>1226</ele>
        <time>2020-06-17T20:06:26Z</time>
      </trkpt>
      <trkpt lat="45.02951" lon="5.51455">
        <ele>1225</ele>
        <time>2020-06-17T20:06:29Z</time>
      </trkpt>
      <trkpt lat="45.02932" lon="5.51473">
        <ele>1222</ele>
        <time>2020-06-17T20:06:34Z</time>
      </trkpt>
      <trkpt lat="45.0292" lon="5.51491">
        <ele>1220</ele>
        <time>2020-06-17T20:06:38Z</time>
      </trkpt>
      <trkpt lat="45.029" lon="5.51528">
        <ele>1212</ele>
        <time>2020-06-17T20:06:46Z</time>
      </trkpt>
      <trkpt lat="45.0289" lon="5.51552">
        <ele>1208</ele>
        <time>2020-06-17T20:06:51Z</time>
      </trkpt>
      <trkpt lat="45.0284" lon="5.5159">
        <ele>1199</ele>
        <time>2020-06-17T20:07:04Z</time>
      </trkpt>
      <trkpt lat="45.02829" lon="5.51593">
        <ele>1197</ele>
        <time>2020-06-17T20:07:06Z</time>
      </trkpt>
      <trkpt lat="45.02817" lon="5.51589">
        <ele>1197</ele>
        <time>2020-06-17T20:07:09Z</time>
      </trkpt>
      <trkpt lat="45.02803" lon="5.51591">
        <ele>1196</ele>
        <time>2020-06-17T20:07:13Z</time>
      </trkpt>
      <trkpt lat="45.02793" lon="5.51589">
        <ele>1196</ele>
        <time>2020-06-17T20:07:15Z</time>
      </trkpt>
      <trkpt lat="45.02774" lon="5.5158">
        <ele>1196</ele>
        <time>2020-06-17T20:07:20Z</time>
      </trkpt>
      <trkpt lat="45.02729" lon="5.51567">
        <ele>1194</ele>
        <time>2020-06-17T20:07:30Z</time>
      </trkpt>
      <trkpt lat="45.02708" lon="5.51565">
        <ele>1193</ele>
        <time>2020-06-17T20:07:35Z</time>
      </trkpt>
      <trkpt lat="45.02701" lon="5.51559">
        <ele>1193</ele>
        <time>2020-06-17T20:07:37Z</time>
      </trkpt>
      <trkpt lat="45.02691" lon="5.51538">
        <ele>1193</ele>
        <time>2020-06-17T20:07:41Z</time>
      </trkpt>
      <trkpt lat="45.02683" lon="5.5153">
        <ele>1193</ele>
        <time>2020-06-17T20:07:44Z</time>
      </trkpt>
      <trkpt lat="45.02671" lon="5.51527">
        <ele>1192</ele>
        <time>2020-06-17T20:07:46Z</time>
      </trkpt>
      <trkpt lat="45.02559" lon="5.51588">
        <ele>1181</ele>
        <time>2020-06-17T20:08:14Z</time>
      </trkpt>
      <trkpt lat="45.02548" lon="5.51593">
        <ele>1180</ele>
        <time>2020-06-17T20:08:17Z</time>
      </trkpt>
      <trkpt lat="45.02525" lon="5.51597">
        <ele>1177</ele>
        <time>2020-06-17T20:08:23Z</time>
      </trkpt>
      <trkpt lat="45.02515" lon="5.51601">
        <ele>1176</ele>
        <time>2020-06-17T20:08:25Z</time>
      </trkpt>
      <trkpt lat="45.02494" lon="5.51595">
        <ele>1175</ele>
        <time>2020-06-17T20:08:30Z</time>
      </trkpt>
      <trkpt lat="45.0248" lon="5.51581">
        <ele>1175</ele>
        <time>2020-06-17T20:08:34Z</time>
      </trkpt>
      <trkpt lat="45.02457" lon="5.51566">
        <ele>1174</ele>
        <time>2020-06-17T20:08:40Z</time>
      </trkpt>
      <trkpt lat="45.02446" lon="5.51568">
        <ele>1173</ele>
        <time>2020-06-17T20:08:43Z</time>
      </trkpt>
      <trkpt lat="45.02431" lon="5.51579">
        <ele>1171</ele>
        <time>2020-06-17T20:08:46Z</time>
      </trkpt>
      <trkpt lat="45.024" lon="5.51585">
        <ele>1169</ele>
        <time>2020-06-17T20:08:54Z</time>
      </trkpt>
      <trkpt lat="45.02389" lon="5.5159">
        <ele>1168</ele>
        <time>2020-06-17T20:08:56Z</time>
      </trkpt>
      <trkpt lat="45.02374" lon="5.51614">
        <ele>1165</ele>
        <time>2020-06-17T20:09:02Z</time>
      </trkpt>
      <trkpt lat="45.02371" lon="5.51623">
        <ele>1164</ele>
        <time>2020-06-17T20:09:03Z</time>
      </trkpt>
      <trkpt lat="45.02372" lon="5.51657">
        <ele>1161</ele>
        <time>2020-06-17T20:09:09Z</time>
      </trkpt>
      <trkpt lat="45.0237" lon="5.51663">
        <ele>1160</ele>
        <time>2020-06-17T20:09:10Z</time>
      </trkpt>
      <trkpt lat="45.02363" lon="5.51669">
        <ele>1160</ele>
        <time>2020-06-17T20:09:12Z</time>
      </trkpt>
      <trkpt lat="45.02346" lon="5.51674">
        <ele>1160</ele>
        <time>2020-06-17T20:09:16Z</time>
      </trkpt>
      <trkpt lat="45.02338" lon="5.51684">
        <ele>1160</ele>
        <time>2020-06-17T20:09:19Z</time>
      </trkpt>
      <trkpt lat="45.02331" lon="5.51714">
        <ele>1158</ele>
        <time>2020-06-17T20:09:24Z</time>
      </trkpt>
      <trkpt lat="45.02334" lon="5.51733">
        <ele>1156</ele>
        <time>2020-06-17T20:09:27Z</time>
      </trkpt>
      <trkpt lat="45.0234" lon="5.51748">
        <ele>1154</ele>
        <time>2020-06-17T20:09:30Z</time>
      </trkpt>
      <trkpt lat="45.02338" lon="5.51757">
        <ele>1155</ele>
        <time>2020-06-17T20:09:31Z</time>
      </trkpt>
      <trkpt lat="45.02322" lon="5.51746">
        <ele>1156</ele>
        <time>2020-06-17T20:09:36Z</time>
      </trkpt>
      <trkpt lat="45.02306" lon="5.51741">
        <ele>1157</ele>
        <time>2020-06-17T20:09:39Z</time>
      </trkpt>
      <trkpt lat="45.0227" lon="5.51722">
        <ele>1159</ele>
        <time>2020-06-17T20:09:48Z</time>
      </trkpt>
      <trkpt lat="45.02257" lon="5.51718">
        <ele>1159</ele>
        <time>2020-06-17T20:09:51Z</time>
      </trkpt>
      <trkpt lat="45.02229" lon="5.51715">
        <ele>1160</ele>
        <time>2020-06-17T20:09:58Z</time>
      </trkpt>
      <trkpt lat="45.02177" lon="5.51684">
        <ele>1160</ele>
        <time>2020-06-17T20:10:11Z</time>
      </trkpt>
      <trkpt lat="45.02134" lon="5.51668">
        <ele>1161</ele>
        <time>2020-06-17T20:10:22Z</time>
      </trkpt>
      <trkpt lat="45.02113" lon="5.51657">
        <ele>1162</ele>
        <time>2020-06-17T20:10:27Z</time>
      </trkpt>
      <trkpt lat="45.02091" lon="5.51631">
        <ele>1164</ele>
        <time>2020-06-17T20:10:34Z</time>
      </trkpt>
      <trkpt lat="45.02082" lon="5.51596">
        <ele>1165</ele>
        <time>2020-06-17T20:10:40Z</time>
      </trkpt>
      <trkpt lat="45.02069" lon="5.51575">
        <ele>1167</ele>
        <time>2020-06-17T20:10:44Z</time>
      </trkpt>
      <trkpt lat="45.0205" lon="5.51563">
        <ele>1168</ele>
        <time>2020-06-17T20:10:49Z</time>
      </trkpt>
      <trkpt lat="45.02032" lon="5.51548">
        <ele>1170</ele>
        <time>2020-06-17T20:10:54Z</time>
      </trkpt>
      <trkpt lat="45.02019" lon="5.51543">
        <ele>1170</ele>
        <time>2020-06-17T20:10:57Z</time>
      </trkpt>
      <trkpt lat="45.01979" lon="5.5154">
        <ele>1173</ele>
        <time>2020-06-17T20:11:07Z</time>
      </trkpt>
      <trkpt lat="45.01961" lon="5.51542">
        <ele>1174</ele>
        <time>2020-06-17T20:11:11Z</time>
      </trkpt>
      <trkpt lat="45.01954" lon="5.51545">
        <ele>1174</ele>
        <time>2020-06-17T20:11:12Z</time>
      </trkpt>
      <trkpt lat="45.01909" lon="5.51583">
        <ele>1179</ele>
        <time>2020-06-17T20:11:25Z</time>
      </trkpt>
      <trkpt lat="45.01896" lon="5.51597">
        <ele>1180</ele>
        <time>2020-06-17T20:11:28Z</time>
      </trkpt>
      <trkpt lat="45.01847" lon="5.51614">
        <ele>1182</ele>
        <time>2020-06-17T20:11:40Z</time>
      </trkpt>
      <trkpt lat="45.01834" lon="5.51614">
        <ele>1182</ele>
        <time>2020-06-17T20:11:43Z</time>
      </trkpt>
      <trkpt lat="45.01813" lon="5.51619">
        <ele>1183</ele>
        <time>2020-06-17T20:11:48Z</time>
      </trkpt>
      <trkpt lat="45.01813" lon="5.51623">
        <ele>1184</ele>
        <time>2020-06-17T20:11:49Z</time>
      </trkpt>
      <trkpt lat="45.01824" lon="5.51633">
        <ele>1185</ele>
        <time>2020-06-17T20:11:52Z</time>
      </trkpt>
      <trkpt lat="45.01852" lon="5.51643">
        <ele>1185</ele>
        <time>2020-06-17T20:11:59Z</time>
      </trkpt>
      <trkpt lat="45.01866" lon="5.51654">
        <ele>1185</ele>
        <time>2020-06-17T20:12:02Z</time>
      </trkpt>
      <trkpt lat="45.01867" lon="5.51682">
        <ele>1187</ele>
        <time>2020-06-17T20:12:07Z</time>
      </trkpt>
      <trkpt lat="45.01878" lon="5.51695">
        <ele>1188</ele>
        <time>2020-06-17T20:12:10Z</time>
      </trkpt>
      <trkpt lat="45.01894" lon="5.51721">
        <ele>1188</ele>
        <time>2020-06-17T20:12:16Z</time>
      </trkpt>
      <trkpt lat="45.01894" lon="5.51732">
        <ele>1189</ele>
        <time>2020-06-17T20:12:18Z</time>
      </trkpt>
      <trkpt lat="45.01885" lon="5.51766">
        <ele>1193</ele>
        <time>2020-06-17T20:12:24Z</time>
      </trkpt>
      <trkpt lat="45.01877" lon="5.51778">
        <ele>1194</ele>
        <time>2020-06-17T20:12:27Z</time>
      </trkpt>
      <trkpt lat="45.01875" lon="5.51786">
        <ele>1195</ele>
        <time>2020-06-17T20:12:28Z</time>
      </trkpt>
      <trkpt lat="45.01876" lon="5.51793">
        <ele>1196</ele>
        <time>2020-06-17T20:12:29Z</time>
      </trkpt>
      <trkpt lat="45.01868" lon="5.51823">
        <ele>1199</ele>
        <time>2020-06-17T20:12:35Z</time>
      </trkpt>
      <trkpt lat="45.01863" lon="5.51858">
        <ele>1200</ele>
        <time>2020-06-17T20:12:40Z</time>
      </trkpt>
      <trkpt lat="45.01841" lon="5.51894">
        <ele>1201</ele>
        <time>2020-06-17T20:12:48Z</time>
      </trkpt>
      <trkpt lat="45.01833" lon="5.51912">
        <ele>1201</ele>
        <time>2020-06-17T20:12:52Z</time>
      </trkpt>
      <trkpt lat="45.01832" lon="5.5194">
        <ele>1203</ele>
        <time>2020-06-17T20:12:56Z</time>
      </trkpt>
      <trkpt lat="45.01862" lon="5.51984">
        <ele>1205</ele>
        <time>2020-06-17T20:13:07Z</time>
      </trkpt>
      <trkpt lat="45.01863" lon="5.51992">
        <ele>1205</ele>
        <time>2020-06-17T20:13:08Z</time>
      </trkpt>
      <trkpt lat="45.01859" lon="5.52007">
        <ele>1207</ele>
        <time>2020-06-17T20:13:11Z</time>
      </trkpt>
      <trkpt lat="45.01861" lon="5.52032">
        <ele>1208</ele>
        <time>2020-06-17T20:13:15Z</time>
      </trkpt>
      <trkpt lat="45.0187" lon="5.52045">
        <ele>1209</ele>
        <time>2020-06-17T20:13:18Z</time>
      </trkpt>
      <trkpt lat="45.01879" lon="5.52076">
        <ele>1211</ele>
        <time>2020-06-17T20:13:23Z</time>
      </trkpt>
      <trkpt lat="45.01889" lon="5.52076">
        <ele>1210</ele>
        <time>2020-06-17T20:13:26Z</time>
      </trkpt>
      <trkpt lat="45.01898" lon="5.52073">
        <ele>1210</ele>
        <time>2020-06-17T20:13:28Z</time>
      </trkpt>
      <trkpt lat="45.01914" lon="5.52088">
        <ele>1210</ele>
        <time>2020-06-17T20:13:32Z</time>
      </trkpt>
      <trkpt lat="45.01923" lon="5.52092">
        <ele>1210</ele>
        <time>2020-06-17T20:13:34Z</time>
      </trkpt>
      <trkpt lat="45.01954" lon="5.52086">
        <ele>1207</ele>
        <time>2020-06-17T20:13:42Z</time>
      </trkpt>
      <trkpt lat="45.01985" lon="5.52084">
        <ele>1204</ele>
        <time>2020-06-17T20:13:49Z</time>
      </trkpt>
      <trkpt lat="45.01995" lon="5.52088">
        <ele>1203</ele>
        <time>2020-06-17T20:13:51Z</time>
      </trkpt>
      <trkpt lat="45.02011" lon="5.52106">
        <ele>1204</ele>
        <time>2020-06-17T20:13:56Z</time>
      </trkpt>
      <trkpt lat="45.02038" lon="5.52157">
        <ele>1209</ele>
        <time>2020-06-17T20:14:07Z</time>
      </trkpt>
      <trkpt lat="45.02039" lon="5.52184">
        <ele>1212</ele>
        <time>2020-06-17T20:14:11Z</time>
      </trkpt>
      <trkpt lat="45.02043" lon="5.522">
        <ele>1213</ele>
        <time>2020-06-17T20:14:14Z</time>
      </trkpt>
      <trkpt lat="45.02042" lon="5.52211">
        <ele>1214</ele>
        <time>2020-06-17T20:14:16Z</time>
      </trkpt>
      <trkpt lat="45.02028" lon="5.52239">
        <ele>1219</ele>
        <time>2020-06-17T20:14:21Z</time>
      </trkpt>
      <trkpt lat="45.02022" lon="5.52271">
        <ele>1221</ele>
        <time>2020-06-17T20:14:27Z</time>
      </trkpt>
      <trkpt lat="45.02037" lon="5.52296">
        <ele>1220</ele>
        <time>2020-06-17T20:14:32Z</time>
      </trkpt>
      <trkpt lat="45.02036" lon="5.52309">
        <ele>1221</ele>
        <time>2020-06-17T20:14:34Z</time>
      </trkpt>
      <trkpt lat="45.02027" lon="5.52308">
        <ele>1221</ele>
        <time>2020-06-17T20:14:37Z</time>
      </trkpt>
      <trkpt lat="45.01993" lon="5.52336">
        <ele>1225</ele>
        <time>2020-06-17T20:14:46Z</time>
      </trkpt>
      <trkpt lat="45.01983" lon="5.52337">
        <ele>1225</ele>
        <time>2020-06-17T20:14:48Z</time>
      </trkpt>
      <trkpt lat="45.01964" lon="5.52346">
        <ele>1226</ele>
        <time>2020-06-17T20:14:53Z</time>
      </trkpt>
      <trkpt lat="45.01942" lon="5.52346">
        <ele>1227</ele>
        <time>2020-06-17T20:14:58Z</time>
      </trkpt>
      <trkpt lat="45.0191" lon="5.5235">
        <ele>1228</ele>
        <time>2020-06-17T20:15:05Z</time>
      </trkpt>
      <trkpt lat="45.0189" lon="5.52346">
        <ele>1229</ele>
        <time>2020-06-17T20:15:10Z</time>
      </trkpt>
      <trkpt lat="45.01856" lon="5.52344">
        <ele>1231</ele>
        <time>2020-06-17T20:15:18Z</time>
      </trkpt>
      <trkpt lat="45.01847" lon="5.5234">
        <ele>1231</ele>
        <time>2020-06-17T20:15:20Z</time>
      </trkpt>
      <trkpt lat="45.01838" lon="5.52342">
        <ele>1232</ele>
        <time>2020-06-17T20:15:22Z</time>
      </trkpt>
      <trkpt lat="45.01828" lon="5.52348">
        <ele>1233</ele>
        <time>2020-06-17T20:15:25Z</time>
      </trkpt>
      <trkpt lat="45.01789" lon="5.5235">
        <ele>1237</ele>
        <time>2020-06-17T20:15:34Z</time>
      </trkpt>
      <trkpt lat="45.0178" lon="5.52348">
        <ele>1238</ele>
        <time>2020-06-17T20:15:36Z</time>
      </trkpt>
      <trkpt lat="45.01773" lon="5.5234">
        <ele>1238</ele>
        <time>2020-06-17T20:15:38Z</time>
      </trkpt>
      <trkpt lat="45.01763" lon="5.52335">
        <ele>1239</ele>
        <time>2020-06-17T20:15:41Z</time>
      </trkpt>
      <trkpt lat="45.01725" lon="5.52354">
        <ele>1241</ele>
        <time>2020-06-17T20:15:50Z</time>
      </trkpt>
      <trkpt lat="45.01701" lon="5.52378">
        <ele>1243</ele>
        <time>2020-06-17T20:15:57Z</time>
      </trkpt>
      <trkpt lat="45.01682" lon="5.5239">
        <ele>1244</ele>
        <time>2020-06-17T20:16:02Z</time>
      </trkpt>
      <trkpt lat="45.01663" lon="5.5239">
        <ele>1244</ele>
        <time>2020-06-17T20:16:06Z</time>
      </trkpt>
      <trkpt lat="45.01654" lon="5.52395">
        <ele>1245</ele>
        <time>2020-06-17T20:16:09Z</time>
      </trkpt>
      <trkpt lat="45.01642" lon="5.52396">
        <ele>1245</ele>
        <time>2020-06-17T20:16:11Z</time>
      </trkpt>
      <trkpt lat="45.01624" lon="5.52405">
        <ele>1247</ele>
        <time>2020-06-17T20:16:16Z</time>
      </trkpt>
      <trkpt lat="45.01614" lon="5.52404">
        <ele>1247</ele>
        <time>2020-06-17T20:16:18Z</time>
      </trkpt>
      <trkpt lat="45.01573" lon="5.5241">
        <ele>1249</ele>
        <time>2020-06-17T20:16:28Z</time>
      </trkpt>
      <trkpt lat="45.01565" lon="5.52406">
        <ele>1250</ele>
        <time>2020-06-17T20:16:30Z</time>
      </trkpt>
      <trkpt lat="45.01541" lon="5.52428">
        <ele>1253</ele>
        <time>2020-06-17T20:16:36Z</time>
      </trkpt>
      <trkpt lat="45.01513" lon="5.52445">
        <ele>1255</ele>
        <time>2020-06-17T20:16:44Z</time>
      </trkpt>
      <trkpt lat="45.01507" lon="5.52454">
        <ele>1256</ele>
        <time>2020-06-17T20:16:46Z</time>
      </trkpt>
      <trkpt lat="45.01505" lon="5.52468">
        <ele>1257</ele>
        <time>2020-06-17T20:16:48Z</time>
      </trkpt>
      <trkpt lat="45.01509" lon="5.52479">
        <ele>1258</ele>
        <time>2020-06-17T20:16:50Z</time>
      </trkpt>
      <trkpt lat="45.01507" lon="5.52491">
        <ele>1258</ele>
        <time>2020-06-17T20:16:52Z</time>
      </trkpt>
      <trkpt lat="45.01513" lon="5.5253">
        <ele>1265</ele>
        <time>2020-06-17T20:16:59Z</time>
      </trkpt>
      <trkpt lat="45.0152" lon="5.52538">
        <ele>1266</ele>
        <time>2020-06-17T20:17:01Z</time>
      </trkpt>
      <trkpt lat="45.01525" lon="5.52551">
        <ele>1269</ele>
        <time>2020-06-17T20:17:03Z</time>
      </trkpt>
      <trkpt lat="45.01533" lon="5.52556">
        <ele>1271</ele>
        <time>2020-06-17T20:17:05Z</time>
      </trkpt>
      <trkpt lat="45.01543" lon="5.52558">
        <ele>1272</ele>
        <time>2020-06-17T20:17:08Z</time>
      </trkpt>
      <trkpt lat="45.01565" lon="5.52558">
        <ele>1273</ele>
        <time>2020-06-17T20:17:13Z</time>
      </trkpt>
      <trkpt lat="45.01571" lon="5.52567">
        <ele>1275</ele>
        <time>2020-06-17T20:17:15Z</time>
      </trkpt>
      <trkpt lat="45.01568" lon="5.52575">
        <ele>1277</ele>
        <time>2020-06-17T20:17:16Z</time>
      </trkpt>
      <trkpt lat="45.0157" lon="5.52585">
        <ele>1279</ele>
        <time>2020-06-17T20:17:18Z</time>
      </trkpt>
      <trkpt lat="45.01567" lon="5.52623">
        <ele>1283</ele>
        <time>2020-06-17T20:17:24Z</time>
      </trkpt>
      <trkpt lat="45.01563" lon="5.52635">
        <ele>1285</ele>
        <time>2020-06-17T20:17:26Z</time>
      </trkpt>
      <trkpt lat="45.0156" lon="5.52661">
        <ele>1288</ele>
        <time>2020-06-17T20:17:31Z</time>
      </trkpt>
      <trkpt lat="45.01553" lon="5.5267">
        <ele>1289</ele>
        <time>2020-06-17T20:17:33Z</time>
      </trkpt>
      <trkpt lat="45.0155" lon="5.52682">
        <ele>1289</ele>
        <time>2020-06-17T20:17:35Z</time>
      </trkpt>
      <trkpt lat="45.01552" lon="5.52695">
        <ele>1289</ele>
        <time>2020-06-17T20:17:37Z</time>
      </trkpt>
      <trkpt lat="45.01547" lon="5.52757">
        <ele>1289</ele>
        <time>2020-06-17T20:17:48Z</time>
      </trkpt>
      <trkpt lat="45.0155" lon="5.52786">
        <ele>1289</ele>
        <time>2020-06-17T20:17:52Z</time>
      </trkpt>
      <trkpt lat="45.01548" lon="5.52836">
        <ele>1290</ele>
        <time>2020-06-17T20:18:01Z</time>
      </trkpt>
      <trkpt lat="45.01551" lon="5.5285">
        <ele>1290</ele>
        <time>2020-06-17T20:18:03Z</time>
      </trkpt>
      <trkpt lat="45.01566" lon="5.52872">
        <ele>1288</ele>
        <time>2020-06-17T20:18:08Z</time>
      </trkpt>
      <trkpt lat="45.01569" lon="5.52885">
        <ele>1288</ele>
        <time>2020-06-17T20:18:10Z</time>
      </trkpt>
      <trkpt lat="45.01595" lon="5.5291">
        <ele>1287</ele>
        <time>2020-06-17T20:18:18Z</time>
      </trkpt>
      <trkpt lat="45.01604" lon="5.52921">
        <ele>1287</ele>
        <time>2020-06-17T20:18:21Z</time>
      </trkpt>
      <trkpt lat="45.0161" lon="5.52933">
        <ele>1286</ele>
        <time>2020-06-17T20:18:23Z</time>
      </trkpt>
      <trkpt lat="45.01621" lon="5.52935">
        <ele>1285</ele>
        <time>2020-06-17T20:18:26Z</time>
      </trkpt>
      <trkpt lat="45.01631" lon="5.52927">
        <ele>1285</ele>
        <time>2020-06-17T20:18:28Z</time>
      </trkpt>
      <trkpt lat="45.01645" lon="5.52903">
        <ele>1285</ele>
        <time>2020-06-17T20:18:33Z</time>
      </trkpt>
      <trkpt lat="45.01664" lon="5.52903">
        <ele>1285</ele>
        <time>2020-06-17T20:18:38Z</time>
      </trkpt>
      <trkpt lat="45.01682" lon="5.52887">
        <ele>1283</ele>
        <time>2020-06-17T20:18:43Z</time>
      </trkpt>
      <trkpt lat="45.0169" lon="5.52876">
        <ele>1283</ele>
        <time>2020-06-17T20:18:45Z</time>
      </trkpt>
      <trkpt lat="45.01739" lon="5.5278">
        <ele>1289</ele>
        <time>2020-06-17T20:19:05Z</time>
      </trkpt>
      <trkpt lat="45.01769" lon="5.52734">
        <ele>1289</ele>
        <time>2020-06-17T20:19:15Z</time>
      </trkpt>
      <trkpt lat="45.01776" lon="5.52725">
        <ele>1288</ele>
        <time>2020-06-17T20:19:18Z</time>
      </trkpt>
      <trkpt lat="45.01784" lon="5.5272">
        <ele>1287</ele>
        <time>2020-06-17T20:19:20Z</time>
      </trkpt>
      <trkpt lat="45.01791" lon="5.5271">
        <ele>1286</ele>
        <time>2020-06-17T20:19:22Z</time>
      </trkpt>
      <trkpt lat="45.018" lon="5.52686">
        <ele>1286</ele>
        <time>2020-06-17T20:19:26Z</time>
      </trkpt>
      <trkpt lat="45.0182" lon="5.52655">
        <ele>1285</ele>
        <time>2020-06-17T20:19:33Z</time>
      </trkpt>
      <trkpt lat="45.01824" lon="5.52642">
        <ele>1282</ele>
        <time>2020-06-17T20:19:36Z</time>
      </trkpt>
      <trkpt lat="45.01831" lon="5.52634">
        <ele>1281</ele>
        <time>2020-06-17T20:19:38Z</time>
      </trkpt>
      <trkpt lat="45.01838" lon="5.5264">
        <ele>1282</ele>
        <time>2020-06-17T20:19:40Z</time>
      </trkpt>
      <trkpt lat="45.01837" lon="5.52647">
        <ele>1283</ele>
        <time>2020-06-17T20:19:41Z</time>
      </trkpt>
      <trkpt lat="45.01843" lon="5.52658">
        <ele>1284</ele>
        <time>2020-06-17T20:19:43Z</time>
      </trkpt>
      <trkpt lat="45.01838" lon="5.52672">
        <ele>1286</ele>
        <time>2020-06-17T20:19:46Z</time>
      </trkpt>
      <trkpt lat="45.0184" lon="5.52688">
        <ele>1284</ele>
        <time>2020-06-17T20:19:48Z</time>
      </trkpt>
      <trkpt lat="45.01862" lon="5.52715">
        <ele>1279</ele>
        <time>2020-06-17T20:19:55Z</time>
      </trkpt>
      <trkpt lat="45.0189" lon="5.52741">
        <ele>1272</ele>
        <time>2020-06-17T20:20:03Z</time>
      </trkpt>
      <trkpt lat="45.01902" lon="5.52744">
        <ele>1270</ele>
        <time>2020-06-17T20:20:06Z</time>
      </trkpt>
      <trkpt lat="45.01913" lon="5.52738">
        <ele>1269</ele>
        <time>2020-06-17T20:20:09Z</time>
      </trkpt>
      <trkpt lat="45.01932" lon="5.52736">
        <ele>1265</ele>
        <time>2020-06-17T20:20:13Z</time>
      </trkpt>
      <trkpt lat="45.0194" lon="5.52746">
        <ele>1262</ele>
        <time>2020-06-17T20:20:16Z</time>
      </trkpt>
      <trkpt lat="45.01942" lon="5.52759">
        <ele>1260</ele>
        <time>2020-06-17T20:20:18Z</time>
      </trkpt>
      <trkpt lat="45.0194" lon="5.52785">
        <ele>1258</ele>
        <time>2020-06-17T20:20:22Z</time>
      </trkpt>
      <trkpt lat="45.01951" lon="5.52824">
        <ele>1253</ele>
        <time>2020-06-17T20:20:29Z</time>
      </trkpt>
      <trkpt lat="45.0195" lon="5.52851">
        <ele>1251</ele>
        <time>2020-06-17T20:20:33Z</time>
      </trkpt>
      <trkpt lat="45.01956" lon="5.52871">
        <ele>1249</ele>
        <time>2020-06-17T20:20:37Z</time>
      </trkpt>
      <trkpt lat="45.01963" lon="5.52881">
        <ele>1247</ele>
        <time>2020-06-17T20:20:39Z</time>
      </trkpt>
      <trkpt lat="45.01967" lon="5.52896">
        <ele>1246</ele>
        <time>2020-06-17T20:20:42Z</time>
      </trkpt>
      <trkpt lat="45.02008" lon="5.52919">
        <ele>1241</ele>
        <time>2020-06-17T20:20:52Z</time>
      </trkpt>
      <trkpt lat="45.02015" lon="5.52927">
        <ele>1240</ele>
        <time>2020-06-17T20:20:54Z</time>
      </trkpt>
      <trkpt lat="45.02026" lon="5.52948">
        <ele>1239</ele>
        <time>2020-06-17T20:20:59Z</time>
      </trkpt>
      <trkpt lat="45.02048" lon="5.52968">
        <ele>1237</ele>
        <time>2020-06-17T20:21:05Z</time>
      </trkpt>
      <trkpt lat="45.02071" lon="5.53016">
        <ele>1237</ele>
        <time>2020-06-17T20:21:14Z</time>
      </trkpt>
      <trkpt lat="45.02114" lon="5.5308">
        <ele>1240</ele>
        <time>2020-06-17T20:21:29Z</time>
      </trkpt>
      <trkpt lat="45.02121" lon="5.53083">
        <ele>1240</ele>
        <time>2020-06-17T20:21:31Z</time>
      </trkpt>
      <trkpt lat="45.0213" lon="5.5308">
        <ele>1241</ele>
        <time>2020-06-17T20:21:33Z</time>
      </trkpt>
      <trkpt lat="45.02148" lon="5.53064">
        <ele>1241</ele>
        <time>2020-06-17T20:21:38Z</time>
      </trkpt>
      <trkpt lat="45.02157" lon="5.53069">
        <ele>1241</ele>
        <time>2020-06-17T20:21:40Z</time>
      </trkpt>
      <trkpt lat="45.02159" lon="5.53074">
        <ele>1242</ele>
        <time>2020-06-17T20:21:41Z</time>
      </trkpt>
      <trkpt lat="45.02158" lon="5.53101">
        <ele>1244</ele>
        <time>2020-06-17T20:21:46Z</time>
      </trkpt>
      <trkpt lat="45.02161" lon="5.53109">
        <ele>1246</ele>
        <time>2020-06-17T20:21:47Z</time>
      </trkpt>
      <trkpt lat="45.02172" lon="5.53124">
        <ele>1248</ele>
        <time>2020-06-17T20:21:51Z</time>
      </trkpt>
      <trkpt lat="45.02184" lon="5.53135">
        <ele>1249</ele>
        <time>2020-06-17T20:21:54Z</time>
      </trkpt>
      <trkpt lat="45.02192" lon="5.5316">
        <ele>1253</ele>
        <time>2020-06-17T20:21:58Z</time>
      </trkpt>
      <trkpt lat="45.02199" lon="5.53167">
        <ele>1254</ele>
        <time>2020-06-17T20:22:00Z</time>
      </trkpt>
      <trkpt lat="45.02199" lon="5.5317">
        <ele>1255</ele>
        <time>2020-06-17T20:22:01Z</time>
      </trkpt>
      <trkpt lat="45.02218" lon="5.53167">
        <ele>1255</ele>
        <time>2020-06-17T20:22:05Z</time>
      </trkpt>
      <trkpt lat="45.02238" lon="5.53157">
        <ele>1253</ele>
        <time>2020-06-17T20:22:10Z</time>
      </trkpt>
      <trkpt lat="45.02246" lon="5.53149">
        <ele>1252</ele>
        <time>2020-06-17T20:22:13Z</time>
      </trkpt>
      <trkpt lat="45.02237" lon="5.53126">
        <ele>1247</ele>
        <time>2020-06-17T20:22:17Z</time>
      </trkpt>
      <trkpt lat="45.0224" lon="5.53109">
        <ele>1243</ele>
        <time>2020-06-17T20:22:20Z</time>
      </trkpt>
      <trkpt lat="45.02251" lon="5.5307">
        <ele>1234</ele>
        <time>2020-06-17T20:22:27Z</time>
      </trkpt>
      <trkpt lat="45.02255" lon="5.53067">
        <ele>1233</ele>
        <time>2020-06-17T20:22:28Z</time>
      </trkpt>
      <trkpt lat="45.0227" lon="5.5307">
        <ele>1233</ele>
        <time>2020-06-17T20:22:31Z</time>
      </trkpt>
      <trkpt lat="45.02275" lon="5.53067">
        <ele>1232</ele>
        <time>2020-06-17T20:22:33Z</time>
      </trkpt>
      <trkpt lat="45.02279" lon="5.53057">
        <ele>1230</ele>
        <time>2020-06-17T20:22:35Z</time>
      </trkpt>
      <trkpt lat="45.02275" lon="5.53045">
        <ele>1229</ele>
        <time>2020-06-17T20:22:37Z</time>
      </trkpt>
      <trkpt lat="45.02274" lon="5.53035">
        <ele>1227</ele>
        <time>2020-06-17T20:22:38Z</time>
      </trkpt>
      <trkpt lat="45.02276" lon="5.53032">
        <ele>1227</ele>
        <time>2020-06-17T20:22:39Z</time>
      </trkpt>
      <trkpt lat="45.02286" lon="5.53042">
        <ele>1227</ele>
        <time>2020-06-17T20:22:42Z</time>
      </trkpt>
      <trkpt lat="45.02346" lon="5.53075">
        <ele>1227</ele>
        <time>2020-06-17T20:22:57Z</time>
      </trkpt>
      <trkpt lat="45.02347" lon="5.5306">
        <ele>1224</ele>
        <time>2020-06-17T20:22:59Z</time>
      </trkpt>
      <trkpt lat="45.02356" lon="5.53055">
        <ele>1222</ele>
        <time>2020-06-17T20:23:02Z</time>
      </trkpt>
      <trkpt lat="45.02387" lon="5.53059">
        <ele>1219</ele>
        <time>2020-06-17T20:23:09Z</time>
      </trkpt>
      <trkpt lat="45.02395" lon="5.53084">
        <ele>1221</ele>
        <time>2020-06-17T20:23:14Z</time>
      </trkpt>
      <trkpt lat="45.02402" lon="5.53092">
        <ele>1221</ele>
        <time>2020-06-17T20:23:16Z</time>
      </trkpt>
      <trkpt lat="45.02411" lon="5.53096">
        <ele>1220</ele>
        <time>2020-06-17T20:23:18Z</time>
      </trkpt>
      <trkpt lat="45.02436" lon="5.53119">
        <ele>1219</ele>
        <time>2020-06-17T20:23:25Z</time>
      </trkpt>
      <trkpt lat="45.02447" lon="5.53123">
        <ele>1217</ele>
        <time>2020-06-17T20:23:27Z</time>
      </trkpt>
      <trkpt lat="45.0247" lon="5.53125">
        <ele>1214</ele>
        <time>2020-06-17T20:23:33Z</time>
      </trkpt>
      <trkpt lat="45.02504" lon="5.53132">
        <ele>1209</ele>
        <time>2020-06-17T20:23:41Z</time>
      </trkpt>
      <trkpt lat="45.02513" lon="5.53127">
        <ele>1207</ele>
        <time>2020-06-17T20:23:43Z</time>
      </trkpt>
      <trkpt lat="45.0252" lon="5.53118">
        <ele>1205</ele>
        <time>2020-06-17T20:23:45Z</time>
      </trkpt>
      <trkpt lat="45.0255" lon="5.53117">
        <ele>1201</ele>
        <time>2020-06-17T20:23:52Z</time>
      </trkpt>
      <trkpt lat="45.02605" lon="5.53096">
        <ele>1190</ele>
        <time>2020-06-17T20:24:06Z</time>
      </trkpt>
      <trkpt lat="45.02613" lon="5.5309">
        <ele>1188</ele>
        <time>2020-06-17T20:24:08Z</time>
      </trkpt>
      <trkpt lat="45.02629" lon="5.53071">
        <ele>1183</ele>
        <time>2020-06-17T20:24:13Z</time>
      </trkpt>
      <trkpt lat="45.02646" lon="5.53058">
        <ele>1179</ele>
        <time>2020-06-17T20:24:17Z</time>
      </trkpt>
      <trkpt lat="45.02658" lon="5.53058">
        <ele>1177</ele>
        <time>2020-06-17T20:24:20Z</time>
      </trkpt>
      <trkpt lat="45.02678" lon="5.5305">
        <ele>1173</ele>
        <time>2020-06-17T20:24:25Z</time>
      </trkpt>
      <trkpt lat="45.02688" lon="5.5305">
        <ele>1171</ele>
        <time>2020-06-17T20:24:27Z</time>
      </trkpt>
      <trkpt lat="45.02697" lon="5.53053">
        <ele>1168</ele>
        <time>2020-06-17T20:24:29Z</time>
      </trkpt>
      <trkpt lat="45.02709" lon="5.53042">
        <ele>1165</ele>
        <time>2020-06-17T20:24:33Z</time>
      </trkpt>
      <trkpt lat="45.02714" lon="5.53033">
        <ele>1163</ele>
        <time>2020-06-17T20:24:35Z</time>
      </trkpt>
      <trkpt lat="45.02722" lon="5.52971">
        <ele>1156</ele>
        <time>2020-06-17T20:24:45Z</time>
      </trkpt>
      <trkpt lat="45.02734" lon="5.52978">
        <ele>1154</ele>
        <time>2020-06-17T20:24:48Z</time>
      </trkpt>
      <trkpt lat="45.02724" lon="5.52952">
        <ele>1154</ele>
        <time>2020-06-17T20:24:53Z</time>
      </trkpt>
      <trkpt lat="45.02729" lon="5.52932">
        <ele>1151</ele>
        <time>2020-06-17T20:24:56Z</time>
      </trkpt>
      <trkpt lat="45.0274" lon="5.52923">
        <ele>1147</ele>
        <time>2020-06-17T20:24:59Z</time>
      </trkpt>
      <trkpt lat="45.02758" lon="5.52918">
        <ele>1143</ele>
        <time>2020-06-17T20:25:04Z</time>
      </trkpt>
      <trkpt lat="45.02774" lon="5.52904">
        <ele>1140</ele>
        <time>2020-06-17T20:25:08Z</time>
      </trkpt>
      <trkpt lat="45.02779" lon="5.52904">
        <ele>1139</ele>
        <time>2020-06-17T20:25:09Z</time>
      </trkpt>
      <trkpt lat="45.02798" lon="5.52917">
        <ele>1137</ele>
        <time>2020-06-17T20:25:14Z</time>
      </trkpt>
      <trkpt lat="45.02883" lon="5.53004">
        <ele>1127</ele>
        <time>2020-06-17T20:25:39Z</time>
      </trkpt>
      <trkpt lat="45.02908" lon="5.53022">
        <ele>1123</ele>
        <time>2020-06-17T20:25:45Z</time>
      </trkpt>
      <trkpt lat="45.02917" lon="5.53026">
        <ele>1122</ele>
        <time>2020-06-17T20:25:47Z</time>
      </trkpt>
      <trkpt lat="45.02926" lon="5.53029">
        <ele>1122</ele>
        <time>2020-06-17T20:25:50Z</time>
      </trkpt>
      <trkpt lat="45.02954" lon="5.53032">
        <ele>1120</ele>
        <time>2020-06-17T20:25:56Z</time>
      </trkpt>
      <trkpt lat="45.02971" lon="5.5303">
        <ele>1119</ele>
        <time>2020-06-17T20:26:00Z</time>
      </trkpt>
      <trkpt lat="45.03017" lon="5.53016">
        <ele>1114</ele>
        <time>2020-06-17T20:26:11Z</time>
      </trkpt>
      <trkpt lat="45.03026" lon="5.53016">
        <ele>1113</ele>
        <time>2020-06-17T20:26:13Z</time>
      </trkpt>
      <trkpt lat="45.03043" lon="5.53019">
        <ele>1113</ele>
        <time>2020-06-17T20:26:17Z</time>
      </trkpt>
      <trkpt lat="45.03092" lon="5.53034">
        <ele>1112</ele>
        <time>2020-06-17T20:26:29Z</time>
      </trkpt>
      <trkpt lat="45.03109" lon="5.53033">
        <ele>1110</ele>
        <time>2020-06-17T20:26:33Z</time>
      </trkpt>
      <trkpt lat="45.03141" lon="5.53026">
        <ele>1106</ele>
        <time>2020-06-17T20:26:40Z</time>
      </trkpt>
      <trkpt lat="45.03149" lon="5.53027">
        <ele>1106</ele>
        <time>2020-06-17T20:26:42Z</time>
      </trkpt>
      <trkpt lat="45.03205" lon="5.53045">
        <ele>1102</ele>
        <time>2020-06-17T20:26:56Z</time>
      </trkpt>
      <trkpt lat="45.03241" lon="5.5307">
        <ele>1099</ele>
        <time>2020-06-17T20:27:05Z</time>
      </trkpt>
      <trkpt lat="45.03255" lon="5.53084">
        <ele>1098</ele>
        <time>2020-06-17T20:27:09Z</time>
      </trkpt>
      <trkpt lat="45.03266" lon="5.53101">
        <ele>1098</ele>
        <time>2020-06-17T20:27:13Z</time>
      </trkpt>
      <trkpt lat="45.03278" lon="5.53127">
        <ele>1098</ele>
        <time>2020-06-17T20:27:18Z</time>
      </trkpt>
      <trkpt lat="45.03294" lon="5.53144">
        <ele>1098</ele>
        <time>2020-06-17T20:27:23Z</time>
      </trkpt>
      <trkpt lat="45.03307" lon="5.53143">
        <ele>1097</ele>
        <time>2020-06-17T20:27:26Z</time>
      </trkpt>
      <trkpt lat="45.03325" lon="5.53128">
        <ele>1095</ele>
        <time>2020-06-17T20:27:31Z</time>
      </trkpt>
      <trkpt lat="45.03331" lon="5.53125">
        <ele>1095</ele>
        <time>2020-06-17T20:27:32Z</time>
      </trkpt>
      <trkpt lat="45.03342" lon="5.53124">
        <ele>1094</ele>
        <time>2020-06-17T20:27:35Z</time>
      </trkpt>
      <trkpt lat="45.03348" lon="5.5313">
        <ele>1094</ele>
        <time>2020-06-17T20:27:36Z</time>
      </trkpt>
      <trkpt lat="45.03351" lon="5.53139">
        <ele>1095</ele>
        <time>2020-06-17T20:27:38Z</time>
      </trkpt>
      <trkpt lat="45.03364" lon="5.532">
        <ele>1096</ele>
        <time>2020-06-17T20:27:48Z</time>
      </trkpt>
      <trkpt lat="45.03377" lon="5.53235">
        <ele>1097</ele>
        <time>2020-06-17T20:27:55Z</time>
      </trkpt>
      <trkpt lat="45.03398" lon="5.53273">
        <ele>1096</ele>
        <time>2020-06-17T20:28:03Z</time>
      </trkpt>
      <trkpt lat="45.03412" lon="5.53291">
        <ele>1095</ele>
        <time>2020-06-17T20:28:07Z</time>
      </trkpt>
      <trkpt lat="45.03432" lon="5.53311">
        <ele>1094</ele>
        <time>2020-06-17T20:28:13Z</time>
      </trkpt>
      <trkpt lat="45.03476" lon="5.53346">
        <ele>1095</ele>
        <time>2020-06-17T20:28:25Z</time>
      </trkpt>
      <trkpt lat="45.03495" lon="5.53356">
        <ele>1096</ele>
        <time>2020-06-17T20:28:30Z</time>
      </trkpt>
      <trkpt lat="45.03608" lon="5.53385">
        <ele>1097</ele>
        <time>2020-06-17T20:28:56Z</time>
      </trkpt>
      <trkpt lat="45.03627" lon="5.53394">
        <ele>1097</ele>
        <time>2020-06-17T20:29:01Z</time>
      </trkpt>
      <trkpt lat="45.03644" lon="5.5341">
        <ele>1096</ele>
        <time>2020-06-17T20:29:06Z</time>
      </trkpt>
      <trkpt lat="45.03658" lon="5.53427">
        <ele>1096</ele>
        <time>2020-06-17T20:29:10Z</time>
      </trkpt>
      <trkpt lat="45.03689" lon="5.53478">
        <ele>1101</ele>
        <time>2020-06-17T20:29:21Z</time>
      </trkpt>
      <trkpt lat="45.03709" lon="5.53505">
        <ele>1099</ele>
        <time>2020-06-17T20:29:28Z</time>
      </trkpt>
      <trkpt lat="45.0379" lon="5.53579">
        <ele>1095</ele>
        <time>2020-06-17T20:29:50Z</time>
      </trkpt>
      <trkpt lat="45.03847" lon="5.53645">
        <ele>1094</ele>
        <time>2020-06-17T20:30:07Z</time>
      </trkpt>
      <trkpt lat="45.03873" lon="5.5367">
        <ele>1093</ele>
        <time>2020-06-17T20:30:15Z</time>
      </trkpt>
      <trkpt lat="45.03893" lon="5.53695">
        <ele>1095</ele>
        <time>2020-06-17T20:30:21Z</time>
      </trkpt>
      <trkpt lat="45.03936" lon="5.53733">
        <ele>1096</ele>
        <time>2020-06-17T20:30:33Z</time>
      </trkpt>
      <trkpt lat="45.03959" lon="5.53767">
        <ele>1097</ele>
        <time>2020-06-17T20:30:41Z</time>
      </trkpt>
      <trkpt lat="45.03977" lon="5.53787">
        <ele>1098</ele>
        <time>2020-06-17T20:30:46Z</time>
      </trkpt>
      <trkpt lat="45.03986" lon="5.53801">
        <ele>1100</ele>
        <time>2020-06-17T20:30:49Z</time>
      </trkpt>
      <trkpt lat="45.04011" lon="5.53817">
        <ele>1099</ele>
        <time>2020-06-17T20:30:56Z</time>
      </trkpt>
      <trkpt lat="45.04041" lon="5.53844">
        <ele>1099</ele>
        <time>2020-06-17T20:31:04Z</time>
      </trkpt>
      <trkpt lat="45.04068" lon="5.53859">
        <ele>1096</ele>
        <time>2020-06-17T20:31:11Z</time>
      </trkpt>
      <trkpt lat="45.04089" lon="5.53879">
        <ele>1094</ele>
        <time>2020-06-17T20:31:17Z</time>
      </trkpt>
      <trkpt lat="45.04103" lon="5.53917">
        <ele>1095</ele>
        <time>2020-06-17T20:31:24Z</time>
      </trkpt>
      <trkpt lat="45.04117" lon="5.53979">
        <ele>1094</ele>
        <time>2020-06-17T20:31:34Z</time>
      </trkpt>
      <trkpt lat="45.0413" lon="5.54001">
        <ele>1093</ele>
        <time>2020-06-17T20:31:39Z</time>
      </trkpt>
      <trkpt lat="45.04138" lon="5.54024">
        <ele>1092</ele>
        <time>2020-06-17T20:31:43Z</time>
      </trkpt>
      <trkpt lat="45.04144" lon="5.54068">
        <ele>1090</ele>
        <time>2020-06-17T20:31:51Z</time>
      </trkpt>
      <trkpt lat="45.04146" lon="5.54141">
        <ele>1093</ele>
        <time>2020-06-17T20:32:03Z</time>
      </trkpt>
      <trkpt lat="45.04156" lon="5.54165">
        <ele>1092</ele>
        <time>2020-06-17T20:32:07Z</time>
      </trkpt>
      <trkpt lat="45.04169" lon="5.5418">
        <ele>1091</ele>
        <time>2020-06-17T20:32:11Z</time>
      </trkpt>
      <trkpt lat="45.04188" lon="5.54194">
        <ele>1089</ele>
        <time>2020-06-17T20:32:16Z</time>
      </trkpt>
      <trkpt lat="45.042" lon="5.54209">
        <ele>1088</ele>
        <time>2020-06-17T20:32:20Z</time>
      </trkpt>
      <trkpt lat="45.04202" lon="5.54215">
        <ele>1088</ele>
        <time>2020-06-17T20:32:21Z</time>
      </trkpt>
      <trkpt lat="45.04203" lon="5.54233">
        <ele>1090</ele>
        <time>2020-06-17T20:32:24Z</time>
      </trkpt>
      <trkpt lat="45.04225" lon="5.54338">
        <ele>1099</ele>
        <time>2020-06-17T20:32:42Z</time>
      </trkpt>
      <trkpt lat="45.04234" lon="5.54417">
        <ele>1110</ele>
        <time>2020-06-17T20:32:55Z</time>
      </trkpt>
      <trkpt lat="45.04252" lon="5.5445">
        <ele>1110</ele>
        <time>2020-06-17T20:33:02Z</time>
      </trkpt>
      <trkpt lat="45.04257" lon="5.5449">
        <ele>1113</ele>
        <time>2020-06-17T20:33:09Z</time>
      </trkpt>
      <trkpt lat="45.04269" lon="5.54532">
        <ele>1110</ele>
        <time>2020-06-17T20:33:16Z</time>
      </trkpt>
      <trkpt lat="45.04278" lon="5.54547">
        <ele>1107</ele>
        <time>2020-06-17T20:33:20Z</time>
      </trkpt>
      <trkpt lat="45.04284" lon="5.54591">
        <ele>1105</ele>
        <time>2020-06-17T20:33:27Z</time>
      </trkpt>
      <trkpt lat="45.04285" lon="5.54631">
        <ele>1106</ele>
        <time>2020-06-17T20:33:34Z</time>
      </trkpt>
      <trkpt lat="45.0429" lon="5.54647">
        <ele>1105</ele>
        <time>2020-06-17T20:33:37Z</time>
      </trkpt>
      <trkpt lat="45.04299" lon="5.54656">
        <ele>1104</ele>
        <time>2020-06-17T20:33:39Z</time>
      </trkpt>
      <trkpt lat="45.04314" lon="5.5468">
        <ele>1104</ele>
        <time>2020-06-17T20:33:44Z</time>
      </trkpt>
      <trkpt lat="45.04325" lon="5.54683">
        <ele>1103</ele>
        <time>2020-06-17T20:33:47Z</time>
      </trkpt>
      <trkpt lat="45.04338" lon="5.54678">
        <ele>1100</ele>
        <time>2020-06-17T20:33:50Z</time>
      </trkpt>
      <trkpt lat="45.04347" lon="5.54683">
        <ele>1100</ele>
        <time>2020-06-17T20:33:52Z</time>
      </trkpt>
      <trkpt lat="45.04351" lon="5.54687">
        <ele>1100</ele>
        <time>2020-06-17T20:33:54Z</time>
      </trkpt>
      <trkpt lat="45.04363" lon="5.54715">
        <ele>1104</ele>
        <time>2020-06-17T20:33:59Z</time>
      </trkpt>
      <trkpt lat="45.04369" lon="5.5474">
        <ele>1107</ele>
        <time>2020-06-17T20:34:03Z</time>
      </trkpt>
      <trkpt lat="45.04374" lon="5.5478">
        <ele>1112</ele>
        <time>2020-06-17T20:34:10Z</time>
      </trkpt>
      <trkpt lat="45.04374" lon="5.54803">
        <ele>1115</ele>
        <time>2020-06-17T20:34:14Z</time>
      </trkpt>
      <trkpt lat="45.04371" lon="5.54812">
        <ele>1117</ele>
        <time>2020-06-17T20:34:15Z</time>
      </trkpt>
      <trkpt lat="45.0436" lon="5.54824">
        <ele>1121</ele>
        <time>2020-06-17T20:34:19Z</time>
      </trkpt>
      <trkpt lat="45.04333" lon="5.54825">
        <ele>1127</ele>
        <time>2020-06-17T20:34:25Z</time>
      </trkpt>
      <trkpt lat="45.04324" lon="5.54828">
        <ele>1128</ele>
        <time>2020-06-17T20:34:27Z</time>
      </trkpt>
      <trkpt lat="45.04311" lon="5.54839">
        <ele>1130</ele>
        <time>2020-06-17T20:34:31Z</time>
      </trkpt>
      <trkpt lat="45.04301" lon="5.54855">
        <ele>1130</ele>
        <time>2020-06-17T20:34:34Z</time>
      </trkpt>
      <trkpt lat="45.04296" lon="5.54872">
        <ele>1130</ele>
        <time>2020-06-17T20:34:37Z</time>
      </trkpt>
      <trkpt lat="45.04284" lon="5.54895">
        <ele>1131</ele>
        <time>2020-06-17T20:34:42Z</time>
      </trkpt>
      <trkpt lat="45.04272" lon="5.54928">
        <ele>1132</ele>
        <time>2020-06-17T20:34:48Z</time>
      </trkpt>
      <trkpt lat="45.04257" lon="5.54954">
        <ele>1132</ele>
        <time>2020-06-17T20:34:54Z</time>
      </trkpt>
      <trkpt lat="45.04236" lon="5.54978">
        <ele>1134</ele>
        <time>2020-06-17T20:35:00Z</time>
      </trkpt>
      <trkpt lat="45.04205" lon="5.54999">
        <ele>1140</ele>
        <time>2020-06-17T20:35:08Z</time>
      </trkpt>
      <trkpt lat="45.04164" lon="5.55033">
        <ele>1148</ele>
        <time>2020-06-17T20:35:19Z</time>
      </trkpt>
      <trkpt lat="45.04154" lon="5.55037">
        <ele>1151</ele>
        <time>2020-06-17T20:35:22Z</time>
      </trkpt>
      <trkpt lat="45.04138" lon="5.55057">
        <ele>1155</ele>
        <time>2020-06-17T20:35:26Z</time>
      </trkpt>
      <trkpt lat="45.04132" lon="5.55075">
        <ele>1156</ele>
        <time>2020-06-17T20:35:30Z</time>
      </trkpt>
      <trkpt lat="45.04144" lon="5.55122">
        <ele>1153</ele>
        <time>2020-06-17T20:35:38Z</time>
      </trkpt>
      <trkpt lat="45.04143" lon="5.55138">
        <ele>1154</ele>
        <time>2020-06-17T20:35:41Z</time>
      </trkpt>
      <trkpt lat="45.04133" lon="5.55168">
        <ele>1159</ele>
        <time>2020-06-17T20:35:46Z</time>
      </trkpt>
      <trkpt lat="45.04131" lon="5.55183">
        <ele>1162</ele>
        <time>2020-06-17T20:35:49Z</time>
      </trkpt>
      <trkpt lat="45.04133" lon="5.552">
        <ele>1164</ele>
        <time>2020-06-17T20:35:52Z</time>
      </trkpt>
      <trkpt lat="45.04142" lon="5.55216">
        <ele>1164</ele>
        <time>2020-06-17T20:35:55Z</time>
      </trkpt>
      <trkpt lat="45.04149" lon="5.55236">
        <ele>1166</ele>
        <time>2020-06-17T20:35:59Z</time>
      </trkpt>
      <trkpt lat="45.04172" lon="5.55262">
        <ele>1165</ele>
        <time>2020-06-17T20:36:05Z</time>
      </trkpt>
      <trkpt lat="45.04222" lon="5.55372">
        <ele>1165</ele>
        <time>2020-06-17T20:36:27Z</time>
      </trkpt>
      <trkpt lat="45.04247" lon="5.55398">
        <ele>1162</ele>
        <time>2020-06-17T20:36:34Z</time>
      </trkpt>
      <trkpt lat="45.04266" lon="5.55434">
        <ele>1159</ele>
        <time>2020-06-17T20:36:42Z</time>
      </trkpt>
      <trkpt lat="45.04267" lon="5.55441">
        <ele>1159</ele>
        <time>2020-06-17T20:36:43Z</time>
      </trkpt>
      <trkpt lat="45.04259" lon="5.55479">
        <ele>1163</ele>
        <time>2020-06-17T20:36:49Z</time>
      </trkpt>
      <trkpt lat="45.04254" lon="5.55495">
        <ele>1165</ele>
        <time>2020-06-17T20:36:52Z</time>
      </trkpt>
      <trkpt lat="45.04246" lon="5.5551">
        <ele>1168</ele>
        <time>2020-06-17T20:36:55Z</time>
      </trkpt>
      <trkpt lat="45.0425" lon="5.55516">
        <ele>1167</ele>
        <time>2020-06-17T20:36:57Z</time>
      </trkpt>
      <trkpt lat="45.04247" lon="5.55531">
        <ele>1169</ele>
        <time>2020-06-17T20:36:59Z</time>
      </trkpt>
      <trkpt lat="45.04245" lon="5.55577">
        <ele>1173</ele>
        <time>2020-06-17T20:37:07Z</time>
      </trkpt>
      <trkpt lat="45.04235" lon="5.55616">
        <ele>1178</ele>
        <time>2020-06-17T20:37:14Z</time>
      </trkpt>
      <trkpt lat="45.04235" lon="5.55625">
        <ele>1178</ele>
        <time>2020-06-17T20:37:15Z</time>
      </trkpt>
      <trkpt lat="45.04276" lon="5.55765">
        <ele>1182</ele>
        <time>2020-06-17T20:37:40Z</time>
      </trkpt>
      <trkpt lat="45.04279" lon="5.55772">
        <ele>1182</ele>
        <time>2020-06-17T20:37:42Z</time>
      </trkpt>
      <trkpt lat="45.04302" lon="5.55777">
        <ele>1178</ele>
        <time>2020-06-17T20:37:47Z</time>
      </trkpt>
      <trkpt lat="45.04308" lon="5.5578">
        <ele>1177</ele>
        <time>2020-06-17T20:37:49Z</time>
      </trkpt>
      <trkpt lat="45.04316" lon="5.5579">
        <ele>1176</ele>
        <time>2020-06-17T20:37:51Z</time>
      </trkpt>
      <trkpt lat="45.04328" lon="5.55821">
        <ele>1176</ele>
        <time>2020-06-17T20:37:57Z</time>
      </trkpt>
      <trkpt lat="45.04335" lon="5.55854">
        <ele>1176</ele>
        <time>2020-06-17T20:38:03Z</time>
      </trkpt>
      <trkpt lat="45.04347" lon="5.55891">
        <ele>1174</ele>
        <time>2020-06-17T20:38:09Z</time>
      </trkpt>
      <trkpt lat="45.04397" lon="5.55995">
        <ele>1167</ele>
        <time>2020-06-17T20:38:30Z</time>
      </trkpt>
      <trkpt lat="45.04421" lon="5.56024">
        <ele>1166</ele>
        <time>2020-06-17T20:38:37Z</time>
      </trkpt>
      <trkpt lat="45.04427" lon="5.56026">
        <ele>1166</ele>
        <time>2020-06-17T20:38:39Z</time>
      </trkpt>
      <trkpt lat="45.04468" lon="5.56016">
        <ele>1163</ele>
        <time>2020-06-17T20:38:49Z</time>
      </trkpt>
      <trkpt lat="45.04482" lon="5.56017">
        <ele>1162</ele>
        <time>2020-06-17T20:38:52Z</time>
      </trkpt>
      <trkpt lat="45.0451" lon="5.56034">
        <ele>1166</ele>
        <time>2020-06-17T20:38:59Z</time>
      </trkpt>
      <trkpt lat="45.04531" lon="5.56054">
        <ele>1172</ele>
        <time>2020-06-17T20:39:05Z</time>
      </trkpt>
      <trkpt lat="45.04543" lon="5.56059">
        <ele>1174</ele>
        <time>2020-06-17T20:39:08Z</time>
      </trkpt>
      <trkpt lat="45.04558" lon="5.56045">
        <ele>1174</ele>
        <time>2020-06-17T20:39:12Z</time>
      </trkpt>
      <trkpt lat="45.04576" lon="5.56035">
        <ele>1174</ele>
        <time>2020-06-17T20:39:16Z</time>
      </trkpt>
      <trkpt lat="45.04591" lon="5.56015">
        <ele>1173</ele>
        <time>2020-06-17T20:39:21Z</time>
      </trkpt>
      <trkpt lat="45.04609" lon="5.55977">
        <ele>1170</ele>
        <time>2020-06-17T20:39:29Z</time>
      </trkpt>
      <trkpt lat="45.04615" lon="5.5597">
        <ele>1170</ele>
        <time>2020-06-17T20:39:31Z</time>
      </trkpt>
      <trkpt lat="45.04621" lon="5.55967">
        <ele>1171</ele>
        <time>2020-06-17T20:39:32Z</time>
      </trkpt>
    </trkseg>
  </trk>
</gpx>